# Wetter Temperatur Luftdruck Luftfeuchtigkeit Sichtweite Windgeschwindigkeit Windrichtung Zeit
1 Clouds 14 1018 70 10000 3.58 360 12:36 22.04.2021
2 Clouds 13 1018 71 10000 2.68 264 12:18 22.04.2021
3 Clouds 12 1018 72 10000 2.68 257 11:40 22.04.2021
4 Clouds 12 1018 75 10000 3.13 238 11:19 22.04.2021
5 Clouds 11 1018 75 10000 1.34 255 10:40 22.04.2021
6 Clouds 10 1018 77 10000 2.24 262 10:19 22.04.2021
7 Clouds 9 1019 78 10000 0.89 346 09:36 22.04.2021
8 Clouds 8 1019 80 10000 1.52 356 08:55 22.04.2021
9 Clouds 8 1018 80 10000 1.52 356 08:36 22.04.2021
10 Clouds 7 1018 79 10000 1.09 10 08:18 22.04.2021
11 Clouds 6 1018 78 10000 1.05 3 07:31 22.04.2021
12 Clouds 5 1018 83 10000 0.65 62 06:57 22.04.2021
13 Clouds 6 1018 77 10000 0.56 92 06:19 22.04.2021
14 Clouds 6 1019 76 10000 0.94 115 05:23 22.04.2021
15 Clouds 7 1018 74 10000 1.27 127 02:29 22.04.2021
16 Clouds 8 1018 67 10000 0.45 173 00:25 22.04.2021
17 Clouds 7 1016 70 10000 1.79 197 23:41 21.04.2021
18 Clouds 6 1017 72 10000 1.73 129 23:21 21.04.2021
19 Clouds 9 1016 50 7000 3.6 250 22:41 21.04.2021
20 Clouds 9 1016 50 7000 3.6 250 22:21 21.04.2021
21 Clouds 10 1016 50 7000 3.09 270 21:42 21.04.2021
22 Clouds 11 1016 51 7000 2.57 270 21:23 21.04.2021
23 Clear 13 1015 41 10000 2.06 350 20:38 21.04.2021
24 Clear 13 1015 41 10000 2.06 350 20:18 21.04.2021
25 Clear 17 1014 44 10000 3.6 280 19:38 21.04.2021
26 Clear 17 1015 34 10000 3.09 280 19:20 21.04.2021
27 Clear 18 1014 34 10000 3.6 290 18:44 21.04.2021
28 Clouds 17 1015 36 10000 1.79 311 18:22 21.04.2021
29 Clouds 18 1014 40 10000 1.34 315 17:46 21.04.2021
30 Clouds 18 1014 36 10000 5.66 290 17:24 21.04.2021
31 Clouds 16 1015 37 10000 2.68 27 16:42 21.04.2021
32 Clouds 16 1013 51 10000 0.89 74 15:56 21.04.2021
33 Clouds 16 1015 47 10000 1.41 7 15:37 21.04.2021
34 Clouds 17 1015 32 10000 0.89 317 14:48 21.04.2021
35 Clouds 16 1015 35 10000 1.34 328 14:30 21.04.2021
36 Clouds 14 1015 36 10000 0.89 45 13:51 21.04.2021
37 Clouds 15 1016 58 10000 0.89 156 13:24 21.04.2021
38 Clouds 15 1013 54 10000 2.24 250 12:58 21.04.2021
39 Clear 15 1013 57 10000 2.24 250 12:29 21.04.2021
40 Clear 15 1013 57 10000 2.24 250 12:29 21.04.2021
41 Clear 14 1013 63 10000 2.24 245 11:49 21.04.2021
42 Clear 13 1013 61 10000 3.13 360 11:29 21.04.2021
43 Clear 13 1014 58 10000 0.45 209 10:48 21.04.2021
44 Clear 12 1014 61 10000 1.73 266 10:18 21.04.2021
45 Clear 10 1014 69 10000 1.73 266 09:42 21.04.2021
46 Clear 8 1014 73 10000 0.94 258 08:56 21.04.2021
47 Clear 7 1015 79 10000 0.94 258 08:37 21.04.2021
48 Clear 6 1014 76 10000 0.82 155 08:18 21.04.2021
49 Clear 4 1016 86 10000 0.78 156 07:31 21.04.2021
50 Clear 4 1014 78 10000 1.57 150 06:42 21.04.2021
51 Clear 4 1013 76 10000 1.65 132 04:54 21.04.2021
52 Clouds 7 1016 81 10000 1.97 139 00:53 21.04.2021
53 Clouds 8 1016 77 10000 0.45 67 23:50 20.04.2021
54 Clouds 8 1015 77 10000 2.26 116 23:24 20.04.2021
55 Clouds 8 1014 78 10000 2.24 126 22:41 20.04.2021
56 Clouds 8 1014 85 10000 2.19 116 22:19 20.04.2021
57 Clouds 9 1015 58 7000 3.09 280 21:47 20.04.2021
58 Clouds 9 1015 58 8000 2.06 330 21:25 20.04.2021
59 Clouds 13 1014 54 9000 1.54 360 20:43 20.04.2021
60 Clear 13 1014 44 10000 2.06 20 20:24 20.04.2021
61 Clear 14 1014 41 10000 1.54 0 19:55 20.04.2021
62 Clear 15 1014 51 10000 3.6 30 19:37 20.04.2021
63 Clouds 15 1013 55 10000 1.73 5 19:18 20.04.2021
64 Clouds 15 1014 39 10000 1.03 0 18:35 20.04.2021
65 Clouds 15 1014 39 10000 1.03 0 18:35 20.04.2021
66 Clouds 14 1012 55 10000 0.89 252 17:46 20.04.2021
67 Clouds 14 1012 57 10000 1.95 355 17:28 20.04.2021
68 Clouds 13 1012 58 10000 1.95 355 16:49 20.04.2021
69 Clouds 14 1013 59 10000 2.02 347 15:53 20.04.2021
70 Clouds 14 1013 65 10000 1.8 334 15:29 20.04.2021
71 Clouds 13 1013 64 10000 0.45 191 14:58 20.04.2021
72 Clouds 13 1014 66 10000 0.89 267 14:35 20.04.2021
73 Clouds 12 1014 69 10000 0.89 232 13:52 20.04.2021
74 Clouds 12 1014 72 10000 0.89 360 13:22 20.04.2021
75 Clouds 12 1015 74 10000 3.13 236 12:44 20.04.2021
76 Clouds 12 1015 72 10000 2.24 234 12:22 20.04.2021
77 Clouds 11 1015 73 10000 2.24 268 11:45 20.04.2021
78 Clouds 11 1015 74 10000 2.68 246 11:22 20.04.2021
79 Clouds 10 1016 77 10000 1.69 317 10:44 20.04.2021
80 Clouds 9 1016 80 10000 1.29 318 10:23 20.04.2021
81 Clouds 7 1016 90 10000 1.29 318 09:40 20.04.2021
82 Clouds 5 1016 91 10000 0.71 305 08:56 20.04.2021
83 Clouds 4 1016 92 10000 0.49 144 08:25 20.04.2021
84 Clouds 4 1016 89 10000 0.49 144 07:49 20.04.2021
85 Clouds 3 1016 90 10000 1.19 142 06:49 20.04.2021
86 Clouds 4 1016 91 10000 1.32 137 05:40 20.04.2021
87 Clouds 4 1016 88 10000 1.48 136 04:42 20.04.2021
88 Clouds 5 1017 84 10000 1.56 130 01:58 20.04.2021
89 Clouds 5 1019 92 10000 1.75 120 00:41 20.04.2021
90 Clouds 7 1016 91 10000 1.79 116 23:39 19.04.2021
91 Clouds 7 1017 90 10000 1.87 117 22:58 19.04.2021
92 Clouds 7 1017 89 10000 1.87 117 22:36 19.04.2021
93 Clouds 7 1017 85 10000 1.9 108 21:59 19.04.2021
94 Clouds 8 1019 86 10000 1.9 108 21:37 19.04.2021
95 Clouds 8 1016 81 10000 1.75 96 21:19 19.04.2021
96 Clouds 9 1019 78 10000 1.75 96 20:40 19.04.2021
97 Clouds 10 1017 81 10000 1.62 59 20:20 19.04.2021
98 Rain 10 1016 73 10000 1.72 43 19:43 19.04.2021
99 Clouds 10 1017 69 10000 2.05 13 19:24 19.04.2021
100 Clouds 11 1017 66 10000 2.05 13 18:47 19.04.2021
101 Clouds 11 1017 66 10000 2.05 13 18:47 19.04.2021
102 Clouds 10 1017 65 10000 2.67 8 18:24 19.04.2021
103 Clouds 11 1017 65 10000 2.68 8 17:56 19.04.2021
104 Clouds 11 1016 70 10000 0.45 201 17:30 19.04.2021
105 Clouds 11 1017 62 10000 0.45 323 16:59 19.04.2021
106 Clouds 11 1017 63 10000 2.65 5 16:40 19.04.2021
107 Clouds 11 1017 63 10000 2.18 5 16:21 19.04.2021
108 Clouds 10 1018 65 10000 2.18 5 15:40 19.04.2021
109 Clouds 10 1018 66 10000 1.57 350 15:20 19.04.2021
110 Clouds 9 1018 77 10000 1.57 350 14:38 19.04.2021
111 Clouds 8 1018 84 10000 1.84 324 14:19 19.04.2021
112 Clouds 9 1017 77 10000 1.84 324 13:44 19.04.2021
113 Clouds 9 1017 78 10000 2.39 313 13:24 19.04.2021
114 Rain 7 1017 80 10000 2.39 313 12:42 19.04.2021
115 Rain 7 1019 86 10000 2.42 303 12:23 19.04.2021
116 Clouds 7 1018 78 10000 2.42 303 11:54 19.04.2021
117 Rain 7 1019 78 10000 2.1 297 11:25 19.04.2021
118 Rain 7 1019 72 10000 2.1 297 10:46 19.04.2021
119 Rain 7 1018 77 10000 1.69 283 10:25 19.04.2021
120 Clouds 7 1018 74 10000 1.69 283 09:49 19.04.2021
121 Clouds 6 1019 75 10000 1.1 254 09:28 19.04.2021
122 Clouds 5 1019 83 10000 1.1 254 08:58 19.04.2021
123 Clouds 4 1018 79 10000 0.95 166 08:26 19.04.2021
124 Clouds 3 1018 80 10000 0.75 168 07:48 19.04.2021
125 Clouds 3 1018 78 10000 1.36 145 07:19 19.04.2021
126 Clouds 3 1018 84 10000 1.38 146 06:28 19.04.2021
127 Clouds 5 1018 75 10000 1.1 148 02:35 19.04.2021
128 Clouds 6 1019 82 10000 1.4 120 00:49 19.04.2021
129 Clouds 5 1019 86 10000 1.62 113 23:50 18.04.2021
130 Clouds 5 1019 81 10000 1.75 111 23:18 18.04.2021
131 Clouds 4 1019 82 10000 1.75 111 22:47 18.04.2021
132 Clouds 6 1019 81 10000 1.65 98 22:29 18.04.2021
133 Clouds 7 1020 73 10000 1.65 98 21:40 18.04.2021
134 Clouds 7 1020 72 10000 0.89 68 21:18 18.04.2021
135 Clouds 6 1020 57 10000 1.54 20 20:40 18.04.2021
136 Clouds 7 1018 74 10000 1.89 42 20:20 18.04.2021
137 Clouds 8 1020 57 10000 1.54 20 19:45 18.04.2021
138 Clouds 8 1018 70 10000 2.28 32 19:27 18.04.2021
139 Clouds 8 1018 71 10000 2.28 32 18:54 18.04.2021
140 Clouds 8 1018 72 10000 2.28 32 18:31 18.04.2021
141 Clouds 8 1018 69 10000 2.65 29 17:55 18.04.2021
142 Clouds 8 1017 69 10000 2.65 29 17:37 18.04.2021
143 Clouds 8 1018 61 10000 1.79 341 17:18 18.04.2021
144 Clouds 8 1017 67 10000 2.5 11 16:41 18.04.2021
145 Clouds 8 1017 67 10000 2.54 0 15:59 18.04.2021
146 Rain 9 1019 62 10000 3.58 338 15:38 18.04.2021
147 Clouds 8 1018 68 10000 2.63 2 15:18 18.04.2021
148 Clouds 7 1018 71 10000 2.63 2 14:41 18.04.2021
149 Clouds 7 1017 73 10000 3.07 5 14:19 18.04.2021
150 Clouds 7 1018 73 10000 3.07 5 13:50 18.04.2021
151 Clouds 7 1019 73 10000 3.07 5 13:30 18.04.2021
152 Clouds 7 1018 75 10000 2.77 14 12:39 18.04.2021
153 Clouds 7 1018 76 10000 2.25 24 12:20 18.04.2021
154 Clouds 6 1018 78 10000 0.45 229 11:41 18.04.2021
155 Clouds 6 1018 77 10000 1.79 250 11:20 18.04.2021
156 Clouds 6 1017 82 10000 1.34 226 10:45 18.04.2021
157 Clouds 5 1017 85 10000 1.79 252 10:19 18.04.2021
158 Clouds 5 1019 83 10000 2.07 14 09:41 18.04.2021
159 Clouds 5 1019 84 3832 1.82 16 09:23 18.04.2021
160 Clouds 5 1019 86 3832 1.82 16 08:48 18.04.2021
161 Clouds 5 1018 86 3057 0.82 45 08:29 18.04.2021
162 Rain 5 1018 85 3057 0.45 317 07:41 18.04.2021
163 Clouds 5 1018 84 10000 0.89 46 06:56 18.04.2021
164 Clouds 5 1017 79 10000 0.85 63 05:39 18.04.2021
165 Clouds 5 1017 79 10000 0.98 77 05:21 18.04.2021
166 Clear 5 1020 65 10000 5.66 360 02:24 18.04.2021
167 Clouds 5 1020 57 9000 5.14 10 01:31 18.04.2021
168 Clouds 5 1020 53 9000 4.63 10 00:29 18.04.2021
169 Clouds 6 1020 53 10000 3.6 20 23:30 17.04.2021
170 Clouds 6 1020 61 9000 1.54 330 22:49 17.04.2021
171 Clouds 6 1020 53 9000 1.54 330 22:30 17.04.2021
172 Clear 9 1020 49 10000 2.57 20 21:45 17.04.2021
173 Clouds 9 1020 46 7000 2.57 30 21:25 17.04.2021
174 Clouds 11 1020 43 9000 4.12 20 20:43 17.04.2021
175 Clouds 10 1018 56 10000 2.21 54 20:24 17.04.2021
176 Clear 9 1019 40 10000 3.6 40 19:43 17.04.2021
177 Rain 9 1017 57 10000 2.2 22 19:20 17.04.2021
178 Clouds 9 1017 57 10000 2.2 22 18:53 17.04.2021
179 Clouds 10 1018 49 10000 0.89 306 18:25 17.04.2021
180 Clouds 10 1018 49 10000 1.79 345 17:48 17.04.2021
181 Clouds 10 1018 50 10000 2.89 40 17:29 17.04.2021
182 Clouds 9 1017 53 10000 1.79 132 16:41 17.04.2021
183 Clouds 9 1017 54 10000 0.89 90 16:23 17.04.2021
184 Clouds 10 1018 55 10000 1.34 98 15:38 17.04.2021
185 Clouds 9 1018 58 10000 0.89 136 14:44 17.04.2021
186 Clouds 9 1018 56 10000 2.68 97 14:20 17.04.2021
187 Clouds 8 1019 57 10000 2.24 108 13:44 17.04.2021
188 Clouds 7 1019 59 10000 0.89 115 12:55 17.04.2021
189 Clouds 7 1019 58 10000 4 26 12:34 17.04.2021
190 Clouds 7 1019 63 10000 0.89 125 11:52 17.04.2021
191 Clouds 7 1019 64 10000 0.89 142 11:33 17.04.2021
192 Clouds 7 1019 64 10000 0.89 142 11:33 17.04.2021
193 Clouds 7 1021 63 10000 1.79 345 10:56 17.04.2021
194 Clouds 7 1020 63 10000 1.79 317 10:38 17.04.2021
195 Clouds 5 1021 74 10000 1.79 346 09:51 17.04.2021
196 Clouds 5 1021 74 10000 1.79 346 09:51 17.04.2021
197 Clouds 2 1020 81 10000 1.55 29 08:55 17.04.2021
198 Clouds 1 1020 87 10000 1.56 26 08:33 17.04.2021
199 Clouds 1 1020 87 10000 1.56 26 08:33 17.04.2021
200 Clouds 0 1021 85 10000 1.28 70 07:51 17.04.2021
201 Clear -1 1021 84 10000 0.45 28 06:34 17.04.2021
202 Clear -1 1020 86 10000 1.65 101 03:48 17.04.2021
203 Clear 0 1022 75 10000 0.89 202 01:35 17.04.2021
204 Clouds 1 1023 65 10000 4.63 10 00:40 17.04.2021
205 Clear 1 1020 83 10000 2.23 94 00:19 17.04.2021
206 Clear 2 1023 65 10000 3.6 360 23:35 16.04.2021
207 Clouds 2 1024 65 9000 3.6 10 22:52 16.04.2021
208 Clouds 2 1024 65 10000 3.6 360 22:25 16.04.2021
209 Clouds 2 1023 65 10000 3.6 360 21:58 16.04.2021
210 Clouds 2 1023 65 10000 3.6 360 21:40 16.04.2021
211 Clouds 4 1022 66 10000 3.58 32 21:21 16.04.2021
212 Clear 4 1023 52 10000 5.14 10 20:45 16.04.2021
213 Clouds 5 1020 60 10000 0.45 113 20:18 16.04.2021
214 Clear 5 1022 53 10000 8.23 10 19:47 16.04.2021
215 Clouds 7 1020 53 10000 1.34 54 19:21 16.04.2021
216 Clouds 8 1019 48 10000 0.89 90 18:28 16.04.2021
217 Clouds 9 1019 50 10000 2.68 110 17:53 16.04.2021
218 Clouds 9 1019 49 10000 2.24 77 17:20 16.04.2021
219 Clouds 9 1019 47 10000 0.89 117 16:57 16.04.2021
220 Clouds 9 1019 45 10000 1.34 118 16:38 16.04.2021
221 Clouds 9 1019 42 10000 2.24 130 16:20 16.04.2021
222 Clouds 8 1020 51 10000 1.79 116 15:39 16.04.2021
223 Clouds 9 1020 41 10000 1.79 85 14:56 16.04.2021
224 Clouds 8 1020 48 10000 1.79 107 14:37 16.04.2021
225 Clouds 9 1020 47 10000 0.45 136 13:58 16.04.2021
226 Clouds 9 1020 51 10000 3.13 86 13:36 16.04.2021
227 Clouds 8 1020 48 10000 1.34 67 13:18 16.04.2021
228 Clouds 8 1021 45 10000 1.79 2 12:43 16.04.2021
229 Clouds 7 1021 50 10000 0.89 109 12:21 16.04.2021
230 Clouds 7 1024 53 10000 4.47 37 11:43 16.04.2021
231 Clouds 7 1024 53 10000 4.47 37 11:43 16.04.2021
232 Clouds 6 1022 52 10000 1.79 349 11:23 16.04.2021
233 Clouds 6 1022 56 10000 2.24 2 10:43 16.04.2021
234 Clouds 5 1021 66 10000 0.89 45 10:23 16.04.2021
235 Clouds 4 1022 66 10000 1.34 357 09:45 16.04.2021
236 Clouds 4 1022 66 10000 1.34 357 09:45 16.04.2021
237 Clouds 4 1022 69 10000 0.45 33 09:23 16.04.2021
238 Clouds 2 1022 79 10000 0.45 357 08:45 16.04.2021
239 Clouds 1 1022 81 10000 2.05 52 08:24 16.04.2021
240 Clouds -1 1022 81 10000 0.45 12 07:46 16.04.2021
241 Clouds -2 1021 76 10000 2.09 73 07:25 16.04.2021
242 Clouds -1 1021 75 10000 2.09 73 06:41 16.04.2021
243 Clouds 0 1024 78 10000 2.24 57 05:32 16.04.2021
244 Clear 1 1024 76 10000 4.02 58 03:59 16.04.2021
245 Clouds 1 1024 73 10000 2.24 39 00:47 16.04.2021
246 Clouds 2 1023 72 10000 0.45 23 00:22 16.04.2021
247 Clouds 1 1021 74 10000 2.51 73 23:58 15.04.2021
248 Clouds 2 1024 68 10000 3.13 42 23:34 15.04.2021
249 Clouds 2 1024 70 10000 0.45 73 22:51 15.04.2021
250 Clouds 2 1024 64 10000 4.02 26 22:26 15.04.2021
251 Clouds 4 1023 64 10000 0.45 23 21:56 15.04.2021
252 Clouds 2 1024 62 10000 2.68 14 21:37 15.04.2021
253 Clouds 3 1022 69 10000 2.99 71 21:19 15.04.2021
254 Clouds 4 1023 59 10000 4.02 36 20:38 15.04.2021
255 Clouds 5 1022 53 10000 3.03 42 20:20 15.04.2021
256 Clouds 6 1023 54 10000 5.81 27 19:42 15.04.2021
257 Clouds 6 1022 49 10000 0.89 95 19:23 15.04.2021
258 Clouds 6 1022 45 10000 3.81 37 18:41 15.04.2021
259 Clouds 8 1023 40 10000 0.89 59 18:20 15.04.2021
260 Clouds 8 1022 45 10000 0.45 140 17:54 15.04.2021
261 Clouds 8 1022 44 10000 4.3 34 17:36 15.04.2021
262 Clouds 8 1022 46 10000 0.45 125 16:47 15.04.2021
263 Clouds 8 1023 38 10000 3.61 43 16:25 15.04.2021
264 Clouds 8 1023 41 10000 2.68 23 15:59 15.04.2021
265 Clouds 8 1023 41 10000 2.24 340 15:40 15.04.2021
266 Clouds 8 1023 43 10000 3.58 7 15:22 15.04.2021
267 Clouds 8 1024 45 10000 2.24 49 14:38 15.04.2021
268 Clouds 8 1024 47 10000 1.34 349 14:20 15.04.2021
269 Clouds 7 1024 51 10000 4.92 357 13:41 15.04.2021
270 Clouds 7 1024 59 10000 4.92 334 13:18 15.04.2021
271 Clouds 7 1024 49 10000 0.45 338 12:39 15.04.2021
272 Clouds 7 1025 61 10000 4.02 24 12:20 15.04.2021
273 Clouds 6 1025 62 10000 4.47 329 11:44 15.04.2021
274 Clouds 6 1024 66 10000 3.56 22 11:23 15.04.2021
275 Clouds 6 1024 66 10000 3.56 22 11:22 15.04.2021
276 Clouds 6 1024 66 10000 3.56 22 11:22 15.04.2021
277 Clouds 5 1025 70 10000 3.56 22 10:49 15.04.2021
278 Clouds 5 1025 73 10000 2.87 24 10:27 15.04.2021
279 Clouds 3 1024 84 10000 2.24 360 09:46 15.04.2021
280 Clouds 2 1025 84 10000 0.45 326 09:18 15.04.2021
281 Clouds 1 1023 74 10000 2.18 24 08:42 15.04.2021
282 Clouds 0 1025 91 10000 1.56 47 07:52 15.04.2021
283 Clouds -1 1025 90 10000 1.69 75 07:24 15.04.2021
284 Clouds -1 1025 89 10000 1.69 75 06:39 15.04.2021
285 Clouds -1 1025 88 10000 1.7 72 06:20 15.04.2021
286 Clouds 0 1025 87 10000 1.71 67 04:51 15.04.2021
287 Clouds 1 1025 82 10000 1.44 95 01:24 15.04.2021
288 Clouds 3 1025 77 10000 1.66 97 23:42 14.04.2021
289 Clouds 3 1025 75 10000 2 96 23:22 14.04.2021
290 Clouds 2 1025 82 10000 2 96 22:46 14.04.2021
291 Clouds 2 1025 80 10000 2.08 86 22:25 14.04.2021
292 Clouds 2 1025 79 10000 2.08 86 21:49 14.04.2021
293 Clouds 3 1025 75 10000 0.45 71 21:31 14.04.2021
294 Clouds 4 1025 73 10000 0.89 55 20:56 14.04.2021
295 Clouds 5 1025 71 10000 0.89 7 20:34 14.04.2021
296 Clouds 5 1025 71 10000 0.89 7 20:34 14.04.2021
297 Clouds 5 1025 65 10000 2.66 31 19:54 14.04.2021
298 Clouds 5 1025 62 10000 1.34 340 19:21 14.04.2021
299 Rain 6 1024 58 10000 0.45 71 18:57 14.04.2021
300 Rain 6 1024 58 10000 0.89 115 18:36 14.04.2021
301 Clouds 6 1024 55 10000 4.15 16 18:18 14.04.2021
302 Clouds 7 1025 43 10000 4.94 11 17:28 14.04.2021
303 Clouds 7 1025 42 10000 0.45 35 16:58 14.04.2021
304 Clouds 8 1025 44 10000 1.34 17 16:29 14.04.2021
305 Clouds 8 1025 48 10000 1.34 26 15:47 14.04.2021
306 Clouds 9 1025 45 10000 0.89 338 15:28 14.04.2021
307 Clouds 9 1025 46 10000 3.13 325 14:56 14.04.2021
308 Clouds 9 1025 49 10000 4.02 344 14:38 14.04.2021
309 Clouds 9 1025 50 10000 3.13 7 14:19 14.04.2021
310 Clouds 9 1024 40 10000 0.89 138 13:45 14.04.2021
311 Clouds 8 1026 41 10000 0.89 357 12:43 14.04.2021
312 Clouds 8 1026 45 10000 0.45 331 12:18 14.04.2021
313 Clouds 8 1026 57 10000 1.79 348 11:41 14.04.2021
314 Clouds 8 1026 53 10000 2.68 340 11:22 14.04.2021
315 Clouds 6 1027 67 10000 2.24 319 10:34 14.04.2021
316 Clouds 3 1029 74 10000 2.24 45 09:43 14.04.2021
317 Clouds 3 1027 76 10000 0.45 343 09:25 14.04.2021
318 Clouds 1 1030 79 10000 0.45 46 08:52 14.04.2021
319 Clouds 0 1027 90 10000 1.71 48 08:29 14.04.2021
320 Clear 0 1026 81 10000 1.79 45 07:41 14.04.2021
321 Clear -1 1027 88 10000 1.84 76 06:35 14.04.2021
322 Clear -1 1027 87 10000 1.86 79 05:36 14.04.2021
323 Clear 0 1028 83 10000 0.89 11 02:31 14.04.2021
324 Clear 1 1028 72 10000 1.94 96 00:57 14.04.2021
325 Clear 0 1031 83 10000 1.94 96 00:32 14.04.2021
326 Clear 1 1029 82 10000 2.22 92 23:34 13.04.2021
327 Clear 2 1028 86 10000 2.22 97 22:45 13.04.2021
328 Clear 3 1029 79 10000 0.45 63 22:22 13.04.2021
329 Clear 2 1028 88 10000 2.11 94 21:49 13.04.2021
330 Clear 2 1028 85 10000 2.11 94 21:31 13.04.2021
331 Clear 3 1031 71 10000 0.45 60 20:52 13.04.2021
332 Clouds 5 1028 73 10000 2.21 38 20:26 13.04.2021
333 Clouds 5 1028 72 10000 2.21 38 19:59 13.04.2021
334 Clouds 6 1028 72 10000 3.09 22 19:26 13.04.2021
335 Clouds 6 1028 69 10000 3.09 22 18:58 13.04.2021
336 Clouds 6 1027 81 10000 3.09 22 18:32 13.04.2021
337 Clouds 6 1027 65 10000 4.02 22 17:44 13.04.2021
338 Clouds 6 1030 58 10000 0.89 42 17:22 13.04.2021
339 Clouds 5 1027 65 10000 5.81 45 16:55 13.04.2021
340 Clouds 6 1027 65 10000 5.81 45 16:37 13.04.2021
341 Rain 7 1028 65 10000 6.71 22 16:18 13.04.2021
342 Clouds 6 1028 72 10000 0.89 45 15:39 13.04.2021
343 Clouds 6 1027 73 10000 2.24 310 14:59 13.04.2021
344 Clouds 4 1027 76 10000 0.89 244 14:37 13.04.2021
345 Clouds 5 1029 83 10000 1.79 53 14:18 13.04.2021
346 Clouds 7 1028 57 10000 2.24 45 13:40 13.04.2021
347 Rain 6 1028 78 7019 1.34 136 13:20 13.04.2021
348 Clouds 6 1029 68 7019 1.79 45 12:49 13.04.2021
349 Clouds 6 1028 72 10000 0.89 123 12:23 13.04.2021
350 Clouds 6 1029 70 10000 0.89 315 11:40 13.04.2021
351 Clouds 6 1029 72 10000 2.87 343 11:18 13.04.2021
352 Clouds 5 1029 72 10000 1.34 290 10:41 13.04.2021
353 Clouds 5 1029 75 10000 0.89 335 10:20 13.04.2021
354 Clouds 4 1029 78 10000 2.28 349 09:52 13.04.2021
355 Clouds 3 1029 83 10000 0.89 321 09:26 13.04.2021
356 Clouds 2 1029 85 10000 1.3 350 08:49 13.04.2021
357 Clouds 1 1029 86 10000 0.53 82 08:24 13.04.2021
358 Clouds 0 1029 87 10000 0.53 82 07:51 13.04.2021
359 Clouds 1 1028 87 10000 1.36 121 07:29 13.04.2021
360 Clouds 1 1031 89 10000 1.42 128 06:27 13.04.2021
361 Clear 0 1029 86 10000 1.59 138 03:44 13.04.2021
362 Clear 0 1030 85 10000 1.62 125 01:35 13.04.2021
363 Clear 0 1030 85 10000 1.62 125 01:35 13.04.2021
364 Clear 1 1027 83 10000 1.85 123 23:55 12.04.2021
365 Clear 2 1027 83 10000 1.85 123 23:33 12.04.2021
366 Clear 2 1027 83 10000 1.82 120 22:55 12.04.2021
367 Clear 3 1027 83 10000 1.82 120 22:36 12.04.2021
368 Clear 3 1027 82 10000 1.8 116 21:55 12.04.2021
369 Clear 5 1028 52 10000 2.57 280 21:36 12.04.2021
370 Clear 2 1025 90 10000 1.72 107 21:18 12.04.2021
371 Clear 6 1028 45 10000 2.06 330 20:36 12.04.2021
372 Clouds 4 1027 71 10000 1.79 134 20:18 12.04.2021
373 Clouds 5 1027 61 10000 1.79 45 19:41 12.04.2021
374 Clouds 6 1026 66 10000 2.06 351 19:21 12.04.2021
375 Clouds 7 1026 64 10000 2.06 351 18:52 12.04.2021
376 Clouds 7 1026 63 10000 2.06 351 18:34 12.04.2021
377 Clouds 7 1027 49 10000 1.77 351 17:59 12.04.2021
378 Clouds 6 1026 63 10000 1.77 351 17:41 12.04.2021
379 Clouds 7 1027 52 10000 1.86 1 17:19 12.04.2021
380 Clouds 7 1026 51 10000 0.89 338 16:42 12.04.2021
381 Clouds 6 1026 69 10000 1.96 6 16:24 12.04.2021
382 Clouds 6 1026 56 10000 1.96 6 15:45 12.04.2021
383 Clouds 6 1025 66 10000 0.89 246 15:20 12.04.2021
384 Clouds 6 1025 74 10000 1.68 20 14:48 12.04.2021
385 Clouds 7 1026 61 10000 1.83 16 14:28 12.04.2021
386 Clouds 6 1026 63 10000 2.17 10 13:42 12.04.2021
387 Clouds 5 1025 75 10000 0.45 142 13:21 12.04.2021
388 Clouds 5 1026 77 10000 2.33 6 12:44 12.04.2021
389 Clouds 4 1026 80 10000 2.37 357 12:23 12.04.2021
390 Clouds 4 1026 83 10000 2.37 357 11:47 12.04.2021
391 Clouds 3 1026 94 10000 1.99 357 10:53 12.04.2021
392 Clouds 2 1025 95 10000 1.43 23 10:28 12.04.2021
393 Clouds 1 1025 95 10000 1.43 23 09:55 12.04.2021
394 Clouds 1 1025 95 10000 1.43 23 09:33 12.04.2021
395 Clouds 1 1024 95 2950 1.49 22 08:59 12.04.2021
396 Snow 1 1024 95 2886 1.8 1 08:27 12.04.2021
397 Snow 1 1023 94 2886 0.45 13 07:31 12.04.2021
398 Snow 1 1022 94 40 1.34 329 06:49 12.04.2021
399 Snow 1 1021 94 29 0.45 352 05:50 12.04.2021
400 Snow 2 1020 94 32 0.89 323 03:58 12.04.2021
401 Rain 5 1017 93 55 1.79 11 00:50 12.04.2021
402 Rain 6 1016 93 456 1.79 21 00:23 12.04.2021
403 Rain 7 1014 93 456 0.89 230 23:45 11.04.2021
404 Rain 8 1014 93 1863 3.58 321 23:23 11.04.2021
405 Rain 8 1012 94 1863 2.95 9 22:41 11.04.2021
406 Rain 9 1013 92 2331 0.45 193 22:22 11.04.2021
407 Rain 9 1011 94 2331 3 335 21:45 11.04.2021
408 Rain 10 1012 89 10000 2.05 272 21:27 11.04.2021
409 Rain 10 1012 89 10000 2.09 295 20:52 11.04.2021
410 Rain 10 1011 88 10000 2.78 225 20:28 11.04.2021
411 Rain 10 1011 87 10000 2.78 225 19:54 11.04.2021
412 Rain 11 1011 86 10000 2.78 225 19:36 11.04.2021
413 Rain 11 1011 85 10000 0.45 237 19:18 11.04.2021
414 Rain 11 1011 85 10000 0.45 237 19:18 11.04.2021
415 Rain 11 1010 81 10000 0.89 204 18:42 11.04.2021
416 Rain 12 1010 80 10000 2.97 207 18:23 11.04.2021
417 Rain 12 1009 76 10000 0.45 169 17:45 11.04.2021
418 Rain 13 1009 75 10000 2.24 204 17:26 11.04.2021
419 Rain 13 1011 69 10000 1.34 338 16:50 11.04.2021
420 Rain 15 1010 55 10000 6.17 250 16:23 11.04.2021
421 Clouds 14 1010 55 10000 5.14 240 15:54 11.04.2021
422 Clouds 16 1006 56 10000 3.13 262 15:27 11.04.2021
423 Clouds 16 1006 56 10000 3.13 262 15:27 11.04.2021
424 Clouds 16 1006 56 10000 3.13 262 15:27 11.04.2021
425 Clouds 17 1009 45 10000 5.66 250 14:59 11.04.2021
426 Clouds 17 1009 48 10000 4.63 240 14:41 11.04.2021
427 Clouds 18 1006 54 10000 0.89 264 13:52 11.04.2021
428 Clouds 19 1007 41 10000 0.89 152 13:31 11.04.2021
429 Clouds 18 1007 44 10000 0.45 201 12:54 11.04.2021
430 Clouds 16 1007 50 10000 0.89 215 12:22 11.04.2021
431 Clouds 16 1007 51 10000 0.45 193 11:52 11.04.2021
432 Clouds 16 1007 52 10000 2.66 218 11:27 11.04.2021
433 Clouds 15 1007 54 10000 2.66 218 10:50 11.04.2021
434 Clouds 15 1007 54 10000 2.66 218 10:31 11.04.2021
435 Clouds 13 1008 58 10000 1.34 223 09:59 11.04.2021
436 Clouds 13 1008 58 10000 1.34 223 09:59 11.04.2021
437 Clouds 13 1008 59 10000 0.89 204 09:37 11.04.2021
438 Clouds 13 1008 59 10000 0.89 168 09:19 11.04.2021
439 Clouds 10 1008 69 10000 1.43 227 08:30 11.04.2021
440 Clouds 10 1008 69 10000 1.58 170 08:30 11.04.2021
441 Clouds 11 1007 69 10000 1.94 157 07:24 11.04.2021
442 Clouds 11 1007 68 10000 1.94 157 06:56 11.04.2021
443 Clouds 10 1008 65 10000 2.34 169 05:44 11.04.2021
444 Clouds 10 1008 64 10000 2.45 178 05:21 11.04.2021
445 Clouds 11 1008 64 10000 2.45 178 04:35 11.04.2021
446 Clouds 11 1010 62 10000 2.08 180 02:56 11.04.2021
447 Clouds 13 1011 55 10000 2.43 162 00:40 11.04.2021
448 Clouds 13 1011 55 10000 2.43 162 00:40 11.04.2021
449 Clouds 14 1011 52 10000 2.24 169 23:51 10.04.2021
450 Clouds 14 1014 39 10000 1.79 112 23:27 10.04.2021
451 Clouds 12 1011 50 10000 1.75 163 22:45 10.04.2021
452 Clouds 13 1010 53 10000 1.34 222 22:24 10.04.2021
453 Clouds 15 1010 41 7000 1.54 150 21:51 10.04.2021
454 Clouds 15 1010 47 7000 2.06 200 21:23 10.04.2021
455 Clouds 15 1010 47 7000 1.54 200 20:48 10.04.2021
456 Clouds 15 1010 47 8000 3.09 190 20:29 10.04.2021
457 Clear 16 1010 41 10000 4.63 190 19:46 10.04.2021
458 Clear 15 1010 39 10000 5.66 190 19:27 10.04.2021
459 Clear 15 1010 39 10000 6.69 180 18:54 10.04.2021
460 Clear 17 1010 36 10000 6.17 180 18:35 10.04.2021
461 Clear 17 1010 36 10000 5.14 170 17:54 10.04.2021
462 Clear 17 1011 36 10000 6.17 180 17:34 10.04.2021
463 Clear 18 1011 34 10000 6.69 160 16:31 10.04.2021
464 Clouds 18 1015 32 10000 3.13 202 15:56 10.04.2021
465 Clouds 17 1015 32 10000 3.13 202 15:36 10.04.2021
466 Clouds 17 1010 45 10000 2.68 267 14:51 10.04.2021
467 Clear 17 1013 39 10000 1.03 0 14:28 10.04.2021
468 Clouds 17 1011 43 10000 2.24 248 13:49 10.04.2021
469 Clear 15 1014 41 10000 1.54 0 13:28 10.04.2021
470 Clouds 13 1015 43 10000 0.45 203 12:39 10.04.2021
471 Clear 13 1015 50 10000 2.57 170 12:18 10.04.2021
472 Clouds 12 1014 44 10000 2.68 150 11:44 10.04.2021
473 Clear 10 1015 71 10000 3.09 130 11:20 10.04.2021
474 Clouds 11 1014 60 10000 0.89 226 10:44 10.04.2021
475 Clouds 9 1015 76 9000 2.06 110 10:26 10.04.2021
476 Clouds 9 1014 73 10000 1.79 192 09:37 10.04.2021
477 Rain 9 1014 77 10000 0.89 200 09:18 10.04.2021
478 Rain 9 1015 76 10000 1.34 244 08:33 10.04.2021
479 Rain 9 1015 57 6000 6.17 230 07:55 10.04.2021
480 Rain 9 1015 57 7000 6.17 240 07:25 10.04.2021
481 Rain 10 1014 50 7000 6.69 240 06:27 10.04.2021
482 Clouds 9 1014 43 7000 7.2 220 04:49 10.04.2021
483 Clouds 13 1014 44 6000 6.69 210 03:36 10.04.2021
484 Clouds 14 1014 41 7000 6.69 210 02:42 10.04.2021
485 Clouds 8 1014 38 7000 3.09 250 01:27 10.04.2021
486 Clouds 10 1014 36 7000 4.63 230 00:31 10.04.2021
487 Clouds 9 1014 53 10000 0.89 220 23:51 09.04.2021
488 Clouds 11 1017 36 10000 0.45 22 23:30 09.04.2021
489 Clouds 7 1015 66 10000 2.1 154 22:53 09.04.2021
490 Clouds 10 1014 41 8000 1.03 0 22:34 09.04.2021
491 Clouds 11 1014 38 7000 2.06 210 21:40 09.04.2021
492 Clouds 11 1014 38 7000 2.06 210 21:21 09.04.2021
493 Clouds 12 1014 38 8000 2.06 240 20:46 09.04.2021
494 Clouds 13 1014 33 8000 3.09 230 20:24 09.04.2021
495 Clear 13 1014 31 10000 5.14 230 19:58 09.04.2021
496 Clear 14 1014 33 10000 2.06 250 19:40 09.04.2021
497 Clear 12 1014 31 10000 5.14 230 19:22 09.04.2021
498 Clear 12 1014 31 10000 5.14 230 19:22 09.04.2021
499 Clear 15 1014 31 10000 6.69 230 18:42 09.04.2021
500 Clouds 15 1013 37 10000 3.73 229 18:23 09.04.2021
501 Clouds 17 1013 35 10000 1.34 235 17:47 09.04.2021
502 Clouds 17 1013 33 10000 2.24 333 17:29 09.04.2021
503 Clouds 17 1013 35 10000 2.68 240 16:47 09.04.2021
504 Clouds 17 1014 33 10000 4.02 238 16:28 09.04.2021
505 Clouds 16 1014 37 10000 0.89 360 15:44 09.04.2021
506 Clouds 16 1014 39 10000 1.34 254 15:24 09.04.2021
507 Clouds 16 1015 37 10000 1.79 281 14:46 09.04.2021
508 Clouds 14 1015 35 10000 1.79 196 14:28 09.04.2021
509 Clouds 14 1016 33 10000 3.13 223 13:45 09.04.2021
510 Clouds 14 1016 33 10000 3.13 223 13:22 09.04.2021
511 Clouds 13 1017 39 10000 1.79 203 12:47 09.04.2021
512 Clouds 13 1017 39 10000 1.79 203 12:47 09.04.2021
513 Clouds 12 1017 38 10000 1.34 203 12:23 09.04.2021
514 Clouds 12 1017 37 10000 1.34 205 11:43 09.04.2021
515 Clouds 11 1017 36 10000 3.13 181 11:20 09.04.2021
516 Clouds 10 1017 38 10000 1.79 210 10:37 09.04.2021
517 Clouds 8 1018 37 10000 2.73 216 09:59 09.04.2021
518 Clear 5 1018 65 10000 0.51 0 09:28 09.04.2021
519 Clouds 5 1018 66 10000 1.85 195 08:56 09.04.2021
520 Clouds 5 1018 66 10000 1.81 192 08:33 09.04.2021
521 Clouds 3 1018 66 10000 1.94 166 07:32 09.04.2021
522 Clouds 1 1017 66 10000 2.15 157 06:30 09.04.2021
523 Clouds 1 1017 66 10000 2.15 157 06:30 09.04.2021
524 Clouds 2 1018 66 10000 2.05 153 05:44 09.04.2021
525 Clouds 1 1019 66 10000 1.88 151 03:43 09.04.2021
526 Clouds 2 1022 48 10000 1.93 142 00:39 09.04.2021
527 Clear 2 1022 48 10000 2.03 141 00:21 09.04.2021
528 Clear 3 1022 46 10000 2.03 141 23:56 08.04.2021
529 Clear 4 1022 42 10000 2.09 139 22:56 08.04.2021
530 Clear 4 1022 42 10000 2.09 139 22:36 08.04.2021
531 Clear 4 1022 42 10000 2.35 135 22:18 08.04.2021
532 Clear 4 1022 49 10000 2.57 270 21:42 08.04.2021
533 Clouds 4 1022 45 10000 3.6 280 21:23 08.04.2021
534 Clear 5 1022 42 10000 3.09 280 20:59 08.04.2021
535 Clear 7 1022 30 10000 1.03 0 20:40 08.04.2021
536 Clear 5 1022 30 10000 1.03 0 20:19 08.04.2021
537 Clear 8 1022 32 10000 2.57 200 19:41 08.04.2021
538 Clear 6 1021 64 10000 0.54 150 19:19 08.04.2021
539 Clear 6 1021 64 10000 0.54 150 19:19 08.04.2021
540 Clear 10 1022 30 10000 1.03 0 18:43 08.04.2021
541 Clear 10 1021 47 10000 0.97 199 18:20 08.04.2021
542 Clear 10 1021 44 10000 0.89 161 17:47 08.04.2021
543 Clear 10 1022 33 10000 0.45 244 17:21 08.04.2021
544 Clear 10 1022 38 10000 0.45 211 16:45 08.04.2021
545 Clear 10 1022 38 10000 1.13 250 16:25 08.04.2021
546 Clear 10 1022 39 10000 1.13 250 15:47 08.04.2021
547 Clouds 9 1022 46 10000 2.68 360 15:28 08.04.2021
548 Clouds 9 1023 40 10000 1.79 249 14:45 08.04.2021
549 Clouds 8 1023 40 10000 0.89 230 14:24 08.04.2021
550 Clouds 8 1024 46 10000 0.45 245 13:55 08.04.2021
551 Clouds 8 1024 45 10000 1.34 236 13:36 08.04.2021
552 Clouds 8 1024 48 10000 1.79 250 13:18 08.04.2021
553 Clouds 8 1025 37 10000 3.13 294 12:38 08.04.2021
554 Clouds 7 1025 47 10000 2.68 246 11:59 08.04.2021
555 Clouds 6 1025 48 10000 2.04 268 11:41 08.04.2021
556 Clouds 5 1026 46 10000 2.2 257 10:57 08.04.2021
557 Clouds 5 1026 49 10000 1.34 201 10:28 08.04.2021
558 Rain 4 1026 52 10000 1.79 215 09:51 08.04.2021
559 Clouds 3 1026 54 10000 1.34 140 09:33 08.04.2021
560 Rain 2 1025 57 10000 0.45 190 08:45 08.04.2021
561 Clear 0 1026 65 10000 2.06 190 08:27 08.04.2021
562 Clear 0 1026 60 10000 1.72 169 07:57 08.04.2021
563 Clear 2 1025 60 10000 1.03 0 07:27 08.04.2021
564 Snow 0 1024 56 10000 0.89 198 03:31 08.04.2021
565 Clear 0 1024 52 10000 4.12 190 00:54 08.04.2021
566 Clear 0 1024 52 10000 4.63 190 23:59 07.04.2021
567 Clear 0 1024 52 10000 3.09 190 23:39 07.04.2021
568 Clear 0 1024 52 10000 3.09 190 23:21 07.04.2021
569 Clear 0 1024 45 10000 4.63 180 22:47 07.04.2021
570 Clouds 2 1023 60 7852 2.24 203 22:29 07.04.2021
571 Clouds 1 1023 90 7852 2.94 188 21:44 07.04.2021
572 Clouds 1 1023 89 10000 2.5 184 21:24 07.04.2021
573 Clouds 1 1022 88 10000 2.5 184 20:43 07.04.2021
574 Clouds 2 1023 67 10000 1.34 188 20:21 07.04.2021
575 Clouds 2 1023 77 10000 0.45 119 19:44 07.04.2021
576 Snow 1 1023 80 5780 1.34 97 19:26 07.04.2021
577 Snow 1 1023 83 5780 0.45 123 18:47 07.04.2021
578 Snow 1 1023 86 3845 0.45 222 18:20 07.04.2021
579 Snow 1 1023 86 3845 0.45 157 17:55 07.04.2021
580 Snow 1 1023 83 3845 2.96 204 17:36 07.04.2021
581 Snow 2 1023 66 3572 1.79 215 16:58 07.04.2021
582 Rain 2 1023 62 3572 3.42 217 16:38 07.04.2021
583 Rain 2 1023 55 4203 3.13 238 16:19 07.04.2021
584 Rain 3 1022 46 4203 3.58 243 15:39 07.04.2021
585 Rain 4 1022 50 7023 3.13 246 14:57 07.04.2021
586 Clouds 4 1021 54 7023 4.47 275 14:32 07.04.2021
587 Clouds 4 1022 44 10000 3.58 324 13:52 07.04.2021
588 Clouds 3 1021 50 4364 0.89 146 13:27 07.04.2021
589 Clouds 3 1022 53 4364 2.24 176 12:56 07.04.2021
590 Clouds 2 1022 56 5980 0.89 284 12:25 07.04.2021
591 Clouds 2 1021 57 5980 1.34 210 11:56 07.04.2021
592 Snow 1 1020 70 7163 3.13 248 11:28 07.04.2021
593 Snow 1 1021 66 7181 1.34 297 10:59 07.04.2021
594 Snow 1 1021 72 8007 1.79 226 10:27 07.04.2021
595 Snow 0 1020 77 8007 2.24 256 09:44 07.04.2021
596 Clouds 0 1020 81 10000 2.36 265 09:25 07.04.2021
597 Clouds -1 1020 84 10000 0.45 215 08:47 07.04.2021
598 Snow -1 1019 86 4610 0.45 231 08:22 07.04.2021
599 Snow -1 1018 89 4610 0.45 171 07:43 07.04.2021
600 Snow -1 1018 89 3437 1.43 247 07:25 07.04.2021
601 Clouds -1 1017 90 3437 0.45 217 06:33 07.04.2021
602 Snow -1 1015 89 475 0.89 217 04:23 07.04.2021
603 Snow 0 1014 71 2646 2.41 255 00:45 07.04.2021
604 Snow 1 1014 66 3330 1.49 235 23:47 06.04.2021
605 Snow 2 1013 65 3692 1.91 255 23:22 06.04.2021
606 Clouds 2 1014 68 3692 0.45 272 22:48 06.04.2021
607 Clouds 1 1014 69 10000 2.24 246 22:20 06.04.2021
608 Snow 1 1013 62 10000 0.45 235 21:43 06.04.2021
609 Snow 0 1014 69 8000 2.06 10 21:23 06.04.2021
610 Snow 1 1014 48 10000 2.06 260 20:55 06.04.2021
611 Snow 1 1014 72 10000 1.79 268 20:36 06.04.2021
612 Snow 1 1012 64 10000 2.99 290 20:18 06.04.2021
613 Snow 2 1011 66 10000 2.99 290 19:41 06.04.2021
614 Clouds 2 1011 66 10000 1.79 256 19:23 06.04.2021
615 Clouds 3 1012 59 10000 2.24 199 18:43 06.04.2021
616 Clouds 4 1012 59 10000 0.45 184 18:20 06.04.2021
617 Clouds 4 1013 60 10000 4.81 297 17:45 06.04.2021
618 Clouds 3 1013 61 8286 1.34 161 17:19 06.04.2021
619 Clouds 2 1012 71 8286 0.89 209 16:46 06.04.2021
620 Clouds 2 1013 72 5100 1.79 230 16:27 06.04.2021
621 Clouds 4 1014 67 5129 3.74 303 15:27 06.04.2021
622 Clouds 3 1014 71 5070 3.74 303 14:47 06.04.2021
623 Clouds 3 1014 65 4339 1.79 204 14:28 06.04.2021
624 Clouds 3 1014 63 4656 0.45 282 13:55 06.04.2021
625 Clouds 3 1015 63 4656 1.34 225 13:37 06.04.2021
626 Clouds 3 1015 64 8246 2.11 294 13:18 06.04.2021
627 Clouds 2 1015 62 8246 2.11 294 12:38 06.04.2021
628 Clouds 2 1015 63 10000 1.8 277 12:19 06.04.2021
629 Clouds 1 1016 68 10000 0.45 143 11:45 06.04.2021
630 Clouds 1 1016 68 10000 0.89 175 11:20 06.04.2021
631 Clouds 0 1016 72 10000 0.45 237 10:45 06.04.2021
632 Clouds -1 1016 75 10000 0.45 226 10:22 06.04.2021
633 Clouds -1 1016 81 10000 0.89 199 09:47 06.04.2021
634 Clouds -1 1016 81 4084 0.89 244 09:26 06.04.2021
635 Clouds -2 1016 84 4084 2.49 220 08:34 06.04.2021
636 Clouds -1 1015 85 10000 2.09 204 07:47 06.04.2021
637 Clouds -5 1015 94 10000 1.94 175 06:55 06.04.2021
638 Clear -3 1017 64 10000 2.06 280 05:18 06.04.2021
639 Clear 0 1017 64 10000 2.57 310 01:57 06.04.2021
640 Clouds 1 1017 91 10000 2.68 63 00:44 06.04.2021
641 Clouds 1 1017 91 10000 2.68 63 00:20 06.04.2021
642 Clouds 1 1017 91 10000 2.68 63 23:42 05.04.2021
643 Snow 0 1015 87 10000 3.43 334 23:19 05.04.2021
644 Snow 0 1014 88 10000 3.43 334 22:45 05.04.2021
645 Snow 0 1014 89 8386 0.45 350 22:24 05.04.2021
646 Snow 0 1014 89 8386 0.45 105 21:40 05.04.2021
647 Snow 0 1014 89 1160 1.79 58 21:20 05.04.2021
648 Snow 1 1013 88 1160 3.13 57 20:42 05.04.2021
649 Snow 1 1012 88 47 3.13 2 20:23 05.04.2021
650 Rain 2 1011 87 47 4.02 341 19:40 05.04.2021
651 Rain 4 1012 70 10000 8.23 330 19:20 05.04.2021
652 Rain 5 1010 71 10000 4.63 300 18:48 05.04.2021
653 Rain 9 1010 66 7000 4.12 300 18:30 05.04.2021
654 Rain 10 1009 50 10000 7.2 280 17:57 05.04.2021
655 Rain 12 1009 47 10000 4.12 260 17:37 05.04.2021
656 Clouds 12 1007 48 10000 2.68 267 17:18 05.04.2021
657 Clouds 13 1007 44 10000 3.13 246 16:41 05.04.2021
658 Clouds 13 1007 43 10000 1.34 208 16:19 05.04.2021
659 Clouds 13 1007 42 10000 2.68 255 15:50 05.04.2021
660 Clouds 13 1007 45 10000 5.36 213 15:27 05.04.2021
661 Clouds 13 1008 46 10000 3.58 192 14:46 05.04.2021
662 Clouds 12 1008 45 10000 5.81 184 14:25 05.04.2021
663 Clouds 13 1009 44 10000 4.47 242 13:31 05.04.2021
664 Clouds 13 1009 44 10000 4.47 242 13:31 05.04.2021
665 Clouds 11 1009 53 10000 4.92 160 12:48 05.04.2021
666 Clouds 10 1010 57 10000 6.71 199 12:26 05.04.2021
667 Clouds 10 1010 58 10000 4.02 183 11:55 05.04.2021
668 Clouds 10 1010 58 10000 5.36 143 11:33 05.04.2021
669 Clouds 10 1011 57 10000 5.36 190 10:59 05.04.2021
670 Clouds 10 1011 56 10000 5.81 186 10:40 05.04.2021
671 Clouds 10 1011 56 10000 4.92 167 10:22 05.04.2021
672 Clouds 10 1010 57 10000 2.24 155 09:47 05.04.2021
673 Clouds 8 1011 56 10000 3.13 144 09:22 05.04.2021
674 Clouds 7 1011 64 10000 1.79 208 08:42 05.04.2021
675 Clouds 6 1011 68 10000 0.89 183 08:24 05.04.2021
676 Clouds 5 1012 76 10000 3.64 201 07:35 05.04.2021
677 Clear 3 1013 73 10000 1.96 185 05:23 05.04.2021
678 Clear 4 1018 72 10000 0.89 150 01:35 05.04.2021
679 Clear 4 1018 72 10000 0.89 150 01:35 05.04.2021
680 Clear 5 1018 67 10000 1.34 166 00:38 05.04.2021
681 Clear 5 1019 66 10000 0.89 138 23:47 04.04.2021
682 Clear 5 1019 64 10000 0.45 207 23:23 04.04.2021
683 Clear 5 1018 63 10000 0.45 40 22:50 04.04.2021
684 Clear 5 1018 65 10000 0.89 106 22:29 04.04.2021
685 Clear 6 1019 49 9000 2.06 290 21:27 04.04.2021
686 Clear 8 1018 37 8000 2.06 330 20:56 04.04.2021
687 Clear 9 1018 35 10000 1.54 10 20:30 04.04.2021
688 Clear 9 1018 35 10000 1.54 10 20:30 04.04.2021
689 Clear 10 1018 33 10000 2.57 20 19:57 04.04.2021
690 Clear 11 1018 33 10000 3.09 30 19:36 04.04.2021
691 Clear 10 1016 48 10000 2.41 356 19:18 04.04.2021
692 Clear 12 1018 30 10000 3.6 20 18:42 04.04.2021
693 Clear 12 1018 48 10000 2.68 294 18:21 04.04.2021
694 Clear 14 1020 35 10000 0.89 1 17:44 04.04.2021
695 Clear 14 1017 42 10000 0.89 211 17:23 04.04.2021
696 Clear 14 1018 44 10000 0.89 195 16:43 04.04.2021
697 Clear 13 1018 44 10000 0.89 195 16:19 04.04.2021
698 Clear 14 1018 41 10000 0.89 136 15:34 04.04.2021
699 Clear 13 1018 47 10000 2.68 211 14:46 04.04.2021
700 Clear 13 1019 44 10000 2.68 235 14:27 04.04.2021
701 Clear 13 1019 43 10000 1.34 228 13:50 04.04.2021
702 Clear 12 1019 44 10000 2.68 259 13:24 04.04.2021
703 Clear 12 1021 40 10000 2.68 307 12:43 04.04.2021
704 Clear 11 1020 50 10000 1.79 248 12:24 04.04.2021
705 Clear 10 1020 50 10000 1.79 360 11:42 04.04.2021
706 Clear 9 1023 51 10000 0.89 331 11:23 04.04.2021
707 Clear 8 1021 57 10000 0.45 311 10:44 04.04.2021
708 Clear 6 1021 60 10000 1.59 22 09:55 04.04.2021
709 Clear 5 1021 71 10000 1.22 54 09:26 04.04.2021
710 Clear 4 1021 71 10000 1.22 54 08:53 04.04.2021
711 Clear 3 1021 65 10000 1.22 54 08:35 04.04.2021
712 Clear 2 1021 78 10000 1.61 97 07:55 04.04.2021
713 Clear 2 1021 72 10000 2.06 96 06:38 04.04.2021
714 Clear 2 1021 66 10000 0.45 34 05:33 04.04.2021
715 Clear 4 1022 60 10000 0.89 44 01:30 04.04.2021
716 Clear 3 1022 58 10000 2.78 87 00:22 04.04.2021
717 Clear 3 1022 59 10000 2.78 87 23:50 03.04.2021
718 Clear 3 1022 59 10000 2.78 87 23:31 03.04.2021
719 Clear 3 1022 57 10000 2.92 91 22:52 03.04.2021
720 Clear 5 1022 54 10000 2.85 91 22:22 03.04.2021
721 Clear 5 1021 68 10000 2.85 91 21:54 03.04.2021
722 Clear 5 1023 57 10000 0.89 92 21:25 03.04.2021
723 Clear 6 1023 54 10000 1.79 104 20:59 03.04.2021
724 Clouds 7 1021 48 10000 3.56 64 20:29 03.04.2021
725 Clear 8 1022 40 10000 5.14 20 19:51 03.04.2021
726 Clouds 9 1020 49 10000 1.34 117 19:29 03.04.2021
727 Clouds 9 1020 48 10000 4.4 52 18:57 03.04.2021
728 Clouds 9 1020 48 10000 4.4 52 18:36 03.04.2021
729 Clouds 10 1020 47 10000 0.89 123 17:57 03.04.2021
730 Clouds 10 1020 45 10000 0.89 137 17:27 03.04.2021
731 Clouds 10 1020 49 10000 2.24 119 16:58 03.04.2021
732 Clouds 10 1020 49 10000 1.79 67 16:31 03.04.2021
733 Clouds 10 1021 52 10000 1.34 119 15:53 03.04.2021
734 Clouds 10 1021 52 10000 1.34 119 15:53 03.04.2021
735 Clouds 10 1021 40 10000 0.89 286 15:32 03.04.2021
736 Clouds 10 1021 40 10000 1.79 340 14:59 03.04.2021
737 Clouds 9 1021 50 10000 0.89 92 14:27 03.04.2021
738 Clouds 9 1021 50 10000 0.89 92 14:27 03.04.2021
739 Clouds 9 1021 50 10000 2.68 119 13:59 03.04.2021
740 Clouds 9 1021 52 10000 1.79 140 13:40 03.04.2021
741 Clouds 8 1021 55 10000 1.79 136 13:20 03.04.2021
742 Clouds 9 1022 46 10000 1.34 340 12:40 03.04.2021
743 Clouds 7 1021 56 10000 0.45 139 12:19 03.04.2021
744 Clouds 8 1022 50 10000 4.18 50 11:32 03.04.2021
745 Clouds 7 1021 60 10000 1.34 14 10:49 03.04.2021
746 Clouds 7 1021 60 10000 1.34 14 10:49 03.04.2021
747 Clouds 7 1021 56 10000 0.45 32 10:30 03.04.2021
748 Clouds 5 1021 66 10000 0.45 346 09:50 03.04.2021
749 Clouds 4 1021 72 10000 2.7 41 09:27 03.04.2021
750 Clouds 4 1021 80 10000 2.7 41 08:44 03.04.2021
751 Clouds 3 1021 80 10000 1.89 56 08:26 03.04.2021
752 Clear 2 1019 94 10000 2.27 42 07:28 03.04.2021
753 Clear 2 1020 84 10000 2.21 41 05:43 03.04.2021
754 Clear 4 1020 80 10000 0.45 23 03:35 03.04.2021
755 Clear 5 1020 78 10000 0.89 23 02:49 03.04.2021
756 Clear 5 1020 77 10000 1.34 23 02:23 03.04.2021
757 Clear 6 1019 68 10000 1.75 52 00:20 03.04.2021
758 Clear 6 1019 66 10000 1.75 52 23:47 02.04.2021
759 Clear 6 1018 66 10000 1.77 62 23:24 02.04.2021
760 Clear 8 1018 64 10000 1.77 62 22:52 02.04.2021
761 Clear 8 1018 65 10000 1.77 62 22:33 02.04.2021
762 Clear 8 1017 64 10000 1.77 66 21:46 02.04.2021
763 Clear 9 1018 55 10000 0.89 312 21:23 02.04.2021
764 Clear 9 1020 50 8000 5.14 20 20:52 02.04.2021
765 Clear 10 1019 50 10000 6.69 30 20:33 02.04.2021
766 Clear 10 1019 44 10000 6.17 20 19:58 02.04.2021
767 Clear 12 1018 41 10000 6.17 20 19:39 02.04.2021
768 Clouds 12 1016 52 10000 4.06 354 19:20 02.04.2021
769 Clouds 13 1018 44 10000 4.47 359 18:39 02.04.2021
770 Clouds 13 1018 44 10000 4.47 359 18:39 02.04.2021
771 Clouds 14 1015 49 10000 1.34 225 18:20 02.04.2021
772 Clouds 15 1015 50 10000 2.24 360 17:40 02.04.2021
773 Clouds 15 1015 54 10000 3.13 260 16:51 02.04.2021
774 Clouds 15 1015 54 10000 3.13 260 16:51 02.04.2021
775 Clouds 15 1015 55 10000 3.13 263 16:22 02.04.2021
776 Clouds 14 1015 58 10000 4.02 360 15:42 02.04.2021
777 Clouds 14 1015 60 10000 3.58 360 14:57 02.04.2021
778 Clouds 14 1015 61 10000 1.79 250 14:33 02.04.2021
779 Clouds 13 1016 65 10000 3.13 360 13:44 02.04.2021
780 Clouds 13 1016 67 10000 4.92 245 13:25 02.04.2021
781 Clouds 12 1016 69 10000 2.68 360 12:41 02.04.2021
782 Clouds 12 1016 70 10000 3.58 360 12:20 02.04.2021
783 Clouds 11 1017 59 10000 1.79 283 11:57 02.04.2021
784 Clouds 11 1017 63 10000 0.45 357 11:21 02.04.2021
785 Clouds 10 1017 66 10000 2.88 347 10:51 02.04.2021
786 Clouds 10 1017 66 10000 1.34 11 10:32 02.04.2021
787 Clouds 9 1017 68 10000 0.89 32 09:53 02.04.2021
788 Clouds 9 1017 70 8784 0.89 342 09:27 02.04.2021
789 Clouds 8 1017 72 8784 2.15 350 08:59 02.04.2021
790 Clouds 8 1018 85 8784 2.24 23 08:34 02.04.2021
791 Clear 9 1017 84 10000 1.45 354 07:31 02.04.2021
792 Clear 10 1018 83 10000 0.89 23 06:58 02.04.2021
793 Clear 10 1018 79 10000 0.89 23 05:59 02.04.2021
794 Clear 10 1018 79 10000 0.89 23 05:59 02.04.2021
795 Clear 12 1016 63 10000 1.24 58 02:51 02.04.2021
796 Clear 12 1021 44 10000 1.33 88 00:54 02.04.2021
797 Clear 13 1022 42 10000 1.25 80 00:24 02.04.2021
798 Clear 14 1021 40 10000 1.25 80 23:41 01.04.2021
799 Clear 14 1021 40 10000 1.31 92 23:21 01.04.2021
800 Clear 16 1021 39 10000 0.45 337 22:22 01.04.2021
801 Clear 16 1021 39 10000 0.45 337 22:22 01.04.2021
802 Clear 15 1024 52 10000 0.45 135 21:52 01.04.2021
803 Clear 14 1017 56 10000 0.89 48 21:29 01.04.2021
804 Clear 16 1017 28 6000 3.09 320 20:58 01.04.2021
805 Clear 18 1017 30 9000 3.6 310 20:29 01.04.2021
806 Clear 20 1017 42 10000 3.09 350 19:57 01.04.2021
807 Clear 22 1017 35 10000 3.09 20 19:39 01.04.2021
808 Clear 23 1016 35 10000 3.6 20 18:49 01.04.2021
809 Clear 24 1016 33 10000 4.63 20 18:19 01.04.2021
810 Clear 24 1016 33 10000 5.14 360 17:58 01.04.2021
811 Clear 24 1016 33 10000 2.57 340 17:38 01.04.2021
812 Clear 24 1016 33 10000 2.57 340 17:19 01.04.2021
813 Clear 25 1016 25 10000 1.54 0 16:41 01.04.2021
814 Clear 24 1017 27 10000 1.03 0 15:49 01.04.2021
815 Clear 23 1017 27 10000 1.54 0 15:23 01.04.2021
816 Clear 23 1018 25 10000 1.54 0 14:51 01.04.2021
817 Clear 22 1018 31 10000 1.03 0 14:29 01.04.2021
818 Clear 22 1018 38 10000 1.03 0 13:59 01.04.2021
819 Clear 22 1016 40 10000 1.34 360 13:32 01.04.2021
820 Clear 22 1016 41 10000 3.13 248 12:58 01.04.2021
821 Clear 21 1016 41 10000 1.34 360 12:39 01.04.2021
822 Clear 21 1016 44 10000 0.89 252 12:20 01.04.2021
823 Clear 21 1017 45 10000 2.24 236 11:43 01.04.2021
824 Clouds 19 1020 43 10000 1.51 264 11:18 01.04.2021
825 Clouds 17 1017 55 10000 1.51 264 10:46 01.04.2021
826 Clouds 17 1017 61 10000 1.21 254 10:27 01.04.2021
827 Clouds 15 1018 50 10000 1.21 254 09:32 01.04.2021
828 Clouds 13 1020 53 10000 0.73 187 08:58 01.04.2021
829 Clouds 12 1020 55 10000 0.73 187 08:32 01.04.2021
830 Clouds 10 1018 61 10000 0.45 98 07:22 01.04.2021
831 Clouds 10 1018 61 10000 1.18 154 06:57 01.04.2021
832 Clouds 10 1018 63 10000 1.55 147 06:24 01.04.2021
833 Clouds 12 1018 54 10000 1.42 143 03:23 01.04.2021
834 Clouds 13 1023 57 10000 1.68 141 00:28 01.04.2021
835 Clouds 15 1023 39 10000 1.68 141 23:44 31.03.2021
836 Clouds 15 1023 39 10000 1.68 141 23:44 31.03.2021
837 Clouds 15 1023 39 10000 1.78 135 22:56 31.03.2021
838 Clouds 15 1020 48 10000 0.45 269 22:38 31.03.2021
839 Clouds 15 1022 56 10000 1.93 126 22:19 31.03.2021
840 Clouds 13 1023 54 10000 1.93 126 21:44 31.03.2021
841 Clouds 13 1022 52 10000 1.97 123 21:20 31.03.2021
842 Clouds 14 1022 52 10000 1.97 123 20:42 31.03.2021
843 Clear 15 1022 49 10000 1.31 109 20:22 31.03.2021
844 Clear 21 1020 23 10000 1.03 0 19:46 31.03.2021
845 Clouds 21 1020 23 10000 1.54 100 19:25 31.03.2021
846 Clouds 22 1020 23 10000 2.06 110 18:59 31.03.2021
847 Clear 24 1020 23 10000 1.54 330 18:41 31.03.2021
848 Clouds 25 1020 24 10000 2.06 100 17:53 31.03.2021
849 Clear 26 1020 25 10000 1.03 0 17:34 31.03.2021
850 Clouds 24 1021 22 10000 1.54 180 16:57 31.03.2021
851 Clear 26 1021 22 10000 1.03 0 16:37 31.03.2021
852 Clouds 24 1021 25 10000 1.54 0 16:19 31.03.2021
853 Clouds 24 1022 31 10000 2.57 170 15:48 31.03.2021
854 Clouds 24 1022 27 10000 1.54 70 15:19 31.03.2021
855 Clouds 24 1020 32 10000 0.89 256 14:42 31.03.2021
856 Clouds 23 1023 33 10000 2.57 180 14:20 31.03.2021
857 Clouds 22 1021 40 10000 2.68 244 13:40 31.03.2021
858 Clouds 21 1022 41 10000 2.24 251 12:42 31.03.2021
859 Clouds 19 1025 42 10000 1.73 276 12:20 31.03.2021
860 Clouds 18 1023 47 10000 1.73 276 11:51 31.03.2021
861 Clouds 18 1023 48 10000 1.56 278 11:20 31.03.2021
862 Clouds 17 1023 50 10000 1.56 278 10:47 31.03.2021
863 Clouds 15 1023 55 10000 0.97 272 10:25 31.03.2021
864 Clouds 15 1023 55 10000 0.97 272 10:25 31.03.2021
865 Clouds 12 1026 56 10000 0.97 272 09:42 31.03.2021
866 Clouds 10 1026 64 10000 0.53 179 08:59 31.03.2021
867 Clouds 9 1025 76 10000 2.06 160 08:38 31.03.2021
868 Clouds 8 1023 70 10000 1.25 145 07:53 31.03.2021
869 Clouds 9 1023 59 10000 1.51 141 06:49 31.03.2021
870 Clouds 9 1028 55 10000 1.77 136 03:51 31.03.2021
871 Clouds 10 1027 65 10000 0.89 150 01:43 31.03.2021
872 Clouds 11 1029 50 10000 1.94 135 00:49 31.03.2021
873 Clouds 11 1029 49 10000 1.98 131 00:21 31.03.2021
874 Clouds 12 1027 64 10000 1.98 131 23:41 30.03.2021
875 Clouds 13 1029 46 10000 1.99 126 23:19 30.03.2021
876 Clouds 13 1029 46 10000 0.45 315 22:41 30.03.2021
877 Clouds 13 1027 59 10000 0.89 146 22:23 30.03.2021
878 Clouds 14 1027 58 10000 0.89 170 21:51 30.03.2021
879 Clouds 15 1030 41 10000 1.82 125 21:23 30.03.2021
880 Clouds 14 1027 42 9000 2.06 280 20:55 30.03.2021
881 Clear 15 1027 37 10000 2.06 330 20:29 30.03.2021
882 Clear 21 1027 35 10000 1.54 60 19:52 30.03.2021
883 Clear 19 1027 25 10000 2.06 50 19:28 30.03.2021
884 Clear 19 1027 25 10000 2.06 50 19:28 30.03.2021
885 Clear 22 1027 23 10000 1.54 60 18:47 30.03.2021
886 Clear 21 1027 23 10000 1.54 0 18:24 30.03.2021
887 Clear 22 1028 23 10000 1.54 60 17:42 30.03.2021
888 Clear 23 1028 23 10000 2.06 60 17:24 30.03.2021
889 Clear 22 1028 28 10000 2.06 60 16:46 30.03.2021
890 Clouds 22 1026 39 10000 2.68 249 16:25 30.03.2021
891 Clouds 22 1026 39 10000 2.68 249 16:25 30.03.2021
892 Clouds 21 1027 36 10000 2.68 252 15:22 30.03.2021
893 Clouds 21 1027 38 10000 2.24 248 14:59 30.03.2021
894 Clouds 21 1027 38 10000 1.34 242 14:40 30.03.2021
895 Clouds 20 1027 39 10000 3.58 265 14:18 30.03.2021
896 Clouds 20 1028 40 10000 2.68 360 13:42 30.03.2021
897 Clouds 19 1029 38 10000 2.24 263 12:58 30.03.2021
898 Clouds 18 1029 41 10000 2.68 256 12:39 30.03.2021
899 Clouds 18 1029 37 10000 2.68 269 12:20 30.03.2021
900 Clouds 16 1029 43 10000 2.68 253 11:40 30.03.2021
901 Clouds 15 1029 46 10000 2.68 234 11:18 30.03.2021
902 Clouds 13 1030 42 10000 0.88 304 10:40 30.03.2021
903 Clouds 13 1030 45 10000 0.41 298 10:18 30.03.2021
904 Clouds 11 1032 49 10000 0.41 298 09:38 30.03.2021
905 Clouds 10 1030 59 10000 0.48 130 09:20 30.03.2021
906 Clear 7 1032 75 10000 1.03 200 08:41 30.03.2021
907 Clouds 7 1030 68 10000 1.43 130 07:53 30.03.2021
908 Clouds 7 1030 68 10000 1.5 136 07:23 30.03.2021
909 Clouds 7 1030 64 10000 1.54 136 06:23 30.03.2021
910 Clouds 8 1030 61 10000 1.46 139 05:24 30.03.2021
911 Clouds 9 1030 47 10000 1.55 134 01:37 30.03.2021
912 Clouds 10 1032 37 10000 1.6 120 23:52 29.03.2021
913 Clouds 10 1032 47 10000 1.73 118 23:18 29.03.2021
914 Clouds 11 1032 43 10000 1.34 136 22:37 29.03.2021
915 Clouds 12 1031 51 10000 2.24 108 21:55 29.03.2021
916 Clouds 12 1032 44 10000 1.34 118 21:33 29.03.2021
917 Clouds 11 1031 51 10000 1.82 118 20:51 29.03.2021
918 Clear 13 1031 41 10000 2.06 280 20:29 29.03.2021
919 Clear 16 1031 26 10000 1.46 110 19:53 29.03.2021
920 Clear 15 1030 24 10000 1.03 0 19:27 29.03.2021
921 Clear 15 1030 24 10000 1.03 0 19:27 29.03.2021
922 Clear 18 1031 24 10000 1.54 0 18:54 29.03.2021
923 Clear 18 1031 21 10000 1.54 70 18:30 29.03.2021
924 Clear 20 1031 21 10000 1.03 0 17:58 29.03.2021
925 Clear 21 1031 23 10000 1.03 0 17:35 29.03.2021
926 Clear 21 1031 19 10000 1.54 0 16:53 29.03.2021
927 Clear 20 1031 24 10000 2.06 0 16:27 29.03.2021
928 Clouds 21 1032 25 10000 0.89 79 15:41 29.03.2021
929 Clouds 19 1033 25 10000 0.45 41 15:22 29.03.2021
930 Clouds 19 1030 33 10000 2.68 244 14:48 29.03.2021
931 Clouds 19 1030 37 10000 0.89 250 14:21 29.03.2021
932 Clouds 18 1031 34 10000 2.68 221 13:40 29.03.2021
933 Clouds 17 1031 37 10000 2.68 251 13:18 29.03.2021
934 Clouds 17 1031 39 10000 3.13 360 12:49 29.03.2021
935 Clouds 15 1031 38 10000 2.24 256 11:49 29.03.2021
936 Clouds 14 1031 40 10000 1.57 263 11:29 29.03.2021
937 Clouds 13 1032 44 10000 1.57 263 10:51 29.03.2021
938 Clouds 12 1031 48 10000 1.57 263 10:31 29.03.2021
939 Clouds 9 1033 59 10000 1.14 254 09:33 29.03.2021
940 Clouds 6 1032 68 10000 0.69 166 08:43 29.03.2021
941 Clouds 5 1031 60 10000 1.42 139 08:25 29.03.2021
942 Clouds 4 1030 62 10000 1.45 140 07:22 29.03.2021
943 Clouds 5 1030 62 10000 0.89 42 06:26 29.03.2021
944 Clouds 6 1030 59 10000 0.45 94 03:35 29.03.2021
945 Clouds 7 1030 57 10000 1.94 156 00:55 29.03.2021
946 Clouds 7 1030 56 10000 2.03 156 00:20 29.03.2021
947 Clouds 8 1030 54 10000 2.03 156 23:36 28.03.2021
948 Clouds 7 1031 68 10000 2.05 156 23:18 28.03.2021
949 Clouds 8 1031 66 10000 2.05 156 22:39 28.03.2021
950 Clouds 8 1031 64 10000 1.97 149 22:20 28.03.2021
951 Clouds 8 1030 62 10000 1.79 178 21:40 28.03.2021
952 Clear 9 1030 44 10000 3.6 280 21:22 28.03.2021
953 Clouds 9 1030 47 9000 2.57 300 20:47 28.03.2021
954 Clear 10 1029 41 10000 2.06 320 20:29 28.03.2021
955 Clear 13 1029 25 10000 1.03 0 19:43 28.03.2021
956 Clear 13 1029 29 10000 2.57 180 19:22 28.03.2021
957 Clear 17 1029 29 10000 2.06 160 18:58 28.03.2021
958 Clear 15 1029 34 10000 2.57 180 18:26 28.03.2021
959 Clear 16 1029 34 10000 3.6 180 17:47 28.03.2021
960 Clear 15 1029 34 10000 3.09 170 17:27 28.03.2021
961 Clear 17 1029 36 10000 3.09 170 16:46 28.03.2021
962 Clouds 17 1030 33 10000 3.13 243 16:23 28.03.2021
963 Clouds 15 1028 50 10000 2.24 269 15:27 28.03.2021
964 Clouds 15 1028 46 10000 0.89 248 14:57 28.03.2021
965 Clouds 14 1028 50 10000 1.34 238 14:31 28.03.2021
966 Clouds 14 1029 52 10000 2.24 229 13:46 28.03.2021
967 Clouds 13 1029 49 10000 1.34 232 13:21 28.03.2021
968 Clouds 12 1030 50 10000 2.68 252 12:50 28.03.2021
969 Clouds 12 1030 52 10000 2.68 250 12:32 28.03.2021
970 Clouds 10 1030 55 10000 1.79 237 11:45 28.03.2021
971 Clouds 9 1031 65 10000 0.45 203 11:25 28.03.2021
972 Clouds 8 1031 62 10000 1.62 262 10:44 28.03.2021
973 Clouds 8 1031 66 10000 1.1 226 10:25 28.03.2021
974 Clouds 6 1031 69 10000 1.1 226 09:47 28.03.2021
975 Clouds 5 1031 72 10000 0.71 226 09:24 28.03.2021
976 Clouds 3 1030 73 10000 0.71 226 08:46 28.03.2021
977 Clouds 3 1030 70 10000 1.61 146 07:50 28.03.2021
978 Clouds 2 1029 72 10000 1.28 127 06:40 28.03.2021
979 Clouds 3 1031 78 10000 1.78 142 04:18 28.03.2021
980 Clouds 3 1031 78 10000 1.78 142 04:18 28.03.2021
981 Clouds 5 1032 69 10000 0.45 197 01:22 28.03.2021
982 Clouds 4 1031 68 10000 0.89 54 00:21 28.03.2021
983 Clear 5 1030 65 10000 2.57 260 23:43 27.03.2021
984 Clear 5 1030 65 10000 1.54 270 23:19 27.03.2021
985 Clear 5 1030 61 10000 2.06 270 22:37 27.03.2021
986 Clear 6 1030 57 10000 2.06 190 21:59 27.03.2021
987 Clear 7 1030 53 10000 1.54 230 21:38 27.03.2021
988 Clear 7 1030 53 10000 1.54 230 21:19 27.03.2021
989 Clear 7 1029 53 10000 2.06 200 20:44 27.03.2021
990 Clear 7 1029 49 10000 1.54 230 20:24 27.03.2021
991 Clear 8 1029 46 10000 2.06 230 19:44 27.03.2021
992 Clear 9 1029 40 10000 3.09 250 19:23 27.03.2021
993 Clear 11 1029 43 10000 3.6 230 18:50 27.03.2021
994 Clouds 9 1029 46 10000 1.79 269 18:29 27.03.2021
995 Clouds 10 1028 44 10000 2.68 268 17:56 27.03.2021
996 Clouds 10 1027 58 10000 1.34 295 17:26 27.03.2021
997 Clouds 10 1029 41 10000 3.58 218 16:51 27.03.2021
998 Clouds 10 1029 41 10000 3.58 218 16:51 27.03.2021
999 Clouds 11 1025 45 10000 2.68 265 16:30 27.03.2021
1000 Clouds 10 1025 48 10000 0.45 273 15:54 27.03.2021
1001 Clouds 11 1026 41 10000 1.34 236 15:33 27.03.2021
1002 Clouds 11 1026 40 10000 2.68 205 14:52 27.03.2021
1003 Clouds 11 1026 40 10000 4.02 217 13:59 27.03.2021
1004 Clouds 11 1026 42 10000 3.58 191 13:26 27.03.2021
1005 Clouds 11 1025 53 10000 1.34 227 12:56 27.03.2021
1006 Clouds 9 1025 55 10000 3.58 263 12:31 27.03.2021
1007 Clouds 9 1025 57 10000 3.13 267 11:47 27.03.2021
1008 Clouds 8 1025 56 10000 4.47 360 11:27 27.03.2021
1009 Clouds 9 1026 56 10000 3.58 254 10:47 27.03.2021
1010 Clouds 9 1024 67 10000 4.92 242 10:25 27.03.2021
1011 Clouds 7 1024 72 10000 3.58 295 09:30 27.03.2021
1012 Clouds 7 1024 72 10000 3.58 295 09:29 27.03.2021
1013 Clouds 7 1024 71 10000 4.47 204 08:49 27.03.2021
1014 Clouds 7 1023 79 10000 2.24 259 08:31 27.03.2021
1015 Clouds 6 1023 80 10000 0.89 229 07:36 27.03.2021
1016 Clouds 6 1023 78 10000 4.57 231 06:58 27.03.2021
1017 Clouds 7 1023 78 10000 4.57 231 06:34 27.03.2021
1018 Clouds 8 1020 71 10000 5.14 280 04:40 27.03.2021
1019 Rain 11 1016 83 10000 4.4 205 00:56 27.03.2021
1020 Rain 11 1017 83 10000 4.4 205 00:31 27.03.2021
1021 Rain 8 1020 71 10000 4.47 252 23:58 26.03.2021
1022 Clouds 11 1019 68 10000 1.34 215 23:23 26.03.2021
1023 Clouds 9 1017 69 10000 3.58 168 22:37 26.03.2021
1024 Clouds 8 1018 78 10000 2.38 155 21:41 26.03.2021
1025 Clouds 8 1018 77 10000 2.6 157 21:22 26.03.2021
1026 Clouds 10 1017 69 10000 1.34 252 20:49 26.03.2021
1027 Clouds 12 1018 65 10000 0.89 162 20:31 26.03.2021
1028 Clear 14 1017 44 10000 5.66 230 19:50 26.03.2021
1029 Clear 13 1016 55 10000 3.6 200 19:32 26.03.2021
1030 Clear 14 1016 48 10000 3.09 210 18:47 26.03.2021
1031 Clouds 13 1016 65 10000 1.34 206 18:28 26.03.2021
1032 Clear 17 1016 42 10000 4.63 170 17:50 26.03.2021
1033 Clouds 16 1015 45 10000 1.85 205 17:22 26.03.2021
1034 Clouds 17 1018 37 10000 1.85 205 16:34 26.03.2021
1035 Clouds 17 1015 52 10000 2.68 246 15:59 26.03.2021
1036 Clouds 17 1016 44 10000 0.89 207 15:28 26.03.2021
1037 Clouds 17 1016 42 10000 3.13 202 14:44 26.03.2021
1038 Clouds 16 1019 50 10000 0.89 225 13:51 26.03.2021
1039 Clouds 16 1017 51 10000 0.89 247 13:22 26.03.2021
1040 Clouds 15 1017 51 10000 0.89 257 12:35 26.03.2021
1041 Clouds 15 1018 61 10000 0.89 360 11:48 26.03.2021
1042 Clouds 13 1018 59 10000 1.79 360 11:29 26.03.2021
1043 Clouds 12 1019 65 10000 2.24 261 10:43 26.03.2021
1044 Clouds 11 1019 66 10000 1.34 211 10:19 26.03.2021
1045 Clouds 10 1020 62 10000 1.71 242 09:41 26.03.2021
1046 Clear 8 1020 68 10000 1.28 237 08:49 26.03.2021
1047 Clear 7 1019 84 10000 1.28 237 08:31 26.03.2021
1048 Clouds 6 1020 85 10000 0.93 188 07:56 26.03.2021
1049 Clouds 5 1020 85 10000 1.42 153 07:22 26.03.2021
1050 Clouds 4 1020 84 10000 1.42 153 06:56 26.03.2021
1051 Clouds 5 1020 78 10000 1.48 146 05:32 26.03.2021
1052 Clouds 6 1021 79 10000 1.72 147 04:18 26.03.2021
1053 Clouds 8 1023 77 10000 1.91 151 00:52 26.03.2021
1054 Clouds 8 1023 78 10000 0.89 212 23:53 25.03.2021
1055 Clouds 8 1024 58 10000 1.83 156 23:33 25.03.2021
1056 Clouds 8 1023 75 10000 0.45 138 22:41 25.03.2021
1057 Clouds 8 1023 72 10000 0.45 210 22:20 25.03.2021
1058 Clouds 6 1022 75 10000 1.34 201 21:48 25.03.2021
1059 Clouds 7 1023 69 10000 0.89 150 21:29 25.03.2021
1060 Clear 8 1022 58 10000 2.06 280 20:41 25.03.2021
1061 Clear 8 1022 58 10000 3.09 280 20:23 25.03.2021
1062 Clear 9 1021 54 10000 3.09 280 19:43 25.03.2021
1063 Clear 10 1021 50 10000 2.57 280 19:24 25.03.2021
1064 Clear 11 1021 47 10000 4.12 300 18:46 25.03.2021
1065 Clear 12 1021 44 10000 4.63 290 18:26 25.03.2021
1066 Clear 16 1020 41 10000 4.63 290 17:43 25.03.2021
1067 Clear 14 1020 39 10000 4.12 280 17:23 25.03.2021
1068 Clear 16 1020 34 10000 4.63 290 16:47 25.03.2021
1069 Clear 17 1020 36 10000 3.09 300 16:28 25.03.2021
1070 Clear 15 1020 39 10000 3.09 280 15:43 25.03.2021
1071 Clear 16 1020 39 10000 3.09 330 15:19 25.03.2021
1072 Clouds 15 1021 41 10000 1.79 250 14:43 25.03.2021
1073 Clouds 15 1022 41 10000 2.24 224 13:48 25.03.2021
1074 Clouds 15 1022 48 10000 3.58 284 13:23 25.03.2021
1075 Clouds 16 1020 44 10000 3.09 227 12:42 25.03.2021
1076 Clear 15 1021 44 10000 1.03 0 12:20 25.03.2021
1077 Clouds 15 1022 49 10000 2.68 56 11:52 25.03.2021
1078 Clear 13 1022 50 10000 1.54 0 11:26 25.03.2021
1079 Clear 12 1022 54 10000 1.54 0 10:54 25.03.2021
1080 Clouds 11 1021 58 10000 2.69 229 10:25 25.03.2021
1081 Clouds 11 1021 56 10000 2.69 229 09:57 25.03.2021
1082 Clouds 11 1020 57 10000 2.69 229 09:38 25.03.2021
1083 Clouds 8 1020 61 10000 1.71 221 08:57 25.03.2021
1084 Clouds 6 1020 64 10000 1.32 178 08:29 25.03.2021
1085 Clouds 4 1020 77 10000 1.7 153 07:23 25.03.2021
1086 Clouds 4 1020 71 10000 1.86 147 06:26 25.03.2021
1087 Clouds 4 1020 70 10000 1.86 147 05:49 25.03.2021
1088 Clouds 4 1020 74 10000 0.45 96 03:59 25.03.2021
1089 Clouds 7 1023 60 10000 1.81 139 00:35 25.03.2021
1090 Clouds 7 1023 60 10000 1.81 139 00:35 25.03.2021
1091 Clouds 7 1024 59 10000 1.74 143 23:55 24.03.2021
1092 Clouds 7 1024 75 10000 1.74 143 23:30 24.03.2021
1093 Clouds 8 1023 74 10000 0.45 172 22:50 24.03.2021
1094 Clouds 7 1023 74 10000 1.87 140 22:30 24.03.2021
1095 Clouds 8 1023 59 10000 0.45 360 21:47 24.03.2021
1096 Clouds 9 1023 57 10000 0.45 337 21:25 24.03.2021
1097 Clouds 9 1023 70 10000 1.34 156 20:46 24.03.2021
1098 Clouds 9 1023 66 10000 1.34 147 20:20 24.03.2021
1099 Clouds 7 1023 66 10000 1.34 147 19:59 24.03.2021
1100 Clear 8 1022 54 10000 2.57 280 19:31 24.03.2021
1101 Clear 10 1022 36 10000 1.03 310 18:52 24.03.2021
1102 Clear 9 1022 31 10000 1.03 0 18:24 24.03.2021
1103 Clear 10 1022 31 10000 1.03 0 17:53 24.03.2021
1104 Clouds 13 1023 44 10000 0.89 50 17:32 24.03.2021
1105 Clear 12 1022 36 10000 0.51 0 16:54 24.03.2021
1106 Clouds 13 1023 40 10000 0.45 11 16:31 24.03.2021
1107 Clouds 14 1022 53 10000 0.45 329 15:57 24.03.2021
1108 Clouds 14 1024 48 10000 0.45 267 15:33 24.03.2021
1109 Clouds 15 1024 50 10000 0.89 316 14:59 24.03.2021
1110 Clouds 15 1022 53 10000 1.34 360 14:28 24.03.2021
1111 Clouds 14 1022 52 10000 2.24 271 13:58 24.03.2021
1112 Clouds 14 1022 52 10000 2.24 271 13:58 24.03.2021
1113 Clear 13 1022 55 10000 1.34 248 13:28 24.03.2021
1114 Clear 12 1023 56 10000 2.68 246 12:49 24.03.2021
1115 Clear 11 1023 57 10000 2.24 266 12:27 24.03.2021
1116 Clear 11 1023 61 10000 2.68 235 11:54 24.03.2021
1117 Clear 11 1023 61 10000 2.68 235 11:54 24.03.2021
1118 Clear 10 1023 64 10000 3.58 259 11:35 24.03.2021
1119 Clear 10 1023 64 10000 3.58 259 11:35 24.03.2021
1120 Clear 9 1023 70 10000 2.68 360 10:48 24.03.2021
1121 Clear 8 1023 73 10000 1.79 244 10:28 24.03.2021
1122 Clear 8 1024 69 10000 1.45 289 09:54 24.03.2021
1123 Clear 6 1025 75 10000 0.62 244 09:25 24.03.2021
1124 Clear 4 1027 83 10000 0.62 244 08:57 24.03.2021
1125 Clear 4 1027 83 10000 0.62 244 08:32 24.03.2021
1126 Clear 2 1024 89 10000 0.62 170 07:45 24.03.2021
1127 Clear 1 1024 88 10000 1.24 150 07:18 24.03.2021
1128 Clear 1 1024 88 10000 1.24 152 06:41 24.03.2021
1129 Clouds 2 1024 84 10000 1.42 141 01:26 24.03.2021
1130 Clouds 3 1024 83 10000 0.45 78 00:36 24.03.2021
1131 Clouds 3 1024 84 10000 1.54 137 23:46 23.03.2021
1132 Clouds 3 1024 82 10000 1.46 132 23:19 23.03.2021
1133 Clouds 4 1024 83 10000 1.46 132 22:47 23.03.2021
1134 Clouds 3 1024 90 10000 1.57 130 22:24 23.03.2021
1135 Clouds 4 1024 82 10000 1.57 130 21:45 23.03.2021
1136 Clouds 4 1024 84 10000 1.67 118 21:25 23.03.2021
1137 Clouds 3 1025 78 10000 1.67 118 20:45 23.03.2021
1138 Clouds 6 1027 73 10000 1.58 85 20:25 23.03.2021
1139 Clouds 7 1027 72 10000 0.45 41 19:47 23.03.2021
1140 Clouds 5 1025 72 10000 1.79 24 19:26 23.03.2021
1141 Clear 7 1025 57 10000 3.09 20 18:44 23.03.2021
1142 Clouds 7 1023 67 10000 1.58 358 18:22 23.03.2021
1143 Clouds 8 1023 67 10000 1.58 358 17:46 23.03.2021
1144 Clouds 9 1023 59 10000 1.79 339 17:21 23.03.2021
1145 Clouds 9 1022 65 10000 2.32 346 16:42 23.03.2021
1146 Clouds 9 1023 58 10000 2.24 7 16:24 23.03.2021
1147 Clouds 9 1023 63 10000 0.89 225 15:46 23.03.2021
1148 Clouds 10 1023 64 10000 0.89 237 15:18 23.03.2021
1149 Clouds 10 1023 52 10000 2.18 335 14:39 23.03.2021
1150 Clouds 10 1023 54 10000 0.45 178 14:18 23.03.2021
1151 Clouds 10 1023 53 10000 2.06 334 13:43 23.03.2021
1152 Clouds 10 1024 56 10000 1.86 329 13:21 23.03.2021
1153 Clouds 9 1024 58 10000 1.34 63 12:43 23.03.2021
1154 Clouds 9 1024 59 10000 0.45 136 12:21 23.03.2021
1155 Clouds 9 1024 59 10000 0.45 136 12:21 23.03.2021
1156 Clouds 8 1024 59 10000 1.79 138 11:47 23.03.2021
1157 Clouds 8 1024 59 10000 1.79 138 11:47 23.03.2021
1158 Clouds 7 1025 62 10000 0.89 113 10:56 23.03.2021
1159 Clouds 7 1025 65 10000 1.37 334 10:38 23.03.2021
1160 Clear 7 1025 67 10000 0.73 352 10:20 23.03.2021
1161 Clear 7 1025 73 10000 0.73 352 09:42 23.03.2021
1162 Clear 6 1025 74 10000 0.78 21 09:21 23.03.2021
1163 Clear 4 1024 81 10000 0.78 21 08:40 23.03.2021
1164 Clear 3 1024 83 10000 0.82 76 08:22 23.03.2021
1165 Clear 2 1025 80 10000 0.82 76 07:48 23.03.2021
1166 Clouds 1 1024 91 10000 1.48 108 07:20 23.03.2021
1167 Clouds 2 1024 92 10000 1.47 113 06:41 23.03.2021
1168 Clouds 3 1025 81 10000 1.03 330 03:23 23.03.2021
1169 Clouds 3 1025 75 10000 1.92 105 02:21 23.03.2021
1170 Clouds 3 1026 70 10000 2.06 270 23:44 22.03.2021
1171 Clouds 4 1026 70 10000 0.51 0 22:59 22.03.2021
1172 Clouds 4 1026 81 10000 1.03 290 22:39 22.03.2021
1173 Clouds 4 1026 81 10000 1.03 290 22:20 22.03.2021
1174 Clouds 4 1026 75 10000 1.54 290 21:43 22.03.2021
1175 Clouds 5 1026 70 10000 1.54 280 21:24 22.03.2021
1176 Clouds 5 1026 70 10000 0.51 350 20:42 22.03.2021
1177 Clouds 5 1025 76 10000 1.34 3 20:22 22.03.2021
1178 Clouds 5 1025 65 10000 1.03 0 19:57 22.03.2021
1179 Clouds 5 1026 75 10000 0.45 34 19:37 22.03.2021
1180 Clouds 4 1023 78 10000 1.91 47 19:19 22.03.2021
1181 Clouds 4 1024 71 10000 1.62 37 18:40 22.03.2021
1182 Clouds 5 1023 71 10000 0.45 348 18:21 22.03.2021
1183 Clouds 5 1023 71 10000 0.45 7 17:48 22.03.2021
1184 Clouds 5 1023 69 10000 1.79 357 17:22 22.03.2021
1185 Clouds 5 1022 72 10000 3.13 7 16:47 22.03.2021
1186 Clouds 6 1023 68 10000 0.89 357 16:22 22.03.2021
1187 Clouds 6 1023 68 10000 1.79 317 15:39 22.03.2021
1188 Clouds 6 1023 68 10000 1.34 350 15:20 22.03.2021
1189 Clouds 6 1023 69 10000 1.79 357 14:57 22.03.2021
1190 Clouds 6 1022 67 10000 2.68 319 14:34 22.03.2021
1191 Clouds 6 1022 66 10000 0.45 357 13:50 22.03.2021
1192 Clouds 6 1023 65 10000 2.68 28 13:29 22.03.2021
1193 Clouds 6 1023 67 10000 2.68 336 12:57 22.03.2021
1194 Clouds 5 1023 69 10000 1.34 334 12:26 22.03.2021
1195 Clouds 6 1023 71 10000 0.89 316 11:51 22.03.2021
1196 Clouds 5 1022 70 10000 1.34 7 11:51 22.03.2021
1197 Clouds 5 1022 71 9833 0.45 334 11:29 22.03.2021
1198 Clouds 5 1022 72 9833 1.79 323 10:57 22.03.2021
1199 Clouds 5 1022 75 9833 3.04 0 10:37 22.03.2021
1200 Clouds 4 1022 76 10000 2.68 338 10:18 22.03.2021
1201 Clouds 3 1022 82 10000 1.34 350 09:34 22.03.2021
1202 Clouds 3 1022 87 10000 1.98 6 08:55 22.03.2021
1203 Clouds 2 1021 89 10000 1.98 6 08:37 22.03.2021
1204 Clouds 1 1021 90 10000 1.6 15 08:19 22.03.2021
1205 Clouds 0 1021 90 10000 1.6 15 07:41 22.03.2021
1206 Clouds 1 1021 89 10000 1.25 35 06:52 22.03.2021
1207 Clouds 0 1020 89 10000 1.07 55 05:18 22.03.2021
1208 Clouds 4 1020 78 10000 1.74 12 00:55 22.03.2021
1209 Clouds 3 1019 87 10000 1.44 7 00:20 22.03.2021
1210 Clouds 3 1019 85 10000 1.44 7 23:48 21.03.2021
1211 Clouds 4 1019 84 10000 1.28 354 23:19 21.03.2021
1212 Clouds 4 1019 84 10000 1.28 354 22:54 21.03.2021
1213 Clouds 4 1020 75 10000 1.25 336 21:45 21.03.2021
1214 Clouds 4 1020 74 10000 0.21 349 21:27 21.03.2021
1215 Clouds 4 1020 72 10000 0.21 351 20:58 21.03.2021
1216 Clouds 4 1020 72 10000 0.21 349 20:39 21.03.2021
1217 Clouds 4 1020 71 10000 1 146 20:21 21.03.2021
1218 Clouds 4 1020 70 10000 1 146 19:49 21.03.2021
1219 Clouds 4 1019 77 10000 1.34 154 19:20 21.03.2021
1220 Clouds 5 1019 76 10000 1.14 155 18:46 21.03.2021
1221 Clouds 4 1020 64 10000 0.25 109 18:27 21.03.2021
1222 Clouds 4 1019 77 10000 0.25 109 17:45 21.03.2021
1223 Clouds 4 1020 63 10000 1.03 351 17:19 21.03.2021
1224 Clouds 4 1020 63 10000 1.03 351 16:54 21.03.2021
1225 Clouds 5 1020 60 10000 2.07 334 16:29 21.03.2021
1226 Clouds 4 1019 74 10000 2.07 334 15:55 21.03.2021
1227 Clouds 4 1020 74 10000 2.07 334 15:36 21.03.2021
1228 Clouds 5 1021 57 10000 0.45 228 15:18 21.03.2021
1229 Clouds 5 1021 56 10000 1.07 326 14:41 21.03.2021
1230 Clouds 5 1021 53 10000 0.45 208 14:23 21.03.2021
1231 Clouds 5 1021 50 10000 2.08 340 13:52 21.03.2021
1232 Clouds 4 1021 55 10000 2.24 324 12:46 21.03.2021
1233 Clouds 5 1022 55 10000 1.71 306 12:27 21.03.2021
1234 Clouds 5 1022 55 10000 1.71 306 12:27 21.03.2021
1235 Clouds 4 1022 61 10000 1.71 306 11:53 21.03.2021
1236 Clouds 4 1022 65 10000 1.86 299 11:28 21.03.2021
1237 Clouds 2 1021 68 10000 1.86 299 10:59 21.03.2021
1238 Clouds 2 1021 71 10000 1.86 299 10:41 21.03.2021
1239 Clouds 3 1022 67 10000 1.01 245 10:21 21.03.2021
1240 Clouds 2 1022 72 10000 1.01 245 09:44 21.03.2021
1241 Clouds 2 1022 68 10000 0.6 227 09:26 21.03.2021
1242 Clouds 1 1022 67 10000 0.6 227 08:39 21.03.2021
1243 Clouds 1 1022 67 10000 0.19 264 08:20 21.03.2021
1244 Clouds 1 1023 68 10000 0.19 264 07:37 21.03.2021
1245 Clouds 0 1022 81 10000 0.95 179 06:52 21.03.2021
1246 Clouds 0 1022 72 10000 0.8 156 05:25 21.03.2021
1247 Clouds 0 1023 82 10000 1.08 137 02:23 21.03.2021
1248 Clear 0 1025 60 10000 2.06 270 00:42 21.03.2021
1249 Clear 0 1025 60 10000 1.54 270 00:22 21.03.2021
1250 Clear 0 1025 60 10000 2.06 250 23:48 20.03.2021
1251 Clear 1 1026 60 10000 2.06 260 23:22 20.03.2021
1252 Clear 1 1026 60 10000 2.06 260 23:22 20.03.2021
1253 Clear 1 1026 60 10000 2.06 280 22:55 20.03.2021
1254 Clear 1 1026 60 10000 2.57 280 22:22 20.03.2021
1255 Clear 1 1026 60 10000 2.57 300 21:47 20.03.2021
1256 Clear 1 1026 56 10000 2.57 310 21:25 20.03.2021
1257 Clear 1 1026 56 10000 2.06 320 20:45 20.03.2021
1258 Clear 1 1026 52 10000 2.06 340 20:23 20.03.2021
1259 Clear 2 1026 52 10000 2.06 10 19:51 20.03.2021
1260 Clear 2 1026 52 10000 2.06 360 19:28 20.03.2021
1261 Clear 2 1026 45 10000 2.57 30 18:50 20.03.2021
1262 Clouds 4 1025 49 10000 1.34 335 18:27 20.03.2021
1263 Clouds 3 1024 60 10000 2.99 13 17:58 20.03.2021
1264 Clouds 4 1024 58 10000 2.99 13 17:39 20.03.2021
1265 Clouds 4 1024 56 10000 3.81 14 17:19 20.03.2021
1266 Clouds 5 1024 58 10000 0.89 249 16:38 20.03.2021
1267 Clouds 4 1024 59 10000 0.45 161 16:18 20.03.2021
1268 Clouds 4 1024 54 10000 4.35 3 15:40 20.03.2021
1269 Clouds 4 1024 54 10000 4.35 3 15:40 20.03.2021
1270 Clouds 4 1024 49 10000 4.57 359 14:55 20.03.2021
1271 Clouds 4 1024 51 10000 4.57 359 14:31 20.03.2021
1272 Clouds 5 1025 52 10000 3.58 311 13:56 20.03.2021
1273 Clouds 4 1025 55 10000 4.02 348 13:29 20.03.2021
1274 Clouds 4 1026 57 10000 0.89 333 12:30 20.03.2021
1275 Clouds 3 1025 57 10000 2.68 168 11:58 20.03.2021
1276 Clouds 3 1025 63 10000 0.89 150 11:39 20.03.2021
1277 Clouds 3 1025 68 10000 1.79 152 11:20 20.03.2021
1278 Clouds 3 1026 79 10000 4.01 30 10:39 20.03.2021
1279 Clouds 3 1026 79 10000 3.6 30 10:21 20.03.2021
1280 Clouds 1 1026 84 10000 3.13 325 09:44 20.03.2021
1281 Clouds 1 1026 86 10000 2.73 23 09:22 20.03.2021
1282 Clouds -1 1024 84 10000 2.73 23 08:51 20.03.2021
1283 Clouds -1 1025 94 10000 1.98 31 08:19 20.03.2021
1284 Clouds -3 1024 95 10000 1.98 31 07:47 20.03.2021
1285 Clear -2 1025 94 10000 1.62 48 07:29 20.03.2021
1286 Clear -2 1025 93 10000 1.68 41 06:39 20.03.2021
1287 Clear -2 1024 93 10000 1.51 61 05:28 20.03.2021
1288 Clear -2 1024 92 10000 1.62 58 03:44 20.03.2021
1289 Clear -1 1024 91 10000 1.75 63 01:42 20.03.2021
1290 Clear -1 1023 90 10000 2.06 66 23:46 19.03.2021
1291 Clear 0 1023 89 10000 0.45 44 23:19 19.03.2021
1292 Clear 0 1023 88 10000 2.3 61 22:43 19.03.2021
1293 Clear 0 1023 89 10000 0.45 7 22:24 19.03.2021
1294 Clear 0 1022 88 10000 2.41 58 21:51 19.03.2021
1295 Clear 1 1022 88 10000 0.45 357 21:20 19.03.2021
1296 Clear 1 1022 89 10000 0.89 353 20:46 19.03.2021
1297 Clear 2 1021 89 10000 2.49 49 20:26 19.03.2021
1298 Clear 2 1021 89 10000 1.34 15 19:50 19.03.2021
1299 Clouds 2 1021 87 10000 1.34 353 19:24 19.03.2021
1300 Rain 3 1020 86 10000 1.34 13 18:56 19.03.2021
1301 Clouds 3 1019 88 10000 2.97 38 18:36 19.03.2021
1302 Clouds 3 1020 86 10000 0.45 313 18:18 19.03.2021
1303 Clouds 3 1019 88 10000 0.89 18 17:42 19.03.2021
1304 Clouds 2 1018 88 10000 0.45 148 17:22 19.03.2021
1305 Clouds 2 1017 90 10000 0.45 208 16:44 19.03.2021
1306 Clouds 3 1017 92 10000 4.7 17 16:26 19.03.2021
1307 Clouds 3 1017 91 10000 4.7 17 15:34 19.03.2021
1308 Rain 4 1018 89 10000 2.24 357 14:56 19.03.2021
1309 Clouds 3 1017 88 10000 4.02 7 14:35 19.03.2021
1310 Clouds 2 1017 92 5927 3.74 6 13:59 19.03.2021
1311 Rain 3 1016 91 10000 3.26 2 13:24 19.03.2021
1312 Clouds 4 1017 91 10000 2.24 338 12:48 19.03.2021
1313 Clouds 4 1017 88 10000 1.34 335 12:29 19.03.2021
1314 Rain 4 1017 78 10000 1.34 317 11:39 19.03.2021
1315 Clouds 4 1017 80 10000 2.24 323 10:53 19.03.2021
1316 Clouds 3 1017 79 10000 1.34 341 10:27 19.03.2021
1317 Clouds 3 1016 75 10000 0.89 46 09:48 19.03.2021
1318 Clouds 3 1016 79 10000 0.89 326 09:29 19.03.2021
1319 Clouds 2 1016 76 10000 1.62 17 08:54 19.03.2021
1320 Clouds 1 1016 77 10000 1.62 17 08:32 19.03.2021
1321 Clouds 1 1016 81 10000 0.45 46 07:54 19.03.2021
1322 Snow 0 1016 82 10000 1.34 30 07:35 19.03.2021
1323 Clouds 0 1015 83 10000 0.92 68 06:43 19.03.2021
1324 Clouds 1 1016 83 10000 1.18 168 02:45 19.03.2021
1325 Clouds 1 1016 93 10000 1.2 148 00:26 19.03.2021
1326 Clouds 2 1017 82 10000 1.2 148 23:30 18.03.2021
1327 Clouds 2 1017 82 10000 1.2 148 23:30 18.03.2021
1328 Clouds 2 1017 81 10000 1.36 146 22:58 18.03.2021
1329 Clouds 1 1017 91 10000 1.36 146 22:38 18.03.2021
1330 Clouds 1 1017 91 10000 1.17 131 22:18 18.03.2021
1331 Clouds 1 1018 82 10000 1.17 131 21:39 18.03.2021
1332 Clouds 1 1018 92 10000 1.3 117 20:47 18.03.2021
1333 Clouds 1 1018 90 10000 1.36 102 20:27 18.03.2021
1334 Snow 1 1018 85 10000 1.36 102 19:45 18.03.2021
1335 Clouds 1 1018 85 10000 1.42 49 19:27 18.03.2021
1336 Clouds 3 1019 75 10000 1.34 7 18:58 18.03.2021
1337 Clouds 3 1019 84 10000 1.58 48 18:33 18.03.2021
1338 Clouds 4 1019 81 10000 1.76 13 17:51 18.03.2021
1339 Clouds 4 1019 70 10000 2.55 9 17:26 18.03.2021
1340 Clouds 4 1019 85 10000 0.45 133 16:49 18.03.2021
1341 Clouds 4 1019 74 10000 0.45 45 16:30 18.03.2021
1342 Clouds 3 1023 77 10000 2.24 152 15:48 18.03.2021
1343 Clouds 3 1020 82 10000 3.59 355 15:28 18.03.2021
1344 Clouds 4 1020 76 10000 0.45 127 14:57 18.03.2021
1345 Rain 4 1023 63 10000 1.34 60 14:33 18.03.2021
1346 Clouds 5 1021 68 10000 1.34 322 13:54 18.03.2021
1347 Clouds 4 1021 74 10000 2.98 2 13:27 18.03.2021
1348 Clouds 4 1021 75 10000 1.34 233 12:45 18.03.2021
1349 Clouds 4 1021 86 4380 1.34 252 12:27 18.03.2021
1350 Rain 5 1022 73 4380 1.79 313 11:55 18.03.2021
1351 Rain 4 1022 75 4380 1.34 304 11:34 18.03.2021
1352 Clouds 3 1022 80 10000 0.89 180 10:49 18.03.2021
1353 Clouds 3 1022 80 10000 0.89 180 10:49 18.03.2021
1354 Clouds 4 1023 80 10000 2.21 358 10:28 18.03.2021
1355 Clouds 2 1022 91 10000 0.45 188 09:58 18.03.2021
1356 Clouds 2 1023 94 10000 2.21 358 09:30 18.03.2021
1357 Clouds 1 1023 90 10000 1.7 3 08:57 18.03.2021
1358 Clouds 0 1023 91 10000 1.7 3 08:33 18.03.2021
1359 Clouds 0 1024 92 10000 0.92 40 07:58 18.03.2021
1360 Clouds -1 1024 92 10000 0.92 40 07:40 18.03.2021
1361 Clouds -1 1023 92 10000 1.17 75 06:40 18.03.2021
1362 Clouds -1 1023 93 10000 1.09 74 06:22 18.03.2021
1363 Clouds -1 1024 92 10000 1.14 81 05:25 18.03.2021
1364 Rain 2 1023 95 10000 1.19 90 00:40 18.03.2021
1365 Clouds 3 1023 93 10000 1.46 63 23:19 17.03.2021
1366 Clouds 3 1022 95 10000 1.46 63 22:38 17.03.2021
1367 Clouds 3 1023 93 10000 1.62 39 22:20 17.03.2021
1368 Clouds 3 1023 93 10000 1.62 39 21:50 17.03.2021
1369 Clouds 3 1023 93 10000 1.62 39 21:31 17.03.2021
1370 Clouds 2 1023 92 3713 0.45 329 20:48 17.03.2021
1371 Rain 3 1023 91 3600 0.45 7 20:26 17.03.2021
1372 Clouds 3 1022 90 3616 1.19 348 19:58 17.03.2021
1373 Clouds 2 1022 90 3600 1.18 348 19:39 17.03.2021
1374 Rain 3 1022 89 5576 0.86 6 19:19 17.03.2021
1375 Clouds 3 1022 88 3532 2.06 347 18:47 17.03.2021
1376 Clouds 4 1022 88 10000 1.97 353 18:29 17.03.2021
1377 Clouds 4 1021 88 10000 1.97 353 17:33 17.03.2021
1378 Clouds 4 1021 89 10000 2.36 358 16:58 17.03.2021
1379 Clouds 4 1021 89 10000 2.36 358 16:39 17.03.2021
1380 Rain 4 1020 93 10000 2.84 0 16:20 17.03.2021
1381 Clouds 4 1022 86 10000 1.34 329 15:45 17.03.2021
1382 Rain 5 1021 91 10000 3.48 359 15:26 17.03.2021
1383 Rain 6 1021 83 10000 3.48 359 14:40 17.03.2021
1384 Clouds 6 1021 84 5917 3.69 358 14:19 17.03.2021
1385 Clouds 5 1021 95 5917 0.45 166 13:54 17.03.2021
1386 Clouds 4 1021 94 5608 1.34 234 13:24 17.03.2021
1387 Clouds 4 1022 90 5249 3.5 353 12:43 17.03.2021
1388 Clouds 4 1022 91 2024 3.38 350 12:25 17.03.2021
1389 Clouds 4 1021 95 2024 3.38 350 11:41 17.03.2021
1390 Clouds 4 1022 95 4997 2.68 343 11:21 17.03.2021
1391 Clouds 3 1022 95 4997 0.45 245 10:52 17.03.2021
1392 Clouds 3 1023 93 10000 1.62 348 10:23 17.03.2021
1393 Rain 3 1022 94 10000 1.62 348 09:46 17.03.2021
1394 Clouds 2 1023 93 3071 1.91 359 09:20 17.03.2021
1395 Clouds 3 1022 93 3071 1.91 359 08:53 17.03.2021
1396 Clouds 3 1022 93 3071 1.91 359 08:33 17.03.2021
1397 Rain 2 1021 95 2876 0.45 213 07:46 17.03.2021
1398 Rain 2 1021 92 74 0.84 319 06:59 17.03.2021
1399 Rain 2 1021 92 77 1.37 329 06:36 17.03.2021
1400 Clouds 2 1020 91 136 1.1 245 04:19 17.03.2021
1401 Clouds 3 1021 91 111 1.42 239 02:44 17.03.2021
1402 Rain 3 1022 90 87 0.45 194 00:40 17.03.2021
1403 Rain 3 1022 90 166 1.34 188 23:28 16.03.2021
1404 Rain 3 1023 89 166 1.79 200 22:48 16.03.2021
1405 Rain 3 1023 89 222 2.24 216 22:29 16.03.2021
1406 Rain 3 1023 88 222 1.34 198 21:47 16.03.2021
1407 Rain 3 1023 88 2841 1.34 169 21:29 16.03.2021
1408 Rain 3 1023 87 2841 2.24 171 20:58 16.03.2021
1409 Rain 4 1023 86 1702 1.79 150 20:20 16.03.2021
1410 Rain 4 1023 86 1702 2.24 223 19:58 16.03.2021
1411 Rain 4 1023 85 1702 0.89 209 19:39 16.03.2021
1412 Rain 4 1023 84 3591 1.99 253 19:19 16.03.2021
1413 Rain 5 1023 78 3591 1.79 200 18:40 16.03.2021
1414 Rain 5 1023 75 10000 1.34 211 18:21 16.03.2021
1415 Clouds 5 1023 73 10000 1.79 193 17:47 16.03.2021
1416 Clouds 5 1023 72 10000 1.34 207 17:29 16.03.2021
1417 Clouds 5 1023 73 10000 2.24 183 16:52 16.03.2021
1418 Clouds 5 1023 71 10000 1.34 171 16:28 16.03.2021
1419 Clouds 6 1024 62 10000 2.6 258 15:47 16.03.2021
1420 Clouds 6 1024 63 7593 0.89 204 15:21 16.03.2021
1421 Clouds 6 1024 61 7593 0.45 235 14:58 16.03.2021
1422 Clouds 6 1024 66 7593 2.54 271 14:40 16.03.2021
1423 Clouds 5 1024 67 5219 2.42 286 14:21 16.03.2021
1424 Clouds 7 1024 53 5292 2.42 286 13:54 16.03.2021
1425 Clouds 7 1024 53 3544 2.24 323 13:26 16.03.2021
1426 Clouds 7 1025 53 3544 2.24 223 12:54 16.03.2021
1427 Clouds 6 1025 55 1760 1.34 205 12:35 16.03.2021
1428 Clouds 5 1024 79 1652 1.79 244 11:54 16.03.2021
1429 Clouds 5 1024 80 1922 2.14 258 11:28 16.03.2021
1430 Clouds 4 1024 81 1922 1.79 232 10:45 16.03.2021
1431 Clouds 4 1025 75 754 0.89 241 10:20 16.03.2021
1432 Clouds 4 1024 75 754 2.08 250 09:39 16.03.2021
1433 Clouds 4 1024 75 1506 1.93 245 09:19 16.03.2021
1434 Clouds 4 1024 76 1506 1.93 245 08:51 16.03.2021
1435 Clouds 4 1024 77 1506 0.45 234 08:32 16.03.2021
1436 Clouds 3 1023 80 779 1.82 240 07:50 16.03.2021
1437 Clouds 3 1022 90 2985 1.57 231 06:57 16.03.2021
1438 Clouds 3 1022 90 3033 1.66 246 06:37 16.03.2021
1439 Clouds 3 1021 90 2998 1.69 266 05:35 16.03.2021
1440 Clouds 4 1020 90 1120 1.58 282 02:46 16.03.2021
1441 Clouds 4 1020 89 2959 1.35 278 02:25 16.03.2021
1442 Clouds 4 1020 87 3223 1.53 288 00:25 16.03.2021
1443 Clouds 4 1019 87 3223 1.53 288 23:53 15.03.2021
1444 Clouds 4 1019 87 7251 1.35 281 23:19 15.03.2021
1445 Clouds 4 1018 93 7251 1.35 281 22:42 15.03.2021
1446 Clouds 5 1019 87 8354 1.22 273 22:24 15.03.2021
1447 Clouds 5 1019 87 8354 1.22 273 21:48 15.03.2021
1448 Clouds 5 1018 86 8472 1.23 266 21:27 15.03.2021
1449 Clouds 4 1018 85 8472 1.23 266 20:47 15.03.2021
1450 Clouds 5 1018 86 8252 1.4 267 20:28 15.03.2021
1451 Clouds 5 1016 94 8252 1.4 267 19:58 15.03.2021
1452 Clouds 5 1017 88 8252 0.45 192 19:39 15.03.2021
1453 Clouds 5 1016 87 10000 1.78 283 19:21 15.03.2021
1454 Clouds 5 1015 93 10000 1.78 283 18:42 15.03.2021
1455 Clouds 7 1016 79 10000 2.24 212 18:22 15.03.2021
1456 Clouds 6 1014 90 10000 2.36 296 17:52 15.03.2021
1457 Clouds 6 1014 86 10000 2.59 312 17:22 15.03.2021
1458 Clouds 7 1013 83 10000 2.59 312 16:49 15.03.2021
1459 Clouds 6 1014 80 10000 2.85 326 16:20 15.03.2021
1460 Clouds 7 1013 81 10000 0.89 290 15:39 15.03.2021
1461 Clouds 7 1013 86 4922 3.08 321 15:20 15.03.2021
1462 Clouds 7 1013 82 4922 3.08 321 14:41 15.03.2021
1463 Rain 8 1013 80 6883 5.81 328 14:21 15.03.2021
1464 Clouds 6 1013 81 6883 1.34 175 13:46 15.03.2021
1465 Clouds 7 1013 84 945 2.68 213 13:24 15.03.2021
1466 Clouds 5 1013 90 3117 2.68 217 12:47 15.03.2021
1467 Clouds 5 1014 90 3016 2.68 173 12:18 15.03.2021
1468 Rain 4 1013 90 3016 2.24 185 11:47 15.03.2021
1469 Rain 4 1013 86 746 4.02 223 11:29 15.03.2021
1470 Clouds 4 1013 85 746 3.58 306 10:45 15.03.2021
1471 Clouds 4 1013 85 746 3.58 306 10:45 15.03.2021
1472 Clouds 4 1013 86 267 4.47 214 10:26 15.03.2021
1473 Clouds 4 1013 86 267 4.47 214 10:26 15.03.2021
1474 Clouds 4 1013 87 267 5.36 198 09:49 15.03.2021
1475 Clouds 4 1013 87 267 4.92 188 09:30 15.03.2021
1476 Clouds 4 1013 88 83 4.47 217 08:48 15.03.2021
1477 Clouds 4 1013 88 421 4.02 184 08:27 15.03.2021
1478 Clouds 4 1013 87 421 4.92 142 07:43 15.03.2021
1479 Rain 4 1013 85 218 4.02 156 07:24 15.03.2021
1480 Clouds 4 1013 85 192 3.58 202 06:36 15.03.2021
1481 Rain 4 1013 88 3312 3.13 229 05:24 15.03.2021
1482 Clouds 4 1016 85 3016 2.24 236 01:25 15.03.2021
1483 Clouds 4 1017 87 3050 2.24 176 23:52 14.03.2021
1484 Clouds 4 1017 88 3471 2.68 231 23:19 14.03.2021
1485 Clouds 4 1017 88 3471 2.24 190 22:42 14.03.2021
1486 Clouds 4 1017 88 2082 1.79 159 22:19 14.03.2021
1487 Clouds 4 1017 89 2082 1.79 180 21:45 14.03.2021
1488 Clouds 3 1017 90 10000 1.79 182 21:18 14.03.2021
1489 Clouds 4 1017 87 10000 1.34 251 20:43 14.03.2021
1490 Clouds 4 1016 85 7298 2.24 219 20:24 14.03.2021
1491 Clouds 4 1015 93 7298 3.07 223 19:43 14.03.2021
1492 Rain 4 1015 93 2036 2.81 223 19:23 14.03.2021
1493 Clouds 4 1015 92 3795 2.67 215 18:48 14.03.2021
1494 Clouds 4 1014 92 2466 0.45 252 18:22 14.03.2021
1495 Clouds 4 1014 92 2466 3.23 223 17:40 14.03.2021
1496 Clouds 4 1014 92 2138 3.39 225 17:22 14.03.2021
1497 Clouds 4 1014 92 2138 3.39 225 16:46 14.03.2021
1498 Clouds 4 1015 85 1910 0.89 219 16:27 14.03.2021
1499 Clouds 4 1014 87 1910 1.34 183 15:53 14.03.2021
1500 Clouds 4 1014 86 1910 3.13 210 15:34 14.03.2021
1501 Clouds 4 1014 89 2929 4.02 204 14:41 14.03.2021
1502 Clouds 4 1014 89 97 4.02 175 14:21 14.03.2021
1503 Clouds 4 1013 90 97 4.92 216 13:49 14.03.2021
1504 Clouds 3 1014 90 1625 2.24 215 13:28 14.03.2021
1505 Rain 3 1014 88 2864 3.13 146 12:47 14.03.2021
1506 Rain 4 1014 84 7724 3.58 184 12:28 14.03.2021
1507 Rain 5 1014 77 7724 4.47 259 11:51 14.03.2021
1508 Rain 4 1014 77 7724 4.47 202 11:33 14.03.2021
1509 Clouds 5 1014 79 10000 4.02 172 10:56 14.03.2021
1510 Clouds 5 1014 79 10000 4.02 233 10:37 14.03.2021
1511 Clouds 4 1014 80 10000 3.13 215 10:18 14.03.2021
1512 Clouds 4 1014 81 10000 3.58 161 09:43 14.03.2021
1513 Clouds 4 1014 80 7920 2.68 172 09:22 14.03.2021
1514 Clouds 3 1013 85 7920 2.68 183 08:43 14.03.2021
1515 Clouds 3 1013 86 10000 3.13 190 08:23 14.03.2021
1516 Clouds 3 1012 83 10000 3.13 135 07:46 14.03.2021
1517 Clouds 3 1012 84 5662 3.13 208 06:51 14.03.2021
1518 Clouds 3 1010 83 3722 4.02 192 05:32 14.03.2021
1519 Clouds 5 1006 84 2357 3.13 202 00:52 14.03.2021
1520 Clouds 5 1006 82 10000 3.58 207 00:19 14.03.2021
1521 Clouds 5 1006 84 10000 1.34 223 23:52 13.03.2021
1522 Clouds 5 1005 88 10000 2.68 222 23:30 13.03.2021
1523 Rain 5 1007 86 10000 5.36 217 22:54 13.03.2021
1524 Clouds 4 1006 89 10000 1.79 157 22:27 13.03.2021
1525 Clouds 4 1006 90 10000 3.13 300 21:48 13.03.2021
1526 Rain 5 1007 86 9528 2.24 212 21:26 13.03.2021
1527 Rain 7 1006 78 9582 1.79 225 20:53 13.03.2021
1528 Rain 7 1005 76 9528 3.58 176 20:31 13.03.2021
1529 Clouds 7 1005 78 10000 2.68 157 19:56 13.03.2021
1530 Clouds 6 1006 79 10000 4.02 188 19:32 13.03.2021
1531 Clouds 6 1006 81 5318 3.13 209 18:58 13.03.2021
1532 Clouds 5 1006 84 10000 5.36 209 18:40 13.03.2021
1533 Clouds 5 1006 84 10000 5.81 180 18:18 13.03.2021
1534 Clouds 4 1006 87 10000 5.81 177 17:44 13.03.2021
1535 Clouds 4 1006 88 4425 4.47 149 17:25 13.03.2021
1536 Rain 5 1007 88 4425 3.13 81 16:45 13.03.2021
1537 Rain 5 1007 86 2428 3.13 201 16:27 13.03.2021
1538 Rain 6 1007 81 2428 2.24 174 15:41 13.03.2021
1539 Rain 7 1006 83 10000 3.58 227 14:51 13.03.2021
1540 Rain 8 1004 83 10000 1.34 213 14:32 13.03.2021
1541 Rain 11 1004 52 10000 7.15 206 13:54 13.03.2021
1542 Clouds 11 1004 54 10000 8.05 277 13:25 13.03.2021
1543 Clouds 11 1004 53 10000 6.71 173 12:47 13.03.2021
1544 Clouds 11 1005 54 10000 8.05 214 12:28 13.03.2021
1545 Clouds 11 1005 53 10000 5.81 208 11:51 13.03.2021
1546 Clouds 11 1005 54 10000 6.26 223 11:30 13.03.2021
1547 Clouds 10 1006 57 10000 5.36 165 10:51 13.03.2021
1548 Clouds 10 1006 56 10000 7.15 231 10:30 13.03.2021
1549 Clouds 10 1007 57 10000 5.81 190 09:56 13.03.2021
1550 Clouds 9 1007 60 10000 4.92 173 09:24 13.03.2021
1551 Clouds 9 1007 61 10000 6.71 161 08:44 13.03.2021
1552 Clouds 8 1007 60 10000 8.49 186 08:20 13.03.2021
1553 Clouds 9 1007 62 10000 5.36 211 07:55 13.03.2021
1554 Clouds 9 1008 64 10000 6.26 207 07:20 13.03.2021
1555 Clouds 8 1010 73 10000 5.36 182 03:33 13.03.2021
1556 Clouds 8 1011 72 10000 5.36 199 01:21 13.03.2021
1557 Clouds 8 1011 72 10000 5.36 199 01:21 13.03.2021
1558 Clouds 8 1012 69 10000 4.47 194 00:23 13.03.2021
1559 Clouds 8 1012 69 10000 4.92 155 23:33 12.03.2021
1560 Rain 8 1012 70 10000 4.02 239 22:56 12.03.2021
1561 Clouds 9 1014 68 10000 5.81 226 22:29 12.03.2021
1562 Clouds 8 1013 63 10000 3.58 208 21:56 12.03.2021
1563 Clouds 8 1012 63 10000 5.81 280 21:37 12.03.2021
1564 Clouds 8 1012 64 10000 3.13 210 21:18 12.03.2021
1565 Clouds 7 1015 59 10000 2.24 215 20:46 12.03.2021
1566 Clouds 9 1012 58 10000 4.02 152 20:21 12.03.2021
1567 Clouds 9 1011 64 10000 2.68 175 19:44 12.03.2021
1568 Clouds 9 1011 65 10000 3.13 207 19:25 12.03.2021
1569 Clouds 9 1011 63 10000 1.79 181 18:47 12.03.2021
1570 Clouds 9 1011 61 10000 3.13 196 18:25 12.03.2021
1571 Clouds 10 1011 54 10000 3.13 179 17:44 12.03.2021
1572 Clouds 10 1011 53 10000 3.13 208 17:26 12.03.2021
1573 Clouds 10 1012 50 10000 4.47 202 16:44 12.03.2021
1574 Clouds 11 1012 50 10000 3.58 190 16:24 12.03.2021
1575 Clouds 11 1012 50 10000 3.58 190 16:24 12.03.2021
1576 Clouds 9 1012 63 10000 0.89 271 15:38 12.03.2021
1577 Clouds 8 1013 67 10000 1.79 177 14:58 12.03.2021
1578 Clouds 9 1013 63 10000 5.36 226 14:38 12.03.2021
1579 Clouds 10 1013 59 10000 3.13 212 14:18 12.03.2021
1580 Clouds 10 1013 58 10000 4.02 171 13:38 12.03.2021
1581 Clouds 9 1014 59 10000 4.47 206 13:19 12.03.2021
1582 Clouds 10 1014 54 10000 5.81 210 12:49 12.03.2021
1583 Clouds 10 1014 54 10000 3.13 225 12:28 12.03.2021
1584 Clouds 9 1014 59 10000 3.13 216 11:54 12.03.2021
1585 Clouds 9 1014 59 10000 3.13 216 11:54 12.03.2021
1586 Clouds 8 1015 66 10000 4.47 203 11:25 12.03.2021
1587 Clouds 7 1015 66 10000 1.79 203 10:57 12.03.2021
1588 Clouds 7 1015 67 10000 3.13 203 10:28 12.03.2021
1589 Clouds 7 1015 71 10000 2.24 203 09:58 12.03.2021
1590 Clouds 7 1015 77 10000 4.92 144 09:27 12.03.2021
1591 Clouds 6 1015 80 10000 3.13 211 08:51 12.03.2021
1592 Clouds 6 1015 78 10000 5.36 234 08:33 12.03.2021
1593 Clouds 5 1013 79 10000 1.34 265 07:41 12.03.2021
1594 Clouds 5 1014 77 10000 4.02 138 07:18 12.03.2021
1595 Clouds 5 1014 81 10000 4.02 253 06:40 12.03.2021
1596 Rain 7 1013 83 10000 3.13 140 03:29 12.03.2021
1597 Clouds 7 1012 88 10000 1.34 211 00:52 12.03.2021
1598 Clouds 7 1011 89 5742 7.68 238 23:40 11.03.2021
1599 Clouds 8 1011 86 7152 3.13 229 22:58 11.03.2021
1600 Rain 10 1011 74 7152 4.47 275 22:38 11.03.2021
1601 Clouds 10 1010 76 5146 6.71 205 22:18 11.03.2021
1602 Clouds 10 1009 83 5146 5.36 202 21:42 11.03.2021
1603 Clouds 10 1008 84 6755 4.02 142 21:21 11.03.2021
1604 Clouds 10 1008 85 6854 2.24 205 20:49 11.03.2021
1605 Clouds 10 1008 85 10000 1.79 200 20:22 11.03.2021
1606 Clouds 10 1007 91 10000 3.13 202 19:49 11.03.2021
1607 Clouds 10 1007 91 10000 3.13 202 19:30 11.03.2021
1608 Rain 10 1006 89 7551 3.13 161 18:52 11.03.2021
1609 Rain 10 1006 88 7506 4.47 151 18:34 11.03.2021
1610 Rain 10 1006 89 5468 1.79 254 17:52 11.03.2021
1611 Rain 11 1006 86 5468 2.68 212 17:30 11.03.2021
1612 Rain 11 1006 84 4322 3.13 175 16:32 11.03.2021
1613 Rain 12 1006 85 10000 3.13 215 15:56 11.03.2021
1614 Rain 13 1006 79 10000 5.81 248 15:37 11.03.2021
1615 Rain 14 1005 73 10000 3.13 254 15:19 11.03.2021
1616 Clouds 13 1007 67 10000 7.2 220 14:43 11.03.2021
1617 Clouds 11 1006 70 10000 2.68 289 14:18 11.03.2021
1618 Rain 12 1008 72 10000 3.6 200 13:43 11.03.2021
1619 Rain 13 1006 71 10000 3.58 360 13:21 11.03.2021
1620 Clouds 14 1007 66 10000 2.24 194 12:50 11.03.2021
1621 Clouds 14 1008 67 10000 2.68 226 12:28 11.03.2021
1622 Clouds 14 1008 65 10000 2.68 211 11:46 11.03.2021
1623 Clouds 14 1008 65 10000 4.47 181 11:27 11.03.2021
1624 Clouds 13 1008 65 10000 6.26 221 10:50 11.03.2021
1625 Clouds 11 1012 67 10000 3.58 212 10:25 11.03.2021
1626 Clouds 11 1009 64 10000 4.92 198 09:50 11.03.2021
1627 Clouds 9 1010 66 10000 10.29 180 09:32 11.03.2021
1628 Clouds 12 1013 56 10000 1.79 157 08:50 11.03.2021
1629 Clouds 11 1010 62 10000 8.75 190 08:31 11.03.2021
1630 Clouds 9 1010 66 10000 5.66 190 07:47 11.03.2021
1631 Clouds 10 1011 62 10000 5.14 210 07:20 11.03.2021
1632 Clouds 9 1011 58 10000 6.69 230 06:40 11.03.2021
1633 Clouds 9 1011 58 10000 6.69 230 06:21 11.03.2021
1634 Clouds 10 1012 48 10000 3.58 216 02:25 11.03.2021
1635 -273 0 0 0 0 0 00:24 11.03.2021
1636 Clouds 7 1015 56 10000 2.68 174 23:23 10.03.2021
1637 Clouds 4 1015 73 10000 2.68 174 22:42 10.03.2021
1638 Clouds 7 1017 59 10000 1.34 211 22:21 10.03.2021
1639 Clouds 7 1015 58 10000 2.8 175 21:44 10.03.2021
1640 Clouds 7 1015 58 10000 2.55 173 21:22 10.03.2021
1641 Clouds 7 1015 58 10000 2.55 173 21:22 10.03.2021
1642 Clouds 7 1015 75 10000 2.66 177 20:45 10.03.2021
1643 Clouds 6 1016 62 10000 2.99 165 20:27 10.03.2021
1644 Clouds 6 1016 61 10000 2.99 165 19:48 10.03.2021
1645 Clouds 6 1016 65 10000 2.71 163 19:27 10.03.2021
1646 Clear 8 1017 46 10000 2.06 180 18:44 10.03.2021
1647 Clear 8 1016 40 10000 3.6 170 18:24 10.03.2021
1648 Clear 11 1017 35 10000 3.6 160 17:55 10.03.2021
1649 Clear 11 1017 40 10000 2.57 170 17:37 10.03.2021
1650 Clouds 11 1016 49 10000 1.68 221 17:19 10.03.2021
1651 Clouds 11 1016 47 10000 1.34 360 16:42 10.03.2021
1652 Clouds 10 1016 46 10000 1.79 236 16:22 10.03.2021
1653 Clouds 10 1017 43 10000 1.34 253 15:45 10.03.2021
1654 Clouds 10 1020 44 10000 2.68 239 15:23 10.03.2021
1655 Clouds 10 1017 46 10000 2.62 245 14:48 10.03.2021
1656 Clouds 10 1017 48 10000 0.89 224 14:20 10.03.2021
1657 Clouds 10 1017 48 10000 0.89 224 14:20 10.03.2021
1658 Clouds 11 1018 46 10000 2.24 249 13:51 10.03.2021
1659 Clouds 10 1019 45 10000 0.45 23 13:30 10.03.2021
1660 Clouds 9 1019 49 10000 3.13 258 12:46 10.03.2021
1661 Clouds 8 1019 49 10000 1.34 360 12:19 10.03.2021
1662 Clouds 9 1020 55 10000 2.17 253 11:44 10.03.2021
1663 Clouds 8 1020 64 10000 2.23 258 11:21 10.03.2021
1664 Clouds 7 1020 60 10000 0.89 221 10:49 10.03.2021
1665 Clouds 6 1021 67 10000 2.23 258 10:30 10.03.2021
1666 Clouds 5 1021 70 10000 1.81 243 09:46 10.03.2021
1667 Clouds 4 1021 72 10000 1.37 232 09:27 10.03.2021
1668 Clouds 4 1021 76 10000 1.37 232 08:58 10.03.2021
1669 Clouds 3 1020 78 10000 1.37 232 08:40 10.03.2021
1670 Clouds 3 1020 79 10000 1.08 197 08:21 10.03.2021
1671 Clouds 2 1020 79 10000 1.08 197 07:41 10.03.2021
1672 Clouds 2 1020 78 10000 1.4 162 07:19 10.03.2021
1673 Clouds 2 1020 78 10000 0.96 162 06:46 10.03.2021
1674 Clouds 3 1018 85 10000 0.84 249 02:42 10.03.2021
1675 Clouds 3 1020 65 10000 1.54 0 23:53 09.03.2021
1676 Clouds 3 1019 69 10000 0.89 55 23:27 09.03.2021
1677 Clouds 4 1016 79 10000 0.45 246 22:49 09.03.2021
1678 Clouds 6 1020 57 10000 1.54 0 22:28 09.03.2021
1679 Clouds 4 1020 57 10000 1.03 280 21:57 09.03.2021
1680 Clouds 6 1020 57 10000 1.54 320 21:37 09.03.2021
1681 Clouds 6 1020 57 10000 1.54 320 21:18 09.03.2021
1682 Clouds 6 1019 57 10000 1.54 0 20:43 09.03.2021
1683 Clouds 6 1019 57 10000 1.54 0 20:22 09.03.2021
1684 Clouds 7 1019 49 10000 1.54 320 19:57 09.03.2021
1685 Clouds 5 1019 53 10000 1.54 320 19:29 09.03.2021
1686 Clear 8 1018 49 10000 1.54 30 18:54 09.03.2021
1687 Rain 6 1017 57 10000 1.01 44 18:31 09.03.2021
1688 Rain 6 1018 46 10000 2.57 20 17:59 09.03.2021
1689 Clear 7 1017 46 10000 2.06 10 17:39 09.03.2021
1690 Clouds 7 1016 50 10000 0.89 254 17:20 09.03.2021
1691 Clouds 9 1016 45 10000 1.34 211 16:40 09.03.2021
1692 Clouds 8 1016 50 10000 1.79 244 16:21 09.03.2021
1693 Clouds 8 1016 52 10000 1.34 219 15:56 09.03.2021
1694 Clouds 8 1016 56 10000 1.34 253 15:25 09.03.2021
1695 Clouds 8 1016 52 10000 2.68 232 14:49 09.03.2021
1696 Clouds 8 1016 54 10000 2.24 233 14:26 09.03.2021
1697 Clouds 7 1016 54 10000 2.24 234 13:42 09.03.2021
1698 Clouds 6 1016 58 10000 2.68 250 13:21 09.03.2021
1699 Clouds 6 1017 61 10000 1.79 250 12:54 09.03.2021
1700 Clouds 6 1017 62 10000 0.89 257 12:35 09.03.2021
1701 Clouds 5 1018 59 10000 1.86 317 11:44 09.03.2021
1702 Clouds 4 1017 69 10000 1.79 253 11:22 09.03.2021
1703 Clouds 4 1018 65 10000 1.7 308 10:59 09.03.2021
1704 Clouds 4 1017 74 10000 1.79 265 10:39 09.03.2021
1705 Clouds 3 1018 70 10000 1.34 303 10:20 09.03.2021
1706 Clear 2 1019 69 10000 1.54 0 09:46 09.03.2021
1707 Clouds 1 1018 78 10000 1.07 305 09:26 09.03.2021
1708 Clouds 1 1017 81 10000 1.07 305 08:57 09.03.2021
1709 Clouds 0 1015 79 10000 1.07 305 08:32 09.03.2021
1710 Clear -2 1018 80 10000 0.13 124 07:46 09.03.2021
1711 Clouds -2 1017 83 10000 0.06 128 07:26 09.03.2021
1712 Clouds -2 1017 82 10000 0.06 128 06:55 09.03.2021
1713 Clouds -2 1017 80 10000 0.13 164 05:53 09.03.2021
1714 Clear -1 1017 74 10000 1.21 112 01:32 09.03.2021
1715 Clear -1 1017 74 10000 1.21 112 01:32 09.03.2021
1716 Clear 0 1017 73 10000 1.55 126 23:58 08.03.2021
1717 Clear 0 1017 72 10000 1.55 126 23:39 08.03.2021
1718 Clear 0 1017 70 10000 1.6 117 23:18 08.03.2021
1719 Clear 1 1017 74 10000 1.6 117 22:40 08.03.2021
1720 Clear 1 1017 75 10000 0.45 118 22:21 08.03.2021
1721 Clear 2 1017 70 10000 1.64 107 21:50 08.03.2021
1722 Clouds 3 1017 71 10000 1.61 101 21:29 08.03.2021
1723 Clouds 4 1017 69 10000 1.61 101 20:43 08.03.2021
1724 Clouds 4 1017 68 10000 1.68 92 20:22 08.03.2021
1725 Clouds 3 1021 60 10000 0.45 315 19:46 08.03.2021
1726 Clouds 5 1017 64 10000 1.57 62 19:27 08.03.2021
1727 Clouds 6 1018 56 10000 3.13 41 18:38 08.03.2021
1728 Clouds 6 1017 59 10000 1.83 7 18:19 08.03.2021
1729 Clear 8 1018 39 10000 5.14 10 17:46 08.03.2021
1730 Clouds 7 1016 54 10000 2.67 352 17:24 08.03.2021
1731 Clouds 9 1016 55 10000 2.24 239 16:44 08.03.2021
1732 Clouds 8 1016 55 10000 0.89 360 16:25 08.03.2021
1733 Clouds 8 1017 55 10000 1.79 243 15:47 08.03.2021
1734 Clouds 8 1017 56 10000 3.13 238 15:24 08.03.2021
1735 Clouds 8 1017 60 10000 3.13 236 14:22 08.03.2021
1736 Clouds 8 1018 63 10000 2.68 270 13:58 08.03.2021
1737 Clouds 7 1018 65 10000 3.13 259 13:24 08.03.2021
1738 Clouds 6 1018 68 10000 3.13 266 12:59 08.03.2021
1739 Clouds 5 1018 69 10000 3.58 360 12:41 08.03.2021
1740 Clouds 6 1019 60 10000 0.45 7 12:20 08.03.2021
1741 Clouds 4 1022 72 10000 1.34 32 11:37 08.03.2021
1742 Clear 4 1022 72 10000 0.45 90 11:18 08.03.2021
1743 Clear 4 1017 68 10000 2.13 342 10:41 08.03.2021
1744 Clear 2 1022 79 10000 1.34 74 10:19 08.03.2021
1745 Clear 2 1022 86 10000 2 349 09:41 08.03.2021
1746 Clear 1 1022 86 10000 1.83 358 09:22 08.03.2021
1747 Clear 0 1020 84 10000 0.45 327 08:27 08.03.2021
1748 Clear -2 1019 85 10000 0.45 2 07:23 08.03.2021
1749 Clear -1 1019 84 10000 0.45 357 06:43 08.03.2021
1750 Clear 0 1018 80 10000 0.45 7 03:38 08.03.2021
1751 Clouds 2 1019 76 10000 0.96 38 00:44 08.03.2021
1752 Clouds 3 1019 73 10000 1 28 23:57 07.03.2021
1753 Clouds 4 1019 75 10000 1 28 23:39 07.03.2021
1754 Clouds 4 1019 73 10000 1.05 23 23:19 07.03.2021
1755 Clouds 4 1019 70 10000 1.05 23 22:43 07.03.2021
1756 Clouds 4 1019 69 10000 0.79 45 22:25 07.03.2021
1757 Clouds 5 1018 84 10000 0.79 45 21:45 07.03.2021
1758 Clouds 5 1021 70 10000 0.85 68 21:25 07.03.2021
1759 Clouds 6 1021 69 10000 0.45 53 20:48 07.03.2021
1760 Clouds 5 1019 70 10000 0.45 347 20:30 07.03.2021
1761 Clear 5 1019 73 10000 1.34 43 19:57 07.03.2021
1762 Clear 5 1019 61 10000 2.57 340 19:38 07.03.2021
1763 Clouds 7 1021 69 10000 0.45 59 19:20 07.03.2021
1764 Clouds 6 1019 61 10000 3.09 360 18:42 07.03.2021
1765 Clouds 9 1020 64 10000 1.79 355 18:19 07.03.2021
1766 Clear 9 1019 57 10000 3.6 360 17:42 07.03.2021
1767 Clouds 10 1018 55 10000 1.79 317 17:21 07.03.2021
1768 Clouds 10 1017 64 10000 1.82 6 16:59 07.03.2021
1769 Clouds 11 1017 64 10000 0.45 253 16:38 07.03.2021
1770 Clouds 10 1017 62 10000 2.68 360 16:19 07.03.2021
1771 Clouds 10 1019 64 10000 1.9 344 15:45 07.03.2021
1772 Clouds 11 1018 62 10000 2.24 248 15:23 07.03.2021
1773 Clouds 10 1018 65 10000 2.68 262 14:39 07.03.2021
1774 Clouds 10 1019 67 10000 0.45 265 14:20 07.03.2021
1775 Clouds 9 1019 64 10000 1.79 360 13:41 07.03.2021
1776 Clouds 9 1020 61 10000 2.24 246 13:21 07.03.2021
1777 Clouds 9 1020 60 10000 3.13 244 12:47 07.03.2021
1778 Clouds 9 1020 60 10000 3.13 244 12:47 07.03.2021
1779 Clouds 8 1020 61 10000 1.79 261 12:28 07.03.2021
1780 Clouds 8 1020 61 10000 1.34 263 11:49 07.03.2021
1781 Clear 7 1021 61 10000 1.79 267 11:22 07.03.2021
1782 Clear 7 1022 54 10000 1.47 298 10:49 07.03.2021
1783 Clear 5 1021 66 10000 2.68 248 10:30 07.03.2021
1784 Clear 3 1024 60 10000 1.54 30 09:46 07.03.2021
1785 Clear 3 1023 70 10000 0.87 276 09:25 07.03.2021
1786 Clear 2 1023 76 10000 0.87 276 08:46 07.03.2021
1787 Clear 1 1023 82 10000 0.82 178 08:25 07.03.2021
1788 Clear 1 1023 81 10000 0.82 178 07:51 07.03.2021
1789 Clear 0 1025 74 10000 0.64 133 02:43 07.03.2021
1790 Clear 0 1025 72 10000 0.71 117 01:42 07.03.2021
1791 Clear 1 1025 71 10000 1.13 111 23:56 06.03.2021
1792 Clear 0 1025 72 10000 1.13 111 23:37 06.03.2021
1793 Clear 1 1024 71 10000 1.53 112 22:52 06.03.2021
1794 Clear 1 1024 71 10000 1.53 112 22:30 06.03.2021
1795 Clear 1 1024 70 10000 1.9 120 21:59 06.03.2021
1796 Clear 1 1025 73 10000 2.38 122 21:25 06.03.2021
1797 Clear 2 1025 71 10000 2.38 122 20:59 06.03.2021
1798 Clear 3 1026 64 10000 2.38 122 20:40 06.03.2021
1799 Clear 5 1025 67 10000 2.67 128 19:51 06.03.2021
1800 Clear 5 1025 61 10000 2.61 125 19:25 06.03.2021
1801 Clear 5 1028 57 10000 2.83 121 18:57 06.03.2021
1802 Clear 6 1027 42 10000 4.63 360 18:39 06.03.2021
1803 Clear 8 1025 50 10000 2.15 98 18:20 06.03.2021
1804 Clear 6 1027 42 10000 5.66 360 17:47 06.03.2021
1805 Clear 9 1025 47 10000 4.02 26 17:26 06.03.2021
1806 Clear 8 1025 46 10000 4.02 323 16:53 06.03.2021
1807 Clear 9 1025 47 10000 2.24 17 16:31 06.03.2021
1808 Clear 9 1025 45 10000 3.58 346 15:55 06.03.2021
1809 Clear 10 1026 45 10000 3.13 324 15:35 06.03.2021
1810 Clear 9 1026 45 10000 3.13 328 14:57 06.03.2021
1811 Clear 8 1026 46 10000 4.02 2 14:31 06.03.2021
1812 Clear 9 1027 48 10000 5.36 344 13:52 06.03.2021
1813 Clear 8 1027 46 10000 4.47 322 13:33 06.03.2021
1814 Clear 8 1027 50 10000 1.34 302 12:58 06.03.2021
1815 Clear 6 1026 48 10000 0.45 142 12:38 06.03.2021
1816 Clear 8 1027 50 10000 1.34 328 12:18 06.03.2021
1817 Clear 6 1027 56 10000 1.34 243 11:38 06.03.2021
1818 Clear 6 1028 54 10000 1.79 339 11:18 06.03.2021
1819 Clear 3 1025 52 10000 2.3 26 10:42 06.03.2021
1820 Clear 2 1025 58 10000 0.45 306 09:57 06.03.2021
1821 Clear 1 1028 73 10000 2.09 58 09:26 06.03.2021
1822 Clear 1 1027 77 10000 2.09 58 08:56 06.03.2021
1823 Clear 0 1027 79 10000 0.89 326 08:31 06.03.2021
1824 Clear -1 1027 84 10000 0.89 21 07:56 06.03.2021
1825 Clear -1 1027 83 10000 1.79 335 07:22 06.03.2021
1826 Clear -1 1027 81 10000 1.34 350 06:42 06.03.2021
1827 Clear 1 1027 72 10000 0.89 49 03:49 06.03.2021
1828 Clear 1 1027 75 10000 1.79 42 01:43 06.03.2021
1829 Clouds 1 1028 82 10000 2.6 88 00:47 06.03.2021
1830 Clouds 3 1026 73 10000 0.45 88 23:51 05.03.2021
1831 Clouds 3 1026 72 10000 1.34 357 23:24 05.03.2021
1832 Clouds 3 1025 74 10000 2.79 90 22:45 05.03.2021
1833 Clouds 3 1025 74 10000 2.76 77 22:22 05.03.2021
1834 Clouds 4 1025 74 10000 2.76 77 21:52 05.03.2021
1835 Clouds 4 1025 75 10000 2.76 77 21:33 05.03.2021
1836 Clouds 4 1026 76 10000 2.53 74 20:54 05.03.2021
1837 Clouds 4 1025 83 10000 2.59 64 20:27 05.03.2021
1838 Clouds 4 1025 76 10000 1.34 321 19:59 05.03.2021
1839 Clouds 5 1025 76 10000 1.34 30 19:26 05.03.2021
1840 Clouds 5 1025 76 10000 1.34 333 18:58 05.03.2021
1841 Clouds 5 1024 75 10000 0.45 357 18:40 05.03.2021
1842 Clouds 5 1024 75 10000 0.45 346 18:21 05.03.2021
1843 Clouds 5 1024 78 10000 0.89 348 17:36 05.03.2021
1844 Clouds 5 1024 78 10000 0.89 348 17:36 05.03.2021
1845 Clouds 5 1023 79 10000 2.68 329 16:50 05.03.2021
1846 Clouds 6 1023 78 10000 3.13 308 16:25 05.03.2021
1847 Clouds 6 1022 76 10000 3.13 331 15:59 05.03.2021
1848 Clouds 6 1022 76 10000 4.02 42 15:41 05.03.2021
1849 Clouds 6 1022 78 10000 4.02 327 15:22 05.03.2021
1850 Clouds 6 1022 77 10000 1.79 357 14:38 05.03.2021
1851 Clouds 5 1021 86 10000 3.51 354 13:59 05.03.2021
1852 Clouds 6 1022 81 10000 3.58 338 13:22 05.03.2021
1853 Clouds 5 1022 83 10000 2.68 333 12:56 05.03.2021
1854 Clouds 5 1022 83 10000 0.89 348 12:23 05.03.2021
1855 Clouds 4 1021 83 10000 1.34 344 11:37 05.03.2021
1856 Clouds 4 1021 84 3010 1.79 329 11:18 05.03.2021
1857 Clouds 4 1021 85 3010 1.34 30 10:42 05.03.2021
1858 Clouds 4 1021 85 2938 1.34 30 10:23 05.03.2021
1859 Clouds 4 1021 86 2938 2.68 342 09:50 05.03.2021
1860 Clouds 4 1021 87 2934 1.79 15 09:27 05.03.2021
1861 Clouds 4 1020 88 2934 2.24 331 08:46 05.03.2021
1862 Clouds 4 1020 89 406 2.24 323 08:27 05.03.2021
1863 Clouds 4 1019 88 406 1.79 325 07:55 05.03.2021
1864 Clouds 4 1019 90 4251 0.89 357 07:28 05.03.2021
1865 Clouds 5 1019 89 3322 2.24 344 06:33 05.03.2021
1866 Clouds 7 1017 95 10000 1.89 342 03:34 05.03.2021
1867 Clouds 7 1017 89 10000 1.74 215 00:49 05.03.2021
1868 Clouds 8 1017 89 6208 1.93 208 23:43 04.03.2021
1869 Clouds 7 1017 89 10000 2.21 204 23:19 04.03.2021
1870 Clouds 8 1017 88 10000 2.33 203 22:28 04.03.2021
1871 Clouds 8 1017 87 10000 2.33 203 21:52 04.03.2021
1872 Rain 8 1017 86 10000 2.5 202 21:29 04.03.2021
1873 Clouds 9 1017 83 10000 1.79 230 20:42 04.03.2021
1874 Clouds 9 1017 82 10000 2.24 206 20:24 04.03.2021
1875 Clouds 9 1016 82 10000 2.24 197 19:59 04.03.2021
1876 Clouds 9 1017 83 10000 0.89 138 19:40 04.03.2021
1877 Clouds 9 1017 84 10000 0.45 187 19:21 04.03.2021
1878 Clouds 9 1017 87 10000 0.89 176 18:45 04.03.2021
1879 Clouds 9 1016 85 10000 0.89 111 18:25 04.03.2021
1880 Rain 10 1017 78 10000 1.79 219 17:47 04.03.2021
1881 Rain 10 1017 74 8213 3.26 182 17:28 04.03.2021
1882 Rain 11 1018 81 7000 2.06 300 16:48 04.03.2021
1883 Rain 10 1018 71 6000 7.2 290 16:29 04.03.2021
1884 Rain 14 1018 44 10000 3.6 310 15:52 04.03.2021
1885 Clear 14 1018 41 10000 2.06 320 15:33 04.03.2021
1886 Clear 13 1018 38 10000 4.12 300 14:53 04.03.2021
1887 Clear 14 1019 38 10000 1.54 0 14:31 04.03.2021
1888 Clear 13 1019 44 10000 1.54 0 13:51 04.03.2021
1889 Clear 14 1020 41 10000 1.03 0 13:33 04.03.2021
1890 Clouds 14 1020 44 10000 1.03 0 12:58 04.03.2021
1891 Clouds 14 1021 48 10000 2.68 137 12:39 04.03.2021
1892 Clouds 13 1019 46 10000 2.24 248 11:48 04.03.2021
1893 Clouds 12 1019 49 10000 2.68 177 11:27 04.03.2021
1894 Clouds 12 1020 49 10000 5.36 169 10:56 04.03.2021
1895 Clouds 12 1020 49 10000 4.02 202 10:34 04.03.2021
1896 Clouds 11 1020 49 10000 3.13 121 09:47 04.03.2021
1897 Clouds 11 1020 49 10000 3.13 220 09:25 04.03.2021
1898 Clouds 9 1021 52 10000 0.89 203 08:49 04.03.2021
1899 Clouds 8 1021 53 10000 0.89 203 08:23 04.03.2021
1900 Clouds 8 1023 55 10000 3.13 194 07:35 04.03.2021
1901 Clouds 6 1022 64 10000 2.35 182 06:28 04.03.2021
1902 Clear 6 1023 81 10000 1.03 340 05:52 04.03.2021
1903 Clouds 9 1026 55 10000 1.34 157 02:20 04.03.2021
1904 Clouds 10 1024 52 10000 1.69 165 23:42 03.03.2021
1905 Clouds 9 1025 50 10000 2.16 167 22:29 03.03.2021
1906 Clouds 9 1025 47 10000 2.16 167 21:59 03.03.2021
1907 Clouds 9 1026 59 10000 2.68 168 21:41 03.03.2021
1908 Clouds 9 1026 56 10000 3.13 171 21:22 03.03.2021
1909 Clouds 7 1027 58 10000 2.33 162 20:53 03.03.2021
1910 Clouds 9 1027 59 10000 2.33 162 20:35 03.03.2021
1911 Clouds 7 1027 58 10000 2.31 156 19:48 03.03.2021
1912 Clouds 8 1027 56 10000 2.03 153 19:30 03.03.2021
1913 Clear 11 1028 45 10000 0.89 211 18:56 03.03.2021
1914 Clear 11 1027 53 10000 1.98 150 18:38 03.03.2021
1915 Clear 12 1026 38 10000 0.89 140 17:58 03.03.2021
1916 Clear 14 1026 39 10000 1.79 212 17:22 03.03.2021
1917 Clear 14 1026 39 10000 1.34 209 16:54 03.03.2021
1918 Clear 14 1026 35 10000 0.45 175 16:27 03.03.2021
1919 Clear 15 1026 34 10000 0.45 246 15:57 03.03.2021
1920 Clear 15 1027 35 10000 0.45 192 15:33 03.03.2021
1921 Clear 15 1027 36 10000 2.04 252 14:50 03.03.2021
1922 Clear 15 1027 43 10000 0.89 171 14:27 03.03.2021
1923 Clear 14 1028 47 10000 0.89 257 13:47 03.03.2021
1924 Clear 14 1028 53 10000 1.34 195 13:28 03.03.2021
1925 Clear 13 1029 54 10000 0.45 315 12:43 03.03.2021
1926 Clear 13 1029 38 10000 0.89 132 12:23 03.03.2021
1927 Clear 12 1030 39 10000 1.97 256 11:45 03.03.2021
1928 Clear 12 1029 53 10000 1.53 255 11:27 03.03.2021
1929 Clear 10 1030 48 10000 1.53 254 10:46 03.03.2021
1930 Clear 9 1029 60 10000 1.03 252 10:23 03.03.2021
1931 Clear 8 1030 53 10000 1.03 252 09:45 03.03.2021
1932 Clear 7 1030 51 10000 0.78 201 08:57 03.03.2021
1933 Clear 6 1030 53 10000 0.78 201 08:39 03.03.2021
1934 Clear 5 1029 73 10000 0.93 165 08:18 03.03.2021
1935 Clear 4 1029 79 10000 0.93 165 07:39 03.03.2021
1936 Clear 4 1029 74 10000 0.91 144 06:47 03.03.2021
1937 Clear 5 1029 67 10000 0.92 156 05:45 03.03.2021
1938 Clouds 5 1029 69 10000 0.98 145 04:50 03.03.2021
1939 Clouds 5 1029 71 10000 1.03 175 04:25 03.03.2021
1940 Clear 7 1029 67 10000 1.33 157 00:44 03.03.2021
1941 Clear 7 1029 66 10000 1.11 158 23:55 02.03.2021
1942 Clear 7 1029 67 10000 1.29 138 23:21 02.03.2021
1943 Clear 7 1029 66 10000 1.29 138 22:41 02.03.2021
1944 Clear 7 1029 66 10000 1.15 149 22:18 02.03.2021
1945 Clear 7 1032 74 10000 0.45 143 21:39 02.03.2021
1946 Clear 7 1031 72 10000 0.89 130 21:19 02.03.2021
1947 Clear 7 1031 72 10000 0.89 130 20:45 02.03.2021
1948 Clouds 8 1030 61 10000 1.32 117 20:22 02.03.2021
1949 Clouds 9 1031 67 10000 0.89 104 19:51 02.03.2021
1950 Clouds 10 1029 60 10000 1.32 117 19:32 02.03.2021
1951 Clouds 8 1030 73 10000 0.89 76 18:58 02.03.2021
1952 Clear 10 1030 54 10000 2.57 360 18:40 02.03.2021
1953 Clear 11 1030 54 10000 2.57 360 18:21 02.03.2021
1954 Clouds 14 1030 47 10000 2.06 340 17:49 02.03.2021
1955 Clear 14 1031 45 10000 0.89 308 17:29 02.03.2021
1956 Clear 15 1030 41 10000 1.54 0 16:49 02.03.2021
1957 Clear 17 1028 43 10000 2.24 218 16:22 02.03.2021
1958 Clear 16 1028 43 10000 2.24 249 15:49 02.03.2021
1959 Clear 16 1028 42 10000 2.24 252 15:22 02.03.2021
1960 Clear 15 1028 42 10000 0.45 261 14:23 02.03.2021
1961 Clear 15 1029 45 10000 1.79 253 13:49 02.03.2021
1962 Clear 14 1029 47 10000 3.13 360 13:31 02.03.2021
1963 Clear 13 1029 51 10000 1.79 244 12:55 02.03.2021
1964 Clear 12 1030 54 10000 2.68 243 12:29 02.03.2021
1965 Clear 11 1030 57 10000 2.68 259 11:54 02.03.2021
1966 Clear 11 1030 60 10000 2.68 251 11:34 02.03.2021
1967 Clear 9 1033 68 10000 0.89 59 10:58 02.03.2021
1968 Clear 9 1031 60 10000 1.05 303 10:32 02.03.2021
1969 Clear 8 1033 77 10000 0.91 292 09:59 02.03.2021
1970 Clear 7 1031 75 10000 0.91 292 09:40 02.03.2021
1971 Clear 5 1030 69 10000 0.14 187 09:18 02.03.2021
1972 Clear 3 1031 86 10000 1.03 180 08:38 02.03.2021
1973 Clear 2 1030 82 10000 0.84 141 07:58 02.03.2021
1974 Clear 2 1030 82 10000 0.88 148 07:26 02.03.2021
1975 Clear 2 1030 81 10000 0.88 148 06:33 02.03.2021
1976 Clear 2 1029 75 10000 1.04 138 05:45 02.03.2021
1977 Clear 3 1029 76 10000 1.13 138 05:27 02.03.2021
1978 Clear 3 1029 77 10000 1.39 148 01:44 02.03.2021
1979 Clear 3 1029 77 10000 1.39 148 01:44 02.03.2021
1980 Clear 3 1029 77 10000 1.39 148 01:44 02.03.2021
1981 Clear 3 1029 77 10000 1.39 148 01:44 02.03.2021
1982 Clear 3 1029 76 10000 1.47 141 01:25 02.03.2021
1983 Clear 3 1029 76 10000 1.62 130 00:21 02.03.2021
1984 Clear 4 1029 77 10000 1.74 128 23:22 01.03.2021
1985 Clear 4 1029 76 10000 1.74 128 22:40 01.03.2021
1986 Clear 4 1028 76 10000 1.75 124 22:21 01.03.2021
1987 Clear 5 1028 75 10000 1.75 124 21:45 01.03.2021
1988 Clear 5 1028 77 10000 1.64 123 21:23 01.03.2021
1989 Clear 5 1028 76 10000 1.64 123 20:47 01.03.2021
1990 Clear 6 1028 75 10000 1.63 117 20:27 01.03.2021
1991 Clear 7 1028 73 10000 1.63 117 19:54 01.03.2021
1992 Clear 7 1030 73 10000 1.61 116 19:33 01.03.2021
1993 Clear 6 1029 57 10000 2.06 330 18:46 01.03.2021
1994 Clear 8 1029 50 10000 2.06 340 18:24 01.03.2021
1995 Clear 9 1029 50 10000 2.06 330 17:53 01.03.2021
1996 Clear 12 1027 59 10000 1.34 246 17:30 01.03.2021
1997 Clear 12 1029 54 10000 0.45 292 16:59 01.03.2021
1998 Clear 12 1029 52 10000 0.94 355 16:40 01.03.2021
1999 Clear 12 1027 56 10000 2.24 259 16:22 01.03.2021
2000 Clear 12 1027 54 10000 2.24 264 15:40 01.03.2021
2001 Clear 12 1027 56 10000 1.34 249 15:20 01.03.2021
2002 Clear 11 1027 58 10000 2.68 259 14:44 01.03.2021
2003 Clear 11 1027 56 10000 2.24 264 14:26 01.03.2021
2004 Clear 10 1028 61 10000 3.13 241 13:40 01.03.2021
2005 Clear 10 1028 61 10000 3.58 258 13:22 01.03.2021
2006 Clear 9 1028 63 10000 3.13 240 12:52 01.03.2021
2007 Clear 9 1028 63 10000 4.02 240 12:32 01.03.2021
2008 Clear 8 1028 64 10000 3.13 244 11:59 01.03.2021
2009 Clear 7 1028 65 10000 4.02 244 11:40 01.03.2021
2010 Clear 6 1030 67 10000 1.34 322 10:44 01.03.2021
2011 Clear 6 1030 69 10000 0.81 317 10:23 01.03.2021
2012 Clear 5 1030 76 10000 0.83 316 09:58 01.03.2021
2013 Clear 5 1030 76 10000 0.81 317 09:58 01.03.2021
2014 Clear 4 1030 79 10000 0.81 317 09:40 01.03.2021
2015 Clear 3 1030 81 10000 0.21 357 09:21 01.03.2021
2016 Clear 2 1028 79 10000 0.21 357 08:48 01.03.2021
2017 Clear 1 1030 89 10000 0.81 124 08:18 01.03.2021
2018 Clear 0 1029 87 10000 1.05 121 06:53 01.03.2021
2019 Clear 0 1029 84 10000 1.27 122 04:21 01.03.2021
2020 Clear 2 1030 78 10000 1.55 115 00:56 01.03.2021
2021 Clear 2 1030 78 10000 1.72 111 23:36 28.02.2021
2022 Clear 3 1030 78 10000 2.01 112 22:51 28.02.2021
2023 Clear 3 1030 77 10000 0.45 87 22:23 28.02.2021
2024 Clear 4 1029 79 10000 2.2 115 21:51 28.02.2021
2025 Clear 4 1029 79 10000 2.44 116 21:28 28.02.2021
2026 Clear 4 1029 79 10000 2.44 116 21:28 28.02.2021
2027 Clear 4 1029 78 10000 2.44 116 20:58 28.02.2021
2028 Clear 5 1029 77 10000 2.44 116 20:37 28.02.2021
2029 Clear 6 1029 75 10000 2.64 117 19:56 28.02.2021
2030 Clear 7 1029 74 10000 2.64 117 19:37 28.02.2021
2031 Clear 7 1029 73 10000 2.23 109 19:19 28.02.2021
2032 Clear 8 1030 53 10000 3.09 10 18:38 28.02.2021
2033 Clear 9 1028 66 10000 1.16 93 18:20 28.02.2021
2034 Clear 11 1030 50 10000 3.6 10 17:47 28.02.2021
2035 Clear 10 1028 61 10000 1.34 244 17:27 28.02.2021
2036 Clear 11 1029 53 10000 1.34 342 16:54 28.02.2021
2037 Clear 11 1028 59 10000 2.24 264 16:36 28.02.2021
2038 Clear 11 1029 51 10000 2.24 344 15:57 28.02.2021
2039 Clear 11 1029 51 10000 2.68 320 15:37 28.02.2021
2040 Clear 11 1028 61 10000 3.58 252 15:18 28.02.2021
2041 Clear 10 1028 60 10000 3.13 259 14:48 28.02.2021
2042 Clear 10 1028 62 10000 1.79 252 14:25 28.02.2021
2043 Clear 9 1029 62 10000 4.02 246 13:52 28.02.2021
2044 Clear 9 1029 63 10000 3.13 360 13:20 28.02.2021
2045 Clear 8 1029 67 10000 2.68 263 12:56 28.02.2021
2046 Clear 7 1029 67 10000 1.79 281 12:38 28.02.2021
2047 Clear 7 1030 68 10000 2.68 246 12:19 28.02.2021
2048 Clear 6 1032 74 10000 0.45 308 11:44 28.02.2021
2049 Clear 6 1030 72 10000 3.13 243 11:25 28.02.2021
2050 Clear 5 1032 78 10000 1.79 212 10:55 28.02.2021
2051 Clear 4 1032 80 10000 0.89 102 10:29 28.02.2021
2052 Clear 3 1033 75 10000 4.12 10 09:54 28.02.2021
2053 Clear 2 1034 85 10000 0.45 157 09:34 28.02.2021
2054 Clear 1 1032 86 10000 1.28 52 08:52 28.02.2021
2055 Clear 0 1032 87 10000 1.28 52 08:32 28.02.2021
2056 Clear 0 1031 87 10000 1.66 77 07:57 28.02.2021
2057 Clear 0 1031 86 10000 0.89 326 07:38 28.02.2021
2058 Clear 0 1031 86 10000 0.89 351 07:18 28.02.2021
2059 Clear 0 1031 85 10000 2.16 76 06:21 28.02.2021
2060 Clear 2 1031 71 10000 1.34 322 03:46 28.02.2021
2061 Clear 3 1031 73 10000 0.89 26 02:20 28.02.2021
2062 Clear 2 1034 70 10000 2.24 41 00:58 28.02.2021
2063 Clear 2 1034 70 10000 2.24 41 00:38 28.02.2021
2064 Clear 4 1032 65 10000 1.34 17 23:50 27.02.2021
2065 Clear 4 1034 65 10000 0.89 315 23:21 27.02.2021
2066 Clear 3 1034 63 10000 0.89 315 22:49 27.02.2021
2067 Clear 2 1031 76 10000 0.89 105 22:23 27.02.2021
2068 Clear 3 1034 77 10000 0.89 85 21:55 27.02.2021
2069 Clear 3 1033 77 10000 0.45 73 21:35 27.02.2021
2070 Clear 4 1033 75 10000 0.89 80 20:55 27.02.2021
2071 Clear 4 1033 60 10000 3.58 30 20:37 27.02.2021
2072 Clear 4 1031 72 10000 1.79 83 20:18 27.02.2021
2073 Clear 5 1034 57 10000 5.66 10 19:41 27.02.2021
2074 Clear 7 1034 59 10000 2.24 39 19:23 27.02.2021
2075 Clear 6 1033 57 10000 7.2 360 18:39 27.02.2021
2076 Clear 8 1033 56 10000 3.58 43 18:19 27.02.2021
2077 Clear 9 1032 51 10000 2.68 315 17:43 27.02.2021
2078 Clear 10 1032 51 10000 2.68 315 17:20 27.02.2021
2079 Clear 11 1032 50 10000 5.81 33 16:51 27.02.2021
2080 Clear 10 1033 50 10000 5.36 49 16:31 27.02.2021
2081 Clear 11 1033 49 10000 4.92 32 15:53 27.02.2021
2082 Clear 11 1033 50 10000 5.36 52 15:33 27.02.2021
2083 Clear 11 1033 51 10000 5.36 36 14:48 27.02.2021
2084 Clear 11 1030 47 10000 2.24 74 14:30 27.02.2021
2085 Clear 11 1031 51 10000 1.79 112 13:50 27.02.2021
2086 Clear 10 1031 51 10000 0.45 148 13:27 27.02.2021
2087 Clear 11 1031 55 10000 1.34 133 12:55 27.02.2021
2088 Clear 9 1032 56 10000 1.34 101 12:30 27.02.2021
2089 Clouds 8 1032 53 10000 2.24 108 11:57 27.02.2021
2090 Clouds 8 1032 55 10000 1.79 82 11:38 27.02.2021
2091 Clouds 8 1032 54 10000 1.79 69 11:19 27.02.2021
2092 Clouds 8 1032 60 10000 2.24 129 10:44 27.02.2021
2093 Clouds 7 1032 68 10000 2.24 23 10:22 27.02.2021
2094 Clouds 6 1033 69 10000 0.89 350 09:48 27.02.2021
2095 Clouds 5 1033 77 10000 3.14 50 09:26 27.02.2021
2096 Clouds 3 1032 77 10000 1.79 45 08:41 27.02.2021
2097 Clouds 4 1033 88 10000 0.89 350 08:21 27.02.2021
2098 Clouds 4 1033 88 10000 1.79 2 07:41 27.02.2021
2099 Clouds 5 1032 86 10000 1.79 335 04:46 27.02.2021
2100 Clouds 6 1032 85 10000 3.21 29 00:42 27.02.2021
2101 Clouds 6 1032 85 10000 0.45 7 23:54 26.02.2021
2102 Clouds 6 1032 86 6298 0.89 16 23:28 26.02.2021
2103 Clouds 6 1032 86 6298 2.68 341 22:50 26.02.2021
2104 Clouds 6 1031 85 3440 2.68 323 22:29 26.02.2021
2105 Clouds 7 1031 83 3440 0.89 11 21:47 26.02.2021
2106 Clouds 7 1031 83 3174 1.34 332 21:28 26.02.2021
2107 Clouds 7 1031 84 3174 2.68 20 20:44 26.02.2021
2108 Clouds 7 1031 83 3186 1.34 335 20:22 26.02.2021
2109 Clouds 7 1030 82 3186 3.13 337 19:52 26.02.2021
2110 Clouds 8 1030 83 3017 2.24 353 19:25 26.02.2021
2111 Clouds 8 1029 84 2049 2.24 257 18:46 26.02.2021
2112 Clouds 10 1029 80 1938 3.58 357 18:23 26.02.2021
2113 Clouds 11 1028 75 1938 4.02 330 17:44 26.02.2021
2114 Clouds 11 1028 76 10000 3.58 294 17:26 26.02.2021
2115 Rain 12 1030 77 10000 3.58 342 16:56 26.02.2021
2116 Clouds 12 1029 71 10000 4.63 50 16:37 26.02.2021
2117 Clouds 13 1027 70 10000 0.45 332 16:19 26.02.2021
2118 Clear 12 1029 54 10000 3.6 40 15:41 26.02.2021
2119 Clear 14 1029 58 10000 4.63 30 15:22 26.02.2021
2120 Clear 15 1029 55 10000 3.6 40 14:51 26.02.2021
2121 Clouds 17 1027 49 10000 0.89 245 14:30 26.02.2021
2122 Clouds 16 1027 51 10000 1.34 250 13:46 26.02.2021
2123 Clouds 16 1027 52 10000 2.68 246 13:28 26.02.2021
2124 Clouds 15 1027 55 10000 3.13 223 12:43 26.02.2021
2125 Clouds 15 1027 53 10000 3.58 246 12:25 26.02.2021
2126 Clouds 14 1027 52 10000 2.24 226 11:38 26.02.2021
2127 Clouds 13 1028 58 10000 1.87 263 10:54 26.02.2021
2128 Clouds 12 1028 53 10000 1.72 250 10:21 26.02.2021
2129 Clouds 11 1028 56 10000 1.72 250 09:47 26.02.2021
2130 Clouds 9 1028 60 10000 1.13 207 09:27 26.02.2021
2131 Clouds 7 1030 78 10000 1.13 207 08:32 26.02.2021
2132 Clouds 7 1028 66 10000 1.47 182 07:55 26.02.2021
2133 Clouds 7 1028 68 10000 1.72 181 07:20 26.02.2021
2134 Clouds 6 1028 68 10000 1.65 178 06:28 26.02.2021
2135 Clouds 7 1028 65 10000 0.45 60 04:52 26.02.2021
2136 Clouds 8 1028 60 10000 1.96 178 02:36 26.02.2021
2137 Clouds 9 1028 52 10000 1.83 176 00:27 26.02.2021
2138 Clouds 10 1028 51 10000 0.45 78 23:39 25.02.2021
2139 Clouds 10 1028 49 10000 2.05 180 22:57 25.02.2021
2140 Clouds 10 1028 48 10000 0.45 45 22:37 25.02.2021
2141 Clear 11 1028 45 10000 0.45 46 21:51 25.02.2021
2142 Clear 10 1030 54 10000 1.34 143 21:32 25.02.2021
2143 Clear 11 1029 63 10000 2.68 206 20:55 25.02.2021
2144 Clear 11 1028 59 10000 1.34 202 20:36 25.02.2021
2145 Clear 11 1030 56 10000 2.44 157 20:18 25.02.2021
2146 Clear 12 1028 56 10000 0.45 360 19:46 25.02.2021
2147 Clear 13 1029 49 10000 1.79 125 19:19 25.02.2021
2148 Clear 12 1027 24 10000 2.06 270 18:40 25.02.2021
2149 Clear 13 1027 24 10000 2.06 270 18:18 25.02.2021
2150 Clear 16 1027 24 10000 5.14 230 17:42 25.02.2021
2151 Clear 15 1028 38 10000 1.04 224 17:22 25.02.2021
2152 Clear 20 1027 32 10000 4.63 200 16:34 25.02.2021
2153 Clear 21 1027 32 10000 4.12 180 15:51 25.02.2021
2154 Clear 20 1027 32 10000 5.66 180 15:28 25.02.2021
2155 Clear 20 1028 34 10000 1.79 193 14:40 25.02.2021
2156 Clear 20 1028 43 10000 2.24 187 14:21 25.02.2021
2157 Clear 19 1027 38 10000 1.34 264 13:48 25.02.2021
2158 Clear 18 1027 38 10000 2.68 245 13:24 25.02.2021
2159 Clear 16 1027 45 10000 1.34 248 12:40 25.02.2021
2160 Clear 16 1027 45 10000 2.24 254 12:21 25.02.2021
2161 Clear 15 1028 53 10000 1.36 311 11:43 25.02.2021
2162 Clear 14 1028 59 10000 1.23 287 10:58 25.02.2021
2163 Clear 14 1028 60 10000 1.23 287 10:37 25.02.2021
2164 Clear 12 1028 66 10000 0.62 252 09:56 25.02.2021
2165 Clear 11 1028 66 10000 0.62 252 09:38 25.02.2021
2166 Clear 8 1030 72 10000 0.8 166 08:46 25.02.2021
2167 Clear 7 1030 74 10000 1.57 150 08:22 25.02.2021
2168 Clear 7 1030 73 10000 1.57 150 07:50 25.02.2021
2169 Clear 7 1030 82 10000 1.55 142 07:19 25.02.2021
2170 Clear 7 1028 68 10000 1.55 142 06:35 25.02.2021
2171 Clear 8 1029 69 10000 1.25 158 01:52 25.02.2021
2172 Clear 9 1029 72 10000 1.16 162 01:34 25.02.2021
2173 Clear 9 1028 63 10000 1.18 147 00:38 25.02.2021
2174 Clear 8 1031 71 10000 1.34 121 23:47 24.02.2021
2175 Clear 10 1028 63 10000 1.6 144 23:22 24.02.2021
2176 Clear 10 1029 63 10000 1.6 144 22:44 24.02.2021
2177 Clear 10 1029 63 10000 1.76 141 22:24 24.02.2021
2178 Clear 10 1031 68 10000 1.76 141 21:44 24.02.2021
2179 Clear 11 1030 71 10000 1.8 138 20:53 24.02.2021
2180 Clear 11 1031 68 10000 0.89 212 20:29 24.02.2021
2181 Clear 11 1030 74 10000 1.93 135 19:54 24.02.2021
2182 Clear 12 1031 68 10000 1.34 134 19:26 24.02.2021
2183 Clear 12 1031 70 10000 1.77 125 18:55 24.02.2021
2184 Clear 13 1031 70 10000 1.77 125 18:34 24.02.2021
2185 Clear 16 1030 52 10000 1.54 350 17:50 24.02.2021
2186 Clear 14 1031 61 10000 0.55 37 17:29 24.02.2021
2187 Clear 16 1030 45 10000 1.54 50 16:57 24.02.2021
2188 Clear 20 1030 40 10000 0.55 37 16:36 24.02.2021
2189 Clear 19 1028 48 10000 2.24 240 16:18 24.02.2021
2190 Clear 20 1028 49 10000 2.24 248 15:37 24.02.2021
2191 Clear 19 1029 52 10000 1.79 360 14:53 24.02.2021
2192 Clear 19 1029 50 10000 2.24 257 14:32 24.02.2021
2193 Clear 18 1029 54 10000 2.24 275 13:58 24.02.2021
2194 Clear 18 1029 52 10000 1.34 246 13:38 24.02.2021
2195 Clear 17 1030 53 10000 2.24 250 13:19 24.02.2021
2196 Clear 16 1031 53 10000 0.88 285 12:43 24.02.2021
2197 Clear 15 1032 56 10000 1 297 12:23 24.02.2021
2198 Clear 15 1033 69 10000 1 297 11:46 24.02.2021
2199 Clear 14 1033 69 10000 1.03 296 10:52 24.02.2021
2200 Clear 13 1032 71 10000 1.03 296 10:30 24.02.2021
2201 Clear 10 1035 70 10000 0.38 282 09:44 24.02.2021
2202 Clear 9 1035 76 10000 0.77 125 09:20 24.02.2021
2203 Clear 8 1035 80 10000 0.77 125 08:34 24.02.2021
2204 Clear 7 1035 80 10000 0.88 127 07:57 24.02.2021
2205 Clear 7 1033 76 10000 0.85 145 07:20 24.02.2021
2206 Clear 8 1033 76 10000 1.18 151 06:23 24.02.2021
2207 Clear 8 1033 66 10000 1.59 155 03:31 24.02.2021
2208 Clear 8 1036 79 10000 1.5 144 00:26 24.02.2021
2209 Clear 9 1034 73 10000 1.44 141 23:24 23.02.2021
2210 Clear 9 1036 77 10000 0.45 114 22:40 23.02.2021
2211 Clear 9 1036 78 10000 1.53 145 22:19 23.02.2021
2212 Clear 10 1033 69 10000 1.53 145 21:44 23.02.2021
2213 Clear 10 1033 69 10000 1.83 144 21:22 23.02.2021
2214 Clear 11 1033 70 10000 1.83 144 20:48 23.02.2021
2215 Clear 10 1035 74 10000 1.34 162 20:29 23.02.2021
2216 Clear 11 1034 77 10000 1.5 135 19:48 23.02.2021
2217 Clear 12 1034 69 10000 1.54 125 19:28 23.02.2021
2218 Clear 12 1035 71 10000 1.54 125 18:59 23.02.2021
2219 Clear 12 1035 71 10000 1.54 125 18:40 23.02.2021
2220 Clear 11 1035 69 10000 1.26 145 18:20 23.02.2021
2221 Clear 16 1033 52 10000 1.54 200 17:39 23.02.2021
2222 Clear 15 1033 48 10000 1.54 130 17:18 23.02.2021
2223 Clear 19 1033 48 10000 2.57 160 16:43 23.02.2021
2224 Clear 19 1033 48 10000 1.54 180 16:20 23.02.2021
2225 Clear 18 1033 45 10000 1.54 140 15:42 23.02.2021
2226 Clear 18 1032 55 10000 1.79 265 15:23 23.02.2021
2227 Clear 18 1032 56 10000 2.24 264 14:46 23.02.2021
2228 Clouds 18 1032 56 10000 1.79 249 14:26 23.02.2021
2229 Clouds 17 1032 60 10000 1.34 360 13:56 23.02.2021
2230 Clouds 17 1032 60 10000 1.79 261 13:34 23.02.2021
2231 Clear 17 1032 59 10000 1.79 259 12:56 23.02.2021
2232 Clear 15 1032 55 10000 1.34 259 12:23 23.02.2021
2233 Clear 14 1032 52 10000 3.13 261 11:51 23.02.2021
2234 Clear 14 1032 56 10000 0.57 317 11:25 23.02.2021
2235 Clear 13 1033 57 10000 0.57 317 10:53 23.02.2021
2236 Clear 12 1033 56 10000 0.12 321 10:35 23.02.2021
2237 Clear 11 1033 63 10000 0.11 324 09:55 23.02.2021
2238 Clear 10 1033 69 10000 0.11 324 09:36 23.02.2021
2239 Clear 10 1034 65 10000 0.57 145 09:18 23.02.2021
2240 Clear 8 1034 70 10000 0.57 145 08:40 23.02.2021
2241 Clear 7 1033 71 10000 1.22 133 08:20 23.02.2021
2242 Clouds 6 1032 67 10000 0.45 296 06:50 23.02.2021
2243 Clouds 6 1031 73 10000 0.67 110 05:22 23.02.2021
2244 Clouds 7 1029 60 10000 1.33 159 02:36 23.02.2021
2245 Clouds 7 1029 60 10000 1.38 144 01:55 23.02.2021
2246 Clouds 8 1028 60 10000 1.37 129 00:19 23.02.2021
2247 Clouds 8 1027 61 10000 1.23 173 23:25 22.02.2021
2248 Clouds 8 1027 60 10000 1.23 173 22:42 22.02.2021
2249 Clouds 8 1027 60 10000 1.23 173 22:42 22.02.2021
2250 Clouds 8 1027 60 10000 1.51 156 22:21 22.02.2021
2251 Clouds 8 1028 56 10000 1.51 156 21:55 22.02.2021
2252 Clouds 8 1027 71 10000 1.34 147 21:36 22.02.2021
2253 Clouds 8 1027 53 10000 1.82 140 21:18 22.02.2021
2254 Clouds 8 1026 56 10000 1.82 140 20:42 22.02.2021
2255 Clouds 10 1025 71 10000 1.08 179 20:23 22.02.2021
2256 Clouds 8 1026 68 10000 0.96 142 19:39 22.02.2021
2257 Clouds 9 1027 71 10000 0.89 77 19:21 22.02.2021
2258 Clear 9 1025 76 10000 1.54 350 18:46 22.02.2021
2259 Clear 10 1024 71 10000 1.54 330 18:28 22.02.2021
2260 Clear 12 1024 71 10000 2.06 360 17:43 22.02.2021
2261 Clear 13 1023 62 10000 2.57 350 17:18 22.02.2021
2262 Clear 14 1023 54 10000 2.06 360 16:47 22.02.2021
2263 Clouds 16 1021 45 10000 1.34 244 16:25 22.02.2021
2264 Clouds 16 1020 40 10000 2.68 250 15:31 22.02.2021
2265 Clouds 16 1020 41 10000 2.24 226 14:50 22.02.2021
2266 Clouds 16 1019 43 10000 3.58 244 14:32 22.02.2021
2267 Clouds 15 1019 50 10000 3.13 360 13:51 22.02.2021
2268 Clouds 14 1021 41 10000 0.89 23 13:31 22.02.2021
2269 Clouds 12 1023 67 10000 0.89 315 12:47 22.02.2021
2270 Clouds 12 1020 52 10000 0.7 322 12:23 22.02.2021
2271 Clouds 12 1020 59 10000 0.7 322 11:51 22.02.2021
2272 Clouds 11 1020 59 10000 0.01 3 11:29 22.02.2021
2273 Clouds 11 1020 61 10000 0.01 3 10:54 22.02.2021
2274 Clouds 9 1022 70 10000 0.45 262 10:36 22.02.2021
2275 Clouds 9 1019 60 10000 0.25 135 10:18 22.02.2021
2276 Clouds 7 1021 57 10000 0.25 135 09:37 22.02.2021
2277 Clear 5 1021 87 10000 0.9 147 09:18 22.02.2021
2278 Clouds 6 1021 54 10000 0.9 147 08:44 22.02.2021
2279 Clouds 4 1021 87 10000 0.89 129 08:20 22.02.2021
2280 Clouds 4 1020 57 10000 1.16 148 07:39 22.02.2021
2281 Clouds 4 1020 57 10000 1.2 140 07:18 22.02.2021
2282 Clouds 5 1018 66 10000 1.18 121 06:25 22.02.2021
2283 Clear 5 1017 65 10000 0.89 53 03:49 22.02.2021
2284 Clear 5 1017 68 10000 1.4 168 03:22 22.02.2021
2285 Clear 6 1016 65 10000 1.34 84 00:54 22.02.2021
2286 Clear 6 1016 65 10000 0.89 71 00:28 22.02.2021
2287 Clear 5 1017 79 10000 1.39 148 23:52 21.02.2021
2288 Clear 7 1015 65 10000 0.45 65 23:23 21.02.2021
2289 Clear 7 1015 65 10000 1.54 139 22:28 21.02.2021
2290 Clear 7 1015 65 10000 1.54 139 21:52 21.02.2021
2291 Clear 8 1015 62 10000 1.54 139 21:33 21.02.2021
2292 Clear 8 1017 69 10000 0.45 145 20:57 21.02.2021
2293 Clear 9 1017 69 10000 1.34 143 20:36 21.02.2021
2294 Clear 8 1017 69 10000 0.89 166 20:18 21.02.2021
2295 Clear 9 1017 71 10000 1.38 110 19:43 21.02.2021
2296 Clear 9 1016 70 10000 1.44 110 19:23 21.02.2021
2297 Clear 10 1015 67 10000 2.06 350 18:29 21.02.2021
2298 Clear 14 1015 63 10000 2.06 350 17:59 21.02.2021
2299 Clear 13 1015 59 10000 3.09 360 17:27 21.02.2021
2300 Clear 16 1015 55 10000 2.57 360 16:53 21.02.2021
2301 Clear 17 1015 42 10000 1.03 0 16:32 21.02.2021
2302 Clear 17 1016 42 10000 1.03 0 15:47 21.02.2021
2303 Clear 17 1013 44 10000 2.24 244 15:20 21.02.2021
2304 Clear 16 1014 44 10000 2.68 259 14:42 21.02.2021
2305 Clear 16 1014 48 10000 2.24 253 14:21 21.02.2021
2306 Clear 15 1014 43 10000 4.02 244 13:45 21.02.2021
2307 Clear 15 1014 43 10000 3.58 259 13:22 21.02.2021
2308 Clear 13 1015 49 10000 3.13 360 12:29 21.02.2021
2309 Clear 11 1015 55 10000 4.02 259 11:44 21.02.2021
2310 Clear 9 1017 62 10000 0.45 293 10:59 21.02.2021
2311 Clear 9 1015 58 10000 0.42 348 10:24 21.02.2021
2312 Clear 9 1016 63 10000 0.42 348 09:57 21.02.2021
2313 Clear 8 1016 67 10000 0.42 348 09:31 21.02.2021
2314 Clear 6 1016 72 10000 0.52 113 08:59 21.02.2021
2315 Clear 5 1016 73 10000 0.52 113 08:30 21.02.2021
2316 Clear 4 1016 72 10000 0.85 131 07:37 21.02.2021
2317 Clear 4 1016 74 10000 0.45 264 06:59 21.02.2021
2318 Clear 5 1016 66 10000 1.15 138 04:44 21.02.2021
2319 Clear 5 1016 64 10000 1.33 134 02:31 21.02.2021
2320 Clear 6 1016 60 10000 0.45 87 00:47 21.02.2021
2321 Clear 6 1018 74 10000 1.2 136 00:20 21.02.2021
2322 Clear 8 1015 56 10000 0.45 63 23:25 20.02.2021
2323 Clear 8 1015 56 10000 0.45 50 22:47 20.02.2021
2324 Clear 8 1015 54 10000 1.61 140 22:27 20.02.2021
2325 Clear 7 1017 67 10000 0.45 166 21:45 20.02.2021
2326 Clear 8 1017 66 10000 0.45 156 21:26 20.02.2021
2327 Clear 8 1018 69 10000 0.45 315 20:49 20.02.2021
2328 Clear 9 1016 68 10000 1.87 133 20:28 20.02.2021
2329 Clear 9 1017 63 10000 0.89 121 19:53 20.02.2021
2330 Clear 9 1017 63 10000 0.89 121 19:53 20.02.2021
2331 Clear 7 1016 66 10000 2.06 270 19:33 20.02.2021
2332 Clear 8 1016 58 10000 1.03 0 18:46 20.02.2021
2333 Clear 9 1016 58 10000 1.54 310 18:27 20.02.2021
2334 Clear 12 1015 55 10000 2.06 360 17:43 20.02.2021
2335 Clear 12 1015 48 10000 1.54 0 17:25 20.02.2021
2336 Clear 17 1015 42 10000 1.54 200 16:44 20.02.2021
2337 Clear 15 1015 42 10000 2.06 200 16:22 20.02.2021
2338 Clear 17 1016 42 10000 1.54 0 15:38 20.02.2021
2339 Clear 16 1016 55 10000 1.54 0 14:50 20.02.2021
2340 Clear 15 1016 51 10000 2.06 150 14:25 20.02.2021
2341 Clouds 15 1017 55 10000 0.45 23 13:53 20.02.2021
2342 Clouds 15 1017 59 10000 0.45 23 13:28 20.02.2021
2343 Clouds 14 1015 53 10000 1.14 295 12:53 20.02.2021
2344 Clouds 13 1017 67 10000 1.79 0 12:33 20.02.2021
2345 Clouds 12 1016 61 10000 0.74 279 11:49 20.02.2021
2346 Clouds 12 1017 62 10000 0.74 279 11:30 20.02.2021
2347 Clouds 11 1017 68 10000 0.3 225 10:50 20.02.2021
2348 Clouds 11 1017 68 10000 0.3 225 10:50 20.02.2021
2349 Clouds 10 1018 75 10000 0.53 169 10:21 20.02.2021
2350 Clouds 8 1019 85 10000 0.53 169 09:45 20.02.2021
2351 Clouds 4 1019 89 10000 1 150 08:53 20.02.2021
2352 Clouds 4 1017 89 10000 1.6 142 08:23 20.02.2021
2353 Clouds 4 1018 94 10000 0.45 251 04:56 20.02.2021
2354 Clouds 6 1017 85 10000 1.3 152 02:32 20.02.2021
2355 Clouds 6 1017 86 10000 1.51 142 01:56 20.02.2021
2356 Clouds 6 1017 83 10000 1.86 135 00:59 20.02.2021
2357 Clouds 6 1017 83 10000 1.86 135 00:36 20.02.2021
2358 Clouds 7 1017 81 10000 1.98 136 23:30 19.02.2021
2359 Clouds 7 1017 81 10000 2.16 136 22:47 19.02.2021
2360 Clouds 7 1017 81 10000 2.13 143 22:20 19.02.2021
2361 Clouds 7 1017 81 10000 0.45 78 21:44 19.02.2021
2362 Clouds 8 1017 81 10000 0.45 86 21:24 19.02.2021
2363 Clouds 9 1016 79 10000 2.15 140 20:44 19.02.2021
2364 Clouds 8 1017 80 10000 2.18 137 20:26 19.02.2021
2365 Clouds 9 1017 80 10000 2.18 137 19:49 19.02.2021
2366 Clouds 9 1017 79 10000 2.31 134 19:20 19.02.2021
2367 Clouds 10 1018 78 10000 0.45 114 18:51 19.02.2021
2368 Clouds 11 1018 73 10000 2.26 137 18:28 19.02.2021
2369 Clouds 12 1018 67 10000 0.45 342 17:45 19.02.2021
2370 Clouds 13 1018 61 10000 0.89 276 16:46 19.02.2021
2371 Clouds 15 1015 62 10000 0.45 242 16:23 19.02.2021
2372 Clouds 14 1016 61 10000 0.89 229 15:56 19.02.2021
2373 Clouds 14 1016 61 10000 1.56 211 15:30 19.02.2021
2374 Clouds 14 1016 61 10000 0.89 244 14:55 19.02.2021
2375 Clouds 13 1016 64 10000 1.79 260 14:35 19.02.2021
2376 Clouds 14 1018 62 10000 2.56 242 13:57 19.02.2021
2377 Clouds 13 1018 63 10000 0.45 253 13:36 19.02.2021
2378 Clouds 13 1018 66 10000 1.34 227 12:58 19.02.2021
2379 Clouds 12 1018 68 10000 2.85 229 12:38 19.02.2021
2380 Clouds 12 1018 71 10000 3.16 228 12:20 19.02.2021
2381 Clouds 12 1018 71 10000 3.16 228 12:20 19.02.2021
2382 Clouds 12 1018 71 10000 3.16 228 12:20 19.02.2021
2383 Clouds 12 1018 72 10000 0.89 192 11:44 19.02.2021
2384 Clouds 11 1018 73 10000 2.24 102 11:19 19.02.2021
2385 Clouds 11 1018 76 10000 1.34 208 10:38 19.02.2021
2386 Clouds 10 1018 77 10000 1.34 192 10:19 19.02.2021
2387 Clouds 10 1018 80 10000 0.89 232 09:37 19.02.2021
2388 Clouds 10 1018 80 10000 0.89 232 09:37 19.02.2021
2389 Clouds 10 1018 80 10000 0.89 232 09:37 19.02.2021
2390 Clouds 9 1018 81 10000 2.03 188 09:18 19.02.2021
2391 Clouds 9 1018 81 10000 2.03 188 08:42 19.02.2021
2392 Clouds 8 1018 82 10000 0.45 200 08:21 19.02.2021
2393 Clouds 8 1017 94 10000 1.74 197 07:45 19.02.2021
2394 Clouds 8 1018 83 10000 1.94 176 07:26 19.02.2021
2395 Clouds 8 1018 83 10000 0.89 204 06:47 19.02.2021
2396 Clouds 9 1017 85 2311 0.89 207 04:42 19.02.2021
2397 Clouds 9 1017 83 10000 0.89 165 03:32 19.02.2021
2398 Clouds 10 1016 83 10000 1.79 173 01:46 19.02.2021
2399 Clouds 9 1016 84 10000 2.68 165 00:36 19.02.2021
2400 Rain 10 1016 75 10000 3.13 197 23:50 18.02.2021
2401 Rain 11 1016 75 10000 3.13 197 23:32 18.02.2021
2402 Clouds 11 1016 66 10000 4.63 230 22:44 18.02.2021
2403 Clouds 9 1016 71 10000 4.12 250 22:26 18.02.2021
2404 Clouds 8 1014 69 10000 2.68 190 21:42 18.02.2021
2405 Clouds 8 1014 70 10000 0.89 219 21:24 18.02.2021
2406 Clouds 8 1012 70 10000 2.92 174 20:41 18.02.2021
2407 Clouds 8 1012 69 10000 2.87 154 20:23 18.02.2021
2408 Clouds 9 1011 69 10000 2.87 154 19:46 18.02.2021
2409 Clouds 9 1011 68 10000 2.76 154 19:25 18.02.2021
2410 Clouds 9 1014 74 10000 0.45 238 18:52 18.02.2021
2411 Clear 9 1012 54 10000 3.6 210 18:27 18.02.2021
2412 Clear 12 1012 54 10000 2.57 230 17:52 18.02.2021
2413 Clouds 12 1013 71 10000 0.45 349 17:25 18.02.2021
2414 Clouds 11 1013 70 10000 2.18 164 16:52 18.02.2021
2415 Clouds 11 1013 66 10000 2.18 164 16:34 18.02.2021
2416 Clouds 11 1014 70 10000 0.89 349 15:55 18.02.2021
2417 Clouds 11 1012 70 10000 0.89 329 15:36 18.02.2021
2418 Clouds 13 1012 60 10000 1.83 199 15:18 18.02.2021
2419 Clouds 12 1012 57 10000 1.83 199 14:42 18.02.2021
2420 Clouds 11 1015 67 10000 1.74 166 14:23 18.02.2021
2421 Clouds 11 1016 70 10000 0.45 225 13:44 18.02.2021
2422 Clouds 11 1013 64 10000 2.75 206 13:18 18.02.2021
2423 Clouds 10 1014 59 10000 0.45 203 12:42 18.02.2021
2424 Clouds 10 1014 66 10000 2.03 213 12:22 18.02.2021
2425 Clouds 10 1014 66 10000 2.03 213 11:46 18.02.2021
2426 Clouds 9 1014 70 10000 1.22 172 11:25 18.02.2021
2427 Clouds 7 1016 74 10000 1.22 172 10:45 18.02.2021
2428 Clouds 7 1015 74 10000 1.64 163 10:27 18.02.2021
2429 Clouds 5 1016 90 10000 1.66 163 09:46 18.02.2021
2430 Clouds 4 1015 76 10000 1.82 155 09:24 18.02.2021
2431 Clear 2 1017 87 10000 1.54 200 08:41 18.02.2021
2432 Clouds 1 1018 95 10000 1.93 143 08:23 18.02.2021
2433 Clouds 2 1015 87 10000 1.82 142 07:34 18.02.2021
2434 Clouds 1 1016 87 10000 1.72 146 06:53 18.02.2021
2435 Clouds 2 1018 83 10000 1.55 145 02:54 18.02.2021
2436 Clouds 3 1019 77 10000 0.45 94 23:56 17.02.2021
2437 Clouds 3 1021 85 10000 1.36 138 23:30 17.02.2021
2438 Clear 4 1019 76 10000 1.34 81 22:53 17.02.2021
2439 Clouds 4 1020 78 10000 1.8 135 22:27 17.02.2021
2440 Clouds 4 1022 83 10000 0.45 113 21:56 17.02.2021
2441 Clouds 4 1022 81 10000 2 138 21:22 17.02.2021
2442 Clouds 5 1020 76 10000 3.13 168 20:52 17.02.2021
2443 Clouds 5 1020 89 10000 2 138 20:32 17.02.2021
2444 Clouds 5 1022 77 10000 1.79 131 19:51 17.02.2021
2445 Clouds 6 1022 75 10000 1.34 150 19:32 17.02.2021
2446 Clouds 6 1020 86 10000 2.25 144 18:49 17.02.2021
2447 Clouds 5 1021 80 10000 1.79 165 18:30 17.02.2021
2448 Clouds 9 1021 50 10000 3.09 260 17:42 17.02.2021
2449 Clouds 7 1021 50 10000 2.57 230 17:21 17.02.2021
2450 Clouds 12 1021 50 10000 4.63 220 16:49 17.02.2021
2451 Clouds 9 1021 75 10000 2.65 201 16:28 17.02.2021
2452 Clouds 10 1019 62 10000 2.65 201 15:45 17.02.2021
2453 Clouds 12 1020 60 10000 2.24 213 15:27 17.02.2021
2454 Clouds 10 1022 63 10000 2.68 224 14:51 17.02.2021
2455 Clouds 10 1023 67 10000 2.68 168 14:29 17.02.2021
2456 Clouds 9 1022 67 10000 3.13 282 13:52 17.02.2021
2457 Clouds 9 1022 69 10000 3.13 152 13:33 17.02.2021
2458 Clouds 9 1024 68 10000 1.79 179 12:58 17.02.2021
2459 Clouds 10 1021 62 10000 3.13 193 12:26 17.02.2021
2460 Clouds 9 1022 71 10000 2.68 221 11:48 17.02.2021
2461 Clouds 9 1022 73 10000 2.68 216 11:29 17.02.2021
2462 Clouds 9 1022 77 10000 2.24 190 10:57 17.02.2021
2463 Clouds 9 1022 78 10000 3.13 204 10:39 17.02.2021
2464 Clouds 8 1022 79 10000 1.34 146 10:20 17.02.2021
2465 Clouds 7 1021 82 10000 3.13 165 09:40 17.02.2021
2466 Clouds 8 1021 85 10000 1.34 195 08:58 17.02.2021
2467 Clouds 8 1021 86 10000 1.79 207 08:37 17.02.2021
2468 Clouds 8 1023 88 10000 1.79 160 08:19 17.02.2021
2469 Clouds 8 1020 85 4511 1.79 164 07:23 17.02.2021
2470 Clouds 9 1019 84 10000 2.68 179 03:54 17.02.2021
2471 Clouds 8 1022 86 5570 3.58 118 02:33 17.02.2021
2472 Clouds 9 1018 80 4235 4.47 148 01:37 17.02.2021
2473 Clouds 8 1018 76 8000 4.63 220 00:28 17.02.2021
2474 Clouds 7 1018 71 7000 3.6 240 23:49 16.02.2021
2475 Clouds 6 1017 66 10000 5.14 170 23:25 16.02.2021
2476 Clear 5 1017 66 10000 2.57 160 22:42 16.02.2021
2477 Clear 4 1017 66 10000 4.12 160 22:22 16.02.2021
2478 Clear 4 1017 71 10000 4.63 200 21:40 16.02.2021
2479 Clear 4 1017 71 10000 4.63 200 21:40 16.02.2021
2480 Clear 6 1017 71 10000 4.63 200 21:22 16.02.2021
2481 Clear 4 1016 66 10000 5.14 200 20:58 16.02.2021
2482 Clear 4 1016 66 10000 5.14 200 20:58 16.02.2021
2483 Clear 4 1017 76 10000 3.6 200 20:38 16.02.2021
2484 Clear 4 1017 76 10000 3.6 200 20:20 16.02.2021
2485 Clear 5 1016 76 10000 4.12 190 19:40 16.02.2021
2486 Clear 5 1016 76 10000 4.12 190 19:21 16.02.2021
2487 Clear 6 1016 66 10000 1.03 0 18:39 16.02.2021
2488 Clear 7 1016 66 10000 1.03 0 18:21 16.02.2021
2489 Clear 9 1016 58 10000 1.54 0 17:49 16.02.2021
2490 Clear 10 1016 54 10000 1.03 0 17:24 16.02.2021
2491 Clear 12 1016 54 10000 2.57 190 16:51 16.02.2021
2492 Clouds 10 1017 77 10000 2.14 190 16:27 16.02.2021
2493 Clear 12 1017 58 10000 3.09 190 15:47 16.02.2021
2494 Clear 12 1017 54 10000 5.14 190 15:26 16.02.2021
2495 Clear 12 1018 54 10000 4.63 180 14:50 16.02.2021
2496 Clear 12 1018 54 10000 5.14 180 14:32 16.02.2021
2497 Clouds 12 1017 71 10000 2.24 229 13:58 16.02.2021
2498 Clouds 11 1017 71 10000 2.24 228 13:35 16.02.2021
2499 Clouds 10 1019 68 10000 0.89 267 12:47 16.02.2021
2500 Clouds 10 1019 67 10000 0.86 208 12:26 16.02.2021
2501 Clouds 9 1020 71 10000 0.86 208 11:50 16.02.2021
2502 Clouds 8 1020 72 10000 0.8 158 11:24 16.02.2021
2503 Clouds 7 1021 79 10000 0.8 158 10:58 16.02.2021
2504 Clouds 7 1021 80 10000 0.8 158 10:39 16.02.2021
2505 Clouds 6 1021 83 10000 0.75 148 10:20 16.02.2021
2506 Clouds 4 1021 84 10000 0.75 148 09:48 16.02.2021
2507 Clouds 4 1022 84 10000 1.58 139 09:26 16.02.2021
2508 Clouds 4 1022 81 10000 0.45 180 08:45 16.02.2021
2509 Clouds 4 1022 81 10000 0.45 180 08:45 16.02.2021
2510 Clouds 4 1022 80 10000 1.34 208 08:22 16.02.2021
2511 Clouds 4 1022 80 10000 2.19 160 07:32 16.02.2021
2512 Clouds 5 1024 79 10000 2.03 183 06:24 16.02.2021
2513 Clouds 3 1026 94 10000 3.02 176 01:52 16.02.2021
2514 Clouds 5 1026 86 10000 3.25 186 23:47 15.02.2021
2515 Clouds 4 1027 85 10000 2.54 197 23:26 15.02.2021
2516 Clouds 4 1027 82 10000 2.54 197 22:47 15.02.2021
2517 Clouds 4 1027 72 10000 2.24 230 22:25 15.02.2021
2518 Clouds 4 1027 72 10000 2.24 199 21:42 15.02.2021
2519 Clouds 4 1027 83 10000 3.52 179 21:24 15.02.2021
2520 Clouds 4 1027 69 10000 2.24 235 20:53 15.02.2021
2521 Clouds 4 1027 69 10000 1.34 267 20:34 15.02.2021
2522 Clouds 4 1028 67 10000 1.79 135 19:50 15.02.2021
2523 Clouds 4 1028 67 10000 1.79 135 19:50 15.02.2021
2524 Clear 5 1028 56 10000 5.14 170 19:25 15.02.2021
2525 Clouds 5 1030 70 10000 1.34 221 18:51 15.02.2021
2526 Clouds 4 1030 74 10000 0.89 226 18:27 15.02.2021
2527 Clouds 4 1030 77 10000 1.34 204 17:51 15.02.2021
2528 Clouds 3 1028 81 10000 2.82 190 17:28 15.02.2021
2529 Clouds 3 1029 86 10000 2.83 189 16:59 15.02.2021
2530 Clouds 3 1029 86 10000 2.82 190 16:37 15.02.2021
2531 Clouds 4 1029 88 10000 2.41 173 16:18 15.02.2021
2532 Rain 4 1029 81 10000 2.41 173 15:42 15.02.2021
2533 Rain 4 1029 76 10000 2.07 208 15:19 15.02.2021
2534 Rain 4 1030 67 10000 1.34 218 14:43 15.02.2021
2535 Rain 5 1030 62 10000 0.89 158 14:20 15.02.2021
2536 Clouds 5 1030 60 10000 1.79 206 13:49 15.02.2021
2537 Clouds 4 1031 58 10000 1.79 192 13:20 15.02.2021
2538 Clouds 4 1031 59 10000 1.63 224 12:45 15.02.2021
2539 Clouds 4 1031 60 10000 1.44 218 12:25 15.02.2021
2540 Clouds 3 1031 62 10000 1.44 218 11:51 15.02.2021
2541 Clouds 1 1032 65 10000 1.1 196 11:25 15.02.2021
2542 Clouds 0 1032 70 10000 1.1 196 10:50 15.02.2021
2543 Clouds -1 1032 72 10000 1.1 196 10:30 15.02.2021
2544 Clouds -1 1031 75 10000 1.11 201 09:59 15.02.2021
2545 Clouds -2 1032 85 10000 1.11 201 09:41 15.02.2021
2546 Clouds -2 1033 73 10000 1.15 160 09:22 15.02.2021
2547 Clouds -4 1032 74 10000 1.23 161 08:21 15.02.2021
2548 Clouds -4 1032 77 10000 1.16 155 07:18 15.02.2021
2549 Clouds -4 1032 76 10000 1.27 150 06:41 15.02.2021
2550 Clouds -5 1034 75 10000 1.05 158 02:52 15.02.2021
2551 Clouds -5 1034 73 10000 1.05 151 02:20 15.02.2021
2552 Clouds -5 1033 72 10000 1.52 145 00:19 15.02.2021
2553 Clouds -4 1035 70 10000 1.46 148 23:25 14.02.2021
2554 Clouds -5 1035 68 10000 1.45 148 22:46 14.02.2021
2555 Clouds -5 1033 70 10000 1.44 140 22:27 14.02.2021
2556 Clouds -5 1032 70 10000 1.42 140 21:53 14.02.2021
2557 Clouds -5 1032 71 10000 1.44 140 21:31 14.02.2021
2558 Clouds -4 1034 76 10000 1.66 121 20:55 14.02.2021
2559 Clouds -4 1034 73 10000 1.66 121 20:31 14.02.2021
2560 Clouds -4 1034 74 10000 1.64 129 19:50 14.02.2021
2561 Clouds -4 1034 72 10000 1.64 129 19:31 14.02.2021
2562 Clouds -3 1035 66 10000 1.4 141 18:43 14.02.2021
2563 Clouds -3 1035 65 10000 1.26 132 18:24 14.02.2021
2564 Clouds -3 1035 60 10000 1.26 132 17:45 14.02.2021
2565 Clouds -2 1035 54 10000 0.6 161 17:25 14.02.2021
2566 Clouds -1 1035 52 10000 4.02 214 16:40 14.02.2021
2567 Clouds -1 1035 51 10000 3.58 227 16:21 14.02.2021
2568 Clouds -1 1035 51 10000 4.02 244 15:44 14.02.2021
2569 Clouds -2 1035 52 10000 4.47 227 14:59 14.02.2021
2570 Clouds -2 1036 54 10000 3.58 232 14:33 14.02.2021
2571 Clouds -2 1036 57 10000 4.92 239 13:58 14.02.2021
2572 Clouds -2 1036 56 10000 4.47 254 13:32 14.02.2021
2573 Clouds -3 1036 59 10000 4.47 246 12:54 14.02.2021
2574 Clear -4 1036 60 10000 4.47 360 12:22 14.02.2021
2575 Clear -4 1036 61 10000 3.58 244 11:52 14.02.2021
2576 Clear -5 1036 61 10000 4.02 360 11:26 14.02.2021
2577 Clear -5 1036 58 10000 4.02 360 10:57 14.02.2021
2578 Clear -7 1036 66 10000 1.34 360 09:59 14.02.2021
2579 Clear -8 1037 80 10000 0.24 152 09:40 14.02.2021
2580 Clear -9 1037 82 10000 1.01 128 09:21 14.02.2021
2581 Clear -10 1037 86 10000 1.01 128 08:43 14.02.2021
2582 Clear -12 1037 83 10000 1.83 123 07:58 14.02.2021
2583 Clear -11 1036 84 10000 1.67 125 06:54 14.02.2021
2584 Clear -11 1036 82 10000 1.72 123 05:43 14.02.2021
2585 Clear -10 1033 78 10000 1.68 136 03:33 14.02.2021
2586 Clear -11 1038 83 10000 2.14 100 02:29 14.02.2021
2587 Clear -9 1038 85 10000 1.99 96 00:54 14.02.2021
2588 Clear -9 1038 84 10000 1.99 96 00:34 14.02.2021
2589 Clear -9 1038 84 10000 0.89 155 23:42 13.02.2021
2590 Clear -9 1034 82 10000 1.88 99 23:23 13.02.2021
2591 Clear -9 1034 81 10000 1.88 99 22:49 13.02.2021
2592 Clear -9 1034 82 10000 0.45 224 22:21 13.02.2021
2593 Clear -9 1034 79 10000 2.39 95 21:49 13.02.2021
2594 Clear -9 1034 79 10000 2.49 94 21:22 13.02.2021
2595 Clear -8 1033 77 10000 2.49 94 20:31 13.02.2021
2596 Clear -7 1035 54 10000 5.14 10 19:59 13.02.2021
2597 Clear -6 1034 50 10000 5.14 10 19:41 13.02.2021
2598 Clear -6 1034 50 10000 5.14 10 19:21 13.02.2021
2599 Clear -6 1033 50 10000 5.14 10 18:45 13.02.2021
2600 Clear -5 1033 46 10000 7.2 10 18:24 13.02.2021
2601 Clear -5 1033 50 10000 6.69 360 17:43 13.02.2021
2602 Clear -3 1035 56 10000 0.89 222 17:23 13.02.2021
2603 Clear -1 1031 59 10000 0.89 225 16:44 13.02.2021
2604 Clear -2 1035 54 10000 2.24 179 16:26 13.02.2021
2605 Clear 0 1034 49 10000 2.68 198 15:42 13.02.2021
2606 Clear -1 1031 38 10000 2.24 91 15:24 13.02.2021
2607 Clear -1 1031 38 10000 0.89 113 14:33 13.02.2021
2608 Clear -2 1031 39 10000 2.24 102 13:48 13.02.2021
2609 Clear -2 1031 42 10000 1.79 113 13:26 13.02.2021
2610 Clear -3 1031 60 10000 0.89 135 12:50 13.02.2021
2611 Clear -4 1032 65 10000 1.79 135 12:19 13.02.2021
2612 Clear -4 1031 41 10000 2.68 88 11:46 13.02.2021
2613 Clear -6 1035 67 10000 1.34 102 11:20 13.02.2021
2614 Clear -7 1026 43 10000 2.24 227 10:56 13.02.2021
2615 Clear -7 1035 73 10000 0.89 232 10:38 13.02.2021
2616 Clear -8 1031 86 10000 1.34 157 10:19 13.02.2021
2617 Clear -9 1035 80 10000 1.34 207 09:45 13.02.2021
2618 Clear -10 1031 89 10000 0.45 135 09:21 13.02.2021
2619 Clear -11 1028 85 10000 0.45 45 08:41 13.02.2021
2620 Clear -11 1025 59 10000 1.79 142 07:54 13.02.2021
2621 Clear -12 1033 89 10000 2.34 89 06:42 13.02.2021
2622 Clear -12 1029 86 10000 2.46 92 06:19 13.02.2021
2623 Clear -11 1029 88 10000 2.57 94 04:26 13.02.2021
2624 Clear -10 1031 89 10000 0.45 143 01:57 13.02.2021
2625 Clouds -10 1027 86 10000 2.58 93 00:52 13.02.2021
2626 Clouds -9 1027 85 10000 2.65 94 23:55 12.02.2021
2627 Clouds -9 1026 86 10000 2.65 94 23:32 12.02.2021
2628 Clouds -9 1026 85 10000 2.53 93 22:59 12.02.2021
2629 Clouds -8 1029 86 10000 2.53 93 22:30 12.02.2021
2630 Clouds -8 1026 84 10000 2.68 95 21:53 12.02.2021
2631 Clouds -8 1026 88 10000 2.68 95 21:34 12.02.2021
2632 Clouds -7 1025 83 10000 2.83 94 20:59 12.02.2021
2633 Clouds -7 1025 80 10000 2.83 94 20:39 12.02.2021
2634 Clouds -7 1025 80 10000 3.04 92 20:19 12.02.2021
2635 Clouds -7 1025 80 10000 3.04 92 19:48 12.02.2021
2636 Clouds -6 1025 76 10000 2.95 94 19:26 12.02.2021
2637 Clouds -4 1024 72 10000 2.95 93 18:30 12.02.2021
2638 Clouds -4 1028 71 10000 2.8 88 17:51 12.02.2021
2639 Clouds -3 1027 69 10000 0.45 233 17:31 12.02.2021
2640 Clouds -1 1027 65 10000 0.89 200 16:41 12.02.2021
2641 Clouds -1 1023 52 10000 2.24 82 15:47 12.02.2021
2642 Clouds -3 1022 89 10000 1.42 66 15:22 12.02.2021
2643 Clouds -2 1027 67 10000 0.89 99 14:59 12.02.2021
2644 Clouds -2 1024 69 10000 2.24 261 14:32 12.02.2021
2645 Clouds -3 1024 71 10000 1.79 227 13:42 12.02.2021
2646 Clouds -4 1024 72 10000 2.24 254 13:24 12.02.2021
2647 Clear -5 1026 58 10000 5.14 20 12:51 12.02.2021
2648 Clouds -5 1025 83 10000 0.45 67 12:33 12.02.2021
2649 Clouds -6 1024 76 10000 2.68 360 11:46 12.02.2021
2650 Clouds -7 1024 78 10000 2.68 267 11:20 12.02.2021
2651 Clouds -7 1025 78 10000 2.68 226 10:47 12.02.2021
2652 Clouds -8 1026 88 10000 1.16 77 09:57 12.02.2021
2653 Clouds -9 1026 90 10000 0.45 202 09:39 12.02.2021
2654 Clouds -10 1026 91 10000 1.53 93 09:19 12.02.2021
2655 Clouds -11 1026 91 10000 1.53 93 08:40 12.02.2021
2656 Clouds -11 1026 90 10000 1.95 91 08:20 12.02.2021
2657 Clouds -11 1026 90 10000 1.95 91 07:51 12.02.2021
2658 Clouds -11 1026 90 10000 1.75 107 07:21 12.02.2021
2659 Clouds -10 1026 89 10000 1.85 105 06:18 12.02.2021
2660 Clouds -10 1026 88 10000 1.84 103 05:27 12.02.2021
2661 Clouds -10 1026 87 10000 1.89 104 03:32 12.02.2021
2662 Clouds -9 1023 92 10000 2.26 104 00:28 12.02.2021
2663 Clouds -9 1023 91 10000 2.26 104 23:38 11.02.2021
2664 Clouds -10 1023 91 10000 2.34 108 23:18 11.02.2021
2665 Clouds -10 1026 85 10000 0.89 68 22:42 11.02.2021
2666 Clouds -11 1026 86 10000 2.6 108 22:22 11.02.2021
2667 Clouds -9 1026 87 10000 2.6 108 21:43 11.02.2021
2668 Clouds -9 1024 92 10000 2.73 107 21:24 11.02.2021
2669 Clouds -9 1025 85 10000 2.73 107 20:56 11.02.2021
2670 Clouds -9 1026 85 10000 2.73 107 20:37 11.02.2021
2671 Clouds -9 1024 92 10000 2.72 116 20:18 11.02.2021
2672 Clouds -8 1026 84 10000 2.72 116 19:46 11.02.2021
2673 Clouds -7 1024 91 10000 2.84 111 19:25 11.02.2021
2674 Clouds -8 1026 73 10000 2.8 113 18:42 11.02.2021
2675 Clear -8 1026 73 10000 1.94 107 18:19 11.02.2021
2676 Clear -7 1025 74 10000 1.94 107 17:47 11.02.2021
2677 Clear -4 1025 64 10000 0.89 60 17:21 11.02.2021
2678 Clear -3 1028 68 10000 0.45 198 16:45 11.02.2021
2679 Clear -3 1025 63 10000 0.45 119 16:26 11.02.2021
2680 Clear -2 1025 64 10000 1.79 127 15:45 11.02.2021
2681 Clear -3 1024 63 10000 1.34 102 15:26 11.02.2021
2682 Clear -3 1024 63 10000 1.34 113 14:56 11.02.2021
2683 Clear -3 1024 64 10000 0.89 119 14:31 11.02.2021
2684 Clear -3 1024 66 10000 0.89 123 13:44 11.02.2021
2685 Clear -4 1024 65 10000 0.89 106 13:21 11.02.2021
2686 Clear -4 1028 72 10000 1.2 13 12:56 11.02.2021
2687 Clear -4 1025 66 10000 1.2 13 12:35 11.02.2021
2688 Clear -5 1025 71 10000 1.05 25 11:49 11.02.2021
2689 Clear -6 1024 71 10000 1.34 115 11:29 11.02.2021
2690 Clear -6 1025 73 10000 1.79 86 10:57 11.02.2021
2691 Clear -7 1025 75 10000 0.89 101 10:39 11.02.2021
2692 Clear -7 1025 76 10000 1.34 72 10:21 11.02.2021
2693 Clear -8 1025 89 10000 1.1 69 09:38 11.02.2021
2694 Clear -8 1025 91 10000 1.56 96 09:19 11.02.2021
2695 Clear -9 1025 90 10000 0.45 335 08:46 11.02.2021
2696 Clouds -10 1024 73 10000 3.09 350 07:52 11.02.2021
2697 Clouds -9 1024 67 10000 3.09 10 06:44 11.02.2021
2698 Clouds -9 1023 68 10000 3.09 10 06:23 11.02.2021
2699 Clouds -7 1022 73 10000 3.6 360 03:46 11.02.2021
2700 Clouds -6 1020 73 7000 5.66 360 02:25 11.02.2021
2701 Clouds -7 1018 92 1845 1.26 49 00:24 11.02.2021
2702 Clouds -7 1018 92 1845 1.26 49 00:24 11.02.2021
2703 Clouds -7 1016 93 1845 1.26 49 23:54 10.02.2021
2704 Clouds -7 1018 89 3011 0.45 357 23:28 10.02.2021
2705 Clouds -7 1017 90 3011 1.13 33 22:48 10.02.2021
2706 Clouds -7 1016 90 1260 1.17 10 22:24 10.02.2021
2707 Clouds -7 1016 91 1260 1.34 329 21:40 10.02.2021
2708 Clouds -7 1016 91 1260 1.34 329 21:40 10.02.2021
2709 Clouds -7 1016 91 1091 0.45 312 21:21 10.02.2021
2710 Clouds -7 1015 91 1091 1.54 0 20:58 10.02.2021
2711 Clouds -7 1014 91 1091 0.89 329 20:30 10.02.2021
2712 Snow -7 1014 91 282 2.49 354 19:59 10.02.2021
2713 Snow -7 1014 91 282 0.89 311 19:40 10.02.2021
2714 Snow -7 1014 91 217 2.24 327 19:19 10.02.2021
2715 Snow -7 1012 91 127 1.79 343 18:39 10.02.2021
2716 Snow -6 1012 91 121 1.79 322 18:18 10.02.2021
2717 Snow -6 1011 91 121 0.89 326 17:45 10.02.2021
2718 Snow -5 1010 90 123 0.89 350 17:21 10.02.2021
2719 Snow -5 1009 90 123 0.89 357 16:49 10.02.2021
2720 Snow -5 1009 91 126 0.89 313 16:28 10.02.2021
2721 Snow -5 1008 90 126 2.68 2 15:43 10.02.2021
2722 Snow -5 1007 90 133 1.34 19 15:21 10.02.2021
2723 Snow -5 1007 90 133 1.34 19 15:21 10.02.2021
2724 Snow -5 1007 90 133 1.79 317 14:40 10.02.2021
2725 Snow -5 1006 90 133 2.24 349 14:18 10.02.2021
2726 Snow -5 1006 90 133 2.68 331 13:40 10.02.2021
2727 Snow -5 1005 90 140 1.34 321 13:21 10.02.2021
2728 Snow -5 1005 91 140 1.79 326 12:44 10.02.2021
2729 Snow -5 1005 90 119 1.79 324 12:26 10.02.2021
2730 Snow -5 1004 90 119 2.68 323 11:41 10.02.2021
2731 Snow -5 1004 90 129 1.34 342 11:23 10.02.2021
2732 Snow -5 1003 91 129 1.34 357 10:43 10.02.2021
2733 Snow -4 1003 91 120 2.24 333 10:19 10.02.2021
2734 Snow -6 1002 91 120 1.34 349 09:43 10.02.2021
2735 Snow -6 1002 91 112 1.34 337 09:21 10.02.2021
2736 Snow -6 1001 92 112 1.34 315 08:43 10.02.2021
2737 Snow -5 1001 93 110 0.45 357 07:55 10.02.2021
2738 Snow -5 1000 92 116 0.89 333 07:18 10.02.2021
2739 Snow -4 1000 92 127 0.89 292 03:45 10.02.2021
2740 Clouds -4 1001 92 10000 1.79 351 00:51 10.02.2021
2741 Clouds -3 1002 93 10000 1.34 326 23:37 09.02.2021
2742 Clouds -2 1000 95 10000 1.79 360 22:56 09.02.2021
2743 Clouds -3 1002 93 10000 1.79 331 22:25 09.02.2021
2744 Clouds -2 1002 94 10000 2.24 325 21:58 09.02.2021
2745 Clouds -2 1002 94 10000 1.79 13 21:40 09.02.2021
2746 Clouds -2 1002 94 10000 0.89 340 21:18 09.02.2021
2747 Clouds -1 1002 94 10000 1.79 332 20:41 09.02.2021
2748 Clouds -1 1002 93 10000 2.24 317 20:22 09.02.2021
2749 Clouds -1 1002 93 10000 1.34 346 19:39 09.02.2021
2750 Clouds -1 1002 93 10000 1.34 315 19:20 09.02.2021
2751 Clouds -1 1002 93 10000 1.2 74 18:41 09.02.2021
2752 Clouds -1 1002 93 10000 0.89 312 18:21 09.02.2021
2753 Clouds 0 1002 91 10000 0.89 329 17:45 09.02.2021
2754 Clouds 0 1002 91 10000 0.89 2 17:25 09.02.2021
2755 Clouds 0 1003 91 10000 1.79 2 16:50 09.02.2021
2756 Clouds 1 1003 91 10000 0.89 315 16:19 09.02.2021
2757 Clouds 0 1003 91 10000 0.45 353 15:50 09.02.2021
2758 Clouds 0 1003 92 10000 0.89 7 15:28 09.02.2021
2759 Clouds 0 1003 91 10000 1.34 323 14:57 09.02.2021
2760 Clouds 0 1002 90 10000 0.45 246 14:30 09.02.2021
2761 Clouds 0 1003 92 10000 1.34 357 13:59 09.02.2021
2762 Clouds 0 1003 92 10000 0.89 338 13:39 09.02.2021
2763 Clouds 0 1003 91 10000 1.34 326 13:19 09.02.2021
2764 Clouds 0 1003 92 10000 0.45 331 12:41 09.02.2021
2765 Clouds 0 1003 92 10000 0.89 327 12:22 09.02.2021
2766 Clouds 0 1003 92 10000 1.24 275 11:44 09.02.2021
2767 Clouds 0 1003 93 10000 0.91 292 11:21 09.02.2021
2768 Clouds -1 1002 93 10000 0.94 290 10:56 09.02.2021
2769 Clouds -1 1002 93 5931 0.89 311 10:20 09.02.2021
2770 Clouds -1 1002 94 5931 0.45 316 09:51 09.02.2021
2771 Clouds -1 1001 94 3430 0.97 358 09:26 09.02.2021
2772 Clouds -1 1001 94 3429 0.98 358 08:54 09.02.2021
2773 Clouds -1 1001 94 8665 1.03 337 08:28 09.02.2021
2774 Clouds -1 1001 94 8665 1.34 322 07:41 09.02.2021
2775 Snow 0 999 94 4043 0.5 59 05:34 09.02.2021
2776 Clouds 0 998 94 4075 0.51 31 03:48 09.02.2021
2777 Clouds 0 998 93 10000 0.78 141 01:51 09.02.2021
2778 Clouds 0 998 93 10000 1.11 172 00:31 09.02.2021
2779 Clouds 0 998 93 10000 0.92 162 23:40 08.02.2021
2780 Clouds 0 998 94 4635 0.56 171 23:18 08.02.2021
2781 Clouds 0 998 94 4635 0.56 171 22:42 08.02.2021
2782 Snow 0 998 94 263 0.63 186 22:22 08.02.2021
2783 Snow 0 998 94 263 0.45 259 21:45 08.02.2021
2784 Snow 0 998 93 136 0.89 227 21:22 08.02.2021
2785 Snow 0 997 93 136 1.09 237 20:44 08.02.2021
2786 Snow 0 997 93 327 0.89 215 20:24 08.02.2021
2787 Snow 0 997 93 327 0.55 225 19:59 08.02.2021
2788 Snow 0 997 93 178 0.89 219 19:41 08.02.2021
2789 Snow 0 997 93 157 0.89 219 19:21 08.02.2021
2790 Snow 0 996 93 157 1.49 220 18:42 08.02.2021
2791 Snow 0 997 93 9084 0.45 211 18:19 08.02.2021
2792 Snow 0 996 93 9084 0.89 181 17:43 08.02.2021
2793 Snow 1 996 93 669 0.89 163 17:23 08.02.2021
2794 Snow 1 996 93 669 0.45 242 16:42 08.02.2021
2795 Snow 1 995 92 635 1.79 202 16:21 08.02.2021
2796 Snow 1 995 91 635 1.79 226 15:42 08.02.2021
2797 Snow 1 995 90 230 1.79 207 15:20 08.02.2021
2798 Snow 1 995 89 230 2.24 239 14:51 08.02.2021
2799 Snow 1 995 89 230 1.34 190 14:31 08.02.2021
2800 Snow 1 995 85 106 1.34 205 13:56 08.02.2021
2801 Snow 1 995 87 309 0.89 197 13:32 08.02.2021
2802 Snow 1 995 89 88 1.34 196 12:53 08.02.2021
2803 Snow 1 995 88 88 1.34 168 12:34 08.02.2021
2804 Rain 2 995 88 135 2.24 229 11:47 08.02.2021
2805 Rain 2 995 88 87 1.79 200 11:21 08.02.2021
2806 Rain 2 995 89 87 3.13 202 10:44 08.02.2021
2807 Rain 2 995 88 124 2.68 216 10:24 08.02.2021
2808 Rain 2 995 88 124 2.68 216 10:24 08.02.2021
2809 Rain 3 995 86 124 2.24 251 09:51 08.02.2021
2810 Rain 3 994 90 124 0.45 203 09:30 08.02.2021
2811 Rain 2 995 88 1949 0.45 156 08:46 08.02.2021
2812 Clouds 2 995 88 3104 0.45 175 08:20 08.02.2021
2813 Snow 2 995 87 2920 2.68 195 07:22 08.02.2021
2814 Rain 3 994 94 2988 3.2 209 05:59 08.02.2021
2815 Clouds 3 996 89 10000 0.89 190 02:29 08.02.2021
2816 Rain 4 996 86 10000 2.68 187 01:47 08.02.2021
2817 Clouds 5 996 75 10000 2.24 200 00:21 08.02.2021
2818 Clouds 5 996 73 10000 1.79 129 23:49 07.02.2021
2819 Clouds 5 996 72 10000 1.79 219 23:20 07.02.2021
2820 Clouds 5 996 70 10000 1.34 207 22:45 07.02.2021
2821 Clouds 5 996 71 10000 1.34 215 22:26 07.02.2021
2822 Clouds 5 996 73 10000 0.45 188 21:53 07.02.2021
2823 Clouds 5 997 76 10000 1.34 171 21:28 07.02.2021
2824 Clouds 5 997 77 10000 0.89 161 20:59 07.02.2021
2825 Clouds 5 997 78 10000 1.34 190 20:40 07.02.2021
2826 Clouds 5 997 79 10000 1.34 113 20:22 07.02.2021
2827 Clouds 5 996 79 10000 3.13 242 19:39 07.02.2021
2828 Clouds 5 997 79 10000 1.79 213 19:20 07.02.2021
2829 Clouds 5 996 78 10000 2.24 160 18:40 07.02.2021
2830 Clouds 5 996 78 10000 1.79 208 18:22 07.02.2021
2831 Clouds 5 996 83 10000 1.79 256 17:44 07.02.2021
2832 Clouds 6 996 85 10000 1.34 190 17:21 07.02.2021
2833 Clouds 6 995 84 10000 3.58 229 16:57 07.02.2021
2834 Clouds 6 995 86 10000 2.24 190 16:36 07.02.2021
2835 Clouds 7 995 86 3236 2.24 190 16:18 07.02.2021
2836 Rain 7 995 90 3236 0.89 190 15:41 07.02.2021
2837 Rain 7 995 90 10000 2.24 211 15:21 07.02.2021
2838 Rain 7 995 89 10000 1.79 183 14:42 07.02.2021
2839 Rain 7 995 89 10000 2.24 256 14:24 07.02.2021
2840 Rain 7 995 89 10000 2.24 209 13:43 07.02.2021
2841 Rain 7 996 89 10000 2.68 212 13:25 07.02.2021
2842 Rain 7 996 87 10000 2.24 196 12:39 07.02.2021
2843 Rain 7 996 85 10000 1.79 169 12:20 07.02.2021
2844 Rain 8 996 83 10000 3.13 202 11:42 07.02.2021
2845 Rain 8 996 81 10000 4.92 223 11:24 07.02.2021
2846 Clouds 9 995 86 10000 4.47 160 10:30 07.02.2021
2847 Rain 9 995 89 10000 0.89 130 09:57 07.02.2021
2848 Rain 9 995 92 10000 2.68 186 09:38 07.02.2021
2849 Rain 9 995 95 10000 1.34 168 09:20 07.02.2021
2850 Rain 6 994 97 10000 2.52 186 07:58 07.02.2021
2851 Clouds 6 995 96 10000 1.88 195 06:33 07.02.2021
2852 Clouds 6 995 96 10000 1.74 174 05:48 07.02.2021
2853 Clouds 6 996 96 10000 1.08 208 02:53 07.02.2021
2854 Clouds 7 997 95 10000 0.45 193 00:58 07.02.2021
2855 Clouds 7 998 95 10000 0.45 180 00:28 07.02.2021
2856 Rain 7 997 96 10000 1.79 92 23:32 06.02.2021
2857 Clouds 6 999 97 10000 0.57 217 22:33 06.02.2021
2858 Clouds 7 999 96 10000 1.13 199 21:39 06.02.2021
2859 Rain 7 1000 96 10000 1.52 144 21:21 06.02.2021
2860 Clouds 7 1000 96 10000 1.52 144 20:47 06.02.2021
2861 Clouds 7 999 96 10000 0.2 88 20:24 06.02.2021
2862 Clouds 7 998 96 10000 0.45 338 19:55 06.02.2021
2863 Clouds 7 999 96 10000 0.92 39 19:29 06.02.2021
2864 Clouds 7 999 96 10000 1.33 51 18:46 06.02.2021
2865 Clouds 7 999 95 10000 0.89 318 18:28 06.02.2021
2866 Clouds 7 1000 95 10000 1.11 35 17:45 06.02.2021
2867 Clouds 8 999 95 10000 0.53 332 17:22 06.02.2021
2868 Clouds 8 1000 95 10000 0.53 332 16:58 06.02.2021
2869 Clouds 7 1000 94 10000 0.45 315 16:37 06.02.2021
2870 Clouds 7 1002 93 7000 2.06 20 16:19 06.02.2021
2871 Clouds 7 1003 93 8000 2.06 340 15:40 06.02.2021
2872 Clouds 7 1003 93 8000 2.06 340 15:19 06.02.2021
2873 Clouds 7 1003 93 10000 1.54 10 14:44 06.02.2021
2874 Clouds 7 1004 93 10000 1.03 0 14:24 06.02.2021
2875 Clouds 7 1004 87 10000 1.03 0 13:47 06.02.2021
2876 Clouds 7 1005 93 10000 1.54 170 12:57 06.02.2021
2877 Clouds 7 1005 91 10000 0.42 115 12:21 06.02.2021
2878 Clouds 7 1006 93 10000 1.03 0 11:47 06.02.2021
2879 Clouds 8 1005 90 10000 1.36 239 11:22 06.02.2021
2880 Clouds 7 1007 96 10000 0.45 27 10:57 06.02.2021
2881 Clouds 7 1005 96 10000 1.36 239 10:30 06.02.2021
2882 Clouds 7 1005 96 10000 0.34 233 09:58 06.02.2021
2883 Clouds 7 1006 96 10000 0.34 233 09:37 06.02.2021
2884 Clouds 7 1006 96 10000 0.68 144 09:18 06.02.2021
2885 Clouds 7 1006 96 10000 0.68 144 08:33 06.02.2021
2886 Clouds 7 1006 96 10000 1.07 134 08:00 06.02.2021
2887 Clouds 7 1006 96 10000 0.77 167 05:44 06.02.2021
2888 Clouds 7 1007 97 10000 0.87 133 04:36 06.02.2021
2889 Clouds 7 1008 96 10000 0.43 132 02:26 06.02.2021
2890 Clouds 7 1008 96 10000 0.84 79 00:48 06.02.2021
2891 Clouds 7 1008 96 10000 0.84 79 00:48 06.02.2021
2892 Clouds 8 1008 96 10000 0.59 97 00:20 06.02.2021
2893 Clouds 8 1007 96 10000 0.59 97 23:46 05.02.2021
2894 Clouds 8 1009 96 10000 0.41 100 23:26 05.02.2021
2895 Clouds 8 1009 95 10000 0.41 100 22:47 05.02.2021
2896 Clouds 8 1009 95 10000 0.46 113 22:23 05.02.2021
2897 Clouds 8 1009 95 10000 0.45 357 21:51 05.02.2021
2898 Clouds 8 1009 95 10000 0.45 328 21:29 05.02.2021
2899 Clouds 9 1009 95 10000 1.59 71 20:48 05.02.2021
2900 Clouds 9 1009 93 10000 1.04 87 19:53 05.02.2021
2901 Clouds 9 1010 93 10000 0.84 75 19:22 05.02.2021
2902 Clouds 9 1010 93 10000 0.84 75 19:22 05.02.2021
2903 Clouds 10 1010 92 10000 0.84 75 18:54 05.02.2021
2904 Rain 10 1010 91 10000 0.62 108 18:28 05.02.2021
2905 Rain 10 1010 89 10000 0.45 306 17:56 05.02.2021
2906 Rain 10 1010 87 10000 0.62 108 17:33 05.02.2021
2907 Rain 11 1010 83 10000 0.93 168 16:57 05.02.2021
2908 Rain 9 1011 81 10000 0.93 168 16:38 05.02.2021
2909 Rain 10 1010 79 10000 0.96 204 16:19 05.02.2021
2910 Clouds 11 1009 72 10000 1.34 263 15:31 05.02.2021
2911 Clouds 12 1010 70 10000 1.86 241 14:59 05.02.2021
2912 Clouds 13 1010 70 10000 1.86 241 14:38 05.02.2021
2913 Clouds 13 1011 70 10000 0.89 224 14:18 05.02.2021
2914 Clouds 12 1011 71 10000 1.34 186 13:42 05.02.2021
2915 Clouds 12 1011 74 10000 0.89 204 13:20 05.02.2021
2916 Clouds 12 1011 76 10000 2.72 235 12:41 05.02.2021
2917 Clouds 12 1011 76 10000 2.72 235 12:41 05.02.2021
2918 Clouds 11 1011 80 10000 2.19 228 12:20 05.02.2021
2919 Clouds 9 1012 82 10000 0.45 203 11:39 05.02.2021
2920 Clouds 9 1010 85 10000 3.06 229 11:19 05.02.2021
2921 Clouds 8 1011 85 10000 0.89 249 10:48 05.02.2021
2922 Clouds 8 1012 89 10000 1.89 217 10:25 05.02.2021
2923 Clouds 8 1012 88 10000 1.89 217 09:43 05.02.2021
2924 Clouds 7 1012 88 10000 1.53 181 09:24 05.02.2021
2925 Clouds 7 1011 85 10000 1.53 181 08:41 05.02.2021
2926 Clouds 7 1011 90 10000 1.13 160 07:43 05.02.2021
2927 Clouds 7 1011 91 10000 0.76 209 07:24 05.02.2021
2928 Clouds 7 1011 92 10000 1.44 192 06:34 05.02.2021
2929 Clouds 6 1011 92 10000 1.64 167 05:35 05.02.2021
2930 Clouds 7 1010 90 10000 0.37 130 02:26 05.02.2021
2931 Clouds 7 1011 89 10000 0.37 130 01:55 05.02.2021
2932 Clouds 7 1011 88 10000 1 117 00:38 05.02.2021
2933 Clouds 7 1011 88 10000 1.12 134 00:19 05.02.2021
2934 Clouds 7 1011 88 10000 1.12 134 23:44 04.02.2021
2935 Clouds 8 1011 88 10000 0.85 210 23:25 04.02.2021
2936 Clouds 8 1011 89 10000 0.85 210 22:55 04.02.2021
2937 Clouds 8 1011 89 10000 0.85 210 22:37 04.02.2021
2938 Clouds 8 1011 89 10000 0.48 136 22:18 04.02.2021
2939 Clouds 8 1012 88 10000 0.48 136 21:41 04.02.2021
2940 Clouds 8 1012 88 10000 1.42 123 21:18 04.02.2021
2941 Rain 8 1012 86 10000 1.42 123 20:45 04.02.2021
2942 Rain 8 1012 85 10000 1.62 154 20:25 04.02.2021
2943 Clouds 9 1012 83 10000 1.62 154 19:42 04.02.2021
2944 Rain 8 1012 86 10000 1.36 167 18:51 04.02.2021
2945 Rain 8 1011 83 10000 1.48 108 18:25 04.02.2021
2946 Clouds 9 1011 81 10000 1.48 108 17:53 04.02.2021
2947 Rain 10 1013 73 10000 0.75 50 17:25 04.02.2021
2948 Clouds 9 1012 78 10000 0.75 50 16:56 04.02.2021
2949 Clouds 9 1012 77 10000 1.34 245 16:38 04.02.2021
2950 Clouds 11 1013 72 10000 0.21 350 16:18 04.02.2021
2951 Clouds 11 1013 71 10000 0.21 350 15:39 04.02.2021
2952 Clouds 11 1013 71 10000 1.05 318 15:20 04.02.2021
2953 Clouds 11 1013 70 10000 0.89 221 14:42 04.02.2021
2954 Clouds 11 1013 68 10000 0.45 157 14:20 04.02.2021
2955 Clouds 10 1015 76 10000 0.89 203 13:45 04.02.2021
2956 Clouds 11 1013 59 10000 0.98 304 13:24 04.02.2021
2957 Clouds 10 1013 61 10000 0.97 298 12:52 04.02.2021
2958 Clouds 10 1013 65 10000 0.51 237 11:54 04.02.2021
2959 Clouds 10 1013 68 10000 0.5 238 11:34 04.02.2021
2960 Clouds 8 1013 76 10000 0.94 214 10:58 04.02.2021
2961 Clouds 8 1013 78 10000 0.94 214 10:34 04.02.2021
2962 Clouds 7 1014 78 10000 0.95 167 09:45 04.02.2021
2963 Clouds 6 1014 84 10000 1.32 164 09:22 04.02.2021
2964 Clouds 6 1014 84 10000 1.32 164 09:22 04.02.2021
2965 Clouds 5 1014 87 10000 1.32 164 08:51 04.02.2021
2966 Clouds 5 1014 83 10000 1.65 177 08:26 04.02.2021
2967 Clouds 5 1014 81 10000 1.65 177 07:56 04.02.2021
2968 Clouds 6 1013 80 10000 0.89 303 07:33 04.02.2021
2969 Clouds 7 1012 84 10000 2.15 182 06:45 04.02.2021
2970 Clouds 7 1012 79 10000 0.45 253 05:52 04.02.2021
2971 Clouds 8 1012 78 10000 2.24 183 02:40 04.02.2021
2972 Clouds 9 1012 78 10000 2.68 115 02:18 04.02.2021
2973 Clouds 9 1011 82 10000 2.68 224 00:24 04.02.2021
2974 Clouds 9 1010 80 10000 2.68 186 23:34 03.02.2021
2975 Clouds 9 1008 75 10000 4.92 172 22:40 03.02.2021
2976 Rain 10 1008 72 10000 4.47 184 22:21 03.02.2021
2977 Rain 10 1008 72 10000 4.47 184 22:21 03.02.2021
2978 Clouds 10 1008 73 10000 5.36 222 21:51 03.02.2021
2979 Clouds 12 1006 66 10000 2.68 196 21:25 03.02.2021
2980 Clouds 11 1005 65 10000 3.13 177 20:57 03.02.2021
2981 Clouds 11 1005 65 10000 3.13 214 20:36 03.02.2021
2982 Clouds 11 1004 67 10000 3.13 200 19:57 03.02.2021
2983 Clouds 12 1004 67 10000 5.81 213 19:36 03.02.2021
2984 Clouds 12 1004 67 10000 4.92 207 19:18 03.02.2021
2985 Clouds 12 1003 68 10000 4.02 211 18:39 03.02.2021
2986 Clouds 11 1003 69 10000 2.68 184 18:19 03.02.2021
2987 Clouds 11 1002 67 10000 3.13 233 17:48 03.02.2021
2988 Clouds 11 1002 67 10000 3.13 214 17:29 03.02.2021
2989 Clouds 11 1002 67 10000 1.79 250 16:51 03.02.2021
2990 Clouds 11 1002 71 10000 3.58 204 16:26 03.02.2021
2991 Clouds 11 1003 76 10000 1.34 128 15:41 03.02.2021
2992 Clouds 11 1003 77 10000 2.68 211 15:23 03.02.2021
2993 Clouds 11 1003 77 10000 4.47 183 14:53 03.02.2021
2994 Rain 11 1003 79 7359 3.13 178 14:25 03.02.2021
2995 Clouds 12 1003 86 7359 4.92 157 13:53 03.02.2021
2996 Rain 12 1002 88 6052 4.02 251 13:26 03.02.2021
2997 Clouds 12 1001 89 10000 3.58 189 12:47 03.02.2021
2998 Rain 12 1001 87 10000 4.02 175 12:24 03.02.2021
2999 Rain 12 1001 85 10000 3.13 154 11:49 03.02.2021
3000 Rain 13 1001 79 8613 3.13 194 11:28 03.02.2021
3001 Clouds 12 1000 86 8613 2.24 360 10:54 03.02.2021
3002 Clouds 11 1001 85 10000 0.89 159 10:22 03.02.2021
3003 Clouds 12 1001 87 10000 4.48 201 09:47 03.02.2021
3004 Clouds 12 1001 87 10000 1.79 144 09:28 03.02.2021
3005 Rain 12 1001 85 10000 2.24 225 08:53 03.02.2021
3006 Clouds 12 1001 86 8738 2.9 177 08:27 03.02.2021
3007 Rain 11 1002 90 8738 2.9 177 07:39 03.02.2021
3008 Rain 11 1003 90 10000 2.28 182 06:41 03.02.2021
3009 Clouds 11 1008 82 10000 1.34 157 04:54 03.02.2021
3010 Clouds 11 1008 82 10000 1.34 157 04:31 03.02.2021
3011 Clouds 11 1004 88 10000 2.68 360 03:24 03.02.2021
3012 Clouds 12 1005 89 10000 2.68 190 02:36 03.02.2021
3013 Rain 12 1005 90 10000 1.79 210 00:46 03.02.2021
3014 Rain 12 1005 86 3902 4.92 190 23:56 02.02.2021
3015 Clouds 12 1005 85 3902 3.13 198 23:36 02.02.2021
3016 Clouds 12 1005 86 10000 2.68 240 23:18 02.02.2021
3017 Clouds 12 1005 80 8117 3.58 184 22:23 02.02.2021
3018 Clouds 12 1005 78 8117 4.47 190 21:58 02.02.2021
3019 Clouds 12 1005 78 8117 4.02 215 21:39 02.02.2021
3020 Clouds 13 1005 78 10000 3.13 207 21:19 02.02.2021
3021 Clouds 12 1005 79 10000 4.02 227 20:44 02.02.2021
3022 Clouds 12 1005 79 10000 4.92 157 20:20 02.02.2021
3023 Clouds 12 1005 80 10000 4.47 196 19:48 02.02.2021
3024 Clouds 12 1005 80 10000 5.81 198 19:30 02.02.2021
3025 Clouds 11 1004 85 10000 4.02 271 18:46 02.02.2021
3026 Clouds 13 1004 84 10000 4.02 194 18:26 02.02.2021
3027 Clouds 12 1004 87 10000 3.13 246 17:52 02.02.2021
3028 Clouds 12 1004 87 10000 2.24 205 17:24 02.02.2021
3029 Clouds 12 1004 87 10000 3.58 226 16:58 02.02.2021
3030 Clouds 12 1004 87 10000 4.02 238 16:38 02.02.2021
3031 Clouds 12 1004 87 10000 4.02 238 16:38 02.02.2021
3032 Clouds 13 1004 83 10000 7.15 136 16:18 02.02.2021
3033 Clouds 11 1003 89 10000 4.02 192 15:42 02.02.2021
3034 Clouds 12 1003 88 10000 3.58 157 15:22 02.02.2021
3035 Clouds 12 1003 82 10000 4.92 276 14:49 02.02.2021
3036 Clouds 12 1003 83 10000 5.36 150 14:28 02.02.2021
3037 Clouds 12 1004 84 10000 6.26 152 13:55 02.02.2021
3038 Clouds 11 1003 85 10000 6.26 188 13:37 02.02.2021
3039 Clouds 11 1003 85 10000 6.26 188 13:18 02.02.2021
3040 Clouds 11 1003 85 10000 5.36 168 12:36 02.02.2021
3041 Rain 10 1003 78 10000 4.47 257 11:45 02.02.2021
3042 Clouds 9 1004 80 10000 4.92 191 11:22 02.02.2021
3043 Clouds 9 1004 80 10000 4.92 191 11:22 02.02.2021
3044 Clouds 10 1003 76 10000 3.13 82 10:55 02.02.2021
3045 Clouds 9 1003 76 10000 6.26 230 10:27 02.02.2021
3046 Clouds 10 1004 79 10000 3.58 203 09:47 02.02.2021
3047 Clouds 9 1004 79 10000 2.68 200 09:26 02.02.2021
3048 Clouds 9 1003 82 10000 4.02 204 08:55 02.02.2021
3049 Clouds 10 1004 84 10000 3.58 152 08:32 02.02.2021
3050 Clouds 9 1004 85 10000 1.34 180 07:37 02.02.2021
3051 Clouds 7 1005 85 10000 1.79 163 06:43 02.02.2021
3052 Clear 5 1006 87 10000 2.57 180 06:21 02.02.2021
3053 Clouds 5 1006 87 10000 3.09 190 05:46 02.02.2021
3054 Clouds 6 1006 86 10000 3.58 148 02:45 02.02.2021
3055 Clouds 7 1005 85 10000 3.01 197 02:23 02.02.2021
3056 Clouds 8 1004 88 10000 0.89 217 00:36 02.02.2021
3057 Clouds 8 1003 89 10000 0.45 202 23:37 01.02.2021
3058 Clouds 8 1002 89 10000 0.89 144 22:51 01.02.2021
3059 Clouds 9 1002 89 10000 1.34 202 22:33 01.02.2021
3060 Clouds 9 1001 88 10000 1.79 205 21:55 01.02.2021
3061 Clouds 9 1001 88 10000 0.45 208 21:37 01.02.2021
3062 Clouds 9 1000 87 10000 1.34 234 21:18 01.02.2021
3063 Clouds 9 1000 89 10000 0.45 188 20:40 01.02.2021
3064 Clouds 9 999 89 7432 0.89 192 20:22 01.02.2021
3065 Clouds 9 998 88 7432 1.79 259 19:41 01.02.2021
3066 Clouds 9 998 88 10000 2.24 219 19:21 01.02.2021
3067 Clouds 9 998 88 10000 2.24 219 19:21 01.02.2021
3068 Clouds 10 998 87 10000 1.79 202 18:49 01.02.2021
3069 Clouds 9 996 92 10000 3 199 18:29 01.02.2021
3070 Clouds 9 996 91 10000 3 199 17:48 01.02.2021
3071 Clouds 9 996 88 2529 2.24 177 17:26 01.02.2021
3072 Clouds 8 995 95 2529 0.45 263 16:58 01.02.2021
3073 Clouds 8 995 91 9530 0.45 194 16:30 01.02.2021
3074 Clouds 9 995 91 9479 0.89 159 15:48 01.02.2021
3075 Rain 6 993 91 7367 3.33 195 15:19 01.02.2021
3076 Clouds 6 993 91 7367 1.79 227 14:52 01.02.2021
3077 Clouds 6 993 91 7367 1.79 227 14:52 01.02.2021
3078 Clouds 8 993 92 7367 3.33 195 14:33 01.02.2021
3079 Clouds 10 993 89 6642 3.13 202 13:52 01.02.2021
3080 Clouds 9 993 91 6073 3.13 121 13:28 01.02.2021
3081 Clouds 9 993 91 10000 2.68 202 12:58 01.02.2021
3082 Clouds 9 993 91 10000 2.68 182 12:40 01.02.2021
3083 Clouds 9 993 91 10000 2.68 182 12:40 01.02.2021
3084 Clouds 9 993 91 10000 2.68 182 12:40 01.02.2021
3085 Rain 9 993 91 5098 1.79 231 12:21 01.02.2021
3086 Rain 9 993 87 5098 2.24 236 11:39 01.02.2021
3087 Rain 9 992 87 10000 2.24 165 11:19 01.02.2021
3088 Clouds 9 992 88 10000 3.58 134 10:44 01.02.2021
3089 Clouds 8 992 89 5392 2.24 237 10:19 01.02.2021
3090 Rain 8 991 88 5392 1.34 182 09:43 01.02.2021
3091 Rain 8 991 88 10000 0.45 142 09:19 01.02.2021
3092 Rain 8 991 87 10000 2.24 193 08:41 01.02.2021
3093 Rain 8 991 93 10000 3.79 172 07:37 01.02.2021
3094 Clouds 8 990 95 10000 2.94 163 05:59 01.02.2021
3095 Rain 5 991 97 10000 3.32 155 02:49 01.02.2021
3096 Rain 5 992 90 9051 2.71 144 00:40 01.02.2021
3097 Clouds 4 992 89 10000 0.89 85 23:42 31.01.2021
3098 Clouds 4 992 95 10000 0.45 85 22:43 31.01.2021
3099 Clouds 4 993 96 10000 1.99 141 22:24 31.01.2021
3100 Clouds 4 994 96 10000 1.99 141 21:52 31.01.2021
3101 Clouds 4 995 96 10000 1.37 150 21:25 31.01.2021
3102 Clouds 5 995 96 10000 1.37 150 20:57 31.01.2021
3103 Clouds 5 995 96 10000 1.37 150 20:37 31.01.2021
3104 Clouds 5 995 96 10000 1.19 134 20:18 31.01.2021
3105 Clouds 4 996 95 10000 0.96 159 19:37 31.01.2021
3106 Clouds 4 996 95 10000 0.84 141 19:19 31.01.2021
3107 Clouds 4 997 95 10000 0.84 141 18:41 31.01.2021
3108 Clouds 4 997 95 10000 0.84 141 18:41 31.01.2021
3109 Clouds 4 997 95 10000 0.37 195 18:21 31.01.2021
3110 Clouds 5 998 95 10000 0.37 195 17:47 31.01.2021
3111 Clouds 5 998 95 10000 0.6 271 17:23 31.01.2021
3112 Clouds 4 998 95 10000 0.6 271 16:52 31.01.2021
3113 Clouds 4 998 95 10000 0.6 271 16:33 31.01.2021
3114 Clouds 4 998 95 10000 0.69 303 15:52 31.01.2021
3115 Clouds 4 998 96 10000 0.69 303 15:34 31.01.2021
3116 Clouds 4 999 96 10000 0.85 337 14:45 31.01.2021
3117 Clouds 4 999 96 10000 1.25 337 14:25 31.01.2021
3118 Clouds 4 1000 96 10000 1.25 337 13:57 31.01.2021
3119 Clouds 4 1000 96 10000 1.25 337 13:38 31.01.2021
3120 Clouds 3 1000 96 10000 1.03 349 12:51 31.01.2021
3121 Clouds 3 1000 96 4071 0.9 345 12:23 31.01.2021
3122 Clouds 3 1000 96 4071 0.9 345 12:23 31.01.2021
3123 Clouds 3 1001 96 4071 0.45 337 11:58 31.01.2021
3124 Clouds 3 1000 96 4071 0.9 345 11:38 31.01.2021
3125 Clouds 3 1000 96 3157 0.83 335 11:19 31.01.2021
3126 Clouds 3 1000 96 3157 0.83 335 10:43 31.01.2021
3127 Clouds 3 1000 96 3131 0.45 347 10:24 31.01.2021
3128 Clouds 2 1000 96 3131 0.45 346 09:33 31.01.2021
3129 Clouds 2 999 96 3369 0.83 324 08:34 31.01.2021
3130 Clouds 2 999 96 3438 0.69 351 07:50 31.01.2021
3131 Clouds 3 998 96 1609 0.89 357 05:54 31.01.2021
3132 Clouds 3 998 96 1609 0.89 357 05:54 31.01.2021
3133 Clouds 7 996 91 10000 1.34 342 00:53 31.01.2021
3134 Clouds 8 995 95 10000 2.35 200 00:28 31.01.2021
3135 Clouds 8 995 95 10000 2.35 200 23:42 30.01.2021
3136 Clouds 8 995 89 10000 1.79 198 23:20 30.01.2021
3137 Clouds 8 995 90 10000 2.24 144 22:37 30.01.2021
3138 Clouds 8 995 90 10000 2.24 144 22:37 30.01.2021
3139 Clouds 8 995 92 10000 2.68 119 21:43 30.01.2021
3140 Clouds 8 995 92 7443 2.68 177 21:24 30.01.2021
3141 Clouds 8 995 92 7443 2.68 177 21:24 30.01.2021
3142 Rain 8 995 92 7443 3.58 130 20:55 30.01.2021
3143 Clouds 8 995 92 7443 1.79 174 20:35 30.01.2021
3144 Rain 9 995 90 10000 2.68 168 19:59 30.01.2021
3145 Clouds 9 995 89 10000 3.13 207 19:40 30.01.2021
3146 Clouds 9 995 89 5060 3.58 213 19:19 30.01.2021
3147 Clouds 9 995 89 7617 3.58 213 19:19 30.01.2021
3148 Clouds 7 995 89 7617 1.79 171 18:40 30.01.2021
3149 Clouds 7 995 89 7261 1.79 233 18:20 30.01.2021
3150 Clouds 7 994 90 7261 2.68 215 17:45 30.01.2021
3151 Rain 7 994 90 10000 3.58 177 17:19 30.01.2021
3152 Rain 8 995 91 10000 2.24 198 16:41 30.01.2021
3153 Rain 8 995 91 10000 1.79 184 16:22 30.01.2021
3154 Rain 8 995 92 10000 1.79 236 15:49 30.01.2021
3155 Rain 7 995 92 10000 0.45 165 15:24 30.01.2021
3156 Rain 7 996 91 10000 2.7 177 14:58 30.01.2021
3157 Rain 7 996 90 10000 2.7 177 14:38 30.01.2021
3158 Rain 7 996 89 10000 2.68 165 14:18 30.01.2021
3159 Rain 7 997 85 10000 2.56 172 13:23 30.01.2021
3160 Rain 7 998 82 10000 2.56 172 12:46 30.01.2021
3161 Rain 8 998 79 10000 2.88 169 12:27 30.01.2021
3162 Rain 8 998 75 10000 2.88 169 11:47 30.01.2021
3163 Rain 9 999 73 10000 2.57 178 10:57 30.01.2021
3164 Rain 8 999 75 10000 2.47 174 10:29 30.01.2021
3165 Rain 8 1000 75 10000 0.89 202 09:43 30.01.2021
3166 Rain 7 1000 77 10000 0.45 109 09:24 30.01.2021
3167 Clouds 7 1001 79 10000 2.24 214 08:45 30.01.2021
3168 Clouds 7 1002 79 10000 1.34 179 07:44 30.01.2021
3169 Clouds 8 1002 84 10000 1.34 229 06:33 30.01.2021
3170 Clouds 7 1005 85 10000 3.58 210 03:57 30.01.2021
3171 Clouds 7 1005 84 10000 4.02 231 03:33 30.01.2021
3172 Clouds 7 1005 87 10000 4.47 200 02:23 30.01.2021
3173 Rain 7 1005 89 10000 2.68 152 00:58 30.01.2021
3174 Rain 8 1005 87 10000 2.24 182 00:34 30.01.2021
3175 Clouds 8 1005 86 10000 3.58 223 23:55 29.01.2021
3176 Clouds 8 1005 86 10000 3.58 184 23:28 29.01.2021
3177 Clouds 8 1005 85 10000 3.13 194 22:55 29.01.2021
3178 Clouds 8 1005 85 10000 2.68 186 22:37 29.01.2021
3179 Clouds 8 1004 86 10000 3.13 196 21:59 29.01.2021
3180 Clouds 7 1004 86 10000 3.58 255 21:28 29.01.2021
3181 Clouds 7 1003 86 10000 2.68 223 20:45 29.01.2021
3182 Rain 7 1003 86 9149 2.68 159 20:24 29.01.2021
3183 Clouds 7 1003 90 9149 2.24 178 19:43 29.01.2021
3184 Clouds 7 1003 90 2814 3.58 221 19:22 29.01.2021
3185 Clouds 7 1002 90 4747 1.34 231 18:57 29.01.2021
3186 Clouds 7 1002 88 7697 1.79 209 18:18 29.01.2021
3187 Rain 8 1002 84 7697 2.24 210 17:37 29.01.2021
3188 Clouds 8 1002 82 6764 5.36 198 17:18 29.01.2021
3189 Clouds 9 1002 86 6458 0.89 165 16:44 29.01.2021
3190 Clouds 9 1002 84 5198 3.13 238 16:23 29.01.2021
3191 Clouds 10 1002 85 5198 3.58 193 15:42 29.01.2021
3192 Clouds 10 1002 82 9122 2.68 126 15:23 29.01.2021
3193 Clouds 9 1002 90 9122 4.02 225 14:31 29.01.2021
3194 Clouds 8 1003 90 7238 0.45 215 13:59 29.01.2021
3195 Clouds 8 1003 88 7238 1.79 180 13:36 29.01.2021
3196 Clouds 8 1003 87 7184 0.89 210 13:18 29.01.2021
3197 Clouds 10 1003 80 6582 3.13 167 12:24 29.01.2021
3198 Clouds 9 1003 86 6582 1.79 204 11:47 29.01.2021
3199 Clouds 9 1003 89 10000 3.13 87 11:19 29.01.2021
3200 Clouds 9 1003 89 10000 3.13 87 11:19 29.01.2021
3201 Clouds 9 1003 90 10000 0.45 200 10:51 29.01.2021
3202 Clouds 10 1003 86 10000 2.24 189 10:27 29.01.2021
3203 Clouds 10 1002 84 10000 3.13 188 09:49 29.01.2021
3204 Clouds 10 1001 89 8170 0.89 205 08:58 29.01.2021
3205 Clouds 10 1001 91 8170 1.79 114 08:34 29.01.2021
3206 Clouds 10 1001 91 5732 1.79 184 07:58 29.01.2021
3207 Clouds 10 1001 90 5732 1.34 207 07:40 29.01.2021
3208 Clouds 11 1001 89 2363 2.24 190 07:19 29.01.2021
3209 Clouds 9 1001 89 10000 3.58 165 05:23 29.01.2021
3210 Rain 9 1003 89 4726 4.92 192 03:33 29.01.2021
3211 Rain 10 1006 91 3478 4.47 114 00:43 29.01.2021
3212 Clouds 10 1006 92 2910 2.68 209 00:22 29.01.2021
3213 Clouds 10 1007 93 2910 2.68 172 23:44 28.01.2021
3214 Rain 11 1007 93 1104 4.02 252 23:25 28.01.2021
3215 Clouds 11 1007 92 1104 3.58 231 22:47 28.01.2021
3216 Clouds 9 1009 89 2459 3.13 135 22:27 28.01.2021
3217 Clouds 10 1009 95 2459 2.24 200 21:57 28.01.2021
3218 Clouds 10 1006 94 2459 4.56 214 21:38 28.01.2021
3219 Clouds 10 1007 92 1620 2.24 194 21:20 28.01.2021
3220 Clouds 10 1009 90 1620 2.24 222 20:39 28.01.2021
3221 Clouds 10 1009 87 1341 2.68 252 20:18 28.01.2021
3222 Clouds 10 1008 87 1341 3.13 108 19:47 28.01.2021
3223 Clouds 10 1009 89 3051 4.02 214 19:24 28.01.2021
3224 Clouds 10 1009 88 3051 4.02 179 18:48 28.01.2021
3225 Rain 10 1006 89 2941 3.58 157 18:28 28.01.2021
3226 Rain 10 1008 89 2941 4.02 249 17:47 28.01.2021
3227 Rain 10 1008 90 2014 3.58 191 17:29 28.01.2021
3228 Clouds 11 1006 67 10000 3.6 0 16:46 28.01.2021
3229 Clouds 14 1005 63 10000 4.12 0 16:25 28.01.2021
3230 Clouds 12 1005 63 10000 7.2 230 15:59 28.01.2021
3231 Clouds 13 1005 63 10000 5.66 0 15:24 28.01.2021
3232 Clouds 13 1005 59 10000 5.66 250 14:44 28.01.2021
3233 Clouds 13 1005 59 10000 5.66 250 14:44 28.01.2021
3234 Clouds 12 1004 63 10000 5.14 230 14:23 28.01.2021
3235 Clouds 12 1004 63 10000 5.14 230 14:23 28.01.2021
3236 Clouds 11 1005 67 10000 3.09 0 13:54 28.01.2021
3237 Clouds 11 1005 90 3013 4.02 48 13:23 28.01.2021
3238 Clouds 10 1005 91 3024 4.02 215 12:49 28.01.2021
3239 Clouds 10 1006 91 2601 4.02 215 12:26 28.01.2021
3240 Rain 9 1006 92 2601 2.68 144 11:44 28.01.2021
3241 Rain 9 1006 92 1855 4.47 180 11:22 28.01.2021
3242 Rain 9 1006 92 1855 2.68 118 10:57 28.01.2021
3243 Rain 9 1006 92 1855 3.58 214 10:39 28.01.2021
3244 Rain 8 1006 95 3129 2.68 360 10:20 28.01.2021
3245 Rain 8 1007 91 3129 4.02 209 09:38 28.01.2021
3246 Clouds 7 1007 92 1109 3.58 209 09:19 28.01.2021
3247 Rain 8 1007 92 1109 1.34 161 08:44 28.01.2021
3248 Rain 6 1010 89 2291 2.68 135 07:50 28.01.2021
3249 Rain 6 1010 89 1398 2.68 157 07:18 28.01.2021
3250 Rain 6 1009 92 1398 2.24 203 06:46 28.01.2021
3251 Rain 5 1012 92 2452 2.24 203 04:30 28.01.2021
3252 Clouds 4 1013 91 3705 1.79 203 02:45 28.01.2021
3253 Clouds 5 1015 89 3963 0.45 213 00:45 28.01.2021
3254 Clouds 4 1015 89 5881 2.24 203 23:26 27.01.2021
3255 Clouds 4 1015 89 5881 1.79 203 22:57 27.01.2021
3256 Clouds 4 1015 90 5881 1.79 203 22:39 27.01.2021
3257 Clouds 3 1015 96 5495 2.34 183 22:18 27.01.2021
3258 Clouds 3 1015 85 5495 3.13 251 21:41 27.01.2021
3259 Clouds 4 1014 96 5298 2.07 183 21:22 27.01.2021
3260 Clouds 3 1014 96 5298 2.07 183 20:42 27.01.2021
3261 Clouds 2 1015 96 10000 2.15 194 20:18 27.01.2021
3262 Clouds 2 1014 95 10000 2.15 194 19:41 27.01.2021
3263 Clouds 2 1014 94 10000 2.41 194 19:21 27.01.2021
3264 Clouds 3 1014 93 10000 2.41 194 18:44 27.01.2021
3265 Clouds 2 1014 93 10000 2.81 198 18:23 27.01.2021
3266 Clouds 3 1015 85 10000 5.36 228 17:51 27.01.2021
3267 Clouds 3 1015 85 10000 4.47 193 17:31 27.01.2021
3268 Clouds 3 1015 84 10000 3.58 140 16:54 27.01.2021
3269 Clouds 2 1015 83 10000 2.68 158 16:36 27.01.2021
3270 Clouds 2 1015 83 10000 2.68 165 16:18 27.01.2021
3271 Clouds 2 1015 84 10000 4.47 163 15:41 27.01.2021
3272 Clouds 2 1016 85 168 2.68 134 15:23 27.01.2021
3273 Snow 1 1015 89 974 3.13 211 14:23 27.01.2021
3274 Snow 1 1015 90 409 3.13 183 13:49 27.01.2021
3275 Snow 1 1016 87 115 1.34 128 13:29 27.01.2021
3276 Rain 2 1016 74 115 1.79 185 12:42 27.01.2021
3277 Rain 2 1016 73 978 2.24 160 12:22 27.01.2021
3278 Clouds 3 1016 77 978 1.34 169 11:46 27.01.2021
3279 Snow 2 1016 86 1385 0.89 188 11:23 27.01.2021
3280 Snow 2 1016 86 1385 0.89 188 11:23 27.01.2021
3281 Snow 1 1016 92 1385 2.84 180 10:42 27.01.2021
3282 Snow 1 1016 91 366 2.6 158 10:21 27.01.2021
3283 Snow 0 1017 90 366 2.6 158 09:51 27.01.2021
3284 Snow 0 1017 87 302 0.45 214 09:25 27.01.2021
3285 Snow 0 1017 80 302 1.34 198 08:40 27.01.2021
3286 Snow 0 1017 81 2387 1.79 197 07:46 27.01.2021
3287 Snow 0 1017 85 10000 1.79 224 07:21 27.01.2021
3288 Clouds 0 1017 85 10000 2.25 151 06:24 27.01.2021
3289 Clouds 0 1018 85 10000 0.45 206 05:49 27.01.2021
3290 Clouds 0 1021 89 10000 2 153 04:57 27.01.2021
3291 Clouds 1 1022 85 10000 1.34 132 02:24 27.01.2021
3292 Clouds 0 1022 84 10000 1.34 108 01:57 27.01.2021
3293 Clouds 1 1023 81 10000 0.89 150 00:51 27.01.2021
3294 Clear 1 1022 80 10000 1.54 0 23:52 26.01.2021
3295 Clear 1 1022 80 10000 2.06 210 23:32 26.01.2021
3296 Clear 2 1022 75 10000 2.06 200 22:58 26.01.2021
3297 Clear 2 1022 75 10000 1.54 150 22:37 26.01.2021
3298 Clear 2 1022 75 10000 1.54 150 22:18 26.01.2021
3299 Clouds 2 1023 75 10000 1.03 0 21:46 26.01.2021
3300 Clouds 2 1022 80 10000 2.06 200 21:21 26.01.2021
3301 Clouds 2 1023 80 10000 1.54 0 20:41 26.01.2021
3302 Clouds 2 1023 75 10000 2.06 170 20:23 26.01.2021
3303 Clouds 3 1023 75 10000 2.57 180 19:51 26.01.2021
3304 Clouds 3 1022 75 10000 2.06 200 19:29 26.01.2021
3305 Clouds 3 1022 75 10000 2.06 230 18:58 26.01.2021
3306 Clouds 3 1022 75 10000 2.06 230 18:58 26.01.2021
3307 Clouds 3 1022 75 10000 4.12 230 18:40 26.01.2021
3308 Clouds 3 1022 65 10000 3.09 230 18:21 26.01.2021
3309 Clouds 3 1022 65 10000 3.6 280 17:47 26.01.2021
3310 Clouds 3 1021 75 10000 2.72 199 17:22 26.01.2021
3311 Clouds 3 1021 77 10000 3.58 155 16:43 26.01.2021
3312 Clouds 3 1021 77 10000 1.79 219 16:20 26.01.2021
3313 Clouds 3 1021 77 10000 1.79 161 15:50 26.01.2021
3314 Clouds 3 1021 77 10000 4.02 188 15:30 26.01.2021
3315 Clouds 3 1021 77 9635 4.47 198 14:49 26.01.2021
3316 Clouds 3 1021 75 9635 4.47 188 14:30 26.01.2021
3317 Clouds 3 1021 77 8773 2.24 234 13:48 26.01.2021
3318 Clouds 3 1022 78 6462 4.47 233 13:27 26.01.2021
3319 Clouds 3 1022 78 10000 4.92 194 12:45 26.01.2021
3320 Clouds 3 1022 78 10000 4.02 163 12:25 26.01.2021
3321 Clouds 2 1021 79 10000 4.92 161 11:59 26.01.2021
3322 Clouds 2 1022 79 10000 2.24 190 11:39 26.01.2021
3323 Snow 1 1021 83 10000 3.58 167 10:56 26.01.2021
3324 Snow 1 1021 83 10000 4.47 180 10:33 26.01.2021
3325 Snow 1 1021 85 3555 2.68 224 09:50 26.01.2021
3326 Snow 1 1021 85 3555 2.68 196 09:32 26.01.2021
3327 Snow 0 1020 86 590 3.58 184 08:55 26.01.2021
3328 Snow 0 1020 86 590 3.13 163 08:37 26.01.2021
3329 Clouds 0 1020 83 1246 3.13 206 07:53 26.01.2021
3330 Clouds 0 1019 83 5385 4.02 161 06:56 26.01.2021
3331 Clouds 0 1021 87 10000 1.79 121 05:46 26.01.2021
3332 Clouds -1 1018 94 10000 3.54 194 05:24 26.01.2021
3333 Clouds -2 1016 92 10000 2.81 191 02:58 26.01.2021
3334 Snow 0 1016 87 8683 2.28 199 00:59 26.01.2021
3335 Snow 1 1014 93 1861 2.23 226 23:46 25.01.2021
3336 Snow 1 1014 88 776 0.89 209 23:26 25.01.2021
3337 Snow 1 1013 94 776 1.94 221 22:40 25.01.2021
3338 Clouds 1 1012 94 10000 2.14 207 22:21 25.01.2021
3339 Clouds 1 1012 94 10000 2.14 207 21:40 25.01.2021
3340 Snow 1 1012 91 4376 1.34 173 21:18 25.01.2021
3341 Snow 1 1012 91 4376 0.89 173 20:40 25.01.2021
3342 Snow 1 1011 91 3337 0.45 222 20:20 25.01.2021
3343 Snow 1 1011 90 3337 1.34 199 19:47 25.01.2021
3344 Snow 1 1010 90 3668 1.71 271 19:22 25.01.2021
3345 Snow 1 1008 91 3258 1.73 288 18:44 25.01.2021
3346 Snow 1 1008 91 3098 2.29 279 18:24 25.01.2021
3347 Snow 2 1007 90 3098 2.29 279 17:44 25.01.2021
3348 Snow 2 1007 89 1189 0.45 244 17:24 25.01.2021
3349 Snow 1 1006 89 1189 0.89 265 16:49 25.01.2021
3350 Clouds 2 1006 86 2045 2.08 261 16:25 25.01.2021
3351 Clouds 2 1005 81 2045 0.89 252 15:54 25.01.2021
3352 Clouds 2 1005 81 2045 0.89 252 15:54 25.01.2021
3353 Clouds 2 1005 80 2045 0.89 261 15:34 25.01.2021
3354 Clouds 3 1004 78 1774 1.34 236 14:57 25.01.2021
3355 Clouds 3 1004 79 1774 0.45 232 14:38 25.01.2021
3356 Rain 2 1004 79 3167 2.24 360 14:18 25.01.2021
3357 Clouds 2 1003 83 3167 3.58 232 13:40 25.01.2021
3358 Clouds 2 1003 83 1763 1.34 258 13:19 25.01.2021
3359 Clouds 2 1003 84 1080 1.34 360 12:40 25.01.2021
3360 Clouds 2 1003 84 3286 1.34 252 12:18 25.01.2021
3361 Snow 1 1002 90 3255 1.34 245 11:28 25.01.2021
3362 Snow 1 1002 90 3255 0.45 360 10:49 25.01.2021
3363 Snow 2 1001 90 3250 1.34 250 10:22 25.01.2021
3364 Snow 2 1001 90 3250 1.34 250 10:22 25.01.2021
3365 Snow 2 1001 91 3250 0.45 235 09:52 25.01.2021
3366 Snow 2 1001 88 505 3.13 216 09:28 25.01.2021
3367 Snow 1 1001 88 505 3.13 216 08:38 25.01.2021
3368 Snow 1 1000 91 489 2.24 199 07:58 25.01.2021
3369 Snow 1 1000 91 3276 3.58 201 07:29 25.01.2021
3370 Snow 1 999 89 1952 4.47 151 06:38 25.01.2021
3371 Snow 1 998 90 6879 4.66 198 02:32 25.01.2021
3372 Snow 1 998 78 3278 2.91 177 00:45 25.01.2021
3373 Snow 0 999 83 3200 3 176 23:39 24.01.2021
3374 Snow 0 999 83 3971 2.62 158 23:18 24.01.2021
3375 Snow 1 1000 69 3971 2.62 158 22:40 24.01.2021
3376 Clouds 1 1000 70 10000 2.2 157 22:18 24.01.2021
3377 Clouds 1 1000 72 10000 0.45 55 21:44 24.01.2021
3378 Clouds 1 1000 87 10000 2.13 154 21:19 24.01.2021
3379 Clouds 1 1000 85 10000 2.13 154 20:41 24.01.2021
3380 Clouds 1 1000 87 10000 2.87 149 20:19 24.01.2021
3381 Clouds 0 1000 66 10000 2.87 149 19:50 24.01.2021
3382 Clouds 0 1003 73 10000 0.45 169 19:26 24.01.2021
3383 Clouds -1 1003 72 10000 0.45 144 18:56 24.01.2021
3384 Clouds -1 1002 79 10000 1.34 213 18:38 24.01.2021
3385 Clouds 2 1004 71 10000 1.34 181 18:19 24.01.2021
3386 Clouds 0 999 85 10000 3.16 150 17:48 24.01.2021
3387 Clouds 2 1004 69 10000 1.34 234 17:21 24.01.2021
3388 Clouds 1 1004 67 10000 1.79 193 16:43 24.01.2021
3389 Clouds 3 1002 61 10000 2.24 177 16:25 24.01.2021
3390 Clouds 3 1001 64 10000 0.45 251 15:58 24.01.2021
3391 Clouds 4 1002 59 10000 2.68 211 15:40 24.01.2021
3392 Clouds 4 1002 59 10000 2.24 109 15:18 24.01.2021
3393 Clouds 4 1003 58 10000 2.24 202 14:37 24.01.2021
3394 Clouds 3 1003 60 10000 3.13 165 13:42 24.01.2021
3395 Clouds 3 1003 60 10000 2.24 207 13:23 24.01.2021
3396 Clouds 3 1003 62 10000 3.13 171 12:43 24.01.2021
3397 Clouds 3 1003 62 10000 3.13 171 12:43 24.01.2021
3398 Clouds 3 1002 70 10000 1.79 238 12:19 24.01.2021
3399 Clouds 3 1002 72 10000 0.89 246 11:49 24.01.2021
3400 Clouds 2 1003 78 10000 2.24 203 11:24 24.01.2021
3401 Clouds 2 1003 78 10000 3.13 215 10:45 24.01.2021
3402 Clouds 2 1003 78 10000 3.13 215 10:18 24.01.2021
3403 Clouds 0 1004 80 10000 3.58 226 09:22 24.01.2021
3404 Clouds 1 1002 80 10000 2.68 204 08:57 24.01.2021
3405 Clouds 1 1001 80 10000 1.79 200 08:22 24.01.2021
3406 Clouds 2 997 88 9626 2.68 190 02:52 24.01.2021
3407 Clouds 3 995 86 2032 3.58 219 01:52 24.01.2021
3408 Clouds 3 994 88 2983 4.02 183 00:26 24.01.2021
3409 Clouds 3 994 89 2983 4.02 217 23:53 23.01.2021
3410 Clouds 3 993 90 155 4.47 232 23:27 23.01.2021
3411 Clouds 3 993 92 155 3.13 176 22:57 23.01.2021
3412 Clouds 3 993 92 155 2.24 202 22:37 23.01.2021
3413 Rain 3 993 90 2813 1.34 234 21:53 23.01.2021
3414 Rain 3 992 88 236 0.89 203 21:22 23.01.2021
3415 Rain 3 992 94 236 3.57 187 20:49 23.01.2021
3416 Clouds 4 993 88 3026 0.45 191 20:29 23.01.2021
3417 Clouds 3 993 89 3026 0.89 179 19:47 23.01.2021
3418 Clouds 3 993 89 3026 0.89 179 19:47 23.01.2021
3419 Clouds 3 993 89 1533 0.45 152 19:25 23.01.2021
3420 Rain 4 993 86 1533 2.68 209 18:58 23.01.2021
3421 Rain 4 993 82 10000 2.68 219 18:40 23.01.2021
3422 Rain 4 992 88 10000 4.05 176 18:20 23.01.2021
3423 Clouds 3 992 88 3503 0.45 49 17:29 23.01.2021
3424 Clouds 3 992 89 3503 0.45 75 16:52 23.01.2021
3425 Clouds 4 993 87 3503 3.38 171 16:32 23.01.2021
3426 Clouds 4 993 85 10000 0.89 89 15:53 23.01.2021
3427 Clouds 4 993 87 10000 1.9 197 15:28 23.01.2021
3428 Clouds 6 993 80 10000 1.9 197 14:38 23.01.2021
3429 Clouds 6 994 83 10000 2.06 182 14:19 23.01.2021
3430 Clouds 5 994 89 10000 2.06 182 13:43 23.01.2021
3431 Clouds 5 995 90 10000 0.45 126 13:24 23.01.2021
3432 Clouds 5 996 92 10000 2.31 185 12:44 23.01.2021
3433 Clouds 4 997 93 10000 2.66 183 12:24 23.01.2021
3434 Clouds 4 997 94 10000 2.66 183 11:40 23.01.2021
3435 Clouds 3 998 95 10000 2.36 174 10:58 23.01.2021
3436 Clouds 3 998 95 10000 2.36 180 10:26 23.01.2021
3437 Clouds 3 999 83 10000 2.36 180 09:53 23.01.2021
3438 Clouds 2 999 85 10000 0.89 163 09:28 23.01.2021
3439 Clouds 3 1000 88 10000 2.24 190 08:43 23.01.2021
3440 Clouds 2 1000 89 315 1.34 201 07:49 23.01.2021
3441 Clouds 2 1000 91 10000 2.24 223 06:55 23.01.2021
3442 Snow 1 1000 95 38 1.79 148 03:24 23.01.2021
3443 Snow 0 998 94 46 2.27 289 00:33 23.01.2021
3444 Snow 1 997 94 56 3.6 321 23:36 22.01.2021
3445 Snow 2 996 94 219 3.77 340 22:45 22.01.2021
3446 Rain 2 995 94 694 2.24 7 22:21 22.01.2021
3447 Rain 3 994 95 694 2.68 320 21:45 22.01.2021
3448 Rain 3 993 95 2103 1.34 344 21:24 22.01.2021
3449 Rain 4 993 95 2103 1.34 325 20:51 22.01.2021
3450 Rain 4 992 95 2103 0.89 332 20:31 22.01.2021
3451 Rain 4 992 94 2579 0.89 331 19:48 22.01.2021
3452 Clouds 4 991 94 1728 0.45 331 19:20 22.01.2021
3453 Clouds 5 991 93 1728 1.34 335 18:48 22.01.2021
3454 Rain 6 991 93 1529 2.68 338 18:26 22.01.2021
3455 Rain 7 991 92 1529 3.58 321 17:52 22.01.2021
3456 Clouds 8 991 91 1529 1.79 344 17:33 22.01.2021
3457 Rain 8 991 88 10000 0.57 283 16:56 22.01.2021
3458 Rain 9 992 86 10000 0.89 157 16:31 22.01.2021
3459 Rain 10 992 85 10000 0.45 204 15:48 22.01.2021
3460 Rain 10 992 79 10000 2.54 180 15:25 22.01.2021
3461 Rain 10 991 68 10000 0.45 194 14:43 22.01.2021
3462 Rain 12 991 65 10000 0.89 186 14:24 22.01.2021
3463 Rain 12 991 61 10000 2.47 178 13:38 22.01.2021
3464 Rain 12 991 60 10000 0.89 203 13:19 22.01.2021
3465 Rain 11 993 54 10000 3.6 160 12:40 22.01.2021
3466 Clouds 11 993 54 10000 3.6 160 12:18 22.01.2021
3467 Clouds 13 993 62 10000 5.14 170 11:39 22.01.2021
3468 Clear 12 994 66 10000 3.6 140 10:48 22.01.2021
3469 Clouds 11 994 66 10000 4.63 140 10:25 22.01.2021
3470 Rain 11 994 66 10000 3.09 160 09:45 22.01.2021
3471 Clouds 8 994 66 10000 4.63 150 08:58 22.01.2021
3472 Clouds 8 994 66 10000 6.69 170 08:32 22.01.2021
3473 Clouds 8 994 66 10000 4.63 180 07:50 22.01.2021
3474 Clouds 7 994 71 10000 4.12 170 06:24 22.01.2021
3475 Clouds 9 995 54 10000 8.75 200 02:29 22.01.2021
3476 Clouds 9 996 76 10000 8.23 180 00:30 22.01.2021
3477 Rain 9 997 81 8000 8.75 220 23:50 21.01.2021
3478 Rain 7 996 71 10000 8.23 180 23:22 21.01.2021
3479 Rain 7 996 76 10000 7.72 190 22:48 21.01.2021
3480 Clouds 6 997 71 10000 6.69 190 22:18 21.01.2021
3481 Rain 7 997 66 10000 7.72 200 21:41 21.01.2021
3482 Rain 9 998 62 10000 8.23 200 21:19 21.01.2021
3483 Rain 8 997 66 10000 8.23 200 20:47 21.01.2021
3484 Rain 8 998 66 10000 8.23 200 20:22 21.01.2021
3485 Clouds 8 998 76 10000 3.09 210 19:51 21.01.2021
3486 Rain 5 998 76 10000 1.54 0 19:27 21.01.2021
3487 Clouds 8 999 76 10000 1.54 240 18:54 21.01.2021
3488 Rain 6 999 71 10000 1.54 150 18:36 21.01.2021
3489 Rain 8 999 71 10000 1.54 150 18:18 21.01.2021
3490 Rain 8 999 76 10000 1.54 190 17:42 21.01.2021
3491 Rain 6 1000 76 10000 2.57 170 17:18 21.01.2021
3492 Rain 9 1000 76 10000 3.09 180 16:41 21.01.2021
3493 Rain 8 1000 76 10000 2.06 190 16:23 21.01.2021
3494 Clouds 9 1000 76 10000 1.54 180 15:55 21.01.2021
3495 Clouds 9 1001 76 10000 4.12 190 15:28 21.01.2021
3496 Clouds 9 1001 76 10000 5.66 190 14:52 21.01.2021
3497 Clouds 10 1001 76 10000 5.14 190 14:31 21.01.2021
3498 Clouds 11 1001 71 10000 2.57 200 13:48 21.01.2021
3499 Clouds 12 1001 71 10000 3.09 190 13:27 21.01.2021
3500 Rain 10 1002 76 10000 1.54 180 12:47 21.01.2021
3501 Rain 9 1002 66 10000 2.06 160 12:27 21.01.2021
3502 Clouds 9 1002 66 10000 3.09 140 11:59 21.01.2021
3503 Clouds 8 1002 58 10000 7.2 200 11:41 21.01.2021
3504 Clouds 8 1002 66 10000 3.6 150 11:22 21.01.2021
3505 Clouds 8 1002 66 10000 4.63 150 10:43 21.01.2021
3506 Clouds 8 1001 61 10000 5.66 150 10:24 21.01.2021
3507 Clouds 7 1001 58 10000 7.2 190 09:40 21.01.2021
3508 Rain 6 1001 66 10000 5.66 160 09:20 21.01.2021
3509 Clear 6 1001 57 10000 7.72 190 08:35 21.01.2021
3510 Clouds 4 1001 57 10000 4.63 150 07:49 21.01.2021
3511 Clouds 3 1001 61 6000 5.66 140 07:26 21.01.2021
3512 Clouds 3 1001 61 10000 4.12 120 06:43 21.01.2021
3513 Clear 2 1000 61 10000 5.14 150 04:58 21.01.2021
3514 Clouds 4 1001 53 8000 4.63 160 02:22 21.01.2021
3515 Clouds 3 1002 61 7000 2.57 250 00:44 21.01.2021
3516 Clouds 3 1002 65 7000 4.63 200 23:52 20.01.2021
3517 Clouds 3 1002 65 7000 7.2 190 23:31 20.01.2021
3518 Clouds 3 1002 65 6000 6.69 190 22:57 20.01.2021
3519 Clouds 3 1002 65 6000 7.2 190 22:36 20.01.2021
3520 Clouds 4 1003 61 6000 7.2 190 21:56 20.01.2021
3521 Clouds 4 1002 61 6000 8.75 190 21:24 20.01.2021
3522 Clouds 4 1003 61 6000 5.66 180 20:58 20.01.2021
3523 Clouds 3 1003 61 6000 7.72 180 20:36 20.01.2021
3524 Clouds 3 1003 61 6000 7.72 180 20:18 20.01.2021
3525 Clouds 4 1003 61 6000 8.75 180 19:41 20.01.2021
3526 Clouds 5 1005 79 10000 2.95 135 19:22 20.01.2021
3527 Clouds 4 1005 75 10000 3.1 137 18:42 20.01.2021
3528 Clouds 4 1005 78 10000 0.45 107 17:57 20.01.2021
3529 Clouds 3 1005 77 10000 3.1 145 17:37 20.01.2021
3530 Clouds 5 1005 75 10000 0.89 107 16:53 20.01.2021
3531 Clouds 5 1005 74 10000 3.14 146 16:33 20.01.2021
3532 Clouds 6 1006 72 10000 3.16 150 15:52 20.01.2021
3533 Clouds 6 1006 71 10000 3.16 150 15:34 20.01.2021
3534 Clouds 6 1007 72 10000 2.82 155 14:50 20.01.2021
3535 Clouds 6 1007 67 10000 0.45 167 14:23 20.01.2021
3536 Clouds 6 1006 69 10000 2.48 156 13:42 20.01.2021
3537 Clouds 6 1006 70 10000 2.58 158 13:24 20.01.2021
3538 Clouds 5 1007 76 10000 2.65 159 12:42 20.01.2021
3539 Clouds 4 1008 75 10000 2.78 163 11:58 20.01.2021
3540 Clouds 4 1008 77 10000 2.78 163 11:38 20.01.2021
3541 Clouds 3 1008 80 10000 2.97 162 10:56 20.01.2021
3542 Clouds 3 1008 82 10000 2.97 162 10:34 20.01.2021
3543 Clouds 2 1009 84 10000 2.87 160 09:54 20.01.2021
3544 Clouds 2 1009 86 10000 0.89 102 09:27 20.01.2021
3545 Clouds 2 1009 82 10000 2.83 162 08:58 20.01.2021
3546 Clouds 2 1009 80 10000 2.83 162 08:33 20.01.2021
3547 Clouds 2 1010 85 10000 0.45 217 07:59 20.01.2021
3548 Clouds 1 1010 86 10000 2.69 164 07:37 20.01.2021
3549 Clouds 1 1013 87 10000 0.89 228 06:39 20.01.2021
3550 Clouds 1 1012 88 10000 0.45 136 03:30 20.01.2021
3551 Clouds 1 1012 86 10000 0.89 84 01:50 20.01.2021
3552 Clouds 1 1013 85 10000 0.89 111 00:47 20.01.2021
3553 Clouds 2 1013 83 10000 0.89 115 23:50 19.01.2021
3554 Clouds 2 1014 81 10000 0.89 78 23:27 19.01.2021
3555 Clouds 2 1014 76 10000 2.64 167 22:58 19.01.2021
3556 Clouds 2 1014 73 10000 2.64 167 22:37 19.01.2021
3557 Clouds 3 1014 71 10000 2.98 173 22:19 19.01.2021
3558 Clouds 3 1014 64 10000 2.98 173 21:52 19.01.2021
3559 Clouds 3 1016 73 10000 1.34 221 21:28 19.01.2021
3560 Clouds 3 1016 68 10000 1.79 135 20:49 19.01.2021
3561 Clouds 3 1016 63 10000 0.89 135 20:26 19.01.2021
3562 Clouds 4 1015 54 10000 0.45 217 19:55 19.01.2021
3563 Clouds 4 1015 52 10000 1.34 195 19:30 19.01.2021
3564 Clouds 4 1017 64 10000 1.79 135 18:50 19.01.2021
3565 Clouds 4 1017 61 10000 1.79 157 18:31 19.01.2021
3566 Clouds 4 1017 57 10000 2.24 135 17:55 19.01.2021
3567 Clouds 4 1017 57 10000 2.68 135 17:37 19.01.2021
3568 Clouds 4 1016 54 10000 1.34 203 17:18 19.01.2021
3569 Clouds 4 1016 68 10000 0.45 203 16:38 19.01.2021
3570 Clouds 4 1016 81 10000 3.74 188 16:18 19.01.2021
3571 Clouds 4 1016 76 10000 3.74 188 15:48 19.01.2021
3572 Clouds 4 1017 59 10000 3.58 146 15:29 19.01.2021
3573 Rain 5 1017 60 10000 3.13 221 14:43 19.01.2021
3574 Clouds 4 1017 58 10000 4.92 187 14:25 19.01.2021
3575 Clouds 4 1017 61 10000 3.13 190 13:49 19.01.2021
3576 Clouds 5 1017 52 10000 3.58 139 13:23 19.01.2021
3577 Clouds 5 1017 50 10000 5.36 206 12:51 19.01.2021
3578 Clouds 5 1018 54 10000 4.02 107 12:30 19.01.2021
3579 Clouds 4 1018 61 10000 5.81 239 11:52 19.01.2021
3580 Clouds 4 1019 67 10000 5.36 121 11:29 19.01.2021
3581 Clouds 3 1018 69 10000 3.58 203 10:59 19.01.2021
3582 Clouds 3 1019 70 10000 3.13 188 10:40 19.01.2021
3583 Clouds 2 1019 76 10000 3.13 203 10:18 19.01.2021
3584 Clouds 2 1019 77 10000 3.58 203 09:42 19.01.2021
3585 Clouds -3 1018 95 10000 3.24 186 09:19 19.01.2021
3586 Clouds -1 1019 94 10000 3.24 186 08:33 19.01.2021
3587 Clouds 0 1023 80 10000 1.79 160 07:51 19.01.2021
3588 Clouds -1 1019 94 10000 3.09 175 06:59 19.01.2021
3589 Clouds -1 1023 93 6000 1.03 220 04:18 19.01.2021
3590 Clouds -1 1026 77 10000 1.34 200 02:22 19.01.2021
3591 Clouds -1 1025 79 10000 3.58 155 00:34 19.01.2021
3592 Clouds 0 1028 81 10000 0.89 187 23:47 18.01.2021
3593 Clouds 1 1024 80 10000 1.79 203 23:23 18.01.2021
3594 Clouds 0 1028 84 10000 1.34 193 22:41 18.01.2021
3595 Clouds 2 1028 84 10000 1.34 174 22:21 18.01.2021
3596 Clouds 2 1027 79 10000 0.45 180 21:47 18.01.2021
3597 Clear 1 1026 80 10000 3.6 200 21:23 18.01.2021
3598 Clear 1 1027 86 10000 2.06 220 20:57 18.01.2021
3599 Clear 1 1027 80 10000 1.54 0 20:34 18.01.2021
3600 Clouds 1 1029 86 10000 1.79 212 19:54 18.01.2021
3601 Clouds 1 1029 86 10000 1.79 212 19:35 18.01.2021
3602 Clouds 2 1026 82 10000 0.89 144 18:48 18.01.2021
3603 Clouds 2 1028 86 10000 1.34 222 18:27 18.01.2021
3604 Clouds 3 1027 81 10000 1.79 135 17:47 18.01.2021
3605 Clouds 3 1028 85 10000 1.79 236 17:29 18.01.2021
3606 Clouds 3 1026 85 10000 1.79 257 16:51 18.01.2021
3607 Clouds 3 1028 84 10000 1.34 171 16:32 18.01.2021
3608 Clouds 3 1026 79 10000 2.24 157 15:56 18.01.2021
3609 Clouds 3 1026 79 10000 2.24 126 15:37 18.01.2021
3610 Clouds 3 1026 79 10000 3.13 180 15:18 18.01.2021
3611 Clouds 2 1026 93 10000 2.77 202 14:41 18.01.2021
3612 Clouds 2 1025 94 5029 2.62 202 14:22 18.01.2021
3613 Clouds 2 1026 96 5029 2.62 202 13:44 18.01.2021
3614 Clouds 3 1027 79 774 1.79 187 13:20 18.01.2021
3615 Clouds 2 1026 97 774 2.43 208 12:47 18.01.2021
3616 Clouds 3 1027 81 10000 1.34 180 12:19 18.01.2021
3617 Clouds 2 1027 85 10000 2.79 216 11:48 18.01.2021
3618 Clouds 2 1028 87 256 1.34 205 11:27 18.01.2021
3619 Clouds 2 1028 88 256 2.54 219 10:51 18.01.2021
3620 Clouds 2 1027 97 256 2.54 219 10:30 18.01.2021
3621 Snow 2 1027 91 61 1.34 213 09:43 18.01.2021
3622 Snow 2 1027 91 51 1.34 128 09:18 18.01.2021
3623 Snow 2 1027 91 51 0.45 198 08:43 18.01.2021
3624 Snow 2 1027 89 69 2.53 221 07:55 18.01.2021
3625 Snow 1 1026 91 420 2.46 213 06:44 18.01.2021
3626 Snow 1 1026 92 156 1.34 213 04:57 18.01.2021
3627 Snow 1 1026 92 156 0.45 206 04:30 18.01.2021
3628 Snow 1 1026 93 85 1.8 225 03:53 18.01.2021
3629 Snow 1 1026 94 85 0.89 205 03:31 18.01.2021
3630 Snow 1 1026 94 44 1.92 233 02:59 18.01.2021
3631 Snow 1 1026 94 36 2.37 217 02:20 18.01.2021
3632 Snow 1 1026 95 57 2.46 212 00:43 18.01.2021
3633 Snow 1 1026 95 39 1.94 220 00:20 18.01.2021
3634 Snow 1 1025 95 39 1.94 220 23:44 17.01.2021
3635 Snow 1 1025 95 48 0.45 173 23:20 17.01.2021
3636 Snow 1 1025 95 120 1.72 232 22:26 17.01.2021
3637 Snow 1 1025 95 120 1.72 232 22:26 17.01.2021
3638 Snow 1 1025 95 120 1.72 232 21:58 17.01.2021
3639 Snow 1 1025 95 120 1.72 232 21:39 17.01.2021
3640 Snow 1 1025 95 88 1.77 239 21:21 17.01.2021
3641 Snow 1 1025 95 88 1.77 239 20:47 17.01.2021
3642 Snow 1 1025 95 88 1.77 239 20:47 17.01.2021
3643 Snow 1 1024 95 80 1.96 246 20:25 17.01.2021
3644 Snow 1 1024 95 80 1.96 246 19:42 17.01.2021
3645 Snow 1 1024 94 67 1.93 259 19:21 17.01.2021
3646 Snow 1 1024 94 61 1.61 259 18:41 17.01.2021
3647 Rain 1 1023 94 57 0.89 227 18:21 17.01.2021
3648 Snow 1 1023 94 57 0.45 207 17:47 17.01.2021
3649 Rain 1 1022 94 52 0.89 152 17:26 17.01.2021
3650 Rain 1 1021 94 52 1.89 265 16:44 17.01.2021
3651 Snow 1 1021 94 42 1.78 258 16:20 17.01.2021
3652 Snow 1 1021 94 42 1.78 258 15:43 17.01.2021
3653 Rain 1 1020 93 38 1.63 230 15:24 17.01.2021
3654 Snow 1 1020 93 38 1.79 186 14:49 17.01.2021
3655 Snow 2 1019 92 38 0.89 161 14:26 17.01.2021
3656 Rain 2 1019 91 38 1.79 157 13:45 17.01.2021
3657 Rain 1 1019 91 38 1.34 164 13:27 17.01.2021
3658 Rain 1 1019 91 45 1.79 209 12:53 17.01.2021
3659 Rain 2 1018 95 45 2.23 243 12:31 17.01.2021
3660 Snow 2 1019 92 39 2.24 234 11:56 17.01.2021
3661 Snow 2 1019 91 36 1.34 200 11:23 17.01.2021
3662 Rain 2 1019 89 36 2.24 176 10:48 17.01.2021
3663 Rain 2 1019 89 39 1.34 180 10:21 17.01.2021
3664 Rain 2 1018 90 39 1.79 192 09:42 17.01.2021
3665 Snow 1 1017 90 45 2.24 217 08:45 17.01.2021
3666 Snow 1 1017 90 76 2.24 170 06:57 17.01.2021
3667 Snow 0 1017 90 849 4.02 169 04:28 17.01.2021
3668 Snow 0 1017 93 309 2.68 164 02:48 17.01.2021
3669 Snow -2 1018 95 186 2.49 173 00:51 17.01.2021
3670 Snow -3 1019 95 200 2.81 171 00:18 17.01.2021
3671 Snow -3 1019 94 200 2.81 171 23:49 16.01.2021
3672 Snow -3 1020 94 184 2.82 177 23:20 16.01.2021
3673 Snow -2 1020 94 184 2.82 177 22:45 16.01.2021
3674 Snow -3 1021 91 7245 3.05 189 21:58 16.01.2021
3675 Snow -3 1021 90 7245 3.05 189 21:38 16.01.2021
3676 Snow -3 1022 89 10000 2.97 183 21:18 16.01.2021
3677 Snow -3 1022 89 10000 2.97 183 20:44 16.01.2021
3678 Clouds -3 1023 89 10000 2.69 178 20:22 16.01.2021
3679 Clouds -3 1023 91 10000 2.69 178 19:44 16.01.2021
3680 Clouds -4 1023 92 10000 2.43 167 19:24 16.01.2021
3681 Clouds -3 1024 91 10000 1.99 171 18:43 16.01.2021
3682 Clouds -4 1024 91 10000 1.75 163 18:25 16.01.2021
3683 Clouds -3 1025 91 10000 1.75 163 17:48 16.01.2021
3684 Clouds -3 1025 90 10000 1.32 188 17:29 16.01.2021
3685 Clouds -3 1025 90 10000 1.32 188 16:47 16.01.2021
3686 Clouds -3 1025 90 10000 0.8 229 16:27 16.01.2021
3687 Clouds -3 1025 89 10000 0.8 229 15:54 16.01.2021
3688 Clouds -3 1025 88 10000 0.75 244 15:26 16.01.2021
3689 Clouds -3 1026 89 10000 0.94 263 14:30 16.01.2021
3690 Clouds -2 1026 88 10000 0.96 265 13:50 16.01.2021
3691 Clouds -2 1027 88 10000 1.41 279 13:29 16.01.2021
3692 Clouds -3 1027 89 10000 1.24 276 12:46 16.01.2021
3693 Clouds -3 1027 88 10000 1.27 270 12:21 16.01.2021
3694 Clouds -2 1028 89 10000 1.27 270 11:52 16.01.2021
3695 Clouds -3 1028 89 10000 0.84 245 11:25 16.01.2021
3696 Clouds -4 1028 90 10000 0.84 245 10:50 16.01.2021
3697 Clouds -4 1029 90 10000 0.84 245 10:30 16.01.2021
3698 Clouds -5 1026 94 10000 0.89 152 09:50 16.01.2021
3699 Clouds -6 1026 94 10000 0.98 148 09:19 16.01.2021
3700 Clouds -7 1026 93 10000 1.16 146 08:18 16.01.2021
3701 Clear -8 1028 90 10000 0.98 163 06:44 16.01.2021
3702 Clear -7 1028 93 10000 1.14 148 04:52 16.01.2021
3703 Clear -7 1026 94 10000 1.23 144 02:59 16.01.2021
3704 Clear -7 1026 94 10000 1.23 144 02:37 16.01.2021
3705 Clouds -6 1026 94 10000 1.19 121 00:45 16.01.2021
3706 Clouds -6 1028 93 10000 1.3 126 00:20 16.01.2021
3707 Clouds -6 1028 90 10000 1.3 126 23:30 15.01.2021
3708 Clouds -7 1027 91 10000 0.89 337 22:38 15.01.2021
3709 Clouds -7 1027 91 10000 0.89 337 22:18 15.01.2021
3710 Clouds -7 1030 94 10000 1.48 128 21:42 15.01.2021
3711 Clouds -7 1023 90 10000 1.59 119 20:48 15.01.2021
3712 Clouds -5 1026 94 10000 1.63 105 20:23 15.01.2021
3713 Clouds -5 1025 95 10000 1.63 105 19:48 15.01.2021
3714 Clouds -5 1025 95 10000 1.63 94 19:28 15.01.2021
3715 Clouds -4 1025 92 10000 1.71 93 18:47 15.01.2021
3716 Clouds -3 1025 95 10000 1.5 71 18:21 15.01.2021
3717 Clouds -2 1023 95 10000 1.5 71 17:59 15.01.2021
3718 Clouds -2 1023 95 10000 1.5 71 17:40 15.01.2021
3719 Clouds -2 1023 95 10000 1.5 71 17:40 15.01.2021
3720 Clouds -2 1023 95 6728 1.22 29 17:21 15.01.2021
3721 Clouds -1 1022 95 6728 1.22 29 16:46 15.01.2021
3722 Clouds -1 1023 90 6950 1.43 352 16:23 15.01.2021
3723 Clouds -1 1022 92 6950 1.34 251 15:41 15.01.2021
3724 Clouds -1 1021 93 10000 0.89 250 15:21 15.01.2021
3725 Clouds 0 1021 91 10000 0.45 226 14:44 15.01.2021
3726 Clouds 0 1022 90 10000 2.21 358 14:25 15.01.2021
3727 Clouds 0 1022 94 10000 2.21 358 13:42 15.01.2021
3728 Clouds 0 1022 94 10000 2.14 359 13:22 15.01.2021
3729 Clouds 0 1021 95 10000 2.18 357 12:57 15.01.2021
3730 Clouds 0 1021 95 10000 2.18 357 12:32 15.01.2021
3731 Snow 0 1021 96 10000 1.83 16 11:50 15.01.2021
3732 Snow 0 1021 96 10000 1.83 16 11:32 15.01.2021
3733 Snow 0 1020 97 1947 1.98 32 10:57 15.01.2021
3734 Snow 0 1020 97 1947 1.98 32 10:39 15.01.2021
3735 Snow 0 1020 97 1947 1.98 32 10:39 15.01.2021
3736 Snow 0 1019 97 370 1.99 53 10:19 15.01.2021
3737 Snow 0 1019 96 370 1.99 53 09:41 15.01.2021
3738 Snow 0 1018 96 223 2.13 70 09:20 15.01.2021
3739 Snow 0 1017 96 212 2.03 75 08:25 15.01.2021
3740 Snow 0 1017 97 212 2.03 75 07:41 15.01.2021
3741 Snow 0 1017 97 185 2.06 81 07:20 15.01.2021
3742 Snow 0 1015 96 126 2.2 82 05:36 15.01.2021
3743 Snow 0 1014 96 92 2.32 96 02:19 15.01.2021
3744 Snow 0 1014 96 399 2.15 100 23:55 14.01.2021
3745 Snow 0 1013 96 211 2.09 102 23:29 14.01.2021
3746 Snow 0 1013 96 211 2.09 102 23:29 14.01.2021
3747 Snow 0 1013 96 211 2.09 102 22:50 14.01.2021
3748 Snow 0 1014 96 166 1.97 108 22:26 14.01.2021
3749 Snow 0 1014 96 166 1.97 108 21:56 14.01.2021
3750 Snow 0 1014 96 166 1.97 108 21:37 14.01.2021
3751 Snow 0 1014 96 128 2.2 106 21:19 14.01.2021
3752 Snow 0 1014 96 128 2.2 106 20:42 14.01.2021
3753 Snow 0 1015 96 100 2.35 116 19:54 14.01.2021
3754 Snow 0 1015 96 98 2.33 115 19:35 14.01.2021
3755 Snow 0 1015 96 85 1.86 121 18:56 14.01.2021
3756 Snow 0 1016 96 85 1.86 121 18:36 14.01.2021
3757 Snow 0 1016 96 64 1.38 127 17:55 14.01.2021
3758 Snow 0 1016 96 51 1.05 131 17:29 14.01.2021
3759 Snow 0 1017 96 51 1.05 131 16:54 14.01.2021
3760 Snow 0 1017 96 51 1.05 131 16:30 14.01.2021
3761 Snow 0 1017 95 55 0.81 135 15:54 14.01.2021
3762 Snow 0 1017 95 46 0.42 86 15:28 14.01.2021
3763 Snow 0 1017 96 46 0.42 86 14:44 14.01.2021
3764 Snow 0 1017 96 46 0.61 72 14:24 14.01.2021
3765 Snow 0 1017 96 46 0.45 321 13:55 14.01.2021
3766 Snow 1 1017 96 39 1.07 36 13:24 14.01.2021
3767 Snow 0 1018 95 39 1.07 36 12:56 14.01.2021
3768 Snow 1 1018 95 58 1.5 31 12:22 14.01.2021
3769 Snow 1 1018 95 58 1.5 31 11:58 14.01.2021
3770 Snow 0 1018 95 58 1.5 31 11:38 14.01.2021
3771 Snow 0 1018 95 70 1.49 37 11:18 14.01.2021
3772 Snow 0 1018 95 70 1.49 37 10:40 14.01.2021
3773 Snow 0 1018 95 106 1.16 54 10:19 14.01.2021
3774 Snow 0 1017 95 106 1.16 54 09:42 14.01.2021
3775 Snow 1 1017 95 129 0.84 69 09:21 14.01.2021
3776 Snow 1 1017 95 129 0.84 69 08:39 14.01.2021
3777 Snow 1 1017 95 80 0.75 69 08:19 14.01.2021
3778 Snow 1 1017 94 80 0.75 69 07:41 14.01.2021
3779 Snow 1 1017 94 88 1.28 79 06:38 14.01.2021
3780 Rain 3 1016 95 73 0.45 350 05:23 14.01.2021
3781 Rain 7 1015 92 784 3.58 212 00:36 14.01.2021
3782 Rain 6 1015 92 1046 4.47 136 23:48 13.01.2021
3783 Rain 6 1015 92 1503 4.02 215 23:20 13.01.2021
3784 Clouds 6 1015 91 1928 4.47 151 22:27 13.01.2021
3785 Clouds 6 1015 91 1928 3.58 245 21:50 13.01.2021
3786 Rain 5 1015 91 5455 4.47 176 21:24 13.01.2021
3787 Rain 5 1016 91 5455 3.58 190 20:57 13.01.2021
3788 Rain 5 1016 89 2686 4.47 198 20:29 13.01.2021
3789 Rain 5 1016 90 2686 4.02 160 19:57 13.01.2021
3790 Rain 5 1016 90 2686 3.58 171 19:37 13.01.2021
3791 Rain 5 1015 93 1553 1.79 313 19:19 13.01.2021
3792 Rain 5 1017 91 1007 4.47 189 18:40 13.01.2021
3793 Rain 5 1017 88 2368 2.24 232 17:51 13.01.2021
3794 Rain 5 1017 85 10000 2.24 186 17:25 13.01.2021
3795 Clouds 4 1016 81 10000 2.24 273 16:51 13.01.2021
3796 Clouds 5 1017 85 10000 4.02 238 16:22 13.01.2021
3797 Clouds 5 1018 86 10000 4.47 194 15:53 13.01.2021
3798 Clouds 5 1018 86 10000 3.58 216 15:35 13.01.2021
3799 Clouds 5 1019 82 10000 2.68 206 14:49 13.01.2021
3800 Clear 4 1022 81 10000 2.68 211 13:55 13.01.2021
3801 Clear 4 1019 73 10000 2.24 200 13:32 13.01.2021
3802 Clouds 4 1019 81 10000 0.89 246 12:59 13.01.2021
3803 Clouds 4 1019 81 10000 0.89 246 12:39 13.01.2021
3804 Clouds 3 1019 81 10000 0.89 246 12:19 13.01.2021
3805 Clouds 3 1020 95 10000 0.45 261 11:45 13.01.2021
3806 Clouds 3 1021 86 10000 0.45 221 11:22 13.01.2021
3807 Clouds 2 1021 91 10000 3.39 198 10:42 13.01.2021
3808 Clouds 1 1021 92 10000 0.89 214 10:24 13.01.2021
3809 Clouds 1 1021 94 10000 0.89 173 09:37 13.01.2021
3810 Clouds 1 1019 96 10000 2.39 196 08:57 13.01.2021
3811 Clouds 1 1020 94 10000 2.39 196 08:33 13.01.2021
3812 Clouds 1 1020 94 10000 1.84 194 07:52 13.01.2021
3813 Clouds 1 1020 93 10000 1.26 192 07:24 13.01.2021
3814 Clouds 1 1019 92 5281 0.65 77 04:21 13.01.2021
3815 Clouds 1 1018 92 5281 0.65 77 03:49 13.01.2021
3816 Clouds 1 1018 92 5281 0.65 77 03:30 13.01.2021
3817 Clouds 2 1018 92 3198 0.79 14 02:46 13.01.2021
3818 Clouds 3 1017 91 3017 1.34 11 00:38 13.01.2021
3819 Clouds 3 1017 90 3181 1.34 198 23:31 12.01.2021
3820 Clouds 3 1016 88 3214 1.79 202 22:47 12.01.2021
3821 Clouds 3 1015 88 3360 3.58 182 22:25 12.01.2021
3822 Clouds 3 1015 87 3360 3.58 177 21:53 12.01.2021
3823 Clouds 3 1015 87 3360 4.47 207 21:35 12.01.2021
3824 Clouds 3 1015 87 3360 4.47 207 21:35 12.01.2021
3825 Clouds 3 1014 87 3476 4.47 206 20:57 12.01.2021
3826 Clouds 3 1014 87 3476 4.02 169 20:38 12.01.2021
3827 Clouds 3 1014 87 3498 4.92 165 20:20 12.01.2021
3828 Clouds 3 1014 88 3498 3.58 220 19:39 12.01.2021
3829 Rain 3 1014 89 3091 4.92 206 18:52 12.01.2021
3830 Clouds 3 1014 89 1564 3.58 211 18:25 12.01.2021
3831 Clouds 3 1014 87 1564 4.47 219 17:56 12.01.2021
3832 Rain 3 1013 86 1564 4.92 204 17:32 12.01.2021
3833 Clouds 3 1013 86 1150 4.92 204 16:44 12.01.2021
3834 Rain 3 1013 86 2907 5.36 194 16:26 12.01.2021
3835 Rain 3 1013 86 2907 4.47 186 15:50 12.01.2021
3836 Rain 3 1014 87 915 4.47 184 15:27 12.01.2021
3837 Rain 3 1013 88 915 7.15 201 14:50 12.01.2021
3838 Rain 2 1013 91 915 3.58 309 14:30 12.01.2021
3839 Clouds 2 1014 91 2937 5.36 209 13:56 12.01.2021
3840 Rain 2 1014 90 2937 4.92 144 13:37 12.01.2021
3841 Rain 3 1015 85 2949 5.36 201 12:38 12.01.2021
3842 Rain 3 1016 82 3137 5.36 176 11:53 12.01.2021
3843 Rain 3 1016 82 3137 5.36 176 11:53 12.01.2021
3844 Rain 3 1016 81 3137 5.81 132 11:34 12.01.2021
3845 Rain 3 1017 82 3912 6.26 210 10:44 12.01.2021
3846 Rain 3 1017 81 3761 6.71 175 10:20 12.01.2021
3847 Rain 3 1017 80 3761 6.71 180 09:54 12.01.2021
3848 Clouds 3 1017 81 4535 5.81 227 09:24 12.01.2021
3849 Clouds 2 1017 80 4535 5.81 161 08:39 12.01.2021
3850 Clouds 2 1017 80 3825 4.02 200 08:20 12.01.2021
3851 Snow 2 1018 80 3825 5.81 153 07:34 12.01.2021
3852 Clouds 2 1019 79 10000 6.26 155 05:56 12.01.2021
3853 Clouds 0 1018 84 10000 3.58 203 05:26 12.01.2021
3854 Clouds -2 1023 75 10000 3.13 105 03:24 12.01.2021
3855 Clouds -1 1021 78 10000 3.42 180 02:18 12.01.2021
3856 Clouds -4 1021 81 10000 1.34 86 01:25 12.01.2021
3857 Clouds -2 1022 79 10000 2.57 183 23:45 11.01.2021
3858 Clouds -2 1022 79 10000 0.89 42 23:23 11.01.2021
3859 Clouds -2 1022 79 10000 0.45 115 22:52 11.01.2021
3860 Clouds -2 1022 78 10000 2.25 182 22:33 11.01.2021
3861 Clouds -2 1022 78 10000 1.95 178 21:57 11.01.2021
3862 Clouds -2 1022 78 10000 1.95 178 21:37 11.01.2021
3863 Clouds -2 1022 78 10000 2.07 168 21:18 11.01.2021
3864 Clouds -3 1022 79 10000 0.45 93 20:41 11.01.2021
3865 Clear -3 1022 78 10000 1.43 169 20:22 11.01.2021
3866 Clear -3 1022 77 10000 1.43 169 19:54 11.01.2021
3867 Clouds -3 1022 76 10000 1.31 182 19:25 11.01.2021
3868 Clouds -2 1022 76 10000 1.31 182 18:45 11.01.2021
3869 Clouds -2 1022 75 10000 1.52 176 18:26 11.01.2021
3870 Clouds -2 1021 79 10000 1.52 176 17:54 11.01.2021
3871 Clouds -2 1021 79 10000 1.52 176 17:36 11.01.2021
3872 Clouds -2 1022 78 10000 1.26 177 17:18 11.01.2021
3873 Clouds -3 1018 84 10000 1.26 177 16:39 11.01.2021
3874 Clouds -2 1021 73 10000 0.89 244 16:20 11.01.2021
3875 Clouds -1 1025 71 10000 0.45 329 15:47 11.01.2021
3876 Clouds -1 1021 69 10000 0.89 244 15:26 11.01.2021
3877 Clouds -1 1021 69 10000 1.79 246 14:40 11.01.2021
3878 Clear -1 1021 70 10000 2.24 240 13:53 11.01.2021
3879 Clear -1 1021 70 10000 1.79 248 13:27 11.01.2021
3880 Clear -1 1022 69 10000 0.89 249 12:52 11.01.2021
3881 Clear -1 1022 69 10000 0.89 249 12:52 11.01.2021
3882 Clear -1 1022 69 10000 0.45 245 12:32 11.01.2021
3883 Clear -2 1023 70 10000 1.25 245 11:57 11.01.2021
3884 Clear -2 1023 70 10000 1.25 245 11:36 11.01.2021
3885 Clear -3 1023 76 10000 0.91 240 10:53 11.01.2021
3886 Clear -5 1023 79 10000 0.68 229 10:27 11.01.2021
3887 Clear -5 1023 85 10000 0.68 229 09:45 11.01.2021
3888 Clear -6 1023 86 10000 1.39 156 09:23 11.01.2021
3889 Clear -7 1023 87 10000 1.39 156 08:46 11.01.2021
3890 Clear -6 1023 85 10000 0.95 150 08:21 11.01.2021
3891 Clear -6 1023 83 10000 0.45 116 07:40 11.01.2021
3892 Clear -6 1023 83 10000 0.45 112 07:19 11.01.2021
3893 Clear -6 1022 83 10000 1.31 153 06:46 11.01.2021
3894 Clear -5 1022 79 10000 1.44 101 01:53 11.01.2021
3895 Clear -5 1021 78 10000 1.74 108 00:40 11.01.2021
3896 Clear -5 1020 80 10000 1.83 105 23:46 10.01.2021
3897 Clear -6 1018 86 10000 2.03 105 22:49 10.01.2021
3898 Clear -5 1022 76 10000 0.45 135 22:28 10.01.2021
3899 Clear -6 1018 85 10000 0.45 5 21:57 10.01.2021
3900 Clear -6 1018 85 10000 2.08 100 21:37 10.01.2021
3901 Clear -5 1018 84 10000 0.45 5 21:18 10.01.2021
3902 Clear -5 1018 84 10000 0.45 5 21:18 10.01.2021
3903 Clear -3 1021 78 10000 2.17 95 20:44 10.01.2021
3904 Clear -4 1021 78 10000 2.25 85 20:26 10.01.2021
3905 Clear -3 1024 79 10000 2.24 8 19:38 10.01.2021
3906 Clear -3 1022 75 10000 0.89 41 19:20 10.01.2021
3907 Clear -3 1024 77 10000 1.79 351 18:44 10.01.2021
3908 Clouds -2 1023 76 10000 2.24 12 18:20 10.01.2021
3909 Clear 0 1023 76 10000 3.13 349 17:26 10.01.2021
3910 Clear -1 1023 72 10000 3.58 340 16:49 10.01.2021
3911 Clear 0 1019 63 10000 1.34 84 16:28 10.01.2021
3912 Clear 1 1022 70 10000 4.02 342 15:40 10.01.2021
3913 Clear 1 1019 61 10000 0.45 107 15:22 10.01.2021
3914 Clear 2 1019 62 10000 1.34 107 14:41 10.01.2021
3915 Clear 2 1019 62 10000 1.34 95 14:22 10.01.2021
3916 Clear 1 1019 60 10000 1.79 117 13:43 10.01.2021
3917 Clear 1 1019 60 10000 2.24 66 13:24 10.01.2021
3918 Clear 0 1021 73 10000 1.34 225 12:57 10.01.2021
3919 Clouds 0 1017 70 10000 2.24 178 12:38 10.01.2021
3920 Clouds 0 1021 78 10000 2.53 41 11:56 10.01.2021
3921 Clouds -1 1022 82 10000 2.34 59 11:21 10.01.2021
3922 Clouds -2 1024 77 10000 2.34 59 10:51 10.01.2021
3923 Clouds -3 1019 81 10000 2.25 69 10:24 10.01.2021
3924 Clouds -4 1021 85 10000 2.25 69 09:46 10.01.2021
3925 Clouds -5 1021 85 10000 2 82 08:49 10.01.2021
3926 Clouds -5 1021 84 10000 1.34 325 08:18 10.01.2021
3927 Clouds -5 1021 85 10000 1.34 335 06:52 10.01.2021
3928 Clouds -5 1021 85 10000 1.34 2 06:18 10.01.2021
3929 Clouds -5 1021 84 10000 0.89 28 05:28 10.01.2021
3930 Clouds -4 1021 84 10000 0.89 7 02:42 10.01.2021
3931 Clouds -3 1021 85 10000 2.46 70 00:38 10.01.2021
3932 Clouds -4 1021 85 10000 0.45 21 23:42 09.01.2021
3933 Clouds -2 1021 84 10000 1.79 24 23:23 09.01.2021
3934 Clouds -3 1021 83 10000 0.89 27 22:44 09.01.2021
3935 Clouds -3 1021 82 10000 0.45 357 22:18 09.01.2021
3936 Clouds -2 1021 82 10000 2.68 357 21:41 09.01.2021
3937 Clouds -2 1021 81 10000 1.34 43 21:23 09.01.2021
3938 Clouds -1 1021 81 10000 1.79 7 20:59 09.01.2021
3939 Clouds -2 1021 81 10000 1.34 319 20:38 09.01.2021
3940 Clouds 0 1020 79 10000 2.24 357 19:44 09.01.2021
3941 Clouds -1 1020 78 10000 1.79 40 19:22 09.01.2021
3942 Clouds -1 1022 80 10000 2.68 23 18:39 09.01.2021
3943 Clouds 0 1019 71 10000 0.45 80 18:20 09.01.2021
3944 Clouds -1 1016 80 10000 2.39 55 17:46 09.01.2021
3945 Clouds 0 1019 71 10000 2.32 50 17:27 09.01.2021
3946 Clouds 0 1019 70 10000 2.32 50 16:33 09.01.2021
3947 Clouds 1 1018 67 10000 0.45 107 15:52 09.01.2021
3948 Clouds 2 1018 67 10000 0.45 115 15:32 09.01.2021
3949 Clouds 2 1018 64 10000 0.89 67 14:40 09.01.2021
3950 Clouds 2 1018 63 10000 0.89 61 14:20 09.01.2021
3951 Clouds 2 1018 64 10000 0.89 79 13:48 09.01.2021
3952 Clouds 1 1021 87 10000 1.79 350 13:29 09.01.2021
3953 Clouds 1 1017 87 10000 0.89 270 12:49 09.01.2021
3954 Clouds 0 1018 89 10000 1.34 135 12:24 09.01.2021
3955 Clouds 1 1019 77 10000 2.52 37 11:56 09.01.2021
3956 Clouds 0 1022 88 10000 0.45 217 11:30 09.01.2021
3957 Clouds -1 1019 85 10000 0.45 132 10:52 09.01.2021
3958 Clouds -1 1020 86 10000 1.85 51 10:33 09.01.2021
3959 Clouds -2 1019 84 10000 1.46 89 09:53 09.01.2021
3960 Clouds -3 1019 94 10000 1.68 100 09:29 09.01.2021
3961 Clouds -4 1019 94 10000 1.68 100 08:47 09.01.2021
3962 Clouds -4 1018 93 10000 1.83 86 07:38 09.01.2021
3963 Clear -4 1018 94 10000 1.56 83 06:40 09.01.2021
3964 Clear -4 1019 85 10000 0.45 99 04:53 09.01.2021
3965 Clear -3 1018 86 10000 0.89 35 03:25 09.01.2021
3966 Clear -3 1018 85 10000 1.4 96 02:32 09.01.2021
3967 Clear -3 1018 85 10000 0.89 77 01:54 09.01.2021
3968 Clear -4 1018 94 10000 1.37 101 00:37 09.01.2021
3969 Clear -3 1018 94 10000 1.57 105 00:19 09.01.2021
3970 Clear -4 1018 94 10000 1.44 97 23:26 08.01.2021
3971 Clear -3 1020 89 10000 1.21 106 22:25 08.01.2021
3972 Clear -3 1018 86 10000 0.89 337 21:46 08.01.2021
3973 Clear -2 1020 85 10000 0.89 115 20:57 08.01.2021
3974 Clear -1 1020 86 10000 0.45 81 20:27 08.01.2021
3975 Clear -3 1017 89 10000 1.34 64 19:57 08.01.2021
3976 Clouds -2 1017 87 10000 0.45 57 19:23 08.01.2021
3977 Clear -2 1018 74 10000 1.54 0 18:50 08.01.2021
3978 Clouds -2 1017 78 10000 1.34 45 18:30 08.01.2021
3979 Clear -1 1017 64 10000 1.03 300 17:50 08.01.2021
3980 Clear 0 1017 60 10000 1.54 270 17:22 08.01.2021
3981 Clear 3 1017 56 10000 2.06 310 16:47 08.01.2021
3982 Clouds 0 1013 82 10000 0.96 5 15:45 08.01.2021
3983 Clouds 2 1015 86 10000 1.24 318 15:25 08.01.2021
3984 Clouds 2 1015 82 10000 1.24 318 14:36 08.01.2021
3985 Clouds 3 1015 84 10000 1.44 283 13:48 08.01.2021
3986 Clouds 2 1015 92 10000 1.57 260 13:21 08.01.2021
3987 Clouds 2 1015 96 10000 1.62 260 12:50 08.01.2021
3988 Clouds 1 1015 96 10000 1.84 242 12:20 08.01.2021
3989 Clouds 1 1016 87 10000 1.84 242 11:46 08.01.2021
3990 Clouds 0 1016 89 10000 1.79 223 11:28 08.01.2021
3991 Clouds 1 1016 90 10000 1.8 222 10:55 08.01.2021
3992 Clouds 1 1016 90 10000 1.79 223 10:37 08.01.2021
3993 Clouds 0 1016 90 10000 1.81 192 09:53 08.01.2021
3994 Clouds 0 1016 90 10000 1.81 192 09:32 08.01.2021
3995 Clouds 0 1014 97 10000 2.15 181 08:41 08.01.2021
3996 Clouds 0 1015 90 10000 2.31 180 07:29 08.01.2021
3997 Clouds -1 1014 96 10000 2.22 182 06:40 08.01.2021
3998 Clouds 1 978 97 10000 1.79 171 00:32 08.01.2021
3999 Clouds 1 1015 86 10000 1.79 168 23:41 07.01.2021
4000 Clouds 1 1015 86 10000 1.7 164 22:51 07.01.2021
4001 Clouds 1 978 97 10000 1.7 164 22:32 07.01.2021
4002 Clouds 1 1015 86 10000 1.68 163 21:49 07.01.2021
4003 Clouds 1 1015 100 6000 0.51 0 21:29 07.01.2021
4004 Clouds 1 1015 100 6000 0.51 0 20:48 07.01.2021
4005 Clouds 1 1015 100 6000 0.51 0 20:29 07.01.2021
4006 Clouds 1 1015 93 6000 1.03 120 19:47 07.01.2021
4007 Clouds 1 1014 100 6000 2.06 160 19:23 07.01.2021
4008 Snow 1 1015 93 3500 2.57 280 18:46 07.01.2021
4009 Rain 2 1014 93 10000 1.54 290 18:20 07.01.2021
4010 Clouds 2 1014 87 10000 1.03 240 17:34 07.01.2021
4011 Clouds 3 1014 81 10000 1.33 182 16:56 07.01.2021
4012 Clouds 2 1014 87 10000 1.03 230 16:32 07.01.2021
4013 Snow 1 1013 94 10000 1.31 212 15:56 07.01.2021
4014 Snow 2 1014 88 10000 1.31 212 15:31 07.01.2021
4015 Clouds 2 1014 88 10000 0.45 271 14:34 07.01.2021
4016 Clouds 2 1014 89 10000 1.79 229 13:59 07.01.2021
4017 Clouds 2 1013 96 10000 1.79 229 13:30 07.01.2021
4018 Clouds 2 1014 91 10000 1.94 232 12:56 07.01.2021
4019 Clouds 2 1014 93 10000 2.02 228 12:24 07.01.2021
4020 Clouds 1 1015 94 10000 2.02 228 11:48 07.01.2021
4021 Clouds 1 1015 94 10000 1.77 218 11:29 07.01.2021
4022 Clouds 1 1015 95 10000 1.77 218 10:39 07.01.2021
4023 Clouds 1 1014 96 10000 1.29 183 10:19 07.01.2021
4024 Clouds 0 1015 95 10000 1.28 182 09:42 07.01.2021
4025 Mist 1 1015 95 4900 1 0 09:18 07.01.2021
4026 Clouds 0 1015 96 7000 1 160 08:25 07.01.2021
4027 Mist 0 1015 96 5000 1 0 07:44 07.01.2021
4028 Mist 0 1015 96 4400 2.1 170 06:59 07.01.2021
4029 Clouds 0 1015 94 5203 0.89 225 03:35 07.01.2021
4030 Clouds 1 1014 94 1222 1.24 185 00:28 07.01.2021
4031 Clouds 0 1015 94 1222 1.24 185 23:38 06.01.2021
4032 Clouds 0 1014 94 1450 1.22 188 22:37 06.01.2021
4033 Clouds 0 1014 94 4252 1.3 190 21:44 06.01.2021
4034 Snow 0 1014 95 645 1.39 191 21:23 06.01.2021
4035 Snow 0 1014 95 645 0.45 211 20:53 06.01.2021
4036 Snow 0 1014 95 262 1.32 197 20:24 06.01.2021
4037 Snow 0 1014 95 262 0.45 196 19:59 06.01.2021
4038 Snow 0 1014 95 262 0.45 189 19:36 06.01.2021
4039 Snow 0 1014 95 225 0.89 206 19:18 06.01.2021
4040 Snow 0 1014 95 136 0.45 203 18:41 06.01.2021
4041 Snow 0 1014 95 106 0.89 208 18:22 06.01.2021
4042 Snow 0 1013 95 106 0.45 142 17:42 06.01.2021
4043 Snow 0 1013 95 115 0.45 226 17:23 06.01.2021
4044 Snow 0 1013 95 115 0.45 206 16:42 06.01.2021
4045 Snow 0 1013 95 138 0.45 209 16:19 06.01.2021
4046 Snow 0 1013 95 138 0.89 139 15:52 06.01.2021
4047 Snow 0 1012 95 138 1.25 236 15:31 06.01.2021
4048 Snow 0 1013 95 146 0.45 204 14:51 06.01.2021
4049 Snow 0 1012 95 205 0.45 214 14:21 06.01.2021
4050 Snow 0 1011 95 205 1.69 243 13:47 06.01.2021
4051 Snow 0 1012 94 277 0.45 196 13:24 06.01.2021
4052 Clouds 1 1012 94 515 1.63 245 12:48 06.01.2021
4053 Snow 1 1013 94 533 0.89 199 12:20 06.01.2021
4054 Clouds 0 1013 94 533 1.34 209 11:36 06.01.2021
4055 Snow 0 1013 94 482 0.45 208 11:18 06.01.2021
4056 Snow 0 1012 94 427 1.56 210 10:29 06.01.2021
4057 Snow 0 1012 94 427 0.45 209 09:52 06.01.2021
4058 Snow 0 1012 93 394 0.45 227 09:21 06.01.2021
4059 Snow 0 1012 93 394 1.54 204 08:41 06.01.2021
4060 Snow 0 1011 92 186 1.38 199 07:59 06.01.2021
4061 Snow 0 1011 92 157 1.22 204 07:27 06.01.2021
4062 Snow 0 1011 90 126 0.95 199 05:52 06.01.2021
4063 Clouds 0 1011 90 794 1.18 198 04:41 06.01.2021
4064 Clouds 0 1011 91 1131 0.79 196 02:47 06.01.2021
4065 Clouds 0 1011 90 599 0.46 234 02:26 06.01.2021
4066 Clouds 0 1011 90 599 0.46 234 01:35 06.01.2021
4067 Clouds 0 1010 91 5191 0.22 113 23:39 05.01.2021
4068 Clouds 0 1010 90 10000 0.51 116 22:51 05.01.2021
4069 Clouds 0 1010 90 10000 0.51 116 22:32 05.01.2021
4070 Clouds 0 1010 89 10000 0.25 10 21:58 05.01.2021
4071 Clouds 0 1011 89 10000 0.32 309 21:18 05.01.2021
4072 Clouds 0 1010 87 10000 0.32 309 20:30 05.01.2021
4073 Clouds 0 1010 86 9655 0.56 113 19:45 05.01.2021
4074 Clouds 0 1011 88 10000 0.73 60 19:24 05.01.2021
4075 Clouds 0 1010 84 10000 0.91 64 18:49 05.01.2021
4076 Clouds 0 1010 83 10000 1.12 53 18:28 05.01.2021
4077 Clouds 0 1010 82 10000 1.12 53 17:54 05.01.2021
4078 Clouds 0 1010 81 10000 1.12 53 17:32 05.01.2021
4079 Clouds 0 1010 80 10000 1.21 30 16:57 05.01.2021
4080 Clouds 0 1010 79 10000 1.21 30 16:36 05.01.2021
4081 Clouds 1 1011 81 10000 1.3 16 16:18 05.01.2021
4082 Clouds 1 1011 80 10000 0.45 316 15:44 05.01.2021
4083 Clouds 1 1011 78 10000 1.34 325 14:49 05.01.2021
4084 Clouds 1 1011 77 10000 1.79 309 14:19 05.01.2021
4085 Clouds 1 1011 77 10000 0.89 318 13:44 05.01.2021
4086 Clouds 1 1011 76 10000 0.89 314 13:21 05.01.2021
4087 Clouds 1 1011 71 10000 1.05 332 12:47 05.01.2021
4088 Clouds 1 1011 70 10000 0.98 328 12:22 05.01.2021
4089 Clouds 1 1011 72 10000 0.98 328 11:39 05.01.2021
4090 Clouds 1 1011 72 10000 0.98 328 11:39 05.01.2021
4091 Clouds 0 1012 77 10000 0.84 341 10:46 05.01.2021
4092 Clouds 0 1011 82 10000 0.33 13 10:27 05.01.2021
4093 Clouds 0 1011 80 10000 0.33 13 09:49 05.01.2021
4094 Clouds 0 1011 80 10000 0.43 43 09:29 05.01.2021
4095 Clouds 0 1011 82 10000 0.08 336 08:27 05.01.2021
4096 Clouds 0 1011 84 10000 0.08 336 07:45 05.01.2021
4097 Clouds -1 1009 79 10000 1.15 170 04:56 05.01.2021
4098 Clouds -1 1008 78 10000 0.45 103 00:59 05.01.2021
4099 Clouds -1 1008 78 10000 0.92 121 23:59 04.01.2021
4100 Clouds -1 1008 78 10000 0.92 121 23:36 04.01.2021
4101 Clouds -1 1008 78 10000 0.45 57 23:18 04.01.2021
4102 Clouds 0 1008 78 10000 1.14 105 22:41 04.01.2021
4103 Clouds 0 1008 79 10000 1.37 95 21:54 04.01.2021
4104 Clouds 0 1008 79 10000 1.37 95 21:35 04.01.2021
4105 Clouds 0 1008 78 10000 0.45 117 20:52 04.01.2021
4106 Clouds 0 1008 77 10000 1.44 94 20:32 04.01.2021
4107 Clouds 0 1008 77 10000 1.43 89 20:32 04.01.2021
4108 Clouds 0 1008 77 10000 1.43 89 19:55 04.01.2021
4109 Clouds 0 1008 77 10000 0.45 86 19:29 04.01.2021
4110 Clouds 0 1008 77 10000 0.45 80 18:58 04.01.2021
4111 Clouds 1 1008 77 10000 0.45 103 18:31 04.01.2021
4112 Clouds 1 1008 78 10000 1.29 61 17:45 04.01.2021
4113 Clouds 1 1009 77 10000 0.89 67 17:27 04.01.2021
4114 Clouds 2 1010 87 10000 1.11 24 16:48 04.01.2021
4115 Clouds 2 1010 88 10000 0.45 329 16:28 04.01.2021
4116 Clouds 2 1010 89 10000 0.89 327 15:52 04.01.2021
4117 Clouds 2 1009 89 10000 1.79 323 15:34 04.01.2021
4118 Clouds 2 1009 88 10000 0.89 322 14:52 04.01.2021
4119 Clouds 1 1010 89 10000 2.17 354 13:55 04.01.2021
4120 Clouds 2 1010 90 10000 0.89 319 13:35 04.01.2021
4121 Clouds 2 1010 89 10000 1.34 329 12:50 04.01.2021
4122 Clouds 2 1010 90 10000 1.79 333 12:25 04.01.2021
4123 Clouds 2 1011 92 10000 0.45 319 11:39 04.01.2021
4124 Clouds 1 1011 93 10000 1.18 6 11:18 04.01.2021
4125 Clouds 1 1011 94 10000 1.18 6 10:42 04.01.2021
4126 Clouds 1 1011 94 10000 0.78 40 10:21 04.01.2021
4127 Clouds 0 1011 95 10000 1 82 09:25 04.01.2021
4128 Clouds 0 1011 95 10000 1 82 08:57 04.01.2021
4129 Clouds 0 1011 95 10000 0.99 64 08:22 04.01.2021
4130 Clouds 0 1010 95 10000 0.99 64 07:46 04.01.2021
4131 Clouds 0 1011 92 10000 0.87 82 05:37 04.01.2021
4132 Clouds 0 1014 93 10000 0.45 225 05:19 04.01.2021
4133 Clouds -1 1010 94 10000 0.82 102 02:24 04.01.2021
4134 Clouds 0 1010 93 10000 0.77 132 00:20 04.01.2021
4135 Clouds 0 1011 93 10000 0.77 132 23:37 03.01.2021
4136 Clouds 1 1012 91 10000 0.7 147 22:58 03.01.2021
4137 Clouds 1 1012 91 10000 0.7 147 22:39 03.01.2021
4138 Clouds 1 1012 91 10000 0.58 180 22:21 03.01.2021
4139 Clouds 1 1011 91 10000 0.58 180 21:40 03.01.2021
4140 Clouds 1 1010 93 10000 0.65 191 21:22 03.01.2021
4141 Clouds 1 1010 92 10000 0.65 191 20:40 03.01.2021
4142 Clouds 1 1010 92 10000 0.63 172 20:19 03.01.2021
4143 Clouds 1 1010 92 10000 0.63 172 19:46 03.01.2021
4144 Clouds 1 1010 92 10000 0.24 78 19:27 03.01.2021
4145 Clouds 0 1011 90 10000 0.53 315 18:46 03.01.2021
4146 Clouds 1 1011 90 10000 0.89 326 18:25 03.01.2021
4147 Clouds 1 1011 89 10000 0.89 326 17:53 03.01.2021
4148 Clouds 1 1011 89 10000 0.45 323 17:27 03.01.2021
4149 Clouds 1 1011 90 10000 1.03 328 16:56 03.01.2021
4150 Clouds 1 1010 89 10000 0.89 323 16:37 03.01.2021
4151 Clouds 1 1010 89 10000 0.89 323 16:18 03.01.2021
4152 Clouds 1 1010 88 10000 0.95 321 15:40 03.01.2021
4153 Clouds 0 1010 88 10000 0.45 311 14:59 03.01.2021
4154 Clouds 0 1010 88 10000 0.89 336 14:41 03.01.2021
4155 Clouds 1 1010 90 10000 1.27 318 13:54 03.01.2021
4156 Clouds 0 1010 90 4209 1.34 323 13:26 03.01.2021
4157 Clouds 0 1010 91 6951 1.25 326 12:58 03.01.2021
4158 Clouds 0 1010 92 10000 0.45 301 11:46 03.01.2021
4159 Clouds 0 1010 92 10000 0.45 315 11:27 03.01.2021
4160 Clouds 0 1010 92 10000 1.05 328 10:57 03.01.2021
4161 Clouds 0 1010 92 10000 0.45 296 10:32 03.01.2021
4162 Clouds 0 1010 92 6077 1.1 344 09:52 03.01.2021
4163 Snow 0 1010 91 305 0.89 302 09:26 03.01.2021
4164 Snow 0 1009 90 281 0.45 308 08:31 03.01.2021
4165 Snow 0 1009 90 187 0.45 324 06:57 03.01.2021
4166 Clouds 0 1009 88 2053 0.89 314 03:30 03.01.2021
4167 Clouds 0 1008 87 10000 1.22 9 02:26 03.01.2021
4168 Clouds 1 1009 87 10000 0.89 344 00:33 03.01.2021
4169 Clouds 1 1009 86 10000 1.79 316 23:53 02.01.2021
4170 Clouds 1 1008 83 10000 0.45 225 23:20 02.01.2021
4171 Clouds 1 1008 83 10000 0.45 225 22:48 02.01.2021
4172 Clouds 1 1009 80 10000 1.34 17 22:29 02.01.2021
4173 Clouds 1 1009 79 10000 1.34 332 21:48 02.01.2021
4174 Clouds 1 1008 83 10000 1.82 40 21:29 02.01.2021
4175 Clouds 1 1008 83 10000 1.82 40 20:45 02.01.2021
4176 Clouds 1 1009 80 10000 0.45 346 20:25 02.01.2021
4177 Clouds 1 1009 83 10000 0.89 2 19:48 02.01.2021
4178 Clouds 1 1009 83 10000 0.45 341 19:20 02.01.2021
4179 Clouds 2 1009 83 10000 0.45 19 18:51 02.01.2021
4180 Clouds 2 1009 80 10000 1.34 340 18:32 02.01.2021
4181 Clouds 2 1009 78 10000 0.89 25 17:49 02.01.2021
4182 Clouds 2 1009 78 10000 0.89 352 17:30 02.01.2021
4183 Clouds 2 1009 78 10000 1.34 17 16:46 02.01.2021
4184 Clouds 2 1009 78 10000 0.89 38 16:22 02.01.2021
4185 Clouds 2 1010 78 10000 1.34 346 15:48 02.01.2021
4186 Clouds 2 1009 78 10000 1.34 2 15:28 02.01.2021
4187 Clouds 2 1009 78 10000 0.89 348 14:47 02.01.2021
4188 Clouds 2 1009 82 10000 0.89 36 14:26 02.01.2021
4189 Clouds 2 1009 81 10000 0.45 350 13:44 02.01.2021
4190 Clouds 2 1010 85 10000 0.89 342 12:59 02.01.2021
4191 Clouds 2 1009 88 10000 1.34 345 12:40 02.01.2021
4192 Clouds 2 1010 90 10000 1.34 12 12:19 02.01.2021
4193 Clouds 2 1010 93 10000 1.79 347 11:38 02.01.2021
4194 Clouds 2 1010 93 10000 1.79 327 11:20 02.01.2021
4195 Clouds 1 1010 93 10000 2.68 332 10:42 02.01.2021
4196 Clouds 1 1010 93 10000 1.79 7 10:23 02.01.2021
4197 Clouds 1 1010 93 10000 1.79 326 09:43 02.01.2021
4198 Clouds 1 1010 93 10000 1.79 326 09:21 02.01.2021
4199 Clouds 1 1010 93 10000 1.49 58 08:48 02.01.2021
4200 Clouds 1 1010 93 10000 0.45 7 08:19 02.01.2021
4201 Clouds 1 1010 94 10000 1.82 27 07:25 02.01.2021
4202 Clouds 1 1010 94 10000 1.82 27 06:58 02.01.2021
4203 Clouds 1 1010 94 10000 0.45 331 06:18 02.01.2021
4204 Clouds 1 1010 93 10000 0.45 334 04:27 02.01.2021
4205 Clouds 1 1008 94 10000 1.49 43 00:53 02.01.2021
4206 Clouds 1 1008 94 10000 1.25 47 00:33 02.01.2021
4207 Clouds 2 1008 95 10000 1.25 47 23:44 01.01.2021
4208 Clouds 1 1008 95 10000 1.36 49 23:20 01.01.2021
4209 Clouds 2 1009 90 10000 1.36 49 22:47 01.01.2021
4210 Clouds 2 1011 88 10000 1.79 34 22:22 01.01.2021
4211 Clouds 1 1011 88 10000 1.79 23 21:43 01.01.2021
4212 Clouds 2 1008 94 10000 1.68 54 21:21 01.01.2021
4213 Clouds 2 1008 94 10000 1.68 54 20:52 01.01.2021
4214 Clouds 2 1009 89 10000 1.84 43 20:20 01.01.2021
4215 Clouds 1 1008 94 10000 1.84 43 19:43 01.01.2021
4216 Clouds 1 1008 93 10000 1.98 30 19:24 01.01.2021
4217 Clouds 2 1008 93 10000 1.98 30 18:57 01.01.2021
4218 Clouds 2 1007 93 10000 1.72 36 18:39 01.01.2021
4219 Clouds 2 1008 88 10000 2.02 20 18:19 01.01.2021
4220 Clouds 2 1007 92 10000 2.02 20 17:41 01.01.2021
4221 Clouds 2 1008 88 10000 1.98 12 17:18 01.01.2021
4222 Clouds 2 1008 86 10000 1.98 12 16:38 01.01.2021
4223 Clouds 3 1008 85 10000 1.78 8 15:56 01.01.2021
4224 Clouds 3 1008 85 10000 1.78 8 15:36 01.01.2021
4225 Clouds 3 1007 84 10000 0.89 311 14:41 01.01.2021
4226 Clouds 3 1007 83 10000 1.42 358 14:19 01.01.2021
4227 Clouds 3 1007 84 10000 1.42 358 13:37 01.01.2021
4228 Clouds 2 1007 91 10000 1.36 359 12:48 01.01.2021
4229 Clouds 2 1006 95 3691 1.12 359 12:25 01.01.2021
4230 Clouds 3 1008 94 3691 1.12 359 11:40 01.01.2021
4231 Clouds 2 1008 95 3005 1.09 348 11:18 01.01.2021
4232 Clouds 2 1008 95 3005 1.09 348 10:52 01.01.2021
4233 Snow 1 1007 95 91 0.99 336 10:22 01.01.2021
4234 Snow 2 1007 94 32 1.03 332 09:24 01.01.2021
4235 Snow 1 1007 94 32 1.03 332 08:30 01.01.2021
4236 Clouds 2 1006 93 66 0.89 348 06:46 01.01.2021
4237 Clouds 3 1005 92 2288 0.89 225 04:50 01.01.2021
4238 Clouds 4 1004 89 3107 1.79 219 01:58 01.01.2021
4239 Clouds 5 1003 85 3064 0.45 209 00:33 01.01.2021
4240 Clouds 5 1003 84 3075 0.89 138 23:41 31.12.2020
4241 Clouds 5 1003 84 3169 1.34 210 23:21 31.12.2020
4242 Clouds 5 1003 84 3169 1.34 202 22:55 31.12.2020
4243 Clouds 5 1003 85 3169 1.79 165 22:36 31.12.2020
4244 Clouds 5 1003 88 3316 1.79 207 22:18 31.12.2020
4245 Clouds 5 1003 87 3316 0.45 213 21:43 31.12.2020
4246 Clouds 4 1003 86 3059 2.49 187 21:20 31.12.2020
4247 Clouds 4 1003 86 3059 2.49 187 20:31 31.12.2020
4248 Clouds 4 1003 91 3661 0.89 198 19:59 31.12.2020
4249 Clouds 4 1003 90 3661 2.53 178 19:36 31.12.2020
4250 Clouds 4 1002 90 3327 2.14 174 19:18 31.12.2020
4251 Clouds 4 1002 88 3636 0.89 191 18:41 31.12.2020
4252 Clouds 4 1002 87 3605 0.89 170 18:23 31.12.2020
4253 Clouds 5 1002 85 3605 2.78 170 17:41 31.12.2020
4254 Clouds 5 1002 84 3444 2.4 188 17:21 31.12.2020
4255 Rain 5 1002 80 3444 0.89 186 16:39 31.12.2020
4256 Rain 5 1002 78 4117 2.34 176 16:20 31.12.2020
4257 Clouds 4 1001 72 4117 2.34 176 15:45 31.12.2020
4258 Clouds 5 1002 68 10000 2.48 191 15:20 31.12.2020
4259 Clouds 6 1002 68 10000 2.48 191 14:54 31.12.2020
4260 Clouds 6 1002 68 10000 0.89 197 14:36 31.12.2020
4261 Clouds 6 1002 68 10000 0.45 238 14:18 31.12.2020
4262 Clouds 6 1003 71 10000 0.45 292 13:38 31.12.2020
4263 Clouds 6 1003 69 10000 3.93 187 13:19 31.12.2020
4264 Clouds 6 1003 69 10000 3.93 187 13:19 31.12.2020
4265 Clouds 6 1003 69 10000 3.93 187 12:52 31.12.2020
4266 Clouds 5 1003 71 10000 3.63 192 12:32 31.12.2020
4267 Clouds 4 1004 72 10000 4.15 183 11:51 31.12.2020
4268 Clouds 4 1004 72 10000 3.93 175 11:32 31.12.2020
4269 Clouds 4 1004 74 10000 3.93 175 10:49 31.12.2020
4270 Clouds 4 1004 75 10000 2.9 179 10:29 31.12.2020
4271 Clouds 3 1005 75 10000 0.45 224 09:56 31.12.2020
4272 Clouds 3 1005 73 10000 0.45 221 09:34 31.12.2020
4273 Clouds 1 1004 71 10000 2.42 163 08:50 31.12.2020
4274 Clouds 2 1004 66 10000 0.45 171 08:32 31.12.2020
4275 Clouds 0 1004 76 10000 2.49 147 07:57 31.12.2020
4276 Clouds 0 1005 76 10000 2.69 147 07:29 31.12.2020
4277 Clouds 0 1008 72 10000 0.89 136 05:45 31.12.2020
4278 Clouds 0 1009 77 10000 0.89 198 04:30 31.12.2020
4279 Clouds 2 1007 80 10000 0.89 186 02:56 31.12.2020
4280 Clouds 2 1008 82 10000 1.34 186 02:25 31.12.2020
4281 Clouds 1 1010 83 10000 1.79 163 01:45 31.12.2020
4282 Clouds 3 1010 83 10000 1.79 163 01:25 31.12.2020
4283 Clouds 2 1009 95 10000 2.6 200 00:46 31.12.2020
4284 Clouds 3 1008 79 10000 1.79 138 23:52 30.12.2020
4285 Clouds 3 1008 79 10000 2.24 213 23:20 30.12.2020
4286 Clouds 3 1008 79 10000 2.24 193 22:51 30.12.2020
4287 Clouds 3 1008 80 4175 3.13 175 22:31 30.12.2020
4288 Clouds 3 1008 80 4175 1.79 146 21:47 30.12.2020
4289 Clouds 3 1008 81 3087 2.68 159 21:25 30.12.2020
4290 Clouds 3 1008 81 3087 2.24 180 20:51 30.12.2020
4291 Clouds 3 1008 81 69 2.24 189 20:22 30.12.2020
4292 Clouds 4 1008 80 69 0.89 119 19:41 30.12.2020
4293 Clouds 4 1007 80 58 0.45 136 19:23 30.12.2020
4294 Clouds 3 1007 79 58 1.79 159 18:56 30.12.2020
4295 Clouds 3 1007 78 58 2.24 200 18:37 30.12.2020
4296 Clouds 3 1007 77 3021 2.24 196 18:18 30.12.2020
4297 Clouds 4 1006 78 3021 1.34 134 17:41 30.12.2020
4298 Clouds 3 1006 78 10000 2.24 207 17:20 30.12.2020
4299 Clouds 4 1005 77 10000 0.89 233 16:37 30.12.2020
4300 Clouds 4 1005 81 10000 2.24 192 15:49 30.12.2020
4301 Clouds 5 1005 80 10000 2.24 215 15:26 30.12.2020
4302 Clouds 4 1004 79 10000 1.79 221 14:45 30.12.2020
4303 Clouds 4 1004 80 4522 1.34 196 14:26 30.12.2020
4304 Clouds 4 1004 80 4522 1.34 199 13:52 30.12.2020
4305 Clouds 5 1004 81 2988 3.58 192 12:49 30.12.2020
4306 Clouds 4 1004 82 272 3.58 205 12:24 30.12.2020
4307 Clouds 4 1004 81 272 3.58 152 11:39 30.12.2020
4308 Clouds 4 1003 81 336 3.58 225 11:20 30.12.2020
4309 Clouds 4 1003 80 336 4.02 204 10:55 30.12.2020
4310 Clouds 4 1003 79 336 2.68 215 10:36 30.12.2020
4311 Clouds 4 1002 80 10000 0.89 236 09:55 30.12.2020
4312 Clouds 4 1002 78 10000 0.45 209 09:36 30.12.2020
4313 Clouds 4 1001 88 10000 2.63 181 08:35 30.12.2020
4314 Clouds 4 1000 89 10000 2.83 181 07:46 30.12.2020
4315 Clouds 4 1000 89 10000 2.49 182 07:21 30.12.2020
4316 Clouds 3 999 91 10000 2.47 176 06:38 30.12.2020
4317 Clouds 3 1000 82 10000 0.45 218 05:47 30.12.2020
4318 Clouds 3 1000 82 10000 1.79 204 05:27 30.12.2020
4319 Clouds 4 999 80 6012 2.68 242 03:29 30.12.2020
4320 Clouds 4 999 79 6012 1.34 214 02:52 30.12.2020
4321 Rain 4 999 77 6012 1.79 115 02:31 30.12.2020
4322 Clouds 4 998 77 10000 0.45 219 01:44 30.12.2020
4323 Clouds 4 998 77 10000 2.42 184 01:26 30.12.2020
4324 Clear 3 999 84 10000 1.5 220 00:40 30.12.2020
4325 Clear 4 999 87 10000 1.5 220 00:21 30.12.2020
4326 Clear 2 999 93 10000 3.1 190 23:42 29.12.2020
4327 Clear 2 999 93 10000 3.1 190 23:24 29.12.2020
4328 Clouds 2 998 86 10000 1.5 250 22:49 29.12.2020
4329 Clouds 4 998 86 10000 3.1 190 22:31 29.12.2020
4330 Clouds 4 999 75 10000 1.79 229 21:54 29.12.2020
4331 Clouds 5 999 75 10000 1.79 229 21:36 29.12.2020
4332 Clouds 5 996 81 10000 2.44 181 20:57 29.12.2020
4333 Clouds 3 996 80 10000 2.44 181 20:39 29.12.2020
4334 Clouds 4 996 79 10000 2.59 194 20:20 29.12.2020
4335 Clouds 3 995 84 10000 2.59 194 19:42 29.12.2020
4336 Clouds 5 996 78 10000 0.89 148 19:21 29.12.2020
4337 Clouds 5 996 80 10000 1.79 206 18:49 29.12.2020
4338 Clouds 5 996 78 10000 2.68 224 18:28 29.12.2020
4339 Clouds 5 994 73 10000 3.11 205 17:45 29.12.2020
4340 Clouds 5 994 72 3779 3.19 206 17:21 29.12.2020
4341 Clouds 4 997 74 3779 1.34 222 16:54 29.12.2020
4342 Clouds 6 994 69 10000 1.34 198 16:26 29.12.2020
4343 Clouds 5 993 66 10000 2.29 208 15:39 29.12.2020
4344 Clouds 5 993 66 10000 3.18 224 15:20 29.12.2020
4345 Clouds 5 993 65 10000 0.89 196 14:40 29.12.2020
4346 Clouds 5 995 66 10000 3.58 211 14:20 29.12.2020
4347 Clouds 6 992 69 10000 1.34 269 13:54 29.12.2020
4348 Clouds 5 992 72 8103 0.45 249 13:23 29.12.2020
4349 Clouds 6 993 73 8103 2.68 202 12:45 29.12.2020
4350 Clouds 6 993 74 10000 3.58 159 12:26 29.12.2020
4351 Clouds 5 993 76 10000 2.24 167 11:58 29.12.2020
4352 Clouds 5 992 77 10000 3.58 202 11:31 29.12.2020
4353 Clouds 4 992 79 10000 4.02 162 10:40 29.12.2020
4354 Clouds 5 991 79 3197 2.24 264 10:19 29.12.2020
4355 Clouds 5 991 81 3197 4.92 161 09:39 29.12.2020
4356 Clouds 5 990 79 3013 3.13 287 09:18 29.12.2020
4357 Clouds 5 988 80 3013 3.58 257 08:45 29.12.2020
4358 Clouds 4 987 80 2948 2.68 218 07:35 29.12.2020
4359 Clouds 4 986 77 3033 5.36 172 06:58 29.12.2020
4360 Clouds 4 985 79 3299 5.81 190 05:40 29.12.2020
4361 Clouds 3 982 94 304 2.24 151 01:58 29.12.2020
4362 Clouds 4 981 80 8008 5.36 155 00:24 29.12.2020
4363 Rain 3 980 81 8008 4.47 138 23:38 28.12.2020
4364 Clouds 1 980 86 10000 2.6 230 22:48 28.12.2020
4365 Snow 1 980 86 10000 2.6 230 22:20 28.12.2020
4366 Clouds 5 979 68 10000 1.79 224 21:41 28.12.2020
4367 Clouds 3 979 76 10000 3.54 162 21:20 28.12.2020
4368 Rain 3 982 72 10000 4.47 215 20:40 28.12.2020
4369 Clouds 0 979 93 10000 3.36 182 20:21 28.12.2020
4370 Clouds 0 979 92 10000 3.36 182 19:42 28.12.2020
4371 Clear -1 980 74 10000 2.1 150 19:22 28.12.2020
4372 Clouds 2 982 73 10000 1.34 197 18:49 28.12.2020
4373 Clouds 2 982 73 10000 1.34 127 18:28 28.12.2020
4374 Clouds 4 981 90 10000 6.7 180 17:41 28.12.2020
4375 Clouds 4 981 72 10000 1.79 198 17:20 28.12.2020
4376 Clouds 4 981 74 10000 4.02 155 16:34 28.12.2020
4377 Clouds 4 981 79 10000 4.02 171 15:59 28.12.2020
4378 Clouds 4 981 82 10000 4.02 212 15:41 28.12.2020
4379 Clouds 5 980 76 10000 3.58 208 14:56 28.12.2020
4380 Clouds 5 980 81 10000 5.36 190 13:55 28.12.2020
4381 Clouds 4 979 89 10000 1.79 264 13:32 28.12.2020
4382 Clouds 4 980 87 3436 3.13 175 12:51 28.12.2020
4383 Rain 4 980 89 3308 4.02 162 12:23 28.12.2020
4384 Rain 4 980 87 3308 5.81 166 11:47 28.12.2020
4385 Clouds 2 979 96 1388 1.34 84 11:24 28.12.2020
4386 Drizzle 2 980 86 10000 3.1 200 10:49 28.12.2020
4387 Drizzle 3 980 86 10000 3.1 200 10:28 28.12.2020
4388 Clouds 4 979 93 10000 1.5 210 09:49 28.12.2020
4389 Clouds 4 979 93 10000 1.5 210 09:49 28.12.2020
4390 Clouds 3 980 86 10000 1.5 150 09:21 28.12.2020
4391 Clouds 3 980 86 10000 1.5 150 08:55 28.12.2020
4392 Rain 4 979 93 10000 0.77 177 06:51 28.12.2020
4393 Rain 5 980 90 6717 0.45 106 04:44 28.12.2020
4394 Rain 4 981 81 10000 7.7 180 03:21 28.12.2020
4395 Rain 6 981 81 10000 6.7 170 01:52 28.12.2020
4396 Rain 7 982 70 10000 11.3 190 23:50 27.12.2020
4397 Rain 3 982 75 10000 10.3 190 23:20 27.12.2020
4398 Rain 5 983 83 8519 0.45 179 22:24 27.12.2020
4399 Rain 3 984 83 8519 3.43 167 21:47 27.12.2020
4400 Rain 3 984 80 10000 0.45 246 21:20 27.12.2020
4401 Rain 3 985 74 10000 1 0 19:59 27.12.2020
4402 Rain 3 985 74 10000 2.1 170 19:24 27.12.2020
4403 Rain 3 986 80 10000 2.1 200 18:49 27.12.2020
4404 Rain 3 987 80 10000 3.1 200 18:20 27.12.2020
4405 Rain 4 987 60 10000 2.24 163 17:57 27.12.2020
4406 Rain 4 988 66 10000 3.92 174 17:35 27.12.2020
4407 Rain 4 990 56 10000 0.45 188 16:56 27.12.2020
4408 Clouds 4 991 57 10000 0.89 199 16:23 27.12.2020
4409 Clouds 4 992 50 10000 1.34 182 15:34 27.12.2020
4410 Clouds 4 992 43 10000 1.34 203 14:53 27.12.2020
4411 Clouds 5 993 44 10000 0.89 119 14:35 27.12.2020
4412 Clouds 6 995 67 10000 3.51 187 13:37 27.12.2020
4413 Clouds 6 997 57 10000 2.68 165 12:56 27.12.2020
4414 Clouds 5 999 63 10000 3.13 183 12:26 27.12.2020
4415 Clouds 3 1000 69 10000 2.68 203 11:42 27.12.2020
4416 Clouds 4 1002 69 10000 2.24 200 11:21 27.12.2020
4417 Clouds 2 1003 73 10000 1.79 203 10:45 27.12.2020
4418 Clouds 2 1003 70 10000 1.34 171 10:21 27.12.2020
4419 Clouds 0 1005 72 10000 3.35 178 09:39 27.12.2020
4420 Clouds 0 1005 73 10000 1.79 203 08:28 27.12.2020
4421 Clouds 0 1006 70 10000 2.68 203 07:46 27.12.2020
4422 Clouds -1 1007 71 10000 3.13 203 07:18 27.12.2020
4423 Clouds -1 1009 76 10000 2.68 203 05:39 27.12.2020
4424 Clouds -1 1013 78 10000 3.13 203 03:26 27.12.2020
4425 Clouds -1 1015 78 10000 3.13 203 02:40 27.12.2020
4426 Clouds -1 1016 76 10000 2.24 203 01:21 27.12.2020
4427 Clear -2 1018 85 10000 0.45 180 23:45 26.12.2020
4428 Clear -2 1018 84 10000 2.35 173 23:26 26.12.2020
4429 Clear -2 1019 83 10000 2.35 173 22:47 26.12.2020
4430 Clear -1 1019 81 10000 0.45 180 22:20 26.12.2020
4431 Clear -1 1020 81 10000 2.56 170 21:55 26.12.2020
4432 Clear 0 1022 81 10000 0.45 132 21:31 26.12.2020
4433 Clear 0 1022 81 10000 2.33 163 20:58 26.12.2020
4434 Clear 0 1022 82 10000 0.45 89 20:28 26.12.2020
4435 Clear 0 1023 81 10000 0.45 94 19:57 26.12.2020
4436 Clear 0 1023 81 10000 0.45 84 19:24 26.12.2020
4437 Clear 0 1023 82 10000 0.45 88 18:49 26.12.2020
4438 Clear 0 1023 81 10000 0.89 117 18:27 26.12.2020
4439 Clear 1 1023 85 10000 1.65 172 17:40 26.12.2020
4440 Clear 0 1023 84 10000 1.26 183 17:20 26.12.2020
4441 Clear 1 1027 66 10000 0.89 188 16:35 26.12.2020
4442 Clouds 4 1024 72 10000 1.04 249 15:27 26.12.2020
4443 Clouds 4 1024 72 10000 1.04 249 15:27 26.12.2020
4444 Clouds 4 1024 75 10000 1.04 249 14:50 26.12.2020
4445 Clouds 4 1025 75 10000 1.09 245 14:28 26.12.2020
4446 Clouds 3 1025 78 10000 1.09 245 13:47 26.12.2020
4447 Clouds 3 1025 81 10000 0.45 223 13:28 26.12.2020
4448 Clouds 2 1026 83 10000 1.32 250 12:48 26.12.2020
4449 Clouds 2 1026 87 10000 1.51 266 12:30 26.12.2020
4450 Clouds 1 1027 88 10000 1.51 266 11:51 26.12.2020
4451 Clouds 1 1027 88 10000 1.63 272 11:22 26.12.2020
4452 Clouds 1 1027 88 10000 0.89 319 10:55 26.12.2020
4453 Clouds 1 1027 90 10000 1.16 231 10:27 26.12.2020
4454 Clouds 0 1027 91 10000 1.16 231 09:51 26.12.2020
4455 Clouds 0 1027 92 10000 0.45 204 09:29 26.12.2020
4456 Clouds 0 1027 92 10000 0.89 193 08:39 26.12.2020
4457 Snow 0 1026 91 10000 0.23 189 07:55 26.12.2020
4458 Clouds 0 1026 91 10000 0.45 109 06:47 26.12.2020
4459 Clouds -1 1025 92 10000 1.21 136 03:46 26.12.2020
4460 Clouds -1 1024 90 10000 0.74 108 01:49 26.12.2020
4461 Clear 0 1024 92 10000 1.09 99 00:27 26.12.2020
4462 Clear -1 1024 93 10000 0.45 115 23:41 25.12.2020
4463 Clear -1 1024 93 10000 0.45 115 23:41 25.12.2020
4464 Clear -1 1024 95 10000 1.23 92 23:23 25.12.2020
4465 Clear 0 1024 91 10000 1.23 92 22:48 25.12.2020
4466 Clear 0 1024 91 10000 1.24 85 22:23 25.12.2020
4467 Clear 0 1023 91 10000 0.45 34 21:35 25.12.2020
4468 Clear 1 1023 90 10000 1.43 81 20:59 25.12.2020
4469 Clear 1 1023 90 10000 0.45 11 20:37 25.12.2020
4470 Clear 1 1022 82 10000 0.89 23 19:52 25.12.2020
4471 Clear 1 1024 87 10000 0.45 270 19:33 25.12.2020
4472 Clouds 2 1024 86 10000 1.34 292 18:39 25.12.2020
4473 Clouds 2 1022 89 10000 3.04 10 17:58 25.12.2020
4474 Clouds 2 1022 88 10000 0.89 30 17:35 25.12.2020
4475 Clouds 2 1021 89 10000 0.89 357 16:49 25.12.2020
4476 Clouds 3 1021 90 7294 0.89 326 16:21 25.12.2020
4477 Clouds 3 1021 92 7294 0.89 357 15:49 25.12.2020
4478 Clouds 3 1020 92 3955 1.34 21 15:25 25.12.2020
4479 Clouds 3 1020 92 3955 1.34 350 14:32 25.12.2020
4480 Clouds 3 1020 92 3052 1.79 11 13:49 25.12.2020
4481 Clouds 3 1020 93 249 2.24 357 13:26 25.12.2020
4482 Clouds 3 1020 93 249 1.34 311 12:58 25.12.2020
4483 Clouds 3 1020 93 161 1.34 310 12:27 25.12.2020
4484 Clouds 3 1020 93 161 0.89 335 11:47 25.12.2020
4485 Clouds 3 1020 93 3165 1.34 35 11:24 25.12.2020
4486 Clouds 3 1020 94 3165 0.45 306 10:47 25.12.2020
4487 Clouds 2 1019 94 1813 2.56 347 10:19 25.12.2020
4488 Clouds 2 1019 94 449 0.45 333 09:26 25.12.2020
4489 Clouds 2 1019 94 449 0.45 321 08:40 25.12.2020
4490 Snow 2 1018 94 3241 0.88 345 07:35 25.12.2020
4491 Clouds 2 1018 94 609 0.84 290 06:44 25.12.2020
4492 Rain 2 1016 94 84 2.7 281 02:36 25.12.2020
4493 Rain 2 1015 93 40 1.54 326 00:38 25.12.2020
4494 Snow 2 1015 93 39 2.71 333 23:58 24.12.2020
4495 Rain 2 1015 92 52 1.34 289 23:22 24.12.2020
4496 Rain 3 1014 89 52 3.13 19 22:37 24.12.2020
4497 Rain 3 1014 88 245 4.02 331 22:18 24.12.2020
4498 Clouds 5 1013 80 245 3.13 2 21:32 24.12.2020
4499 Clouds 6 1010 90 3213 1.79 218 20:19 24.12.2020
4500 Rain 6 1010 88 5861 3.58 188 18:39 24.12.2020
4501 Rain 6 1009 89 7665 4.02 165 18:18 24.12.2020
4502 Rain 7 1010 88 7665 3.13 158 17:36 24.12.2020
4503 Rain 7 1010 85 6462 2.68 198 16:28 24.12.2020
4504 Rain 8 1010 82 6462 1.34 192 15:59 24.12.2020
4505 Rain 8 1010 81 6462 0.89 210 15:41 24.12.2020
4506 Rain 8 1010 80 10000 1.79 184 15:19 24.12.2020
4507 Clouds 8 1010 78 10000 3.13 164 14:42 24.12.2020
4508 Clouds 8 1010 78 10000 3.13 136 14:23 24.12.2020
4509 Clouds 8 1011 75 10000 4.47 216 13:41 24.12.2020
4510 Clouds 8 1011 75 10000 3.58 194 13:21 24.12.2020
4511 Clouds 8 1012 74 10000 4.02 175 12:41 24.12.2020
4512 Clouds 8 1012 73 10000 5.36 192 12:21 24.12.2020
4513 Clouds 9 1012 72 10000 4.02 240 11:39 24.12.2020
4514 Clouds 9 1012 72 10000 4.92 240 11:20 24.12.2020
4515 Clouds 9 1012 72 10000 4.47 207 10:51 24.12.2020
4516 Clouds 9 1011 70 10000 7.6 190 10:32 24.12.2020
4517 Rain 9 1011 66 10000 7.15 167 09:52 24.12.2020
4518 Clouds 8 1010 69 10000 3.13 242 09:24 24.12.2020
4519 Clouds 9 1011 67 10000 4.92 165 08:20 24.12.2020
4520 Clouds 8 1011 69 10000 3.58 163 07:39 24.12.2020
4521 Clouds 8 1010 70 10000 2.68 183 07:18 24.12.2020
4522 Clouds 9 1011 73 10000 4.02 155 05:36 24.12.2020
4523 Rain 9 1013 74 10000 4.02 251 01:57 24.12.2020
4524 Rain 9 1013 74 10000 4.02 251 01:57 24.12.2020
4525 Rain 9 1013 74 10000 4.02 251 01:57 24.12.2020
4526 Rain 10 1012 76 10000 6.71 191 01:36 24.12.2020
4527 Rain 11 1012 83 9787 4.92 191 01:18 24.12.2020
4528 Clouds 11 1012 82 10000 3.58 144 00:21 24.12.2020
4529 Clouds 11 1012 85 10000 2.68 122 23:49 23.12.2020
4530 Rain 11 1012 85 10000 1.79 214 23:30 23.12.2020
4531 Rain 11 1012 83 7334 2.68 173 22:57 23.12.2020
4532 Clouds 11 1012 83 7334 1.34 195 22:31 23.12.2020
4533 Clouds 11 1013 87 10000 2.24 144 21:56 23.12.2020
4534 Rain 11 1013 86 10000 1.79 165 21:28 23.12.2020
4535 Rain 12 1013 87 10000 2.24 192 20:56 23.12.2020
4536 Clouds 12 1013 88 10000 1.79 225 20:37 23.12.2020
4537 Clouds 12 1013 88 10000 3.13 177 20:19 23.12.2020
4538 Clouds 13 1013 87 10000 4.02 163 19:39 23.12.2020
4539 Clouds 13 1013 87 10000 3.13 274 19:20 23.12.2020
4540 Rain 13 1012 82 10000 1.79 214 18:49 23.12.2020
4541 Rain 13 1012 81 10000 0.89 198 18:29 23.12.2020
4542 Rain 13 1012 81 10000 5.51 219 17:41 23.12.2020
4543 Clouds 13 1012 81 9210 1.79 175 17:22 23.12.2020
4544 Clouds 13 1012 81 9210 4.64 211 16:49 23.12.2020
4545 Clouds 13 1013 79 10000 1.79 190 16:30 23.12.2020
4546 Rain 14 1013 72 10000 4.02 209 15:58 23.12.2020
4547 Rain 14 1012 67 10000 3.58 128 15:38 23.12.2020
4548 Clouds 14 1012 66 10000 3.13 199 15:20 23.12.2020
4549 Clouds 14 1012 67 10000 4.02 165 14:41 23.12.2020
4550 Clouds 14 1012 71 10000 3.13 188 14:21 23.12.2020
4551 Clouds 14 1013 74 10000 0.89 209 13:45 23.12.2020
4552 Clouds 14 1013 74 10000 1.79 212 13:20 23.12.2020
4553 Clouds 14 1013 72 10000 1.79 195 12:55 23.12.2020
4554 Clouds 14 1013 72 10000 1.34 227 12:36 23.12.2020
4555 Clouds 14 1013 70 10000 0.89 202 12:18 23.12.2020
4556 Clouds 13 1014 70 10000 0.45 207 11:43 23.12.2020
4557 Clouds 13 1014 70 10000 1.34 115 10:57 23.12.2020
4558 Clouds 13 1015 70 10000 0.89 159 10:39 23.12.2020
4559 Clouds 12 1015 73 10000 0.89 162 09:45 23.12.2020
4560 Clouds 12 1015 74 10000 1.79 167 09:25 23.12.2020
4561 Clouds 11 1017 85 10000 1.34 212 08:42 23.12.2020
4562 Clouds 11 1019 83 10000 2.94 190 07:51 23.12.2020
4563 Clouds 11 1017 84 10000 0.45 226 06:59 23.12.2020
4564 Clouds 11 1017 83 10000 0.45 283 06:37 23.12.2020
4565 Clouds 13 1015 76 10000 2.26 177 05:25 23.12.2020
4566 Clouds 13 1016 73 10000 2.04 176 04:28 23.12.2020
4567 Clouds 13 1020 76 10000 1.34 205 00:34 23.12.2020
4568 Clouds 13 1018 72 10000 2.24 201 23:46 22.12.2020
4569 Clouds 12 1020 87 10000 3.6 170 23:27 22.12.2020
4570 Clouds 13 1021 75 10000 1.79 276 22:43 22.12.2020
4571 Clouds 12 1020 87 10000 2.6 190 22:25 22.12.2020
4572 Clouds 11 1020 87 10000 3.29 195 21:57 22.12.2020
4573 Clouds 12 1020 93 10000 2.1 130 21:38 22.12.2020
4574 Clouds 13 1020 81 10000 2.1 180 21:18 22.12.2020
4575 Clouds 14 1019 79 10000 0.45 200 20:47 22.12.2020
4576 Clouds 14 1019 80 10000 1.34 199 20:21 22.12.2020
4577 Clouds 14 1019 81 10000 4.02 212 19:44 22.12.2020
4578 Clouds 14 1019 82 10000 3.58 177 19:21 22.12.2020
4579 Clouds 14 1019 83 10000 4.47 172 18:50 22.12.2020
4580 Clouds 14 1019 85 10000 3.13 253 18:29 22.12.2020
4581 Clouds 14 1020 85 10000 3.58 177 17:51 22.12.2020
4582 Clouds 14 1019 85 10000 4.47 223 17:25 22.12.2020
4583 Clouds 14 1019 84 10000 2.68 183 16:56 22.12.2020
4584 Clouds 14 1019 84 10000 3.13 147 16:37 22.12.2020
4585 Clouds 14 1019 84 10000 4.02 161 16:19 22.12.2020
4586 Clouds 14 1019 81 10000 4.02 220 15:42 22.12.2020
4587 Clouds 15 1018 82 10000 1.79 264 15:21 22.12.2020
4588 Clouds 15 1019 80 10000 2.24 162 14:45 22.12.2020
4589 Clouds 13 1019 81 10000 2.24 128 14:26 22.12.2020
4590 Clouds 14 1019 81 10000 3.13 220 13:48 22.12.2020
4591 Clouds 15 1019 79 10000 3.58 155 13:19 22.12.2020
4592 Clouds 14 1019 79 10000 3.58 176 12:57 22.12.2020
4593 Clouds 14 1019 79 10000 4.02 172 12:38 22.12.2020
4594 Clouds 14 1020 81 10000 4.92 179 12:19 22.12.2020
4595 Clouds 13 1020 80 10000 4.92 225 11:42 22.12.2020
4596 Clouds 13 1020 80 10000 5.36 114 11:22 22.12.2020
4597 Clouds 14 1020 81 10000 4.92 216 10:55 22.12.2020
4598 Clouds 14 1020 80 10000 4.02 152 10:27 22.12.2020
4599 Clouds 14 1020 79 10000 4.02 198 09:58 22.12.2020
4600 Clouds 14 1020 77 10000 4.02 197 09:30 22.12.2020
4601 Clouds 14 1019 78 10000 3.58 195 08:58 22.12.2020
4602 Clouds 14 1019 79 10000 4.92 180 08:39 22.12.2020
4603 Clouds 13 1019 79 10000 5.81 219 08:19 22.12.2020
4604 Clouds 13 1019 82 10000 4.47 172 07:27 22.12.2020
4605 Clouds 13 1019 82 10000 4.92 191 06:34 22.12.2020
4606 Clouds 13 1019 82 10000 4.02 207 05:33 22.12.2020
4607 Clouds 12 1019 85 10000 5.81 182 02:35 22.12.2020
4608 Clouds 11 1018 88 10000 4.02 176 00:30 22.12.2020
4609 Clouds 11 1019 88 10000 5.36 150 23:51 21.12.2020
4610 Clouds 11 1018 88 10000 5.36 186 23:23 21.12.2020
4611 Clouds 10 1018 90 10000 4.02 203 22:37 21.12.2020
4612 Clouds 10 1018 91 10000 4.92 199 22:19 21.12.2020
4613 Clouds 9 1018 94 10000 3.58 229 21:48 21.12.2020
4614 Clouds 9 1018 93 10000 2.24 209 21:30 21.12.2020
4615 Rain 9 1018 91 10000 0.45 215 20:46 21.12.2020
4616 Rain 9 1018 90 10000 0.89 179 20:25 21.12.2020
4617 Rain 9 1018 88 10000 0.89 195 19:55 21.12.2020
4618 Rain 9 1018 86 10000 0.45 231 19:37 21.12.2020
4619 Rain 10 1018 82 10000 4.35 198 19:18 21.12.2020
4620 Rain 9 1017 81 10000 4.35 198 18:50 21.12.2020
4621 Clouds 10 1017 76 10000 1.34 227 18:32 21.12.2020
4622 Clouds 10 1017 84 10000 4.57 187 17:43 21.12.2020
4623 Rain 10 1017 82 10000 5 179 17:24 21.12.2020
4624 Rain 11 1018 71 10000 3.13 116 16:47 21.12.2020
4625 Rain 8 1019 76 10000 7.2 180 16:26 21.12.2020
4626 Clouds 9 1019 81 10000 3.6 140 15:47 21.12.2020
4627 Clouds 8 1018 65 10000 4.42 195 15:29 21.12.2020
4628 Clouds 11 1019 81 10000 0.45 176 14:56 21.12.2020
4629 Clouds 10 1019 86 10000 3.39 214 14:21 21.12.2020
4630 Clouds 8 1020 83 10000 0.45 199 13:43 21.12.2020
4631 Clouds 8 1020 84 10000 0.89 276 13:24 21.12.2020
4632 Clouds 7 1020 92 10000 0.89 56 12:44 21.12.2020
4633 Clouds 7 1020 92 10000 0.89 56 12:44 21.12.2020
4634 Rain 7 1021 92 10000 0.89 52 12:25 21.12.2020
4635 Rain 6 1022 83 10000 1.39 186 11:58 21.12.2020
4636 Rain 6 1023 90 10000 1.39 186 11:39 21.12.2020
4637 Clouds 6 1022 91 10000 0.86 191 11:19 21.12.2020
4638 Clouds 6 1022 91 10000 0.86 191 10:42 21.12.2020
4639 Clouds 6 1022 91 10000 1 143 10:24 21.12.2020
4640 Clouds 5 1022 90 10000 1 143 09:46 21.12.2020
4641 Clouds 5 1022 90 10000 1.12 155 09:25 21.12.2020
4642 Clouds 5 1022 88 10000 1.12 155 08:52 21.12.2020
4643 Clouds 5 1022 84 10000 1.15 141 07:52 21.12.2020
4644 Clouds 5 1022 85 10000 0.89 45 06:47 21.12.2020
4645 Clouds 7 1023 84 10000 1.68 160 04:49 21.12.2020
4646 Clouds 9 1026 84 10000 0.89 157 01:28 21.12.2020
4647 Clouds 9 1022 88 10000 1.81 171 00:33 21.12.2020
4648 Clouds 8 1022 89 10000 1.84 174 23:36 20.12.2020
4649 Clouds 8 1022 87 10000 2.07 178 22:59 20.12.2020
4650 Clouds 8 1022 87 10000 0.45 254 22:41 20.12.2020
4651 Clouds 9 1023 83 10000 1.34 194 22:22 20.12.2020
4652 Clouds 9 1023 82 10000 1.34 169 21:40 20.12.2020
4653 Clouds 9 1023 82 10000 0.45 200 21:21 20.12.2020
4654 Clouds 9 1023 84 10000 1.79 212 20:52 20.12.2020
4655 Clouds 9 1022 83 10000 1.34 189 20:26 20.12.2020
4656 Clouds 9 1022 84 10000 2.14 171 19:56 20.12.2020
4657 Clouds 9 1022 84 10000 2.15 188 19:38 20.12.2020
4658 Clouds 9 1022 84 10000 2.15 188 19:19 20.12.2020
4659 Clouds 9 1021 83 10000 0.45 213 18:42 20.12.2020
4660 Clouds 9 1021 83 10000 0.89 225 18:23 20.12.2020
4661 Clouds 9 1021 84 10000 2.51 184 17:46 20.12.2020
4662 Clouds 9 1021 85 10000 0.89 202 17:28 20.12.2020
4663 Clouds 10 1021 87 10000 0.45 186 16:47 20.12.2020
4664 Rain 10 1021 86 10000 2.15 206 16:28 20.12.2020
4665 Rain 10 1020 85 10000 2.15 206 15:50 20.12.2020
4666 Rain 10 1020 83 10000 0.45 206 15:26 20.12.2020
4667 Rain 10 1020 83 10000 1.34 194 14:56 20.12.2020
4668 Clouds 10 1020 83 10000 1.34 243 14:34 20.12.2020
4669 Clouds 10 1020 83 10000 1.79 215 13:49 20.12.2020
4670 Clouds 10 1020 83 10000 2.24 211 13:30 20.12.2020
4671 Clouds 11 1020 84 10000 1.79 221 12:59 20.12.2020
4672 Rain 11 1020 84 10000 1.79 231 12:39 20.12.2020
4673 Clouds 11 1020 82 10000 2.24 209 12:21 20.12.2020
4674 Clouds 10 1020 84 10000 1.34 156 11:45 20.12.2020
4675 Clouds 9 1020 87 10000 0.89 195 11:26 20.12.2020
4676 Clouds 8 1022 89 10000 0.89 174 10:49 20.12.2020
4677 Clouds 7 1020 87 10000 1.01 212 10:21 20.12.2020
4678 Clouds 8 1019 84 10000 1.34 210 09:46 20.12.2020
4679 Clouds 8 1019 85 10000 1.34 197 09:46 20.12.2020
4680 Clouds 9 1019 85 10000 0.83 185 09:28 20.12.2020
4681 Clouds 10 1018 84 10000 0.83 185 08:59 20.12.2020
4682 Clouds 9 1020 85 10000 0.89 150 08:40 20.12.2020
4683 Clouds 9 1018 88 10000 0.95 192 07:59 20.12.2020
4684 Clouds 7 1018 92 10000 0.58 188 07:19 20.12.2020
4685 Clouds 7 1018 93 10000 1.49 151 02:41 20.12.2020
4686 Clouds 8 1018 87 10000 1.38 159 00:59 20.12.2020
4687 Clouds 8 1018 87 10000 1.43 159 23:36 19.12.2020
4688 Clouds 7 1019 82 10000 1.72 167 23:18 19.12.2020
4689 Clouds 7 1019 81 10000 0.45 324 22:44 19.12.2020
4690 Clouds 7 1020 81 10000 1.64 168 22:24 19.12.2020
4691 Clouds 7 1018 87 10000 1.64 168 21:58 19.12.2020
4692 Clouds 7 1018 86 10000 1.64 168 21:38 19.12.2020
4693 Clouds 7 1018 85 10000 1.5 157 21:20 19.12.2020
4694 Clouds 7 1021 88 10000 0.45 337 20:37 19.12.2020
4695 Clouds 7 1018 88 10000 1.43 162 20:18 19.12.2020
4696 Clouds 7 1019 88 10000 1.43 162 19:46 19.12.2020
4697 Clouds 7 1018 92 10000 1.25 159 19:24 19.12.2020
4698 Clouds 7 1018 86 10000 1.29 144 18:34 19.12.2020
4699 Clouds 7 1018 86 10000 1.3 152 17:58 19.12.2020
4700 Clouds 7 1019 86 10000 1.3 152 17:40 19.12.2020
4701 Clouds 7 1019 86 10000 0.98 161 17:20 19.12.2020
4702 Clouds 8 1018 86 10000 0.98 161 16:42 19.12.2020
4703 Clouds 8 1016 84 10000 1.13 133 16:24 19.12.2020
4704 Clouds 7 1020 88 10000 1.13 133 15:54 19.12.2020
4705 Clouds 8 1016 80 10000 0.99 232 15:30 19.12.2020
4706 Clouds 9 1016 82 10000 0.99 232 14:40 19.12.2020
4707 Clouds 9 1016 77 10000 0.9 142 14:21 19.12.2020
4708 Clouds 10 1017 82 10000 0.9 142 13:41 19.12.2020
4709 Clouds 8 1017 85 10000 0.45 165 13:19 19.12.2020
4710 Clouds 8 1017 82 10000 1.22 255 12:43 19.12.2020
4711 Clouds 8 1018 85 10000 0.69 230 12:25 19.12.2020
4712 Clouds 8 1019 83 10000 0.69 230 11:57 19.12.2020
4713 Clouds 8 1019 83 10000 0.69 230 11:57 19.12.2020
4714 Clouds 7 1021 91 10000 0.45 292 11:35 19.12.2020
4715 Clouds 6 1020 81 10000 0.89 118 10:43 19.12.2020
4716 Clouds 5 1021 91 10000 0.77 175 10:24 19.12.2020
4717 Clouds 4 1021 100 10000 0.45 270 09:53 19.12.2020
4718 Clouds 4 1021 99 10000 0.45 120 09:35 19.12.2020
4719 Clear 4 1018 94 10000 0.91 163 08:36 19.12.2020
4720 Clear 4 1018 94 10000 1.5 133 07:25 19.12.2020
4721 Clear 4 1020 98 10000 0.45 232 06:54 19.12.2020
4722 Clear 4 1018 94 10000 1.24 139 06:21 19.12.2020
4723 Clear 5 1018 94 10000 1.27 139 05:19 19.12.2020
4724 Clear 6 1018 92 10000 1.25 130 03:20 19.12.2020
4725 Clear 5 1019 94 10000 1.38 133 00:41 19.12.2020
4726 Clear 5 1019 93 10000 1.2 139 00:18 19.12.2020
4727 Clear 5 1020 93 10000 1.2 139 23:48 18.12.2020
4728 Clear 6 1020 93 10000 1.26 142 23:24 18.12.2020
4729 Clear 6 1020 92 10000 1.26 142 22:47 18.12.2020
4730 Clouds 7 1020 92 10000 1.2 156 22:24 18.12.2020
4731 Clouds 7 1020 92 10000 1.2 156 21:51 18.12.2020
4732 Clouds 7 1020 92 10000 1.2 153 21:31 18.12.2020
4733 Clouds 7 1020 91 10000 1.2 153 20:44 18.12.2020
4734 Clouds 7 1020 90 10000 1.54 144 20:23 18.12.2020
4735 Clouds 8 1020 89 10000 1.54 144 19:47 18.12.2020
4736 Clear 7 1020 89 10000 1.49 140 19:23 18.12.2020
4737 Clear 8 1021 89 10000 1.36 138 18:46 18.12.2020
4738 Clear 8 1021 89 10000 1.27 137 18:26 18.12.2020
4739 Clear 8 1021 87 10000 1.27 137 17:50 18.12.2020
4740 Clear 7 1020 90 10000 0.92 144 17:20 18.12.2020
4741 Clear 8 1020 89 10000 0.92 144 16:45 18.12.2020
4742 Clear 9 1020 87 10000 0.37 195 16:21 18.12.2020
4743 Clear 9 1020 86 10000 0.37 195 15:52 18.12.2020
4744 Clear 10 1021 78 10000 0.37 195 15:34 18.12.2020
4745 Clear 10 1021 78 10000 0.59 252 14:57 18.12.2020
4746 Clear 9 1022 87 10000 0.43 238 14:26 18.12.2020
4747 Clear 9 1022 82 10000 0.43 238 13:59 18.12.2020
4748 Clear 9 1022 89 10000 0.43 238 13:40 18.12.2020
4749 Clear 8 1022 89 10000 0.75 271 13:21 18.12.2020
4750 Clear 9 1023 85 10000 0.75 271 12:42 18.12.2020
4751 Clear 7 1024 95 10000 0.13 226 11:29 18.12.2020
4752 Clear 6 1024 95 10000 0.13 226 10:58 18.12.2020
4753 Clear 6 1024 95 10000 0.13 226 10:37 18.12.2020
4754 Clear 5 1024 95 10000 0.46 201 10:19 18.12.2020
4755 Clear 5 1024 96 10000 0.46 201 09:38 18.12.2020
4756 Clear 5 1024 95 10000 0.69 186 09:20 18.12.2020
4757 Clear 5 1024 95 10000 0.69 186 08:52 18.12.2020
4758 Clear 5 1024 94 10000 1.01 155 08:26 18.12.2020
4759 Clouds 5 1024 94 10000 0.84 146 07:20 18.12.2020
4760 Clouds 5 1024 95 10000 0.97 145 06:59 18.12.2020
4761 Clouds 6 1023 95 10000 0.89 132 06:22 18.12.2020
4762 Clouds 6 1024 94 10000 0.45 162 05:33 18.12.2020
4763 Clouds 5 1024 94 10000 0.45 162 04:50 18.12.2020
4764 Clouds 6 1024 91 10000 0.78 136 01:57 18.12.2020
4765 Clouds 6 1024 91 10000 0.71 150 01:37 18.12.2020
4766 Clouds 6 1024 91 10000 0.54 162 23:58 17.12.2020
4767 Clouds 7 1024 90 10000 0.68 174 23:25 17.12.2020
4768 Clouds 7 1024 89 10000 0.68 174 22:52 17.12.2020
4769 Clouds 7 1024 89 10000 0.51 199 22:29 17.12.2020
4770 Clouds 7 1024 88 10000 0.51 199 21:57 17.12.2020
4771 Clouds 7 1024 88 10000 0.51 199 21:37 17.12.2020
4772 Clouds 7 1024 87 10000 0.91 187 21:18 17.12.2020
4773 Clouds 8 1024 86 10000 0.91 187 20:41 17.12.2020
4774 Clouds 8 1024 86 10000 1.31 165 20:19 17.12.2020
4775 Clouds 8 1024 85 10000 1.31 165 19:48 17.12.2020
4776 Clouds 9 1023 84 10000 1.52 170 19:24 17.12.2020
4777 Clouds 9 1023 83 10000 1.49 192 18:42 17.12.2020
4778 Clouds 9 1023 83 10000 1.62 198 18:23 17.12.2020
4779 Clouds 9 1023 83 10000 1.62 198 18:23 17.12.2020
4780 Clouds 10 1023 82 10000 1.62 198 17:54 17.12.2020
4781 Clouds 10 1023 81 10000 1.62 198 17:33 17.12.2020
4782 Clouds 10 1023 78 10000 2.14 188 16:46 17.12.2020
4783 Clouds 10 1023 77 10000 2.41 197 16:28 17.12.2020
4784 Clouds 10 1023 77 10000 2.41 197 15:57 17.12.2020
4785 Clouds 11 1023 78 10000 2.41 197 15:39 17.12.2020
4786 Clouds 11 1023 79 10000 2.37 212 15:18 17.12.2020
4787 Clouds 11 1023 80 10000 0.89 197 14:47 17.12.2020
4788 Clouds 11 1023 77 10000 3.09 211 13:59 17.12.2020
4789 Clouds 11 1023 77 10000 0.89 239 13:41 17.12.2020
4790 Clouds 12 1023 76 10000 0.89 244 12:58 17.12.2020
4791 Clouds 12 1023 76 10000 1.34 184 12:38 17.12.2020
4792 Clouds 11 1022 76 10000 0.89 261 12:20 17.12.2020
4793 Clouds 10 1022 75 10000 1.34 193 11:40 17.12.2020
4794 Clouds 8 1022 73 10000 1.79 190 11:20 17.12.2020
4795 Clouds 10 1022 73 10000 0.45 180 10:33 17.12.2020
4796 Clouds 8 1021 76 10000 0.45 139 09:36 17.12.2020
4797 Clear 6 1021 81 10000 4.1 180 08:40 17.12.2020
4798 Clouds 6 1019 91 10000 0.45 265 07:42 17.12.2020
4799 Clouds 6 1019 97 10000 0.45 252 07:20 17.12.2020
4800 Clouds 5 1019 97 10000 0.45 200 06:47 17.12.2020
4801 Clouds 5 1019 97 10000 1.74 176 06:27 17.12.2020
4802 Clouds 4 1021 100 10000 0.45 207 03:29 17.12.2020
4803 Clouds 4 1018 94 10000 0.75 173 00:20 17.12.2020
4804 Clouds 5 1018 93 10000 0.75 173 23:40 16.12.2020
4805 Clouds 5 1018 92 10000 1.13 149 23:18 16.12.2020
4806 Clouds 5 1018 92 10000 1.13 149 22:48 16.12.2020
4807 Clouds 5 1017 92 10000 1.12 152 22:28 16.12.2020
4808 Clouds 6 1018 93 10000 1.12 152 21:43 16.12.2020
4809 Clouds 6 1017 94 10000 1.15 149 21:23 16.12.2020
4810 Clouds 6 1017 95 10000 1.15 149 20:52 16.12.2020
4811 Clouds 6 1017 94 10000 1.21 132 20:20 16.12.2020
4812 Clouds 6 1017 93 10000 1.21 132 19:38 16.12.2020
4813 Clouds 6 1017 92 10000 1.38 148 19:18 16.12.2020
4814 Clouds 6 1017 92 10000 1.38 148 18:49 16.12.2020
4815 Clouds 6 1016 92 10000 1.18 145 18:25 16.12.2020
4816 Clouds 7 1016 90 10000 1.18 145 17:38 16.12.2020
4817 Clouds 7 1016 90 10000 1.18 145 17:38 16.12.2020
4818 Clear 7 1015 93 10000 1.25 138 16:56 16.12.2020
4819 Clear 7 1015 92 10000 1.25 138 16:37 16.12.2020
4820 Clear 8 1015 91 10000 0.75 132 16:19 16.12.2020
4821 Clear 9 1015 90 10000 0.75 132 15:46 16.12.2020
4822 Clear 9 1016 86 10000 0.05 329 15:19 16.12.2020
4823 Clear 9 1016 91 10000 0.05 329 14:45 16.12.2020
4824 Clear 9 1016 92 10000 0.2 104 14:27 16.12.2020
4825 Clear 9 1016 92 10000 0.2 104 13:42 16.12.2020
4826 Clouds 9 1016 92 10000 0.1 184 13:21 16.12.2020
4827 Clouds 9 1016 94 10000 0.37 202 12:44 16.12.2020
4828 Clouds 8 1016 94 10000 0.74 190 12:20 16.12.2020
4829 Clouds 8 1017 95 10000 0.74 190 11:37 16.12.2020
4830 Clouds 8 1017 96 10000 0.86 158 11:19 16.12.2020
4831 Clouds 7 1017 96 10000 0.86 158 10:41 16.12.2020
4832 Clouds 7 1017 96 10000 0.79 150 09:56 16.12.2020
4833 Clouds 7 1017 95 10000 0.79 150 09:34 16.12.2020
4834 Clouds 6 1017 95 10000 0.89 145 08:23 16.12.2020
4835 Clouds 7 1016 95 10000 0.89 145 07:48 16.12.2020
4836 Clouds 7 1016 96 10000 0.45 60 07:30 16.12.2020
4837 Clouds 7 1016 96 10000 1.13 56 05:48 16.12.2020
4838 Clouds 6 1015 94 10000 0.45 313 02:22 16.12.2020
4839 Clouds 6 1015 93 10000 0.68 145 00:20 16.12.2020
4840 Clouds 6 1014 97 10000 0.68 145 23:42 15.12.2020
4841 Clouds 7 1015 94 10000 0.67 108 22:44 15.12.2020
4842 Clouds 7 1015 94 10000 1.28 140 22:23 15.12.2020
4843 Clouds 8 1015 94 10000 0.45 33 21:50 15.12.2020
4844 Clouds 8 1015 94 10000 1.57 162 21:24 15.12.2020
4845 Clouds 8 1015 94 10000 1.57 162 20:57 15.12.2020
4846 Clouds 9 1015 94 10000 1.57 162 20:37 15.12.2020
4847 Clouds 9 1015 94 10000 1.57 162 20:37 15.12.2020
4848 Clouds 9 1015 94 10000 3 157 20:18 15.12.2020
4849 Clouds 9 1015 94 10000 3 157 19:41 15.12.2020
4850 Clouds 9 1014 93 10000 3.19 161 19:23 15.12.2020
4851 Rain 9 1015 92 10000 2.63 164 18:39 15.12.2020
4852 Rain 10 1015 92 10000 2.61 172 18:20 15.12.2020
4853 Rain 10 1015 92 10000 0.45 155 17:43 15.12.2020
4854 Rain 10 1014 93 10000 3.08 172 17:22 15.12.2020
4855 Rain 10 1014 94 10000 3.08 172 16:38 15.12.2020
4856 Rain 10 1014 95 10000 3.26 179 16:19 15.12.2020
4857 Rain 10 1014 95 10000 3.26 179 15:37 15.12.2020
4858 Rain 10 1013 95 10000 0.89 199 15:18 15.12.2020
4859 Rain 10 1013 96 10000 0.45 202 14:41 15.12.2020
4860 Rain 9 1013 96 10000 2.09 172 14:19 15.12.2020
4861 Rain 9 1013 95 10000 2.09 172 13:48 15.12.2020
4862 Rain 8 1013 94 10000 1.25 188 13:23 15.12.2020
4863 Rain 7 1011 96 10000 0.45 233 12:45 15.12.2020
4864 Rain 7 1011 95 10000 1.15 159 12:19 15.12.2020
4865 Rain 8 1011 96 10000 1.15 159 11:51 15.12.2020
4866 Rain 7 1011 96 10000 1.96 211 11:22 15.12.2020
4867 Rain 6 1011 96 10000 1.96 211 10:47 15.12.2020
4868 Rain 6 1013 96 10000 0.96 165 10:20 15.12.2020
4869 Clouds 7 1010 96 10000 0.96 165 09:43 15.12.2020
4870 Clouds 6 1010 96 10000 1.59 147 09:25 15.12.2020
4871 Clouds 5 1012 95 10000 1.59 147 08:41 15.12.2020
4872 Clouds 5 1010 95 10000 1.77 163 08:21 15.12.2020
4873 Rain 6 1010 95 10000 1.77 163 07:44 15.12.2020
4874 Clouds 5 1010 94 10000 1.38 195 07:18 15.12.2020
4875 Clouds 5 1010 94 10000 1.19 200 05:55 15.12.2020
4876 Clouds 5 1012 88 10000 2.01 156 00:54 15.12.2020
4877 Clouds 5 1012 89 10000 2.01 156 00:34 15.12.2020
4878 Clouds 3 1011 89 10000 1.31 191 23:23 14.12.2020
4879 Clouds 4 1011 89 10000 1.31 191 22:47 14.12.2020
4880 Clouds 4 1011 88 10000 1.09 172 22:26 14.12.2020
4881 Clouds 4 1011 87 10000 1.09 172 21:42 14.12.2020
4882 Clouds 5 1011 86 10000 0.98 148 21:20 14.12.2020
4883 Clouds 5 1011 86 10000 0.98 148 20:48 14.12.2020
4884 Clouds 5 1010 85 10000 1.41 136 20:28 14.12.2020
4885 Clouds 5 1010 83 10000 1.41 136 19:50 14.12.2020
4886 Clouds 5 1011 81 10000 1.38 144 19:28 14.12.2020
4887 Clouds 6 1010 80 10000 1.38 144 18:44 14.12.2020
4888 Clouds 6 1010 80 10000 1.44 153 18:24 14.12.2020
4889 Clouds 7 1010 78 10000 1.44 153 17:46 14.12.2020
4890 Clouds 7 1010 78 10000 1.33 147 17:23 14.12.2020
4891 Clouds 8 1010 76 10000 1.33 147 16:50 14.12.2020
4892 Clouds 8 1011 74 10000 0.63 167 16:28 14.12.2020
4893 Clouds 9 1011 71 10000 0.63 167 15:35 14.12.2020
4894 Clouds 9 1011 67 10000 0.72 187 14:58 14.12.2020
4895 Clouds 9 1011 67 10000 0.72 187 14:40 14.12.2020
4896 Clouds 9 1011 64 10000 0.86 221 14:21 14.12.2020
4897 Clouds 9 1011 67 10000 0.86 221 13:41 14.12.2020
4898 Clouds 9 1012 68 10000 0.89 203 13:18 14.12.2020
4899 Clouds 9 1012 66 10000 0.75 207 12:52 14.12.2020
4900 Clouds 9 1012 66 10000 1.12 216 12:24 14.12.2020
4901 Clouds 8 1012 70 10000 1.12 216 11:32 14.12.2020
4902 Clouds 6 1013 78 10000 0.99 178 10:38 14.12.2020
4903 Clouds 5 1013 82 10000 1.44 167 10:19 14.12.2020
4904 Clouds 3 1012 89 10000 1.44 167 09:31 14.12.2020
4905 Clouds 1 1012 87 10000 1.67 152 08:46 14.12.2020
4906 Clouds 1 1012 83 10000 1.14 175 08:28 14.12.2020
4907 Clouds 2 1012 83 10000 0.89 72 07:44 14.12.2020
4908 Clouds 1 1012 88 10000 0.45 122 06:47 14.12.2020
4909 Clouds 2 1011 85 10000 0.89 111 05:21 14.12.2020
4910 Clear 2 1012 90 10000 1.25 161 02:26 14.12.2020
4911 Clouds 2 1012 89 10000 1.33 152 00:56 14.12.2020
4912 Clouds 2 1012 88 10000 1.33 152 00:33 14.12.2020
4913 Clouds 3 1012 86 10000 1.6 149 23:50 13.12.2020
4914 Clouds 4 1012 86 10000 1.43 146 23:30 13.12.2020
4915 Clouds 4 1012 87 10000 1.43 146 22:47 13.12.2020
4916 Clouds 4 1012 88 10000 0.89 93 22:20 13.12.2020
4917 Clouds 4 1013 88 10000 1.58 142 21:45 13.12.2020
4918 Clouds 4 1013 88 10000 1.96 142 21:26 13.12.2020
4919 Clouds 3 1012 87 10000 0.89 109 20:38 13.12.2020
4920 Clouds 4 1013 87 10000 0.89 97 20:20 13.12.2020
4921 Clouds 4 1012 87 10000 1.88 139 19:42 13.12.2020
4922 Clouds 4 1013 87 10000 0.89 105 19:20 13.12.2020
4923 Clouds 4 1013 86 10000 0.45 73 18:43 13.12.2020
4924 Clouds 4 1012 92 10000 2.02 152 18:21 13.12.2020
4925 Clouds 5 1012 93 10000 2.02 152 17:47 13.12.2020
4926 Clouds 5 1012 93 10000 2.02 152 17:47 13.12.2020
4927 Clouds 4 1012 92 10000 1.92 162 17:21 13.12.2020
4928 Clouds 3 1015 82 10000 0.89 25 16:58 13.12.2020
4929 Clouds 3 1011 91 10000 1.92 162 16:38 13.12.2020
4930 Clouds 5 1012 90 10000 1.97 173 16:19 13.12.2020
4931 Clouds 5 1012 90 10000 1.97 173 15:42 13.12.2020
4932 Clouds 6 1012 74 10000 2.47 189 15:23 13.12.2020
4933 Clouds 6 1012 87 10000 2.47 189 14:44 13.12.2020
4934 Clouds 6 1012 70 10000 0.45 206 14:25 13.12.2020
4935 Clouds 6 1012 72 10000 2.68 187 13:44 13.12.2020
4936 Clouds 6 1013 72 10000 0.89 119 13:25 13.12.2020
4937 Clouds 6 1012 85 10000 0.45 360 12:51 13.12.2020
4938 Clouds 6 1013 82 10000 0.89 176 12:23 13.12.2020
4939 Clouds 4 1013 87 10000 3.13 211 11:43 13.12.2020
4940 Clouds 4 1013 88 10000 1.79 165 11:22 13.12.2020
4941 Clouds 5 1013 89 10000 2.68 184 10:40 13.12.2020
4942 Clouds 5 1012 91 10000 2.68 170 09:58 13.12.2020
4943 Clouds 5 1012 91 10000 1.79 173 09:31 13.12.2020
4944 Clouds 5 1012 92 10000 4.02 208 08:35 13.12.2020
4945 Clouds 5 1011 93 10000 3.13 188 07:52 13.12.2020
4946 Clouds 6 1009 94 5908 2.1 205 05:36 13.12.2020
4947 Rain 6 1007 92 10000 1.79 202 02:42 13.12.2020
4948 Clouds 6 1007 92 10000 1.34 204 01:58 13.12.2020
4949 Clouds 6 1006 92 10000 2.24 202 01:19 13.12.2020
4950 Rain 6 1006 93 10000 1.34 171 00:33 13.12.2020
4951 Rain 7 1005 92 10000 1.79 172 23:33 12.12.2020
4952 Clouds 7 1005 92 10000 1.79 173 22:57 12.12.2020
4953 Clouds 7 1005 92 10000 1.79 184 22:27 12.12.2020
4954 Rain 7 1004 92 10000 0.89 229 21:45 12.12.2020
4955 Clouds 7 1004 92 10000 2.68 200 21:18 12.12.2020
4956 Rain 7 1004 92 10000 1.34 202 20:43 12.12.2020
4957 Rain 7 1004 92 10000 0.89 202 20:19 12.12.2020
4958 Rain 7 1003 92 10000 0.89 221 19:51 12.12.2020
4959 Rain 7 1003 92 10000 1.79 184 19:33 12.12.2020
4960 Clouds 6 1003 92 10000 2.24 203 18:52 12.12.2020
4961 Rain 6 1002 91 8688 2.68 82 18:33 12.12.2020
4962 Rain 6 1002 90 8688 2.24 209 17:59 12.12.2020
4963 Rain 6 1001 93 8688 2.74 198 17:40 12.12.2020
4964 Rain 6 1000 83 10000 2.63 196 16:30 12.12.2020
4965 Clouds 6 1000 81 10000 3.13 213 15:53 12.12.2020
4966 Clouds 7 1000 80 10000 2.24 188 15:35 12.12.2020
4967 Clouds 7 999 80 10000 3.58 187 14:53 12.12.2020
4968 Clouds 7 999 79 10000 2.24 202 14:21 12.12.2020
4969 Clouds 7 998 78 10000 2.68 240 13:41 12.12.2020
4970 Clouds 6 998 77 10000 3.58 179 13:22 12.12.2020
4971 Clear 5 998 76 10000 3.6 170 12:33 12.12.2020
4972 Clouds 7 997 82 10000 2.24 140 11:19 12.12.2020
4973 Clouds 7 997 83 10000 2.68 217 10:45 12.12.2020
4974 Clouds 4 995 96 10000 2.22 175 09:24 12.12.2020
4975 Clouds 5 994 95 10000 2.73 168 07:42 12.12.2020
4976 Clouds 5 993 87 10000 0.45 198 01:39 12.12.2020
4977 Clouds 5 994 91 10000 2.48 171 23:30 11.12.2020
4978 Clouds 5 994 85 10000 2.65 154 20:57 11.12.2020
4979 Clouds 4 995 86 10000 4.6 200 19:42 11.12.2020
4980 Clouds 3 995 93 10000 5.1 190 16:59 11.12.2020
4981 Rain 5 995 90 6783 0.89 154 14:37 11.12.2020
4982 Rain 5 995 90 6783 0.89 154 14:37 11.12.2020
4983 Rain 3 996 81 10000 1.34 234 13:45 11.12.2020
4984 Clouds 3 997 82 10000 1.23 185 12:28 11.12.2020
4985 Clouds 4 997 82 10000 1.23 185 11:55 11.12.2020
4986 Clouds 3 997 84 10000 1.23 185 11:36 11.12.2020
4987 Clouds 0 1001 94 10000 0.45 128 10:40 11.12.2020
4988 Clouds -1 999 90 10000 0.89 330 07:51 11.12.2020
4989 Clouds -1 1001 89 10000 1.12 175 05:36 11.12.2020
4990 Clouds -2 1002 89 10000 0.45 281 04:47 11.12.2020
4991 Clouds -2 1005 91 10000 0.89 117 00:54 11.12.2020
4992 Clouds -2 1006 92 10000 0.89 94 23:31 10.12.2020
4993 Clouds -1 1006 91 10000 1.2 160 21:55 10.12.2020
4994 Clouds -1 1006 91 10000 1.53 135 21:28 10.12.2020
4995 Clouds 0 1006 91 10000 1.34 83 20:36 10.12.2020
4996 Clouds 0 1005 93 10000 1.32 134 19:33 10.12.2020
4997 Clouds 1 1005 93 10000 1.32 134 18:50 10.12.2020
4998 Clouds 2 1005 93 10000 1.19 129 17:36 10.12.2020
4999 Clouds 1 1005 88 10000 0.37 235 16:18 10.12.2020
5000 Clouds 2 1005 85 10000 0.45 353 15:24 10.12.2020
5001 Clouds 2 1005 84 10000 0.58 292 14:47 10.12.2020
5002 Clouds 2 1005 84 10000 1.03 276 14:21 10.12.2020
5003 Clear 1 1006 91 10000 1.04 296 12:33 10.12.2020
5004 Clear 0 1006 95 10000 0.55 275 10:59 10.12.2020
5005 Clear -2 1006 94 10000 0.83 121 08:44 10.12.2020
5006 Clear -1 1005 95 10000 1.33 102 07:37 10.12.2020
5007 Clouds 0 1005 96 10000 1.27 109 06:40 10.12.2020
5008 Clouds 0 1008 94 10000 1.24 132 02:51 10.12.2020
5009 Clouds 0 1009 94 10000 1.2 158 01:56 10.12.2020
5010 Clouds 1 1010 95 10000 1.1 154 23:50 09.12.2020
5011 Clouds 0 1011 94 2299 0.51 169 20:43 09.12.2020
5012 Snow 0 1011 94 610 0.74 167 20:24 09.12.2020
5013 Snow 1 1010 94 300 0.68 177 18:58 09.12.2020
5014 Clouds 1 1010 93 120 1.34 240 17:39 09.12.2020
5015 Snow 1 1010 93 51 1.79 219 16:40 09.12.2020
5016 Snow 1 1010 93 38 1.34 184 16:20 09.12.2020
5017 Clouds 2 1010 95 53 0.89 234 14:53 09.12.2020
5018 Clouds 2 1009 95 93 1.34 196 14:27 09.12.2020
5019 Clouds 2 1009 95 93 0.45 208 13:51 09.12.2020
5020 Snow 2 1009 95 80 1.34 230 13:18 09.12.2020
5021 Clouds 2 1010 95 272 0.89 222 12:43 09.12.2020
5022 Clouds 2 1010 96 254 1.15 301 11:48 09.12.2020
5023 Rain 2 1010 96 113 1.37 266 10:31 09.12.2020
5024 Rain 1 1009 95 86 1.02 257 08:45 09.12.2020
5025 Clouds 1 1008 95 59 0.59 222 07:43 09.12.2020
5026 Clouds 1 1008 95 477 0.89 216 05:48 09.12.2020
5027 Clouds 2 1007 94 3919 0.15 125 03:21 09.12.2020
5028 Clouds 1 1006 94 10000 0.25 319 01:21 09.12.2020
5029 Clouds 1 1006 94 10000 0.89 236 23:41 08.12.2020
5030 Clouds 1 1005 94 10000 0.3 234 22:43 08.12.2020
5031 Clouds 1 1004 94 10000 0.5 183 20:54 08.12.2020
5032 Clouds 1 1004 94 10000 0.05 231 19:32 08.12.2020
5033 Clouds 1 1003 94 10000 0.05 231 18:58 08.12.2020
5034 Clouds 1 1002 93 10000 0.89 323 17:33 08.12.2020
5035 Clouds 2 1001 93 10000 0.65 348 15:44 08.12.2020
5036 Clouds 4 998 83 10000 1.47 334 14:18 08.12.2020
5037 Clouds 3 1000 93 10000 1.33 318 13:24 08.12.2020
5038 Clouds 2 997 82 10000 1.16 305 12:26 08.12.2020
5039 Clouds 2 1000 87 10000 0.89 212 11:42 08.12.2020
5040 Clouds 2 1000 90 10000 0.65 346 10:45 08.12.2020
5041 Clouds 1 1000 94 10000 0.42 46 10:19 08.12.2020
5042 Clouds 0 1000 93 10000 0.39 142 08:28 08.12.2020
5043 Clouds 1 999 93 10000 0.68 149 06:52 08.12.2020
5044 Snow 1 999 91 10000 0.45 214 03:34 08.12.2020
5045 Clouds 0 999 89 10000 1.4 123 00:47 08.12.2020
5046 Clouds 0 999 88 10000 1.62 131 00:22 08.12.2020
5047 Clear 0 999 85 10000 1.86 121 22:40 07.12.2020
5048 Clear 1 999 83 10000 1.77 133 21:51 07.12.2020
5049 Clear 2 999 93 10000 1.85 125 19:55 07.12.2020
5050 Clear 3 1001 93 10000 1.5 0 18:43 07.12.2020
5051 Clouds 4 999 91 10000 1.05 118 17:28 07.12.2020
5052 Clouds 5 1001 80 10000 1 0 16:55 07.12.2020
5053 Clouds 5 1000 78 10000 0.45 222 15:30 07.12.2020
5054 Clouds 5 999 77 10000 0.89 221 14:51 07.12.2020
5055 Clouds 5 1000 73 10000 0.89 225 14:19 07.12.2020
5056 Clouds 5 1000 70 10000 0.89 213 13:23 07.12.2020
5057 Clouds 4 999 90 10000 2.56 203 11:44 07.12.2020
5058 Clouds 4 1000 82 10000 0.45 230 11:20 07.12.2020
5059 Clouds 3 1000 88 10000 0.45 237 09:57 07.12.2020
5060 Clouds 2 1000 90 10000 1.34 189 08:29 07.12.2020
5061 Clouds 3 999 94 10000 0.45 192 06:45 07.12.2020
5062 Clouds 3 999 95 4136 0.89 214 04:58 07.12.2020
5063 Clouds 3 999 95 4136 0.89 214 04:58 07.12.2020
5064 Clouds 3 998 94 10000 1.81 184 01:57 07.12.2020
5065 Clouds 3 998 94 10000 1.26 190 00:30 07.12.2020
5066 Rain 3 998 94 10000 0.45 94 22:33 06.12.2020
5067 Rain 3 998 95 10000 1.36 167 21:32 06.12.2020
5068 Rain 4 998 94 10000 1.37 181 20:34 06.12.2020
5069 Rain 4 998 93 10000 1.93 193 19:57 06.12.2020
5070 Rain 4 998 92 10000 0.45 204 18:52 06.12.2020
5071 Rain 3 998 92 10000 0.29 94 17:23 06.12.2020
5072 Clouds 4 998 91 10000 0.34 27 15:53 06.12.2020
5073 Clouds 4 998 92 10000 1.03 252 13:59 06.12.2020
5074 Clouds 3 999 94 3078 1.68 221 12:52 06.12.2020
5075 Clouds 3 999 95 3199 2.01 226 12:27 06.12.2020
5076 Clouds 3 999 95 3199 0.89 217 11:40 06.12.2020
5077 Clouds 3 998 95 3189 1.79 225 11:21 06.12.2020
5078 Clouds 3 999 96 3189 1.79 225 10:31 06.12.2020
5079 Clouds 2 999 95 3253 1.2 239 08:50 06.12.2020
5080 Rain 3 998 95 10000 0.53 197 06:53 06.12.2020
5081 Rain 3 998 95 10000 1.05 239 03:50 06.12.2020
5082 Clouds 3 998 95 10000 1.33 150 00:43 06.12.2020
5083 Clouds 3 998 95 10000 0.9 93 00:25 06.12.2020
5084 Clouds 3 998 95 10000 0.9 93 23:44 05.12.2020
5085 Clouds 3 999 94 10000 0.45 209 22:23 05.12.2020
5086 Clouds 3 998 94 10000 1.38 189 21:51 05.12.2020
5087 Clouds 3 999 94 10000 0.63 142 21:27 05.12.2020
5088 Clouds 3 998 94 10000 1.18 104 19:50 05.12.2020
5089 Clouds 3 998 94 10000 0.55 95 18:45 05.12.2020
5090 Clouds 3 998 94 10000 0.91 156 17:36 05.12.2020
5091 Clouds 4 998 93 10000 0.91 156 16:43 05.12.2020
5092 Clouds 4 998 93 10000 0.45 323 16:23 05.12.2020
5093 Clouds 4 998 87 10000 1.13 18 14:30 05.12.2020
5094 Clouds 3 998 93 10000 0.57 27 12:32 05.12.2020
5095 Clouds 2 998 94 10000 0.57 27 11:49 05.12.2020
5096 Clouds 1 998 94 10000 0.33 155 10:34 05.12.2020
5097 Clouds 2 997 91 10000 0.45 108 08:27 05.12.2020
5098 Clouds 3 997 90 10000 1.96 155 07:47 05.12.2020
5099 Clouds 2 994 94 3094 2.48 191 05:30 05.12.2020
5100 Rain 3 990 94 3199 1.26 176 23:57 04.12.2020
5101 Rain 3 990 94 6968 1.19 221 23:20 04.12.2020
5102 Clouds 3 989 92 10000 1.02 186 20:39 04.12.2020
5103 Clouds 4 989 91 331 1.2 155 18:54 04.12.2020
5104 Clouds 4 989 91 208 0.91 225 18:28 04.12.2020
5105 Clouds 4 989 90 208 0.91 225 17:44 04.12.2020
5106 Clouds 4 989 90 2361 3.16 231 16:30 04.12.2020
5107 Clouds 4 989 90 2647 0.89 186 15:23 04.12.2020
5108 Clouds 4 988 84 10000 0.62 229 13:36 04.12.2020
5109 Clouds 4 987 83 8478 1.39 249 13:18 04.12.2020
5110 Rain 4 988 84 8540 0.89 227 12:22 04.12.2020
5111 Clouds 4 988 84 10000 1.39 253 10:37 04.12.2020
5112 Clouds 4 989 86 10000 1 260 09:24 04.12.2020
5113 Rain 3 988 89 10000 1.45 140 06:40 04.12.2020
5114 Snow 2 989 89 10000 2.28 123 04:53 04.12.2020
5115 Clouds 1 990 89 10000 2.31 140 01:53 04.12.2020
5116 Clouds 3 992 68 10000 2.24 254 22:51 03.12.2020
5117 Clouds 4 993 69 10000 0.89 98 21:37 03.12.2020
5118 Clouds 4 994 71 10000 0.45 46 20:46 03.12.2020
5119 Clouds 2 996 73 10000 1.79 116 19:24 03.12.2020
5120 Clouds 2 997 75 10000 2.24 111 18:48 03.12.2020
5121 Clouds 1 998 81 10000 3.32 141 17:21 03.12.2020
5122 Clouds 2 999 77 10000 0.89 173 16:43 03.12.2020
5123 Clouds 4 1000 70 10000 2.27 160 15:33 03.12.2020
5124 Clouds 4 1001 70 10000 2.39 204 14:49 03.12.2020
5125 Clouds 5 1002 72 10000 0.45 130 13:55 03.12.2020
5126 Clouds 5 1004 70 10000 0.45 186 12:54 03.12.2020
5127 Clouds 4 1005 72 10000 0.89 200 12:24 03.12.2020
5128 Clouds 3 1006 75 10000 2.81 202 11:22 03.12.2020
5129 Clouds 2 1007 91 10000 2.51 165 08:49 03.12.2020
5130 Clouds 1 1010 94 10000 1.59 186 04:44 03.12.2020
5131 Clouds 1 1012 94 10000 1.07 209 02:22 03.12.2020
5132 Clouds 1 1012 93 10000 0.99 201 00:42 03.12.2020
5133 Clouds 1 1013 92 10000 1.05 175 22:47 02.12.2020
5134 Clouds 1 1013 93 6083 0.45 329 21:58 02.12.2020
5135 Clouds 1 1013 93 5105 0.45 331 20:55 02.12.2020
5136 Clouds 1 1013 93 5105 0.45 324 20:37 02.12.2020
5137 Clouds 2 1013 93 5406 1.07 342 20:18 02.12.2020
5138 Clouds 1 1013 92 6877 0.89 327 17:56 02.12.2020
5139 Clouds 2 1013 91 6877 1.79 319 17:37 02.12.2020
5140 Clouds 2 1013 91 10000 2.68 320 17:19 02.12.2020
5141 Clouds 3 1013 83 10000 1.34 334 15:18 02.12.2020
5142 Clouds 3 1014 96 10000 0.89 340 11:52 02.12.2020
5143 Clouds 2 1015 96 10000 2.24 350 10:28 02.12.2020
5144 Clouds 2 1015 96 10000 0.89 327 08:40 02.12.2020
5145 Clouds 1 1016 95 10000 1 89 04:25 02.12.2020
5146 Clouds 2 1016 96 10000 1.11 134 22:21 01.12.2020
5147 Clouds 2 1016 96 10000 1.11 134 21:36 01.12.2020
5148 Clouds 1 1016 96 10000 1.49 162 19:35 01.12.2020
5149 Clouds 2 1016 91 97 1.19 175 17:52 01.12.2020
5150 Clouds 3 1016 90 60 0.45 243 16:36 01.12.2020
5151 Clouds 2 1016 90 82 0.89 212 13:39 01.12.2020
5152 Clouds 2 1016 90 4068 3.58 159 12:25 01.12.2020
5153 Rain 1 1016 92 212 2.24 198 11:27 01.12.2020
5154 Clouds 2 1016 92 212 2.24 231 10:39 01.12.2020
5155 Rain 1 1016 93 107 3.13 194 09:24 01.12.2020
5156 Rain 2 1016 88 1593 2.68 207 06:50 01.12.2020
5157 Rain 0 1020 89 4311 3.95 178 01:53 01.12.2020
5158 Rain 1 1021 83 7113 0.45 103 00:56 01.12.2020
5159 Clouds -1 1021 88 10000 2.67 185 23:22 30.11.2020
5160 Clouds -1 1021 88 10000 2.67 185 22:45 30.11.2020
5161 Clouds -1 1023 86 10000 0.45 102 22:25 30.11.2020
5162 Clouds -2 1023 85 10000 0.89 109 21:55 30.11.2020
5163 Clear -1 1024 86 10000 0.89 62 19:45 30.11.2020
5164 Clear -1 1025 84 10000 0.45 127 18:40 30.11.2020
5165 Clear -1 1025 84 10000 1.39 171 18:20 30.11.2020
5166 Clear 0 1024 87 10000 1.14 170 17:24 30.11.2020
5167 Clear 0 1025 82 10000 1.14 170 16:43 30.11.2020
5168 Clear 2 1024 75 10000 1.34 248 14:47 30.11.2020
5169 Clear 3 1025 76 10000 2.24 244 13:55 30.11.2020
5170 Clear 2 1025 77 10000 0.45 240 12:35 30.11.2020
5171 Clear 1 1027 87 10000 1.23 265 11:59 30.11.2020
5172 Clear -1 1027 84 10000 0.93 253 10:32 30.11.2020
5173 Clear -2 1027 84 10000 0.93 253 09:52 30.11.2020
5174 Clear -4 1026 89 10000 0.48 175 07:58 30.11.2020
5175 Clear -2 1024 89 10000 0.68 129 01:21 30.11.2020
5176 Clear -1 1024 89 10000 0.9 116 22:22 29.11.2020
5177 Clear -1 1024 90 10000 0.9 116 21:43 29.11.2020
5178 Clear -1 1024 91 10000 0.89 78 21:25 29.11.2020
5179 Clear 0 1022 96 10000 0.84 88 18:31 29.11.2020
5180 Clear 0 1022 90 10000 0.84 88 17:31 29.11.2020
5181 Clouds 3 1021 82 10000 3.58 263 13:35 29.11.2020
5182 Clouds 3 1021 82 10000 3.58 263 13:35 29.11.2020
5183 Clouds 3 1022 85 10000 2.04 346 12:43 29.11.2020
5184 Clouds 1 1022 97 10000 1.66 347 11:25 29.11.2020
5185 Clouds 0 1021 97 10000 1.09 10 08:53 29.11.2020
5186 Clouds 0 1021 97 10000 0.83 35 08:34 29.11.2020
5187 Clouds 0 1019 97 10000 0.97 65 02:31 29.11.2020
5188 Clouds 1 1018 97 10000 1.6 77 22:59 28.11.2020
5189 Clouds 0 1018 96 10000 0.89 340 22:18 28.11.2020
5190 Clear 1 1018 96 10000 1.74 85 19:58 28.11.2020
5191 Clear 1 1018 96 10000 1.57 84 19:27 28.11.2020
5192 Clear 1 1017 96 10000 1.57 94 18:56 28.11.2020
5193 Clear 1 1017 96 10000 1.38 83 18:19 28.11.2020
5194 Clear 1 1017 96 10000 0.89 331 16:57 28.11.2020
5195 Mist 3 1018 100 2600 2.1 20 14:58 28.11.2020
5196 Mist 4 1018 93 3800 3.1 360 13:47 28.11.2020
5197 Mist 3 1019 100 5000 2.1 280 11:27 28.11.2020
5198 Clear 0 1021 99 10000 0.67 64 09:26 28.11.2020
5199 Clear 1 1018 95 10000 0.55 124 03:39 28.11.2020
5200 Clear 1 1021 91 10000 0.71 121 01:53 28.11.2020
5201 Clear 1 1017 66 10000 0.82 114 23:22 27.11.2020
5202 Clear 2 1017 67 10000 0.89 108 22:33 27.11.2020
5203 Clear 3 1018 89 10000 0.81 108 20:39 27.11.2020
5204 Clear 4 1018 88 10000 0.91 108 19:34 27.11.2020
5205 Clear 4 1018 84 10000 0.93 95 18:57 27.11.2020
5206 Clear 7 1017 80 10000 0.89 69 16:51 27.11.2020
5207 Clear 8 1017 75 10000 2.24 225 14:45 27.11.2020
5208 Clouds 9 1018 68 10000 1.2 340 13:20 27.11.2020
5209 Clouds 8 1017 73 10000 1.2 340 12:47 27.11.2020
5210 Clear 5 1020 86 10000 1 0 11:34 27.11.2020
5211 Clear 6 1021 93 10000 1.5 20 10:45 27.11.2020
5212 Clouds 5 1019 74 10000 0.39 236 09:53 27.11.2020
5213 Clouds 2 1019 78 10000 0.81 155 04:32 27.11.2020
5214 Clear 3 1020 82 10000 1.02 150 22:26 26.11.2020
5215 Fog 2 1022 68 400 1 0 21:56 26.11.2020
5216 Clear 3 1020 81 10000 1.17 145 20:50 26.11.2020
5217 Clear 5 1021 86 10000 1.09 134 18:37 26.11.2020
5218 Clear 5 1020 82 10000 1.11 134 17:50 26.11.2020
5219 Clear 9 1021 68 10000 0.47 331 14:49 26.11.2020
5220 Clouds 9 1021 70 10000 1.07 314 13:20 26.11.2020
5221 Clouds 7 1020 67 10000 0.99 307 12:42 26.11.2020
5222 Fog 2 1023 57 400 0.5 0 11:36 26.11.2020
5223 Fog 1 1023 100 250 0.74 288 10:33 26.11.2020
5224 Fog 3 1023 92 250 0.32 195 09:46 26.11.2020
5225 Fog -1 1023 92 250 0.86 157 09:27 26.11.2020
5226 Fog 1 1023 100 350 0.86 157 08:38 26.11.2020
5227 Fog 2 1023 70 500 1 0 04:42 26.11.2020
5228 Fog 3 1022 100 500 0.5 280 22:42 25.11.2020
5229 Fog 3 1021 100 400 1 0 20:42 25.11.2020
5230 Fog 4 1021 100 500 1 0 19:46 25.11.2020
5231 Clouds 5 1019 72 10000 1.44 150 18:28 25.11.2020
5232 Clouds 7 1018 76 10000 1.25 155 16:43 25.11.2020
5233 Clear 7 1020 93 10000 0.5 0 15:38 25.11.2020
5234 Clear 10 1018 76 10000 1.03 276 13:57 25.11.2020
5235 Clear 11 1018 67 10000 1.03 276 13:38 25.11.2020
5236 Mist 4 1021 59 2700 1 0 11:45 25.11.2020
5237 Mist 3 1021 61 2700 1 0 11:18 25.11.2020
5238 Clear 1 1022 92 10000 0.43 176 09:18 25.11.2020
5239 Fog 1 1021 92 650 0.43 176 08:43 25.11.2020
5240 Clear 1 1019 93 10000 0.78 141 03:59 25.11.2020
5241 Clear 1 1020 96 10000 0.71 135 02:26 25.11.2020
5242 Clear 1 1021 96 10000 0.75 160 00:24 25.11.2020
5243 Clear 2 1020 92 10000 0.75 160 23:52 24.11.2020
5244 Clear 2 1021 95 10000 0.75 160 23:34 24.11.2020
5245 Clear 1 1020 92 10000 1 173 21:52 24.11.2020
5246 Clear 2 1020 91 10000 1 168 21:31 24.11.2020
5247 Clear 2 1021 95 10000 1 168 20:45 24.11.2020
5248 Clear 2 1022 94 10000 1.02 150 19:21 24.11.2020
5249 Clear 4 1021 88 10000 0.52 144 17:31 24.11.2020
5250 Clear 5 1021 85 10000 0.52 144 16:56 24.11.2020
5251 Clear 5 1021 84 10000 0.52 144 16:36 24.11.2020
5252 Clear 7 1022 80 10000 2.24 336 15:55 24.11.2020
5253 Clear 8 1022 76 10000 0.89 307 15:19 24.11.2020
5254 Clear 8 1021 78 10000 2.68 252 14:43 24.11.2020
5255 Clear 8 1022 78 10000 1.34 360 12:55 24.11.2020
5256 Clear 7 1023 81 10000 2.24 248 12:22 24.11.2020
5257 Clear 7 1023 83 10000 2.24 240 11:58 24.11.2020
5258 Clear 5 1025 85 10000 0.7 299 10:49 24.11.2020
5259 Clear 4 1025 91 10000 0.38 299 10:25 24.11.2020
5260 Clear 3 1024 90 10000 0.38 299 09:36 24.11.2020
5261 Clear 0 1025 93 10000 0.49 155 08:33 24.11.2020
5262 Clear 1 1026 91 10000 0.96 122 04:50 24.11.2020
5263 Clear 3 1028 88 10000 0.84 105 23:35 23.11.2020
5264 Clear 3 1028 84 10000 1.08 131 21:47 23.11.2020
5265 Clear 3 1028 82 10000 0.68 112 21:20 23.11.2020
5266 Clear 4 1028 79 10000 1.16 114 20:28 23.11.2020
5267 Clear 4 1028 79 10000 1.16 114 19:53 23.11.2020
5268 Clouds 5 1028 73 10000 1 89 17:29 23.11.2020
5269 Clouds 7 1029 57 10000 1.5 320 16:55 23.11.2020
5270 Clouds 8 1028 68 10000 1.34 248 14:50 23.11.2020
5271 Clouds 8 1028 66 10000 2.68 236 13:58 23.11.2020
5272 Clouds 7 1029 66 10000 1.36 326 12:41 23.11.2020
5273 Clouds 7 1030 68 10000 1.04 313 11:59 23.11.2020
5274 Clouds 6 1030 66 10000 1.04 313 11:40 23.11.2020
5275 Clouds 4 1029 80 10000 0.34 3 10:19 23.11.2020
5276 Clouds 2 1029 86 10000 0.35 341 08:59 23.11.2020
5277 Clouds 1 1029 82 10000 0.51 164 08:18 23.11.2020
5278 Clouds 2 1028 78 10000 0.45 78 06:36 23.11.2020
5279 Clouds 3 1028 80 10000 1.14 170 23:59 22.11.2020
5280 Clouds 3 1028 82 10000 0.56 194 22:40 22.11.2020
5281 Clouds 3 1028 79 10000 0.61 138 21:26 22.11.2020
5282 Clouds 3 1028 79 10000 0.61 138 20:43 22.11.2020
5283 Clouds 4 1028 78 10000 0.45 114 19:51 22.11.2020
5284 Clouds 4 1028 72 10000 0.42 115 18:40 22.11.2020
5285 Clouds 5 1027 73 10000 0.27 262 16:39 22.11.2020
5286 Clouds 7 1027 61 10000 0.89 219 15:30 22.11.2020
5287 Clouds 7 1027 64 10000 2.68 243 14:28 22.11.2020
5288 Clouds 5 1028 69 10000 2.68 259 12:49 22.11.2020
5289 Clouds 4 1029 74 10000 1.26 306 11:56 22.11.2020
5290 Clouds 4 1029 74 10000 0.85 352 11:20 22.11.2020
5291 Clear 4 1030 80 10000 2.1 170 10:38 22.11.2020
5292 Clear 1 1030 92 10000 2.1 200 08:51 22.11.2020
5293 Clear 0 1030 89 10000 0.6 178 01:47 22.11.2020
5294 Clear 0 1031 85 10000 0.92 154 23:21 21.11.2020
5295 Clear 1 1031 84 10000 0.83 126 21:57 21.11.2020
5296 Clear 1 1031 85 10000 0.45 76 21:19 21.11.2020
5297 Clear 1 1032 86 10000 1.34 52 20:33 21.11.2020
5298 Clear 1 1032 86 10000 0.25 125 19:53 21.11.2020
5299 Clear 1 1032 85 10000 0.45 56 19:26 21.11.2020
5300 Clear 2 1032 85 10000 1.48 137 17:57 21.11.2020
5301 Clear 3 1032 83 10000 0.8 125 16:48 21.11.2020
5302 Clear 3 1032 83 10000 0.8 125 16:48 21.11.2020
5303 Clear 4 1031 81 10000 2.24 248 15:52 21.11.2020
5304 Clouds 5 1032 77 10000 0.98 252 15:22 21.11.2020
5305 Clouds 5 1032 77 10000 0.98 252 14:43 21.11.2020
5306 Clouds 5 1032 83 10000 0.45 241 13:58 21.11.2020
5307 Clouds 4 1034 84 10000 1.16 286 12:27 21.11.2020
5308 Clouds 3 1031 66 10000 1.16 286 11:58 21.11.2020
5309 Clouds 1 1032 78 10000 0.67 249 10:40 21.11.2020
5310 Clouds -1 1032 82 10000 0.18 134 09:58 21.11.2020
5311 Clear -1 1032 89 10000 0.45 355 08:51 21.11.2020
5312 Clear -2 1033 90 10000 1.25 117 06:34 21.11.2020
5313 Clear -1 1035 88 10000 1.41 109 04:33 21.11.2020
5314 Clear 0 1035 82 10000 2.24 82 00:45 21.11.2020
5315 Clear 1 1035 84 10000 1.79 38 23:44 20.11.2020
5316 Clear 1 1034 84 10000 1.34 32 22:25 20.11.2020
5317 Clear 1 1035 85 10000 0.89 25 21:41 20.11.2020
5318 Clear 1 1035 85 10000 0.89 25 21:41 20.11.2020
5319 Clear 1 1035 84 10000 0.45 357 21:20 20.11.2020
5320 Clear 2 1034 91 10000 1.61 97 19:44 20.11.2020
5321 Clouds 4 1033 87 10000 1.56 91 18:37 20.11.2020
5322 Clouds 4 1033 87 10000 1.83 60 17:52 20.11.2020
5323 Clouds 5 1033 86 10000 2.16 26 17:24 20.11.2020
5324 Clouds 5 1033 84 10000 2.16 26 16:38 20.11.2020
5325 Clouds 6 1033 77 10000 2.22 11 15:57 20.11.2020
5326 Clouds 7 1032 69 10000 2.69 12 15:25 20.11.2020
5327 Clouds 7 1033 65 10000 1.34 357 13:45 20.11.2020
5328 Clouds 8 1033 76 10000 0.89 340 13:18 20.11.2020
5329 Clouds 7 1033 79 10000 1.34 325 12:35 20.11.2020
5330 Clouds 6 1033 85 10000 0.45 335 11:45 20.11.2020
5331 Clouds 6 1033 92 10000 2.14 19 10:55 20.11.2020
5332 Clouds 4 1033 93 4171 1.78 38 08:54 20.11.2020
5333 Clouds 4 1032 94 3684 0.45 308 08:25 20.11.2020
5334 Clouds 5 1032 94 3684 1.79 11 07:32 20.11.2020
5335 Clouds 5 1030 92 4533 1.26 280 03:44 20.11.2020
5336 Clouds 6 1029 85 10000 0.45 163 22:42 19.11.2020
5337 Rain 8 1029 82 10000 1.79 192 21:57 19.11.2020
5338 Rain 7 1029 80 10000 2.24 219 21:38 19.11.2020
5339 Clouds 7 1029 81 10000 2.24 182 20:33 19.11.2020
5340 Clouds 7 1029 84 10000 3.06 255 19:53 19.11.2020
5341 Rain 8 1028 84 10000 1.34 174 19:24 19.11.2020
5342 Clouds 9 1027 71 10000 2.24 183 17:40 19.11.2020
5343 Rain 8 1027 70 10000 2.68 265 16:58 19.11.2020
5344 Clouds 9 1025 62 10000 0.89 233 15:41 19.11.2020
5345 Clouds 10 1025 60 10000 2.68 256 15:23 19.11.2020
5346 Clouds 9 1025 72 10000 2.24 267 13:46 19.11.2020
5347 Clouds 9 1025 74 10000 2.68 316 13:20 19.11.2020
5348 Clouds 9 1025 81 10000 1.79 326 12:44 19.11.2020
5349 Rain 9 1025 87 10000 0.89 163 12:24 19.11.2020
5350 Clouds 9 1024 87 10000 2.11 343 11:39 19.11.2020
5351 Clouds 11 1024 87 4263 2.24 344 10:54 19.11.2020
5352 Rain 12 1023 92 10000 1.34 204 10:27 19.11.2020
5353 Clouds 11 1022 89 10000 1.79 214 09:44 19.11.2020
5354 Rain 11 1021 87 8131 1.79 173 09:25 19.11.2020
5355 Rain 12 1021 80 10000 1.34 194 08:20 19.11.2020
5356 Clouds 13 1022 67 10000 5.36 196 06:49 19.11.2020
5357 Clear 7 1023 93 10000 1 0 01:46 19.11.2020
5358 Clouds 11 1026 64 10000 2.24 135 00:29 19.11.2020
5359 Clouds 10 1022 64 10000 1.79 137 23:25 18.11.2020
5360 Clouds 8 1024 64 10000 3.03 186 22:40 18.11.2020
5361 Clouds 8 1023 82 10000 1.34 34 22:21 18.11.2020
5362 Clouds 9 1024 69 10000 0.45 326 21:40 18.11.2020
5363 Clouds 9 1025 70 10000 2.5 178 21:20 18.11.2020
5364 Clear 9 1023 70 10000 2.35 174 19:49 18.11.2020
5365 Clear 9 1022 67 10000 2.01 170 19:28 18.11.2020
5366 Clear 10 1022 68 10000 2.01 170 18:57 18.11.2020
5367 Clear 10 1022 68 10000 1.99 172 18:38 18.11.2020
5368 Clear 10 1025 62 10000 1.81 163 17:37 18.11.2020
5369 Clear 12 1024 74 10000 0.93 196 16:25 18.11.2020
5370 Clear 14 1024 70 10000 0.45 174 15:57 18.11.2020
5371 Clear 14 1025 70 10000 0.89 77 14:41 18.11.2020
5372 Clear 14 1023 61 10000 1.28 252 13:46 18.11.2020
5373 Clear 14 1024 60 10000 1.48 261 13:21 18.11.2020
5374 Clear 12 1024 65 10000 1.48 261 12:42 18.11.2020
5375 Clear 11 1025 71 10000 1.32 262 11:41 18.11.2020
5376 Clear 9 1026 78 10000 0.92 251 10:54 18.11.2020
5377 Clear 7 1026 81 10000 0.78 235 10:27 18.11.2020
5378 Clear 4 1027 93 10000 1.04 173 08:23 18.11.2020
5379 Clear 5 1027 92 10000 1.09 159 06:37 18.11.2020
5380 Clouds 6 1026 83 10000 0.89 40 01:49 18.11.2020
5381 Clouds 6 1027 85 10000 0.45 49 23:53 17.11.2020
5382 Clouds 6 1027 83 10000 0.78 129 23:21 17.11.2020
5383 Clouds 6 1027 84 10000 0.89 77 22:29 17.11.2020
5384 Clouds 6 1027 84 10000 0.89 77 22:29 17.11.2020
5385 Clouds 6 1027 83 10000 0.89 89 21:58 17.11.2020
5386 Clouds 6 1027 83 10000 0.45 82 21:39 17.11.2020
5387 Clouds 7 1027 83 10000 1.34 102 20:58 17.11.2020
5388 Clouds 7 1027 82 10000 0.89 40 20:40 17.11.2020
5389 Clouds 7 1027 82 10000 1.79 94 20:22 17.11.2020
5390 Clouds 8 1028 80 10000 1.03 133 18:36 17.11.2020
5391 Clouds 8 1028 77 10000 0.93 134 17:47 17.11.2020
5392 Clear 10 1029 62 10000 2.6 160 16:59 17.11.2020
5393 Clouds 10 1030 69 10000 0.64 227 16:29 17.11.2020
5394 Clear 12 1028 58 10000 3.1 150 15:45 17.11.2020
5395 Clouds 12 1026 65 10000 1.15 254 15:27 17.11.2020
5396 Clouds 12 1029 63 10000 2.68 227 14:57 17.11.2020
5397 Clouds 12 1027 65 10000 1.53 236 14:28 17.11.2020
5398 Clouds 12 1027 66 10000 1.53 236 13:41 17.11.2020
5399 Clouds 12 1028 58 10000 1.79 185 13:19 17.11.2020
5400 Clouds 12 1028 63 10000 0.89 209 12:40 17.11.2020
5401 Clouds 12 1029 67 10000 0.45 202 11:44 17.11.2020
5402 Clouds 10 1028 78 10000 1.8 228 10:50 17.11.2020
5403 Clouds 9 1028 82 10000 1.33 193 10:29 17.11.2020
5404 Clouds 8 1028 78 10000 1.33 193 09:51 17.11.2020
5405 Clouds 7 1028 88 10000 1.4 167 09:29 17.11.2020
5406 Clouds 7 1027 93 10000 1.35 172 08:24 17.11.2020
5407 Clouds 7 1026 93 10000 1.35 172 07:46 17.11.2020
5408 Clouds 7 1026 93 10000 1.59 174 06:54 17.11.2020
5409 Clouds 7 1025 86 10000 1.91 177 04:20 17.11.2020
5410 Clouds 7 1025 81 10000 2.14 177 02:54 17.11.2020
5411 Clouds 8 1026 82 10000 1.79 196 01:26 17.11.2020
5412 Clouds 9 1025 82 10000 0.45 195 00:56 17.11.2020
5413 Clouds 10 1025 82 10000 2.24 194 23:50 16.11.2020
5414 Clouds 10 1025 82 10000 1.79 217 23:29 16.11.2020
5415 Clouds 10 1025 82 10000 1.79 213 22:48 16.11.2020
5416 Clouds 9 1025 82 10000 1.79 205 22:21 16.11.2020
5417 Clouds 10 1024 81 10000 1.79 206 21:48 16.11.2020
5418 Clouds 10 1025 81 10000 1.79 186 21:25 16.11.2020
5419 Clouds 10 1024 81 10000 3.13 198 20:54 16.11.2020
5420 Clouds 10 1024 81 10000 3.13 203 20:25 16.11.2020
5421 Clouds 9 1023 79 10000 1.79 187 19:39 16.11.2020
5422 Clouds 10 1023 79 10000 2.24 182 19:21 16.11.2020
5423 Clouds 10 1023 80 10000 1.79 221 18:42 16.11.2020
5424 Clouds 10 1022 78 10000 3.13 244 17:53 16.11.2020
5425 Rain 10 1022 77 10000 2.24 213 17:25 16.11.2020
5426 Clouds 10 1021 76 10000 3.58 183 16:57 16.11.2020
5427 Clouds 11 1021 74 10000 4.02 200 16:38 16.11.2020
5428 Clouds 11 1020 70 10000 2.68 193 16:18 16.11.2020
5429 Clouds 11 1019 76 10000 0.89 241 15:41 16.11.2020
5430 Rain 12 1020 73 10000 0.89 161 15:21 16.11.2020
5431 Clouds 12 1019 71 10000 1.79 360 14:39 16.11.2020
5432 Clouds 12 1019 73 10000 2.24 128 13:34 16.11.2020
5433 Clouds 12 1019 75 10000 2.24 202 12:34 16.11.2020
5434 Clouds 11 1019 75 10000 4.47 163 11:55 16.11.2020
5435 Clouds 11 1019 75 10000 3.13 209 11:37 16.11.2020
5436 Clouds 11 1019 75 10000 3.13 209 11:18 16.11.2020
5437 Clouds 11 1018 76 10000 3.58 175 10:40 16.11.2020
5438 Clouds 11 1018 76 10000 3.58 196 10:22 16.11.2020
5439 Clouds 10 1018 74 10000 3.13 200 09:41 16.11.2020
5440 Clouds 10 1017 76 10000 4.47 171 08:59 16.11.2020
5441 Clouds 10 1017 76 10000 4.47 171 08:38 16.11.2020
5442 Clouds 9 1015 77 10000 1.34 299 07:44 16.11.2020
5443 Clouds 9 1014 77 10000 1.79 360 06:47 16.11.2020
5444 Clouds 9 1017 77 10000 1.34 150 05:55 16.11.2020
5445 Clouds 9 1015 71 10000 1.79 186 04:37 16.11.2020
5446 Rain 11 1012 82 9125 2.24 224 01:57 16.11.2020
5447 Rain 11 1011 88 9125 0.89 360 01:39 16.11.2020
5448 Clouds 12 1010 67 10000 5.1 200 23:53 15.11.2020
5449 Rain 13 1010 77 10000 5.7 200 23:22 15.11.2020
5450 Clouds 14 1009 72 10000 7.7 190 22:48 15.11.2020
5451 Rain 12 1012 91 10000 2.24 119 22:21 15.11.2020
5452 Clouds 14 1009 75 10000 3.58 186 21:45 15.11.2020
5453 Rain 14 1009 80 10000 3.13 153 21:24 15.11.2020
5454 Rain 14 1010 80 10000 1.34 176 20:44 15.11.2020
5455 Rain 14 1010 73 10000 2.24 205 20:21 15.11.2020
5456 Rain 13 1010 72 7000 6.2 230 19:48 15.11.2020
5457 Clouds 14 1009 52 10000 3.6 210 19:22 15.11.2020
5458 Clear 15 1009 55 10000 2.6 170 18:58 15.11.2020
5459 Clear 16 1009 59 10000 3.1 180 18:40 15.11.2020
5460 Clear 16 1009 59 10000 3.1 180 18:20 15.11.2020
5461 Clear 16 1009 51 10000 5.1 180 17:46 15.11.2020
5462 Clear 16 1009 51 10000 5.1 180 17:24 15.11.2020
5463 Clear 17 1009 51 10000 3.1 170 16:50 15.11.2020
5464 Clear 17 1010 48 10000 4.1 160 16:21 15.11.2020
5465 Clear 17 1010 48 10000 4.1 160 15:56 15.11.2020
5466 Clear 17 1010 48 10000 4.1 160 15:37 15.11.2020
5467 Clear 17 1010 48 10000 4.1 160 15:19 15.11.2020
5468 Clear 17 1011 48 10000 6.7 180 14:35 15.11.2020
5469 Clouds 18 1009 52 10000 0.45 111 13:57 15.11.2020
5470 Clouds 18 1009 56 10000 3.42 182 13:37 15.11.2020
5471 Clouds 18 1011 48 10000 3.8 200 12:52 15.11.2020
5472 Clouds 17 1014 49 10000 2.68 227 12:26 15.11.2020
5473 Clouds 18 1012 56 10000 0.89 209 11:55 15.11.2020
5474 Clouds 17 1012 57 10000 0.45 200 11:37 15.11.2020
5475 Clouds 14 1012 58 10000 2.6 206 11:18 15.11.2020
5476 Clouds 13 1013 64 10000 2.6 206 10:43 15.11.2020
5477 Clouds 13 1013 66 10000 1.71 193 10:24 15.11.2020
5478 Clouds 11 1014 72 10000 1.71 193 09:41 15.11.2020
5479 Clouds 12 1014 74 10000 1.85 165 09:20 15.11.2020
5480 Clouds 10 1015 79 10000 1.85 165 08:53 15.11.2020
5481 Clouds 10 1015 80 10000 0.89 46 08:30 15.11.2020
5482 Clouds 10 1015 80 10000 0.89 69 07:43 15.11.2020
5483 Clouds 9 1015 80 10000 1.85 174 05:18 15.11.2020
5484 Clouds 9 1015 78 10000 1.85 174 04:49 15.11.2020
5485 Clear 10 1017 71 10000 1.85 163 00:49 15.11.2020
5486 Clear 10 1017 74 10000 2.16 157 00:29 15.11.2020
5487 Clear 9 1017 73 10000 0.89 106 23:39 14.11.2020
5488 Clear 8 1017 77 10000 0.89 78 22:50 14.11.2020
5489 Clear 8 1017 77 10000 2.01 161 22:31 14.11.2020
5490 Clear 9 1016 76 10000 1.7 168 21:44 14.11.2020
5491 Clear 9 1016 75 10000 1.62 159 21:23 14.11.2020
5492 Clear 9 1016 74 10000 1.62 159 20:59 14.11.2020
5493 Clear 10 1016 74 10000 1.73 152 20:30 14.11.2020
5494 Clear 10 1016 74 10000 1.73 152 20:30 14.11.2020
5495 Clear 10 1016 74 10000 1.73 152 20:30 14.11.2020
5496 Clear 7 1019 84 10000 1.73 152 19:58 14.11.2020
5497 Clear 7 1019 84 10000 1.73 152 19:36 14.11.2020
5498 Clouds 8 1019 83 10000 1.91 143 18:55 14.11.2020
5499 Clouds 8 1019 82 10000 1.74 144 18:36 14.11.2020
5500 Clouds 11 1017 68 10000 1.48 149 18:18 14.11.2020
5501 Clear 11 1017 71 10000 1 0 17:42 14.11.2020
5502 Clear 11 1017 71 10000 1 0 17:23 14.11.2020
5503 Clear 13 1018 59 10000 0.5 0 16:46 14.11.2020
5504 Clouds 12 1019 77 10000 0.46 175 16:26 14.11.2020
5505 Clear 13 1018 59 10000 1 360 15:53 14.11.2020
5506 Clear 14 1018 55 10000 1 0 15:30 14.11.2020
5507 Clear 17 1018 52 10000 0.5 0 14:50 14.11.2020
5508 Clear 17 1018 59 10000 0.5 0 14:28 14.11.2020
5509 Clear 17 1019 55 10000 1 0 13:49 14.11.2020
5510 Clear 17 1019 55 10000 0.5 0 13:27 14.11.2020
5511 Clouds 15 1020 61 10000 0.45 180 12:49 14.11.2020
5512 Clouds 15 1020 61 10000 0.45 180 12:49 14.11.2020
5513 Clouds 17 1018 53 10000 2.68 201 12:30 14.11.2020
5514 Clouds 17 1018 55 10000 1.34 163 11:54 14.11.2020
5515 Clouds 17 1019 54 10000 2.68 208 11:36 14.11.2020
5516 Clouds 15 1019 59 10000 1.29 237 10:51 14.11.2020
5517 Clouds 14 1019 61 10000 1.04 198 10:27 14.11.2020
5518 Clouds 13 1019 66 10000 1.04 198 09:58 14.11.2020
5519 Clouds 13 1019 68 10000 1.04 198 09:40 14.11.2020
5520 Clouds 11 1019 71 10000 1.51 166 09:22 14.11.2020
5521 Clouds 9 1019 77 10000 1.51 166 08:40 14.11.2020
5522 Clouds 9 1019 78 10000 1.67 155 08:20 14.11.2020
5523 Clouds 8 1019 78 10000 1.67 155 07:41 14.11.2020
5524 Clouds 9 1019 76 10000 1.67 160 06:43 14.11.2020
5525 Clouds 9 1019 76 10000 1.72 164 06:20 14.11.2020
5526 Clouds 10 1019 73 10000 2.09 162 04:45 14.11.2020
5527 Clouds 11 1020 76 10000 1.7 179 01:48 14.11.2020
5528 Clouds 11 1020 73 10000 2.1 173 00:25 14.11.2020
5529 Clouds 12 1020 74 10000 2.12 173 23:33 13.11.2020
5530 Rain 11 1020 74 10000 2.12 173 22:58 13.11.2020
5531 Rain 11 1020 73 10000 2.12 173 22:40 13.11.2020
5532 Clouds 12 1020 72 10000 2.26 165 22:21 13.11.2020
5533 Clouds 13 1019 72 10000 2.26 165 21:49 13.11.2020
5534 Clouds 13 1019 72 10000 2.06 177 21:25 13.11.2020
5535 Rain 13 1019 70 10000 2.06 177 20:51 13.11.2020
5536 Clouds 13 1019 70 10000 2.06 177 20:32 13.11.2020
5537 Clouds 14 1019 70 10000 1.98 173 19:56 13.11.2020
5538 Clouds 13 1020 71 10000 1.98 173 19:37 13.11.2020
5539 Clouds 14 1020 70 10000 2.04 162 19:19 13.11.2020
5540 Clouds 14 1020 68 10000 1.83 159 18:32 13.11.2020
5541 Clear 13 1019 59 10000 3.6 170 17:47 13.11.2020
5542 Clear 13 1020 59 10000 4.6 180 17:23 13.11.2020
5543 Clear 15 1019 59 10000 4.6 190 16:57 13.11.2020
5544 Clear 16 1019 63 10000 4.6 190 16:39 13.11.2020
5545 Clear 12 1019 63 10000 4.6 190 16:20 13.11.2020
5546 Clear 16 1019 63 10000 4.6 180 15:39 13.11.2020
5547 Clear 16 1019 63 10000 4.6 180 15:39 13.11.2020
5548 Clear 16 1019 63 10000 4.6 180 15:39 13.11.2020
5549 Clear 14 1019 63 10000 4.6 180 15:21 13.11.2020
5550 Clear 16 1019 59 10000 5.7 180 14:38 13.11.2020
5551 Clear 17 1020 59 10000 6.7 180 14:18 13.11.2020
5552 Clouds 16 1019 61 10000 0.89 167 13:32 13.11.2020
5553 Clouds 15 1019 70 10000 0.45 147 12:59 13.11.2020
5554 Clouds 14 1019 76 10000 3.54 224 12:41 13.11.2020
5555 Clouds 13 1021 68 10000 0.45 203 12:23 13.11.2020
5556 Clouds 13 1019 76 10000 3.23 225 11:47 13.11.2020
5557 Clouds 12 1020 85 10000 2.84 219 11:23 13.11.2020
5558 Clouds 11 1020 96 10000 2.84 219 10:52 13.11.2020
5559 Clouds 9 1022 86 10000 0.45 150 10:33 13.11.2020
5560 Clouds 10 1022 96 10000 1.98 202 09:53 13.11.2020
5561 Clouds 8 1020 97 10000 1.74 175 09:32 13.11.2020
5562 Clouds 7 1023 91 10000 1.74 175 08:54 13.11.2020
5563 Clear 7 1020 94 10000 1.67 161 08:30 13.11.2020
5564 Clear 6 1022 97 10000 0.45 157 07:55 13.11.2020
5565 Clear 6 1024 90 10000 1.67 161 07:36 13.11.2020
5566 Clouds 6 1020 93 10000 1.55 167 07:18 13.11.2020
5567 Clouds 7 1022 97 10000 1.64 170 06:37 13.11.2020
5568 Clouds 6 1020 89 10000 0.45 203 05:42 13.11.2020
5569 Clouds 6 1019 91 10000 0.45 82 04:39 13.11.2020
5570 Clear 7 1020 88 10000 1.56 163 01:43 13.11.2020
5571 Clouds 7 1020 84 10000 0.45 136 00:37 13.11.2020
5572 Clouds 7 1020 84 10000 0.89 24 23:59 12.11.2020
5573 Clouds 7 1020 84 10000 0.89 86 23:36 12.11.2020
5574 Clouds 8 1020 85 10000 0.89 88 23:18 12.11.2020
5575 Clouds 8 1020 84 10000 0.89 46 22:42 12.11.2020
5576 Clouds 8 1021 84 10000 1.42 161 22:22 12.11.2020
5577 Clouds 9 1020 84 10000 1.42 161 21:42 12.11.2020
5578 Clouds 10 1020 84 10000 1.77 162 21:24 12.11.2020
5579 Clouds 11 1020 82 10000 1.77 162 20:58 12.11.2020
5580 Clouds 11 1020 82 10000 1.77 162 20:39 12.11.2020
5581 Clouds 11 1021 81 10000 2.25 162 20:19 12.11.2020
5582 Clear 10 1022 87 10000 1.5 280 19:44 12.11.2020
5583 Clear 10 1022 87 10000 1.5 280 19:26 12.11.2020
5584 Clear 11 1022 87 10000 1 0 18:48 12.11.2020
5585 Clear 10 1022 87 10000 0.5 0 18:23 12.11.2020
5586 Clear 12 1022 76 10000 2.6 200 17:45 12.11.2020
5587 Clear 12 1022 76 10000 2.6 200 17:26 12.11.2020
5588 Clouds 12 1022 71 10000 2.6 230 16:47 12.11.2020
5589 Clouds 14 1020 75 10000 2.82 194 16:26 12.11.2020
5590 Clouds 13 1020 76 10000 0.45 238 15:59 12.11.2020
5591 Clouds 13 1020 78 10000 0.45 360 15:40 12.11.2020
5592 Clouds 14 1021 75 10000 1.34 186 15:20 12.11.2020
5593 Clouds 13 1021 76 10000 0.45 231 14:46 12.11.2020
5594 Clouds 14 1021 76 10000 2.68 219 14:25 12.11.2020
5595 Clouds 14 1020 71 10000 2.24 164 13:55 12.11.2020
5596 Clouds 14 1021 71 10000 3.13 173 13:36 12.11.2020
5597 Clouds 14 1021 71 10000 3.13 173 13:18 12.11.2020
5598 Clouds 14 1021 70 10000 3.13 184 12:42 12.11.2020
5599 Clouds 13 1021 69 10000 3.13 177 12:19 12.11.2020
5600 Clouds 13 1021 68 10000 4.02 185 11:46 12.11.2020
5601 Clouds 14 1021 69 10000 3.58 214 11:27 12.11.2020
5602 Clouds 12 1021 75 10000 1.34 147 10:41 12.11.2020
5603 Clouds 12 1021 75 10000 1.34 147 10:23 12.11.2020
5604 Clouds 11 1021 72 10000 2.68 227 09:47 12.11.2020
5605 Clouds 11 1021 75 10000 1.79 169 09:23 12.11.2020
5606 Clouds 9 1021 77 10000 1.34 224 08:57 12.11.2020
5607 Clouds 8 1021 84 10000 1.34 293 08:39 12.11.2020
5608 Clouds 8 1021 84 10000 2.64 181 08:19 12.11.2020
5609 Clouds 8 1020 93 10000 2.64 181 07:42 12.11.2020
5610 Clouds 8 1020 95 10000 0.45 237 07:22 12.11.2020
5611 Clouds 7 1020 95 10000 2.44 176 06:49 12.11.2020
5612 Clouds 7 1020 95 10000 2.38 178 06:49 12.11.2020
5613 Clouds 7 1020 94 10000 0.89 192 05:31 12.11.2020
5614 Clouds 7 1020 94 10000 1.58 171 03:22 12.11.2020
5615 Clouds 7 1020 97 10000 1.42 167 02:24 12.11.2020
5616 Clear 7 1021 95 10000 1.53 156 23:59 11.11.2020
5617 Clear 8 1021 95 10000 1.53 154 23:25 11.11.2020
5618 Clear 8 1021 95 10000 1.53 154 22:59 11.11.2020
5619 Clear 8 1021 95 10000 1.53 154 22:39 11.11.2020
5620 Clear 8 1021 95 10000 1.36 140 22:21 11.11.2020
5621 Clear 8 1022 95 10000 1.36 140 21:54 11.11.2020
5622 Clear 8 1022 95 10000 1.36 140 21:36 11.11.2020
5623 Clear 8 1022 95 10000 1.1 139 21:18 11.11.2020
5624 Clear 7 1021 96 10000 1.1 139 20:41 11.11.2020
5625 Clear 8 1022 94 10000 1.12 131 20:21 11.11.2020
5626 Clear 8 1022 94 10000 1.12 131 19:49 11.11.2020
5627 Clear 8 1022 94 10000 1.07 129 19:31 11.11.2020
5628 Clear 9 1022 94 10000 1.07 129 18:55 11.11.2020
5629 Clear 9 1022 94 10000 1.09 132 18:36 11.11.2020
5630 Clear 9 1022 93 10000 1.14 124 17:45 11.11.2020
5631 Clear 9 1022 93 10000 0.68 96 17:24 11.11.2020
5632 Clear 9 1022 92 10000 0.68 96 16:57 11.11.2020
5633 Clear 9 1022 93 10000 0.68 96 16:37 11.11.2020
5634 Clear 9 1022 93 10000 0.55 323 16:19 11.11.2020
5635 Clear 10 1022 93 10000 0.55 323 15:39 11.11.2020
5636 Clear 11 1022 82 10000 0.86 318 15:21 11.11.2020
5637 Clear 12 1022 80 10000 0.86 318 14:43 11.11.2020
5638 Clear 12 1022 77 10000 0.9 338 14:23 11.11.2020
5639 Clouds 11 1025 93 8000 1 0 13:48 11.11.2020
5640 Clear 12 1023 70 10000 1.05 321 12:59 11.11.2020
5641 Clear 11 1025 90 10000 0.89 271 12:21 11.11.2020
5642 Clear 11 1024 82 10000 0.89 304 11:51 11.11.2020
5643 Clear 10 1025 96 10000 1.34 23 11:33 11.11.2020
5644 Clear 9 1025 97 10000 1 288 10:46 11.11.2020
5645 Clear 8 1025 97 10000 0.61 293 10:28 11.11.2020
5646 Clear 8 1026 97 10000 0.61 293 09:59 11.11.2020
5647 Clear 8 1026 97 10000 0.61 293 09:39 11.11.2020
5648 Clear 8 1026 97 10000 0.31 159 09:21 11.11.2020
5649 Clear 8 1025 97 10000 0.31 159 08:43 11.11.2020
5650 Clear 8 1025 97 10000 0.49 134 08:24 11.11.2020
5651 Clear 7 1026 97 10000 0.49 134 07:44 11.11.2020
5652 Clear 7 1025 97 10000 0.43 130 06:32 11.11.2020
5653 Clear 8 1026 97 10000 0.48 131 05:45 11.11.2020
5654 Clear 8 1026 97 10000 0.57 168 01:59 11.11.2020
5655 Clouds 8 1026 97 10000 0.56 157 00:58 11.11.2020
5656 Clouds 8 1027 97 10000 0.77 164 00:25 11.11.2020
5657 Clouds 8 1027 96 10000 0.77 164 23:42 10.11.2020
5658 Clouds 8 1027 96 10000 0.78 171 23:23 10.11.2020
5659 Clouds 8 1027 96 10000 0.78 171 22:50 10.11.2020
5660 Clouds 7 1027 96 10000 0.68 160 22:26 10.11.2020
5661 Clouds 7 1027 96 10000 0.68 160 22:26 10.11.2020
5662 Clouds 8 1027 96 10000 0.68 160 21:42 10.11.2020
5663 Clouds 8 1027 96 10000 0.45 153 21:24 10.11.2020
5664 Clouds 8 1026 96 10000 0.45 153 20:58 10.11.2020
5665 Clouds 8 1026 96 10000 0.45 153 20:40 10.11.2020
5666 Clouds 8 1026 96 10000 0.44 140 20:22 10.11.2020
5667 Clouds 8 1026 96 10000 0.44 140 19:46 10.11.2020
5668 Clouds 8 1026 95 10000 0.65 123 19:25 10.11.2020
5669 Clouds 8 1026 95 10000 0.61 110 18:57 10.11.2020
5670 Clouds 8 1026 95 10000 0.61 110 18:38 10.11.2020
5671 Clouds 9 1026 95 10000 0.79 112 18:18 10.11.2020
5672 Clouds 9 1026 95 10000 0.79 112 18:18 10.11.2020
5673 Clouds 9 1025 95 10000 0.79 112 17:42 10.11.2020
5674 Clouds 10 1024 90 10000 0.78 88 17:24 10.11.2020
5675 Clouds 11 1024 88 10000 0.78 88 16:43 10.11.2020
5676 Clouds 11 1024 88 10000 0.43 11 16:24 10.11.2020
5677 Clouds 12 1024 86 10000 0.43 11 15:56 10.11.2020
5678 Clouds 12 1024 85 10000 0.45 242 15:37 10.11.2020
5679 Clouds 14 1024 83 10000 1.34 238 15:19 10.11.2020
5680 Clouds 13 1023 85 10000 1.79 241 14:41 10.11.2020
5681 Clouds 13 1024 85 10000 0.91 318 14:21 10.11.2020
5682 Clouds 13 1024 82 10000 1.34 227 13:41 10.11.2020
5683 Clouds 12 1025 89 10000 1.14 307 13:23 10.11.2020
5684 Clouds 13 1025 89 10000 1.14 307 12:58 10.11.2020
5685 Clouds 12 1025 90 10000 1.32 311 12:39 10.11.2020
5686 Clouds 12 1025 86 10000 0.45 130 12:20 10.11.2020
5687 Fog 10 1026 93 350 1 0 11:39 10.11.2020
5688 Fog 10 1026 93 350 1 0 11:19 10.11.2020
5689 Fog 10 1026 93 400 0.5 0 10:43 10.11.2020
5690 Clouds 10 1025 94 10000 0.64 307 10:24 10.11.2020
5691 Fog 9 1026 100 250 1 20 09:51 10.11.2020
5692 Clouds 8 1025 93 10000 0.14 213 09:27 10.11.2020
5693 Clouds 7 1026 97 10000 0.45 241 08:59 10.11.2020
5694 Clouds 7 1025 90 10000 0.14 213 08:38 10.11.2020
5695 Clouds 7 1025 95 10000 0.49 139 08:18 10.11.2020
5696 Clouds 6 1024 94 10000 0.49 139 07:38 10.11.2020
5697 Clouds 7 1024 92 10000 0.37 142 07:18 10.11.2020
5698 Clouds 6 1025 89 10000 0.35 134 06:38 10.11.2020
5699 Clouds 6 1025 89 10000 0.59 140 05:29 10.11.2020
5700 Clouds 7 1023 92 10000 0.73 153 03:36 10.11.2020
5701 Clouds 7 1023 91 10000 0.86 165 01:41 10.11.2020
5702 Clouds 8 1023 90 10000 0.91 157 00:52 10.11.2020
5703 Clear 8 1023 89 10000 0.81 136 23:46 09.11.2020
5704 Clear 8 1023 88 10000 0.73 137 23:23 09.11.2020
5705 Clear 8 1023 88 10000 0.73 137 22:42 09.11.2020
5706 Clear 8 1023 87 10000 0.92 120 22:22 09.11.2020
5707 Clear 9 1023 84 10000 0.92 120 21:44 09.11.2020
5708 Clear 9 1023 84 10000 1.04 120 21:26 09.11.2020
5709 Clear 9 1023 84 10000 1.04 120 20:42 09.11.2020
5710 Clear 10 1022 83 10000 0.96 120 20:22 09.11.2020
5711 Clear 10 1022 82 10000 0.96 120 19:49 09.11.2020
5712 Clear 10 1022 82 10000 0.96 120 19:49 09.11.2020
5713 Clear 10 1025 85 10000 1.07 120 19:24 09.11.2020
5714 Clear 11 1025 84 10000 1.07 120 18:59 09.11.2020
5715 Clear 12 1023 81 10000 1.07 114 18:40 09.11.2020
5716 Clear 12 1023 80 10000 1.02 106 18:19 09.11.2020
5717 Clear 10 1023 87 10000 1.02 106 17:44 09.11.2020
5718 Clear 11 1023 85 10000 0.71 75 17:26 09.11.2020
5719 Clear 14 1023 67 10000 0.5 0 16:44 09.11.2020
5720 Clear 14 1022 70 10000 0.7 348 16:24 09.11.2020
5721 Clear 15 1023 67 10000 1 0 15:48 09.11.2020
5722 Clear 17 1021 67 10000 1 344 15:29 09.11.2020
5723 Clear 16 1021 68 10000 0.89 244 14:56 09.11.2020
5724 Clear 17 1021 67 10000 1.34 360 14:37 09.11.2020
5725 Clear 17 1021 66 10000 1.34 257 14:19 09.11.2020
5726 Clear 16 1021 71 10000 0.45 246 13:42 09.11.2020
5727 Clear 16 1021 69 10000 2.24 229 13:19 09.11.2020
5728 Clear 15 1021 71 10000 1.79 256 12:45 09.11.2020
5729 Clear 15 1021 73 10000 1.79 247 12:21 09.11.2020
5730 Clear 14 1022 76 10000 1.79 231 11:43 09.11.2020
5731 Clear 13 1022 77 10000 2.24 241 11:24 09.11.2020
5732 Clear 13 1022 82 10000 3.13 360 10:59 09.11.2020
5733 Clear 13 1023 77 10000 0.87 310 10:41 09.11.2020
5734 Clear 12 1022 83 10000 0.48 310 10:22 09.11.2020
5735 Clear 11 1023 92 10000 0.48 310 09:40 09.11.2020
5736 Clear 9 1023 94 10000 0.34 189 09:21 09.11.2020
5737 Clear 8 1023 94 10000 0.91 164 08:29 09.11.2020
5738 Clear 8 1023 94 10000 0.91 164 07:57 09.11.2020
5739 Clouds 8 1022 93 10000 0.98 165 07:24 09.11.2020
5740 Clouds 8 1022 93 10000 1.23 163 06:58 09.11.2020
5741 Clouds 8 1022 92 10000 0.94 158 05:54 09.11.2020
5742 Clouds 9 1023 91 10000 0.39 129 02:57 09.11.2020
5743 Clouds 9 1023 90 10000 0.57 137 01:42 09.11.2020
5744 Clouds 9 1023 90 10000 0.94 140 00:57 09.11.2020
5745 Clouds 8 1023 90 10000 0.54 170 23:50 08.11.2020
5746 Clouds 9 1023 89 10000 0.52 134 23:28 08.11.2020
5747 Clouds 9 1023 87 10000 0.52 134 22:45 08.11.2020
5748 Clouds 8 1023 85 10000 0.75 134 22:22 08.11.2020
5749 Clouds 9 1023 84 10000 0.75 134 21:52 08.11.2020
5750 Clouds 10 1023 85 10000 0.99 155 21:24 08.11.2020
5751 Clouds 9 1023 85 10000 0.99 155 20:59 08.11.2020
5752 Clouds 9 1023 86 10000 0.99 155 20:39 08.11.2020
5753 Clouds 9 1023 86 10000 1.13 134 20:20 08.11.2020
5754 Clouds 9 1023 86 10000 1.13 134 19:56 08.11.2020
5755 Clouds 9 1023 85 10000 1.13 134 19:37 08.11.2020
5756 Clouds 10 1023 84 10000 1.02 140 19:18 08.11.2020
5757 Clouds 10 1023 84 10000 1.02 140 18:44 08.11.2020
5758 Clouds 11 1023 83 10000 0.72 157 18:21 08.11.2020
5759 Clouds 11 1023 80 10000 0.72 157 17:57 08.11.2020
5760 Clouds 12 1022 76 10000 0.72 157 17:36 08.11.2020
5761 Clouds 12 1022 76 10000 0.5 121 17:18 08.11.2020
5762 Clouds 13 1022 75 10000 0.5 121 16:46 08.11.2020
5763 Clouds 14 1022 72 10000 0.5 72 16:21 08.11.2020
5764 Clouds 15 1022 68 10000 0.5 72 15:50 08.11.2020
5765 Clouds 15 1022 68 10000 0.44 6 15:28 08.11.2020
5766 Clouds 14 1022 71 10000 0.44 6 14:59 08.11.2020
5767 Clouds 14 1023 74 10000 0.44 6 14:38 08.11.2020
5768 Clouds 13 1022 78 10000 0.54 284 14:20 08.11.2020
5769 Clouds 12 1024 83 10000 0.81 286 13:41 08.11.2020
5770 Clouds 13 1024 83 10000 0.81 286 13:20 08.11.2020
5771 Clouds 12 1024 80 10000 0.45 279 12:42 08.11.2020
5772 Clouds 12 1024 85 10000 0.45 312 12:24 08.11.2020
5773 Clouds 11 1025 79 10000 0.45 252 11:57 08.11.2020
5774 Clear 10 1025 93 10000 1 0 11:38 08.11.2020
5775 Clear 10 1025 93 10000 1 0 11:38 08.11.2020
5776 Clouds 10 1024 81 10000 0.24 6 11:20 08.11.2020
5777 Clear 9 1025 100 10000 1 0 10:49 08.11.2020
5778 Clouds 9 1024 90 10000 0.43 205 10:18 08.11.2020
5779 Clear 7 1025 100 10000 1 110 09:42 08.11.2020
5780 Clouds 7 1024 95 10000 0.82 117 09:24 08.11.2020
5781 Clear 8 1025 93 10000 1.5 0 08:55 08.11.2020
5782 Clear 7 1025 100 10000 1 0 08:37 08.11.2020
5783 Clear 6 1025 100 10000 1 0 08:18 08.11.2020
5784 Clouds 5 1025 93 7000 0.5 0 07:46 08.11.2020
5785 Clouds 5 1025 93 7000 0.5 250 07:19 08.11.2020
5786 Clouds 6 1023 95 10000 0.61 131 05:55 08.11.2020
5787 Fog 5 1024 100 750 1 210 05:31 08.11.2020
5788 Fog 5 1024 93 500 1 0 04:18 08.11.2020
5789 Fog 5 1024 100 500 1 220 01:50 08.11.2020
5790 Clouds 8 1024 69 10000 0.32 129 01:18 08.11.2020
5791 Fog 6 1025 93 500 1.05 109 00:27 08.11.2020
5792 Fog 6 1025 93 500 1.05 109 00:27 08.11.2020
5793 Fog 6 1024 93 450 1.05 109 23:46 07.11.2020
5794 Fog 6 1024 93 400 0.51 113 23:28 07.11.2020
5795 Fog 6 1024 100 450 1 360 22:43 07.11.2020
5796 Fog 6 1024 100 450 1 360 22:25 07.11.2020
5797 Fog 6 1024 100 400 0.5 0 21:46 07.11.2020
5798 Fog 6 1024 100 400 0.5 0 21:23 07.11.2020
5799 Fog 6 1024 100 350 1 50 20:55 07.11.2020
5800 Fog 7 1024 93 350 1.5 360 20:37 07.11.2020
5801 Clouds 8 1023 90 10000 0.77 123 20:19 07.11.2020
5802 Clouds 9 1023 81 10000 0.77 123 19:41 07.11.2020
5803 Clouds 9 1023 89 10000 0.95 106 19:22 07.11.2020
5804 Clouds 9 1023 88 10000 0.95 106 18:40 07.11.2020
5805 Clouds 9 1023 86 10000 1.03 101 18:21 07.11.2020
5806 Clouds 10 1023 85 10000 1.03 101 17:46 07.11.2020
5807 Clouds 10 1023 84 10000 0.64 94 17:26 07.11.2020
5808 Clouds 12 1022 80 10000 0.64 94 16:44 07.11.2020
5809 Clear 13 1023 70 10000 0.29 1 16:24 07.11.2020
5810 Clear 13 1022 76 10000 0.89 246 15:48 07.11.2020
5811 Clear 13 1023 66 10000 0.66 347 15:25 07.11.2020
5812 Clear 13 1023 67 10000 0.66 347 14:59 07.11.2020
5813 Clear 13 1023 68 10000 0.66 347 14:41 07.11.2020
5814 Clear 14 1023 67 10000 0.85 336 14:20 07.11.2020
5815 Clear 13 1023 69 10000 0.85 336 13:43 07.11.2020
5816 Clear 14 1023 70 10000 0.81 322 13:23 07.11.2020
5817 Fog 10 1026 100 1100 0.5 0 12:40 07.11.2020
5818 Fog 9 1026 93 500 0.5 0 11:56 07.11.2020
5819 Fog 8 1026 100 400 0.5 0 11:37 07.11.2020
5820 Fog 7 1026 100 350 1 0 11:18 07.11.2020
5821 Fog 8 1027 93 550 0.4 311 10:42 07.11.2020
5822 Fog 7 1027 93 550 0.13 265 10:23 07.11.2020
5823 Fog 8 1027 93 300 0.13 265 09:49 07.11.2020
5824 Fog 5 1027 93 300 0.56 144 09:24 07.11.2020
5825 Fog 5 1027 100 300 0.56 144 08:51 07.11.2020
5826 Fog 5 1027 93 400 0.56 144 08:31 07.11.2020
5827 Fog 3 1027 93 450 0.5 300 07:49 07.11.2020
5828 Fog 3 1027 67 800 1 10 07:18 07.11.2020
5829 Clear 4 1026 94 10000 0.92 132 06:43 07.11.2020
5830 Clear 5 1026 94 10000 1.06 117 04:32 07.11.2020
5831 Clear 5 1026 93 10000 1.01 133 03:22 07.11.2020
5832 Clear 6 1027 93 10000 1.08 139 01:28 07.11.2020
5833 Clear 6 1027 93 10000 1.08 139 01:28 07.11.2020
5834 Clear 6 1027 92 10000 1.08 139 00:41 07.11.2020
5835 Clear 6 1028 92 10000 1.06 141 23:49 06.11.2020
5836 Clear 6 1027 92 10000 1 144 23:19 06.11.2020
5837 Clear 6 1028 92 10000 1 144 22:41 06.11.2020
5838 Clear 6 1028 92 10000 1.04 136 22:19 06.11.2020
5839 Clear 6 1028 91 10000 1.04 136 21:45 06.11.2020
5840 Clear 6 1028 91 10000 1.05 129 21:21 06.11.2020
5841 Clear 6 1028 90 10000 1.05 129 20:56 06.11.2020
5842 Clear 6 1028 89 10000 1.05 129 20:38 06.11.2020
5843 Clear 6 1028 88 10000 0.89 139 20:18 06.11.2020
5844 Clear 6 1028 87 10000 0.89 139 19:44 06.11.2020
5845 Clear 6 1028 86 10000 0.88 133 19:26 06.11.2020
5846 Clear 7 1028 83 10000 1.06 122 18:45 06.11.2020
5847 Clear 7 1028 81 10000 0.91 107 18:23 06.11.2020
5848 Clear 7 1027 86 10000 0.91 107 17:51 06.11.2020
5849 Clear 8 1027 84 10000 0.98 68 17:26 06.11.2020
5850 Clear 9 1027 80 10000 0.98 68 16:50 06.11.2020
5851 Clear 9 1028 82 10000 0.98 68 16:31 06.11.2020
5852 Clear 10 1027 74 10000 0.89 248 15:54 06.11.2020
5853 Clear 10 1029 70 10000 0.89 357 15:33 06.11.2020
5854 Clear 10 1029 75 10000 0.45 311 14:54 06.11.2020
5855 Clouds 10 1029 75 10000 1.21 291 14:27 06.11.2020
5856 Clouds 10 1029 80 10000 1.21 291 13:49 06.11.2020
5857 Clear 10 1030 92 10000 1.23 290 13:25 06.11.2020
5858 Clouds 8 1030 81 10000 0.99 307 12:47 06.11.2020
5859 Clouds 8 1030 95 10000 0.95 312 12:27 06.11.2020
5860 Clear 7 1032 87 10000 2.1 80 11:59 06.11.2020
5861 Clouds 7 1030 82 10000 0.45 182 11:36 06.11.2020
5862 Clear 7 1032 81 10000 1.5 0 10:52 06.11.2020
5863 Clouds 6 1030 85 10000 0.86 303 10:32 06.11.2020
5864 Clear 5 1031 94 10000 0.43 298 09:50 06.11.2020
5865 Clouds 5 1030 91 10000 0.18 130 09:28 06.11.2020
5866 Clouds 3 1031 95 10000 0.45 308 08:58 06.11.2020
5867 Clouds 4 1030 93 10000 0.18 130 08:40 06.11.2020
5868 Clouds 3 1031 95 10000 0.45 338 08:18 06.11.2020
5869 Clouds 3 1031 94 10000 0.89 319 07:40 06.11.2020
5870 Clear 3 1031 94 10000 1.02 123 07:18 06.11.2020
5871 Clear 3 1031 94 10000 0.45 332 07:18 06.11.2020
5872 Clear 3 1031 94 10000 1.02 123 06:40 06.11.2020
5873 Clear 4 1031 93 10000 1.09 124 05:37 06.11.2020
5874 Clear 5 1032 88 10000 1.71 104 01:59 06.11.2020
5875 Clouds 7 1034 75 10000 2.6 360 00:29 06.11.2020
5876 Clouds 5 1034 70 10000 1.5 330 23:51 05.11.2020
5877 Clouds 8 1034 75 10000 3.1 10 23:24 05.11.2020
5878 Clouds 6 1034 75 10000 3.6 10 22:45 05.11.2020
5879 Clouds 9 1035 88 10000 1.49 117 22:26 05.11.2020
5880 Clouds 8 1033 91 10000 0.45 295 21:57 05.11.2020
5881 Clouds 8 1033 89 10000 1.49 117 21:38 05.11.2020
5882 Clouds 8 1033 87 10000 0.45 91 21:19 05.11.2020
5883 Clouds 8 1034 70 10000 3.6 20 20:43 05.11.2020
5884 Clouds 9 1035 83 10000 0.45 264 20:24 05.11.2020
5885 Clouds 9 1035 83 10000 0.45 264 20:24 05.11.2020
5886 Clouds 9 1035 83 10000 1.41 81 19:44 05.11.2020
5887 Clouds 8 1033 85 10000 1.34 74 19:26 05.11.2020
5888 Clouds 8 1033 82 10000 0.45 190 18:58 05.11.2020
5889 Clouds 9 1033 88 10000 1.53 87 18:39 05.11.2020
5890 Clouds 9 1032 88 10000 1.82 62 18:21 05.11.2020
5891 Clouds 9 1032 86 10000 1.82 62 17:45 05.11.2020
5892 Clouds 10 1033 79 10000 1.34 2 17:25 05.11.2020
5893 Clouds 10 1032 85 10000 1.74 38 16:49 05.11.2020
5894 Clouds 10 1033 77 10000 1.79 327 16:28 05.11.2020
5895 Clouds 10 1033 76 10000 0.45 338 15:55 05.11.2020
5896 Clouds 10 1032 83 10000 1.92 21 15:36 05.11.2020
5897 Clouds 10 1033 75 10000 1.93 16 15:18 05.11.2020
5898 Clouds 10 1033 75 10000 1.93 16 14:42 05.11.2020
5899 Clouds 10 1033 75 10000 1.98 13 14:23 05.11.2020
5900 Clouds 9 1033 77 10000 1.98 13 13:40 05.11.2020
5901 Clouds 9 1034 76 10000 2.2 7 13:18 05.11.2020
5902 Clouds 9 1034 75 10000 2.24 331 12:42 05.11.2020
5903 Clouds 9 1033 83 10000 1.34 242 12:23 05.11.2020
5904 Clouds 9 1035 78 10000 1.34 325 11:43 05.11.2020
5905 Clouds 9 1035 80 10000 0.89 343 11:23 05.11.2020
5906 Clouds 8 1035 84 10000 0.89 357 10:49 05.11.2020
5907 Clouds 8 1035 86 10000 0.89 28 10:28 05.11.2020
5908 Clouds 8 1035 86 10000 0.89 28 10:28 05.11.2020
5909 Clouds 7 1035 89 10000 0.89 343 09:50 05.11.2020
5910 Clouds 7 1035 89 10000 1.69 21 09:50 05.11.2020
5911 Clouds 6 1034 90 10000 0.89 321 09:25 05.11.2020
5912 Clouds 6 1034 90 10000 0.89 328 08:59 05.11.2020
5913 Clouds 6 1034 91 10000 1.34 338 08:41 05.11.2020
5914 Clouds 6 1034 91 10000 0.45 333 08:23 05.11.2020
5915 Clouds 6 1034 90 10000 1.47 48 07:29 05.11.2020
5916 Clouds 6 1034 90 10000 1.47 48 06:51 05.11.2020
5917 Clouds 6 1034 90 10000 0.89 348 06:32 05.11.2020
5918 Clouds 7 1033 88 10000 1.79 352 03:46 05.11.2020
5919 Clouds 7 1032 92 10000 1.83 73 00:45 05.11.2020
5920 Clouds 7 1033 87 10000 2.21 70 00:25 05.11.2020
5921 Clouds 7 1033 86 10000 1.34 323 23:43 04.11.2020
5922 Clouds 7 1033 86 10000 0.89 330 23:24 04.11.2020
5923 Clouds 7 1032 86 10000 1.34 48 22:44 04.11.2020
5924 Clouds 7 1032 87 10000 1.79 353 22:23 04.11.2020
5925 Clouds 8 1032 87 10000 0.89 318 21:48 04.11.2020
5926 Clouds 7 1032 87 10000 1.34 2 21:29 04.11.2020
5927 Clouds 7 1031 87 10000 0.89 331 20:56 04.11.2020
5928 Clouds 7 1031 87 10000 0.89 331 20:56 04.11.2020
5929 Clouds 7 1031 87 10000 1.34 315 20:37 04.11.2020
5930 Clouds 7 1031 87 10000 1.34 342 20:18 04.11.2020
5931 Clouds 7 1031 87 10000 1.34 342 19:42 04.11.2020
5932 Clouds 7 1031 87 10000 1.34 342 19:42 04.11.2020
5933 Clouds 7 1031 87 10000 1.34 342 19:42 04.11.2020
5934 Clouds 8 1030 87 10000 0.89 314 19:24 04.11.2020
5935 Clouds 8 1030 86 10000 0.89 328 18:43 04.11.2020
5936 Clouds 8 1030 86 10000 0.89 27 18:25 04.11.2020
5937 Clouds 8 1030 86 10000 0.89 341 17:56 04.11.2020
5938 Clouds 8 1030 86 10000 2.24 7 17:38 04.11.2020
5939 Clouds 8 1029 85 10000 0.45 7 17:19 04.11.2020
5940 Clouds 8 1029 85 10000 0.45 341 16:38 04.11.2020
5941 Clouds 8 1029 85 10000 1.34 335 16:19 04.11.2020
5942 Clouds 8 1029 85 10000 1.79 317 15:46 04.11.2020
5943 Clouds 8 1028 84 10000 2.24 7 15:24 04.11.2020
5944 Clouds 8 1028 84 10000 2.24 317 14:48 04.11.2020
5945 Clouds 8 1028 84 10000 1.34 340 14:27 04.11.2020
5946 Clouds 8 1028 86 10000 1.34 334 13:57 04.11.2020
5947 Clouds 8 1028 86 10000 1.34 334 13:39 04.11.2020
5948 Clouds 8 1028 86 10000 2.24 2 13:19 04.11.2020
5949 Clouds 8 1028 88 10000 1.34 348 12:48 04.11.2020
5950 Clouds 8 1028 89 10000 0.89 7 12:25 04.11.2020
5951 Rain 8 1028 88 10000 2.24 38 11:55 04.11.2020
5952 Rain 8 1028 88 10000 2.24 38 11:55 04.11.2020
5953 Rain 8 1028 89 10000 1.79 341 11:36 04.11.2020
5954 Clouds 7 1028 89 10000 1.79 329 11:18 04.11.2020
5955 Clouds 7 1028 90 10000 1.34 25 11:18 04.11.2020
5956 Clouds 7 1028 90 10000 1.79 2 10:41 04.11.2020
5957 Clouds 7 1028 92 10000 1.34 313 10:22 04.11.2020
5958 Clouds 7 1028 93 10000 1.79 32 09:47 04.11.2020
5959 Clouds 7 1028 94 10000 1.94 30 09:22 04.11.2020
5960 Clouds 6 1028 95 10000 0.89 334 08:44 04.11.2020
5961 Clouds 6 1027 96 10000 1.46 51 08:19 04.11.2020
5962 Clouds 7 1027 96 10000 1.46 51 07:48 04.11.2020
5963 Clouds 7 1027 96 10000 1.33 46 07:27 04.11.2020
5964 Clouds 7 1026 96 10000 1.7 44 06:42 04.11.2020
5965 Clouds 7 1026 96 10000 1.6 39 06:18 04.11.2020
5966 Clouds 8 1027 93 10000 1.45 48 02:32 04.11.2020
5967 Clouds 8 1027 93 10000 0.45 88 01:49 04.11.2020
5968 Clouds 8 1027 92 10000 1.96 1 00:43 04.11.2020
5969 Rain 9 1027 89 10000 0.45 314 23:44 03.11.2020
5970 Rain 10 1026 87 10000 0.45 245 23:21 03.11.2020
5971 Clouds 10 1026 86 10000 0.89 221 22:41 03.11.2020
5972 Clouds 10 1026 86 10000 0.89 207 22:21 03.11.2020
5973 Clouds 10 1026 85 10000 1.34 198 21:56 03.11.2020
5974 Clouds 10 1026 86 10000 1.79 239 21:37 03.11.2020
5975 Clouds 10 1026 87 10000 0.89 208 21:19 03.11.2020
5976 Clouds 10 1026 88 10000 1.79 188 20:43 03.11.2020
5977 Clouds 10 1026 88 10000 1.79 194 20:23 03.11.2020
5978 Clouds 10 1025 91 10000 1.34 180 19:44 03.11.2020
5979 Clouds 10 1025 91 10000 1.34 180 19:44 03.11.2020
5980 Clouds 10 1025 93 10000 2.68 166 19:23 03.11.2020
5981 Clouds 10 1025 94 10000 2.97 204 18:46 03.11.2020
5982 Clouds 10 1025 94 10000 2.72 216 18:21 03.11.2020
5983 Clouds 10 1024 93 10000 2.72 216 17:59 03.11.2020
5984 Clouds 10 1024 93 10000 2.72 216 17:41 03.11.2020
5985 Rain 10 1024 93 10000 2.04 211 17:23 03.11.2020
5986 Rain 10 1024 93 10000 2.04 211 16:45 03.11.2020
5987 Rain 10 1024 93 10000 0.93 165 16:24 03.11.2020
5988 Rain 10 1024 92 10000 0.93 165 15:46 03.11.2020
5989 Rain 10 1024 93 10000 0.64 320 15:25 03.11.2020
5990 Rain 10 1024 93 10000 0.64 320 14:53 03.11.2020
5991 Rain 10 1024 92 10000 0.64 320 14:33 03.11.2020
5992 Rain 10 1023 91 10000 1.21 322 13:47 03.11.2020
5993 Rain 10 1023 91 10000 1.66 323 13:24 03.11.2020
5994 Rain 10 1023 91 10000 1.66 323 12:59 03.11.2020
5995 Rain 11 1023 90 7606 1.35 324 12:39 03.11.2020
5996 Rain 11 1023 89 10000 1.49 300 12:20 03.11.2020
5997 Rain 11 1023 87 10000 0.89 308 11:44 03.11.2020
5998 Clouds 11 1023 87 10000 1.38 302 11:21 03.11.2020
5999 Clouds 11 1023 89 10000 1.38 302 10:40 03.11.2020
6000 Clouds 11 1022 90 10000 0.7 311 10:22 03.11.2020
6001 Clouds 10 1023 91 10000 0.7 311 09:59 03.11.2020
6002 Clouds 10 1022 92 10000 0.7 311 09:41 03.11.2020
6003 Clouds 10 1023 92 10000 1.15 294 09:18 03.11.2020
6004 Clouds 10 1022 93 10000 1.15 294 08:44 03.11.2020
6005 Clouds 10 1022 93 10000 0.53 284 08:25 03.11.2020
6006 Clouds 10 1022 93 10000 0.53 284 07:37 03.11.2020
6007 Clouds 10 1022 93 10000 0.8 90 06:53 03.11.2020
6008 Clouds 10 1022 92 10000 1.28 44 06:20 03.11.2020
6009 Clouds 13 1020 79 5436 1.79 323 03:38 03.11.2020
6010 Clouds 17 1020 70 10000 1.79 162 00:43 03.11.2020
6011 Rain 19 1017 66 10000 2.68 213 00:20 03.11.2020
6012 Clouds 17 1020 71 10000 0.89 242 23:42 02.11.2020
6013 Clouds 18 1017 65 10000 1.34 207 22:57 02.11.2020
6014 Clouds 18 1017 65 10000 2.24 176 22:39 02.11.2020
6015 Clouds 18 1017 65 10000 2.24 155 22:21 02.11.2020
6016 Clouds 19 1017 66 10000 2.68 138 21:39 02.11.2020
6017 Clouds 18 1017 69 10000 2.68 171 21:20 02.11.2020
6018 Clouds 17 1017 72 10000 2.68 154 20:55 02.11.2020
6019 Clouds 17 1017 70 10000 1.79 204 20:37 02.11.2020
6020 Clouds 17 1016 67 10000 2.24 214 20:18 02.11.2020
6021 Clouds 18 1016 66 10000 1.79 198 19:43 02.11.2020
6022 Clouds 19 1018 70 10000 1.79 212 19:25 02.11.2020
6023 Clouds 17 1018 68 10000 1.34 166 18:43 02.11.2020
6024 Clear 17 1017 72 10000 5.7 190 18:22 02.11.2020
6025 Clouds 17 1040 69 10000 2.68 180 17:58 02.11.2020
6026 Clear 19 1017 64 10000 4.6 170 17:40 02.11.2020
6027 Clear 19 1017 64 10000 4.6 170 17:20 02.11.2020
6028 Clouds 21 1017 64 10000 4.6 200 16:43 02.11.2020
6029 Clouds 20 1015 65 10000 4.4 200 16:24 02.11.2020
6030 Clouds 20 1017 69 10000 1.79 163 15:46 02.11.2020
6031 Clouds 21 1015 67 10000 1.79 202 15:24 02.11.2020
6032 Clouds 21 1014 68 10000 1.34 286 14:58 02.11.2020
6033 Clouds 21 1015 67 10000 1.79 182 14:40 02.11.2020
6034 Clouds 21 1015 66 10000 1.79 180 14:18 02.11.2020
6035 Clouds 22 1015 64 10000 1.34 186 13:44 02.11.2020
6036 Clouds 22 1015 64 10000 1.79 167 13:21 02.11.2020
6037 Clouds 22 1015 63 10000 1.34 211 12:42 02.11.2020
6038 Clouds 21 1016 64 10000 2.24 180 12:21 02.11.2020
6039 Clouds 22 1016 66 10000 1.34 213 11:45 02.11.2020
6040 Clouds 20 1016 68 10000 0.89 132 11:20 02.11.2020
6041 Clouds 20 1016 69 10000 1.79 245 10:45 02.11.2020
6042 Clouds 19 1016 68 10000 2.78 197 10:24 02.11.2020
6043 Clouds 19 1015 72 10000 2.78 197 09:55 02.11.2020
6044 Clouds 18 1018 82 10000 4.1 190 09:26 02.11.2020
6045 Clouds 16 1018 80 10000 2.74 171 08:48 02.11.2020
6046 Clouds 15 1018 82 10000 4.6 180 08:29 02.11.2020
6047 Clouds 15 1018 77 10000 4.6 180 07:59 02.11.2020
6048 Clouds 15 1018 77 10000 5.1 180 07:38 02.11.2020
6049 Clouds 16 1018 82 10000 5.7 180 06:44 02.11.2020
6050 Clouds 18 1016 78 10000 2.24 93 05:19 02.11.2020
6051 Clear 17 1017 77 10000 2.6 180 01:27 02.11.2020
6052 Clear 17 1017 77 10000 2.6 180 01:27 02.11.2020
6053 Clear 17 1017 77 10000 2.6 180 01:27 02.11.2020
6054 Clouds 16 1016 76 10000 0.89 163 00:38 02.11.2020
6055 Clouds 16 1018 72 10000 1.5 0 00:19 02.11.2020
6056 Clouds 16 1016 76 10000 2.68 186 23:38 01.11.2020
6057 Rain 16 1017 76 10000 1.34 245 23:20 01.11.2020
6058 Clouds 15 1019 79 10000 0.89 226 22:42 01.11.2020
6059 Rain 14 1020 98 10000 3.68 190 22:22 01.11.2020
6060 Clouds 14 1017 77 10000 3.1 190 21:43 01.11.2020
6061 Clouds 14 1017 77 10000 3.1 190 21:24 01.11.2020
6062 Clouds 14 1018 77 10000 1.5 160 20:48 01.11.2020
6063 Clouds 14 1018 77 10000 1.5 0 20:26 01.11.2020
6064 Clouds 14 1018 77 10000 3.6 200 19:55 01.11.2020
6065 Clouds 14 1018 77 10000 4.6 180 19:37 01.11.2020
6066 Clouds 14 1018 77 10000 4.6 180 19:19 01.11.2020
6067 Clouds 15 1016 84 10000 0.45 253 18:40 01.11.2020
6068 Clouds 15 1016 84 10000 0.45 253 18:40 01.11.2020
6069 Clouds 17 1016 88 10000 0.89 249 18:19 01.11.2020
6070 Clouds 17 1016 88 10000 0.89 249 18:19 01.11.2020
6071 Clouds 15 1016 92 10000 0.45 297 17:47 01.11.2020
6072 Clouds 15 1017 80 10000 2.24 189 17:29 01.11.2020
6073 Clouds 15 1017 80 10000 2.68 130 16:59 01.11.2020
6074 Clouds 16 1017 82 10000 0.89 188 16:39 01.11.2020
6075 Clouds 16 1017 84 10000 0.45 182 16:18 01.11.2020
6076 Clouds 16 1017 87 10000 1.79 213 15:39 01.11.2020
6077 Clouds 16 1017 87 10000 1.79 213 15:21 01.11.2020
6078 Rain 16 1017 85 10000 1.79 116 14:54 01.11.2020
6079 Rain 16 1017 84 10000 2.68 237 14:36 01.11.2020
6080 Rain 15 1017 87 10000 0.45 217 14:18 01.11.2020
6081 Rain 16 1018 81 10000 2.68 173 13:44 01.11.2020
6082 Rain 16 1018 82 10000 2.68 200 13:26 01.11.2020
6083 Clouds 16 1018 91 10000 1.79 226 12:43 01.11.2020
6084 Rain 15 1018 92 10000 0.89 240 12:22 01.11.2020
6085 Rain 15 1018 89 10000 1.34 204 11:50 01.11.2020
6086 Rain 15 1018 91 10000 4.02 195 11:19 01.11.2020
6087 Rain 14 1019 91 10000 3.13 186 10:43 01.11.2020
6088 Rain 14 1019 91 10000 3.13 186 10:43 01.11.2020
6089 Rain 14 1019 91 10000 2.24 159 10:24 01.11.2020
6090 Rain 14 1019 91 10000 2.24 177 09:55 01.11.2020
6091 Rain 14 1019 91 10000 2.68 140 09:35 01.11.2020
6092 Rain 14 1019 91 6565 1.79 231 08:46 01.11.2020
6093 Rain 13 1018 85 10000 2.98 211 08:20 01.11.2020
6094 Rain 12 1020 80 10000 0.89 246 07:40 01.11.2020
6095 Clouds 11 1021 82 10000 2.74 178 04:31 01.11.2020
6096 Clouds 12 1020 69 10000 0.89 135 01:51 01.11.2020
6097 Clouds 11 1021 66 10000 0.89 90 00:43 01.11.2020
6098 Clouds 12 1020 65 10000 0.89 315 23:26 31.10.2020
6099 Clouds 11 1021 68 10000 1.79 188 22:58 31.10.2020
6100 Clouds 11 1020 63 10000 1.34 112 22:39 31.10.2020
6101 Clouds 11 1019 70 10000 2.96 189 22:20 31.10.2020
6102 Clouds 12 1020 60 10000 1.34 112 21:44 31.10.2020
6103 Clear 12 1021 65 10000 2.24 195 21:19 31.10.2020
6104 Clear 11 1019 69 10000 0.89 331 20:38 31.10.2020
6105 Clear 12 1019 69 10000 2.74 180 20:18 31.10.2020
6106 Clear 12 1019 70 10000 2.74 180 19:41 31.10.2020
6107 Clouds 12 1019 70 10000 2.43 168 19:23 31.10.2020
6108 Clouds 12 1019 72 10000 2.45 170 18:47 31.10.2020
6109 Clouds 12 1019 71 10000 2.42 166 18:28 31.10.2020
6110 Clouds 12 1022 63 10000 2.42 166 17:41 31.10.2020
6111 Clouds 13 1022 64 10000 1.79 186 17:22 31.10.2020
6112 Clear 13 1020 63 10000 1 0 16:48 31.10.2020
6113 Clouds 15 1019 74 10000 1.45 206 16:29 31.10.2020
6114 Clouds 17 1018 68 10000 1.45 206 15:54 31.10.2020
6115 Clouds 17 1018 66 10000 1.54 229 15:25 31.10.2020
6116 Clouds 18 1019 64 10000 0.45 242 14:53 31.10.2020
6117 Clouds 17 1021 75 10000 0.89 203 14:31 31.10.2020
6118 Clouds 16 1019 67 10000 0.89 242 13:52 31.10.2020
6119 Clouds 16 1019 70 10000 1.56 249 13:28 31.10.2020
6120 Clouds 14 1020 72 10000 1.88 253 12:56 31.10.2020
6121 Clouds 13 1020 78 10000 0.89 232 12:22 31.10.2020
6122 Clouds 12 1022 80 10000 1.37 243 11:41 31.10.2020
6123 Clouds 11 1022 81 10000 0.89 200 11:23 31.10.2020
6124 Clouds 11 1023 81 10000 1.41 260 10:42 31.10.2020
6125 Clouds 10 1024 93 7000 1.5 150 10:19 31.10.2020
6126 Fog 9 1025 93 1100 0.93 233 09:39 31.10.2020
6127 Clouds 9 1023 87 10000 0.82 189 09:20 31.10.2020
6128 Clouds 6 1023 93 10000 0.77 146 08:27 31.10.2020
6129 Clouds 4 1024 97 10000 0.77 146 07:45 31.10.2020
6130 Clouds 5 1024 97 10000 0.86 137 07:25 31.10.2020
6131 Clouds 6 1023 92 10000 0.83 133 06:37 31.10.2020
6132 Clouds 7 1024 89 10000 0.89 134 03:49 31.10.2020
6133 Clear 7 1024 88 10000 1.01 138 02:48 31.10.2020
6134 Clear 8 1025 87 10000 0.45 54 00:55 31.10.2020
6135 Clear 8 1025 87 10000 0.45 52 00:20 31.10.2020
6136 Clear 8 1025 86 10000 0.45 75 23:46 30.10.2020
6137 Clear 8 1025 86 10000 0.45 82 23:23 30.10.2020
6138 Clear 9 1025 86 10000 0.45 78 22:43 30.10.2020
6139 Clear 8 1025 86 10000 0.45 88 22:22 30.10.2020
6140 Clear 9 1025 86 10000 0.45 76 21:50 30.10.2020
6141 Clear 9 1025 85 10000 1.19 149 21:29 30.10.2020
6142 Clear 9 1025 83 10000 1.19 149 20:59 30.10.2020
6143 Clear 9 1025 81 10000 1.19 149 20:37 30.10.2020
6144 Clear 9 1025 81 10000 1.19 149 20:37 30.10.2020
6145 Clear 9 1026 81 10000 0.45 203 20:18 30.10.2020
6146 Clear 10 1026 80 10000 0.45 203 19:44 30.10.2020
6147 Clouds 11 1025 75 10000 1.57 154 19:18 30.10.2020
6148 Clouds 11 1024 80 10000 1.55 157 18:45 30.10.2020
6149 Clouds 11 1025 75 10000 1.76 167 18:27 30.10.2020
6150 Clouds 11 1025 79 10000 2.68 198 17:48 30.10.2020
6151 Clouds 13 1024 73 10000 0.45 214 17:22 30.10.2020
6152 Clouds 12 1024 73 10000 0.45 214 17:22 30.10.2020
6153 Clouds 12 1025 79 10000 2.68 198 16:57 30.10.2020
6154 Clouds 12 1025 79 10000 2.68 198 16:36 30.10.2020
6155 Clouds 12 1025 79 10000 2.68 198 16:36 30.10.2020
6156 Clouds 14 1024 69 10000 1.34 195 16:18 30.10.2020
6157 Clouds 15 1024 65 10000 2.68 210 15:40 30.10.2020
6158 Clouds 15 1024 68 10000 1.79 183 15:19 30.10.2020
6159 Clouds 13 1023 71 10000 0.45 219 14:44 30.10.2020
6160 Clouds 15 1024 69 10000 1.34 166 14:25 30.10.2020
6161 Clouds 14 1024 70 10000 0.45 146 13:45 30.10.2020
6162 Clouds 14 1024 71 10000 2.68 197 13:21 30.10.2020
6163 Clouds 14 1024 71 10000 2.68 197 13:21 30.10.2020
6164 Clouds 14 1024 72 10000 2.24 243 12:52 30.10.2020
6165 Clouds 14 1024 71 10000 4.47 219 12:22 30.10.2020
6166 Clouds 14 1024 73 10000 4.02 204 11:56 30.10.2020
6167 Clouds 14 1024 77 10000 3.13 186 11:23 30.10.2020
6168 Clouds 13 1024 77 10000 3.13 154 10:52 30.10.2020
6169 Clouds 13 1024 80 10000 2.68 226 10:26 30.10.2020
6170 Clouds 13 1024 80 10000 3.13 200 09:59 30.10.2020
6171 Clouds 13 1024 80 10000 3.58 248 09:41 30.10.2020
6172 Clouds 12 1024 82 10000 2.24 207 09:20 30.10.2020
6173 Clouds 12 1024 83 10000 3.13 199 08:36 30.10.2020
6174 Clouds 12 1024 83 10000 2.24 219 08:18 30.10.2020
6175 Clouds 12 1023 82 10000 3.13 175 07:45 30.10.2020
6176 Clouds 12 1023 83 10000 4.02 176 07:26 30.10.2020
6177 Clouds 13 1023 83 10000 3.58 204 06:20 30.10.2020
6178 Clouds 12 1021 81 10000 0.45 360 04:23 30.10.2020
6179 Clouds 13 1022 79 10000 2.68 144 01:28 30.10.2020
6180 Clouds 13 1022 78 10000 2.68 135 00:31 30.10.2020
6181 Clouds 13 1023 77 10000 3.58 155 23:47 29.10.2020
6182 Rain 13 1023 78 10000 2.24 213 23:29 29.10.2020
6183 Clouds 13 1023 79 10000 1.79 169 22:48 29.10.2020
6184 Rain 13 1023 79 10000 2.24 217 22:27 29.10.2020
6185 Clouds 13 1023 79 10000 4.02 231 21:51 29.10.2020
6186 Rain 13 1023 78 10000 2.68 203 21:26 29.10.2020
6187 Clouds 13 1022 78 10000 2.24 186 20:59 29.10.2020
6188 Clouds 13 1022 79 10000 2.68 201 20:40 29.10.2020
6189 Clouds 13 1022 79 10000 2.68 201 20:40 29.10.2020
6190 Rain 13 1022 79 9648 2.68 159 20:18 29.10.2020
6191 Clouds 12 1022 80 9648 1.79 234 19:39 29.10.2020
6192 Rain 12 1022 81 10000 1.79 206 19:21 29.10.2020
6193 Clouds 12 1022 82 10000 2.68 188 18:47 29.10.2020
6194 Rain 12 1022 82 10000 1.34 197 18:27 29.10.2020
6195 Clouds 12 1022 83 10000 2.68 169 17:55 29.10.2020
6196 Rain 12 1022 84 10000 2.24 226 17:37 29.10.2020
6197 Rain 12 1022 84 10000 2.24 182 17:18 29.10.2020
6198 Rain 12 1021 83 10000 1.34 236 16:43 29.10.2020
6199 Rain 12 1021 81 10000 1.79 227 16:18 29.10.2020
6200 Rain 12 1021 75 10000 1.79 215 15:41 29.10.2020
6201 Rain 13 1021 73 10000 2.24 174 15:22 29.10.2020
6202 Clouds 13 1021 74 10000 3.58 197 14:59 29.10.2020
6203 Clouds 13 1021 74 10000 3.58 197 14:59 29.10.2020
6204 Clouds 13 1021 75 10000 2.24 198 14:41 29.10.2020
6205 Rain 12 1020 84 10000 0.45 360 14:21 29.10.2020
6206 Clouds 12 1021 82 10000 3.13 200 13:46 29.10.2020
6207 Rain 13 1021 83 10000 1.34 249 13:27 29.10.2020
6208 Clouds 12 1021 82 10000 4.02 188 12:43 29.10.2020
6209 Rain 12 1020 82 10000 1.79 246 12:20 29.10.2020
6210 Rain 12 1020 82 10000 1.79 246 12:20 29.10.2020
6211 Clouds 12 1020 84 10000 0.45 250 11:54 29.10.2020
6212 Clouds 12 1020 84 10000 2.24 283 11:36 29.10.2020
6213 Rain 13 1020 85 10000 1.79 283 11:18 29.10.2020
6214 Clouds 12 1021 84 10000 1.34 230 10:37 29.10.2020
6215 Clouds 12 1021 84 10000 1.34 230 10:37 29.10.2020
6216 Rain 12 1020 84 10000 4.47 253 10:18 29.10.2020
6217 Clouds 11 1020 85 10000 3.58 163 09:47 29.10.2020
6218 Rain 11 1019 86 10000 3.13 211 09:24 29.10.2020
6219 Rain 11 1019 85 10000 2.68 219 08:44 29.10.2020
6220 Rain 11 1018 85 10000 3.13 183 08:24 29.10.2020
6221 Clouds 11 1018 86 10000 2.24 133 07:49 29.10.2020
6222 Rain 11 1017 89 10000 4.02 230 07:19 29.10.2020
6223 Rain 11 1017 88 10000 3.58 74 06:47 29.10.2020
6224 Rain 12 1015 84 10000 2.68 194 04:50 29.10.2020
6225 Clouds 12 1015 79 10000 2.24 237 02:29 29.10.2020
6226 Clouds 14 1018 76 10000 4.02 253 00:45 29.10.2020
6227 Rain 13 1014 75 10000 1.34 229 00:22 29.10.2020
6228 Clouds 13 1015 76 10000 3.13 204 23:43 28.10.2020
6229 Rain 13 1015 75 10000 2.68 175 23:20 28.10.2020
6230 Clouds 13 1015 77 10000 3.58 206 22:44 28.10.2020
6231 Rain 13 1015 76 10000 3.13 187 22:25 28.10.2020
6232 Clouds 12 1015 74 10000 2.24 180 21:45 28.10.2020
6233 Rain 12 1015 75 10000 3.13 237 21:26 28.10.2020
6234 Clouds 12 1015 76 10000 1.34 101 20:59 28.10.2020
6235 Clouds 12 1014 74 10000 2.24 191 20:40 28.10.2020
6236 Rain 13 1014 73 10000 0.89 163 20:18 28.10.2020
6237 Clouds 12 1014 71 10000 1.79 136 19:45 28.10.2020
6238 Rain 13 1014 72 10000 2.68 201 19:26 28.10.2020
6239 Clouds 13 1014 71 10000 1.79 237 18:43 28.10.2020
6240 Rain 13 1014 71 10000 2.68 180 18:20 28.10.2020
6241 Clouds 14 1014 72 10000 4.38 210 17:44 28.10.2020
6242 Rain 13 1014 68 10000 1.79 177 17:24 28.10.2020
6243 Clouds 13 1016 81 10000 3.02 199 16:49 28.10.2020
6244 Clouds 14 1014 66 10000 1.79 202 16:31 28.10.2020
6245 Clouds 14 1014 67 10000 2.24 223 15:55 28.10.2020
6246 Clouds 14 1014 67 10000 1.79 216 15:36 28.10.2020
6247 Rain 14 1014 66 10000 1.79 208 15:18 28.10.2020
6248 Clouds 15 1014 63 10000 2.24 112 14:41 28.10.2020
6249 Rain 14 1014 66 10000 1.34 159 14:20 28.10.2020
6250 Clouds 13 1014 73 10000 4.92 211 12:40 28.10.2020
6251 Clouds 14 1014 74 10000 4.02 185 12:21 28.10.2020
6252 Clouds 13 1014 77 10000 3.13 169 11:55 28.10.2020
6253 Clouds 13 1014 77 10000 2.68 200 11:36 28.10.2020
6254 Clouds 14 1014 79 10000 4.02 201 11:18 28.10.2020
6255 Clouds 13 1013 80 10000 2.68 249 10:42 28.10.2020
6256 Clouds 13 1013 81 10000 4.02 115 10:24 28.10.2020
6257 Clouds 12 1013 84 10000 4.02 190 09:43 28.10.2020
6258 Clouds 12 1013 87 10000 2.24 211 09:23 28.10.2020
6259 Clouds 12 1013 90 10000 4.47 185 08:50 28.10.2020
6260 Rain 12 1012 91 10000 3.58 203 08:29 28.10.2020
6261 Clouds 12 1012 89 10000 3.13 96 07:52 28.10.2020
6262 Clouds 12 1011 89 10000 1.79 212 07:31 28.10.2020
6263 Clouds 12 1010 90 10000 0.89 164 06:42 28.10.2020
6264 Clouds 12 1011 89 10000 0.89 211 06:23 28.10.2020
6265 Clouds 12 1010 86 10000 0.89 183 05:22 28.10.2020
6266 Clouds 10 1010 78 10000 0.45 90 04:30 28.10.2020
6267 Rain 9 1012 76 10000 1.34 224 03:31 28.10.2020
6268 Clouds 10 1010 85 10000 3.19 176 01:55 28.10.2020
6269 Clouds 10 1011 63 10000 1.34 199 00:33 28.10.2020
6270 Clouds 10 1010 74 10000 3.31 182 23:47 27.10.2020
6271 Clouds 9 1012 96 10000 3.37 176 23:21 27.10.2020
6272 Clouds 9 1013 60 10000 3.13 195 22:44 27.10.2020
6273 Clouds 6 1012 95 10000 3.18 170 22:19 27.10.2020
6274 Clouds 5 1012 95 10000 3.18 170 21:57 27.10.2020
6275 Rain 5 1012 95 10000 3.18 170 21:38 27.10.2020
6276 Clouds 5 1012 95 10000 3.3 160 21:20 27.10.2020
6277 Clouds 8 1013 65 10000 1.79 194 20:50 27.10.2020
6278 Clouds 8 1013 73 10000 1.34 153 20:25 27.10.2020
6279 Clouds 7 1012 74 10000 0.89 198 19:58 27.10.2020
6280 Clouds 7 1012 93 10000 2.96 155 19:38 27.10.2020
6281 Clouds 7 1012 93 10000 2.96 155 19:20 27.10.2020
6282 Clouds 8 1013 73 10000 1.34 160 18:54 27.10.2020
6283 Clouds 8 1013 73 10000 1.79 228 18:36 27.10.2020
6284 Clouds 8 1011 70 10000 1.79 203 18:18 27.10.2020
6285 Clouds 9 1013 73 10000 0.45 158 17:40 27.10.2020
6286 Clouds 9 1010 77 10000 2.57 185 17:20 27.10.2020
6287 Clouds 10 1010 70 10000 2.57 185 16:46 27.10.2020
6288 Clouds 12 1010 63 10000 0.45 196 16:24 27.10.2020
6289 Clouds 12 1011 66 10000 1.34 190 15:43 27.10.2020
6290 Clouds 12 1011 65 10000 1.79 255 15:25 27.10.2020
6291 Clouds 12 1011 71 10000 0.89 184 14:52 27.10.2020
6292 Clouds 11 1011 72 10000 2.24 207 14:33 27.10.2020
6293 Clouds 11 1011 69 10000 2.68 185 13:59 27.10.2020
6294 Clouds 11 1011 73 10000 1.79 168 13:32 27.10.2020
6295 Clouds 11 1012 74 10000 1.79 177 12:57 27.10.2020
6296 Clouds 11 1012 74 10000 3.13 192 12:37 27.10.2020
6297 Clouds 11 1011 71 10000 1.34 161 12:19 27.10.2020
6298 Clouds 10 1011 71 10000 0.89 230 11:42 27.10.2020
6299 Clouds 10 1011 71 10000 1.79 165 11:22 27.10.2020
6300 Clouds 10 1011 73 10000 2.68 211 10:47 27.10.2020
6301 Clouds 10 1010 76 10000 4.13 201 10:25 27.10.2020
6302 Clouds 10 1011 73 10000 1.34 186 09:45 27.10.2020
6303 Rain 8 1013 76 10000 2.24 205 09:23 27.10.2020
6304 Clouds 9 1010 78 10000 3.13 155 08:39 27.10.2020
6305 Rain 8 1010 79 10000 1.79 235 08:19 27.10.2020
6306 Clouds 8 1010 81 10000 1.79 231 07:45 27.10.2020
6307 Clouds 8 1010 81 10000 2.68 213 07:25 27.10.2020
6308 Clouds 8 1009 89 10000 0.89 360 06:22 27.10.2020
6309 Clouds 8 1009 89 10000 0.89 360 06:22 27.10.2020
6310 Clouds 8 1009 90 10000 2.93 191 05:52 27.10.2020
6311 Clouds 8 1008 92 10000 0.45 271 05:34 27.10.2020
6312 Clouds 8 1008 95 10000 0.45 237 04:44 27.10.2020
6313 Clouds 7 1008 96 10000 2.7 181 02:33 27.10.2020
6314 Clouds 8 1008 82 10000 0.45 177 00:57 27.10.2020
6315 Clouds 7 1008 96 10000 2.65 172 23:46 26.10.2020
6316 Clouds 7 1008 96 10000 2.31 171 23:26 26.10.2020
6317 Clouds 7 1008 96 10000 2.31 171 22:49 26.10.2020
6318 Clouds 7 1008 96 10000 2.43 171 22:27 26.10.2020
6319 Rain 8 1008 96 10000 2.43 171 21:50 26.10.2020
6320 Rain 8 1008 96 10000 2.43 171 21:50 26.10.2020
6321 Clouds 8 1007 96 10000 2.36 170 21:21 26.10.2020
6322 Clouds 8 1007 96 10000 2.36 170 20:58 26.10.2020
6323 Clouds 8 1008 81 10000 0.45 203 20:40 26.10.2020
6324 Clouds 8 1007 80 10000 0.45 175 20:21 26.10.2020
6325 Clouds 8 1007 83 10000 2.38 166 19:47 26.10.2020
6326 Clouds 9 1007 80 10000 0.45 138 19:25 26.10.2020
6327 Clouds 8 1008 81 10000 0.45 144 18:46 26.10.2020
6328 Clouds 8 1007 82 10000 0.45 194 18:25 26.10.2020
6329 Clouds 8 1006 95 10000 3.28 172 17:59 26.10.2020
6330 Clouds 9 1006 80 10000 2.24 208 17:40 26.10.2020
6331 Clouds 9 1007 81 10000 1.34 177 17:22 26.10.2020
6332 Clouds 9 1006 84 10000 0.45 189 16:43 26.10.2020
6333 Clouds 9 1006 83 10000 0.89 165 16:22 26.10.2020
6334 Clouds 9 1006 86 10000 0.89 204 15:44 26.10.2020
6335 Rain 9 1006 86 10000 2.68 199 15:25 26.10.2020
6336 Clouds 9 1007 87 10000 1.79 224 14:56 26.10.2020
6337 Clouds 8 1006 88 10000 1.79 155 14:38 26.10.2020
6338 Clouds 8 1006 89 10000 3.13 197 13:48 26.10.2020
6339 Rain 8 1006 89 10000 1.34 181 13:29 26.10.2020
6340 Rain 7 1005 96 10000 3.47 207 12:58 26.10.2020
6341 Rain 8 1008 87 10000 1.79 157 12:40 26.10.2020
6342 Rain 8 1006 88 10000 3.13 220 12:20 26.10.2020
6343 Rain 8 1006 89 10000 0.89 221 11:46 26.10.2020
6344 Rain 8 1006 92 10000 3.61 197 11:23 26.10.2020
6345 Rain 8 1006 92 10000 3.61 197 10:57 26.10.2020
6346 Rain 8 1006 93 10000 1.34 212 10:38 26.10.2020
6347 Rain 8 1006 93 10000 1.79 216 10:19 26.10.2020
6348 Rain 8 1006 93 10000 0.89 216 09:42 26.10.2020
6349 Rain 8 1006 93 10000 1.34 177 09:19 26.10.2020
6350 Rain 8 1005 94 10000 2.24 215 08:28 26.10.2020
6351 Rain 8 1005 94 10000 4.52 210 07:52 26.10.2020
6352 Rain 9 1005 94 10000 0.89 204 07:33 26.10.2020
6353 Rain 9 1005 94 6377 2.24 197 06:37 26.10.2020
6354 Rain 10 1003 92 2907 1.34 215 04:22 26.10.2020
6355 Rain 11 1003 92 2907 0.89 177 03:33 26.10.2020
6356 Rain 12 1003 88 4752 3.26 213 01:38 26.10.2020
6357 Clouds 12 1003 90 10000 2.34 240 00:57 26.10.2020
6358 Clouds 12 1003 90 10000 0.45 203 00:32 26.10.2020
6359 Clouds 13 1003 86 10000 1.35 183 23:41 25.10.2020
6360 Clouds 13 1003 85 10000 1.79 165 23:21 25.10.2020
6361 Clouds 13 1003 85 10000 1.79 165 22:40 25.10.2020
6362 Rain 14 1004 74 10000 1.19 177 22:20 25.10.2020
6363 Clouds 12 1006 75 10000 0.45 146 21:41 25.10.2020
6364 Rain 14 1003 68 10000 2.03 210 21:22 25.10.2020
6365 Clouds 14 1004 68 10000 2.03 210 20:56 25.10.2020
6366 Clouds 14 1004 68 10000 2.03 210 20:37 25.10.2020
6367 Clouds 14 1005 73 10000 0.45 315 20:18 25.10.2020
6368 Clouds 15 1004 67 10000 2.15 136 19:48 25.10.2020
6369 Clouds 14 1007 70 10000 1.34 112 19:22 25.10.2020
6370 Clouds 15 1005 72 10000 2.31 132 18:55 25.10.2020
6371 Clouds 15 1005 72 10000 2.31 132 18:36 25.10.2020
6372 Clouds 14 1005 69 10000 2.77 136 18:18 25.10.2020
6373 Clouds 13 1007 64 10000 0.89 148 17:39 25.10.2020
6374 Clouds 14 1007 63 10000 0.89 249 17:21 25.10.2020
6375 Clouds 16 1006 55 10000 0.89 186 16:57 25.10.2020
6376 Clear 16 1005 52 10000 4.6 210 16:38 25.10.2020
6377 Clouds 18 1003 61 10000 2.08 205 16:18 25.10.2020
6378 Clouds 18 1004 50 10000 0.45 185 15:45 25.10.2020
6379 Clouds 19 1004 49 10000 1.77 209 15:25 25.10.2020
6380 Clouds 19 1005 46 10000 1.79 176 14:43 25.10.2020
6381 Clouds 19 1004 52 10000 3.01 217 14:24 25.10.2020
6382 Clouds 19 1006 45 10000 2.68 190 13:43 25.10.2020
6383 Clouds 19 1006 46 10000 1.34 111 13:21 25.10.2020
6384 Clouds 18 1007 47 10000 3.58 189 12:47 25.10.2020
6385 Clouds 18 1007 45 10000 3.13 199 12:26 25.10.2020
6386 Clouds 18 1007 45 10000 3.58 200 11:55 25.10.2020
6387 Clouds 18 1007 45 10000 3.13 195 11:37 25.10.2020
6388 Clouds 17 1007 55 10000 4.94 218 11:18 25.10.2020
6389 Clouds 17 1008 63 10000 4.94 218 10:44 25.10.2020
6390 Clouds 14 1007 84 10000 2.94 214 10:25 25.10.2020
6391 Clouds 12 1007 73 10000 2.94 214 09:48 25.10.2020
6392 Clear 10 1010 81 10000 3.6 190 09:20 25.10.2020
6393 Clear 10 1010 81 10000 3.6 190 08:47 25.10.2020
6394 Clouds 9 1008 87 10000 1.92 151 08:29 25.10.2020
6395 Clouds 8 1009 83 10000 1.92 151 07:53 25.10.2020
6396 Clouds 8 1009 83 10000 2.07 146 07:34 25.10.2020
6397 Clouds 9 1008 85 10000 1.92 149 06:51 25.10.2020
6398 Clouds 8 1009 91 10000 1.79 77 06:19 25.10.2020
6399 Clouds 8 1010 87 10000 1.95 155 04:53 25.10.2020
6400 Clouds 7 1010 90 10000 2.19 148 03:53 25.10.2020
6401 Clouds 8 1012 87 10000 0.45 100 02:19 25.10.2020
6402 Clouds 10 1013 87 10000 0.89 75 00:49 25.10.2020
6403 Clouds 10 1013 87 10000 0.89 75 00:49 25.10.2020
6404 Clouds 10 1013 86 10000 0.45 76 00:20 25.10.2020
6405 Clouds 10 1013 86 10000 0.89 55 23:54 24.10.2020
6406 Clear 10 1014 86 10000 2.26 151 23:26 24.10.2020
6407 Clear 11 1014 84 10000 2.26 151 22:57 24.10.2020
6408 Clear 11 1014 83 10000 2.26 151 22:38 24.10.2020
6409 Clear 11 1014 82 10000 2.56 153 22:20 24.10.2020
6410 Clear 11 1016 81 10000 0.45 203 21:43 24.10.2020
6411 Clear 11 1016 80 10000 0.89 203 21:21 24.10.2020
6412 Clear 11 1017 80 10000 0.89 203 20:49 24.10.2020
6413 Clear 11 1015 91 10000 2.92 157 20:25 24.10.2020
6414 Clear 12 1015 87 10000 2.92 157 19:57 24.10.2020
6415 Clear 12 1015 85 10000 2.88 153 19:37 24.10.2020
6416 Clear 12 1015 82 10000 2.29 165 19:19 24.10.2020
6417 Clear 13 1017 76 10000 0.89 172 18:46 24.10.2020
6418 Clear 14 1015 68 10000 0.45 188 18:26 24.10.2020
6419 Clear 14 1018 71 10000 1.34 228 17:42 24.10.2020
6420 Clear 15 1016 62 10000 2.68 214 17:22 24.10.2020
6421 Clear 15 1015 70 10000 2.82 216 16:47 24.10.2020
6422 Clear 16 1016 60 10000 3.58 187 16:28 24.10.2020
6423 Clear 15 1016 67 10000 2.24 236 15:41 24.10.2020
6424 Clear 15 1016 66 10000 2.68 209 15:20 24.10.2020
6425 Clear 15 1018 71 10000 1.34 225 14:57 24.10.2020
6426 Clouds 16 1017 69 10000 1.79 224 14:29 24.10.2020
6427 Clouds 15 1017 68 10000 2.68 186 13:50 24.10.2020
6428 Clouds 15 1017 71 10000 3.13 114 13:31 24.10.2020
6429 Clouds 15 1018 74 10000 1.34 191 12:59 24.10.2020
6430 Clouds 15 1017 76 10000 2.68 212 12:37 24.10.2020
6431 Clouds 15 1018 76 10000 1.79 205 12:19 24.10.2020
6432 Clouds 14 1018 82 10000 3.13 169 11:45 24.10.2020
6433 Clouds 14 1018 83 10000 2.68 176 11:20 24.10.2020
6434 Clouds 13 1018 84 10000 1.79 235 10:43 24.10.2020
6435 Clouds 13 1018 84 10000 2.24 138 10:25 24.10.2020
6436 Clouds 12 1017 85 10000 1.79 197 09:45 24.10.2020
6437 Clouds 13 1017 86 10000 1.34 186 09:26 24.10.2020
6438 Clouds 12 1017 87 10000 1.34 216 08:56 24.10.2020
6439 Clouds 12 1018 89 10000 0.45 203 08:19 24.10.2020
6440 Clouds 12 1016 94 10000 3.45 191 07:51 24.10.2020
6441 Rain 12 1017 89 10000 2.24 117 07:20 24.10.2020
6442 Clouds 12 1017 89 10000 2.24 182 06:50 24.10.2020
6443 Clouds 13 1016 91 10000 2.68 90 05:43 24.10.2020
6444 Clouds 13 1015 92 10000 0.45 203 02:20 24.10.2020
6445 Clouds 13 1015 92 10000 1.79 207 00:56 24.10.2020
6446 Rain 13 1015 92 10000 1.34 202 00:37 24.10.2020
6447 Rain 13 1015 92 10000 1.34 194 00:19 24.10.2020
6448 Rain 14 1015 90 10000 0.45 188 23:41 23.10.2020
6449 Rain 14 1014 89 7924 0.45 157 23:22 23.10.2020
6450 Rain 14 1014 90 7924 0.89 213 22:42 23.10.2020
6451 Rain 14 1014 90 10000 1.34 196 22:22 23.10.2020
6452 Clouds 14 1014 90 10000 1.34 204 21:58 23.10.2020
6453 Rain 14 1014 90 10000 1.79 151 21:39 23.10.2020
6454 Rain 14 1014 88 10000 1.79 148 21:20 23.10.2020
6455 Clouds 14 1014 87 10000 2.24 180 20:39 23.10.2020
6456 Rain 14 1013 87 10000 0.89 146 20:20 23.10.2020
6457 Clouds 14 1013 87 10000 1.34 196 19:45 23.10.2020
6458 Clouds 14 1013 87 10000 1.79 231 19:26 23.10.2020
6459 Clouds 14 1012 89 10000 1.34 213 18:48 23.10.2020
6460 Rain 14 1012 90 10000 1.79 88 18:30 23.10.2020
6461 Clouds 14 1012 92 10000 0.89 159 17:47 23.10.2020
6462 Rain 14 1012 92 8198 0.45 226 17:22 23.10.2020
6463 Rain 14 1011 93 8198 0.45 150 16:55 23.10.2020
6464 Rain 14 1012 94 8198 1.79 157 16:35 23.10.2020
6465 Clouds 15 1011 94 10000 3.79 203 15:58 23.10.2020
6466 Rain 15 1011 94 10000 3.79 203 15:40 23.10.2020
6467 Rain 15 1012 94 7442 3.55 215 15:20 23.10.2020
6468 Rain 14 1011 94 7442 3.55 215 14:49 23.10.2020
6469 Rain 15 1012 94 7803 1.87 225 14:30 23.10.2020
6470 Rain 15 1011 94 7803 1.87 225 13:44 23.10.2020
6471 Rain 15 1012 94 10000 2.38 128 13:24 23.10.2020
6472 Rain 15 1012 95 10000 2.38 128 12:51 23.10.2020
6473 Rain 15 1012 94 9005 1.75 156 12:31 23.10.2020
6474 Rain 15 1012 95 9005 1.75 156 11:59 23.10.2020
6475 Rain 14 1012 95 9005 1.75 156 11:41 23.10.2020
6476 Rain 14 1012 95 7206 1.7 156 11:20 23.10.2020
6477 Rain 14 1012 95 7206 1.7 156 10:39 23.10.2020
6478 Rain 14 1012 95 9851 1.75 152 10:20 23.10.2020
6479 Rain 14 1013 95 9851 1.75 152 09:43 23.10.2020
6480 Rain 14 1013 95 10000 1.92 148 09:23 23.10.2020
6481 Rain 13 1012 95 10000 1.92 148 08:52 23.10.2020
6482 Rain 14 1012 95 10000 1.81 155 08:28 23.10.2020
6483 Rain 13 1013 95 6963 1.49 163 07:30 23.10.2020
6484 Rain 13 1013 95 6963 1.49 163 06:54 23.10.2020
6485 Rain 13 1013 95 6671 1.67 169 06:20 23.10.2020
6486 Rain 14 1014 94 10000 1.78 179 04:45 23.10.2020
6487 Rain 14 1015 94 10000 2.18 169 02:32 23.10.2020
6488 Rain 15 1014 94 10000 1.62 166 01:22 23.10.2020
6489 Rain 14 1014 94 10000 1.62 166 00:33 23.10.2020
6490 Rain 14 1014 93 10000 1.63 162 23:40 22.10.2020
6491 Rain 14 1014 93 10000 1.91 187 23:22 22.10.2020
6492 Clouds 14 1014 93 10000 1.91 187 22:48 22.10.2020
6493 Clouds 14 1014 93 10000 2.19 163 22:26 22.10.2020
6494 Clouds 14 1015 92 10000 2.19 163 21:58 22.10.2020
6495 Rain 14 1015 92 10000 2.19 163 21:40 22.10.2020
6496 Clouds 14 1015 92 10000 3.33 158 21:20 22.10.2020
6497 Clouds 15 1015 91 10000 3.33 158 20:44 22.10.2020
6498 Rain 15 1015 90 10000 3.6 189 20:25 22.10.2020
6499 Clouds 15 1015 88 10000 3.6 189 19:44 22.10.2020
6500 Rain 15 1015 88 10000 3.09 189 19:21 22.10.2020
6501 Rain 15 1015 85 10000 3.09 189 18:59 22.10.2020
6502 Rain 15 1015 84 10000 3.09 189 18:39 22.10.2020
6503 Rain 16 1015 82 10000 0.45 129 18:19 22.10.2020
6504 Rain 17 1014 79 10000 3.07 174 17:45 22.10.2020
6505 Rain 18 1015 70 10000 2.68 236 17:22 22.10.2020
6506 Clear 19 1015 46 10000 3.6 190 16:45 22.10.2020
6507 Clouds 20 1013 64 10000 2.82 218 16:25 22.10.2020
6508 Clouds 20 1013 64 10000 2.82 218 16:25 22.10.2020
6509 Clouds 20 1012 62 10000 2.82 218 15:50 22.10.2020
6510 Clouds 22 1012 59 10000 2 226 15:27 22.10.2020
6511 Clouds 22 1012 60 10000 2 226 14:58 22.10.2020
6512 Clouds 21 1013 59 10000 0.45 232 14:38 22.10.2020
6513 Clouds 20 1013 65 10000 1.05 243 14:20 22.10.2020
6514 Clouds 20 1013 73 10000 1.05 243 13:43 22.10.2020
6515 Clouds 19 1013 74 10000 0.66 225 13:22 22.10.2020
6516 Clouds 18 1014 74 10000 0.66 225 12:43 22.10.2020
6517 Clouds 18 1014 74 10000 0.57 186 12:22 22.10.2020
6518 Clouds 17 1014 77 10000 0.57 186 11:45 22.10.2020
6519 Clouds 17 1014 79 10000 0.96 174 11:19 22.10.2020
6520 Clouds 16 1015 75 10000 0.96 174 10:49 22.10.2020
6521 Clouds 15 1015 76 10000 1.18 156 10:25 22.10.2020
6522 Clouds 14 1015 78 10000 1.18 156 09:44 22.10.2020
6523 Clouds 13 1015 77 10000 1.92 137 09:22 22.10.2020
6524 Clouds 13 1014 73 10000 1.92 137 08:43 22.10.2020
6525 Clouds 13 1014 72 10000 1.8 146 08:25 22.10.2020
6526 Clouds 14 1014 70 10000 1.8 146 07:48 22.10.2020
6527 Clouds 14 1014 69 10000 0.45 78 07:29 22.10.2020
6528 Clouds 14 1013 79 10000 2.15 160 06:46 22.10.2020
6529 Clouds 14 1016 67 10000 0.89 139 06:24 22.10.2020
6530 Clouds 15 1016 65 10000 0.45 157 05:39 22.10.2020
6531 Clouds 11 1017 85 10000 2.69 173 03:26 22.10.2020
6532 Clouds 15 1015 63 10000 0.45 202 01:35 22.10.2020
6533 Clouds 16 1015 62 10000 1.79 193 00:24 22.10.2020
6534 Clouds 12 1014 62 10000 1.5 150 23:44 21.10.2020
6535 Clouds 12 1014 62 10000 1.5 150 23:22 21.10.2020
6536 Clouds 12 1016 81 10000 3.1 178 22:39 21.10.2020
6537 Clouds 11 1016 80 10000 2.7 166 22:19 21.10.2020
6538 Clouds 11 1016 80 10000 2.7 166 21:56 21.10.2020
6539 Clouds 11 1015 78 10000 2.7 166 21:37 21.10.2020
6540 Clouds 11 1015 78 10000 2.89 205 21:18 21.10.2020
6541 Clouds 15 1013 56 10000 0.45 90 20:45 21.10.2020
6542 Clouds 15 1013 55 10000 0.45 202 20:18 21.10.2020
6543 Clouds 15 1014 72 10000 1.88 190 19:43 21.10.2020
6544 Clouds 15 1010 69 10000 2.3 201 19:25 21.10.2020
6545 Clouds 15 1011 56 10000 1.79 322 18:54 21.10.2020
6546 Clouds 16 1009 63 10000 1.07 193 18:32 21.10.2020
6547 Clouds 18 1009 58 10000 1.07 193 17:55 21.10.2020
6548 Clouds 17 1009 60 10000 1.07 193 17:37 21.10.2020
6549 Clouds 18 1009 57 10000 0.89 57 17:18 21.10.2020
6550 Clouds 19 1008 60 10000 0.89 236 16:40 21.10.2020
6551 Clouds 19 1009 50 10000 1.62 249 16:21 21.10.2020
6552 Clouds 19 1009 50 10000 1.62 249 16:21 21.10.2020
6553 Clouds 19 1008 53 10000 1.62 249 15:49 21.10.2020
6554 Clouds 19 1008 56 10000 2.61 216 15:29 21.10.2020
6555 Clouds 19 1008 54 10000 2.61 216 14:58 21.10.2020
6556 Clouds 18 1007 70 10000 2.61 216 14:40 21.10.2020
6557 Clouds 18 1008 55 10000 2.63 248 14:22 21.10.2020
6558 Clouds 17 1008 67 10000 2.63 248 13:42 21.10.2020
6559 Clouds 16 1009 68 10000 1.75 237 13:23 21.10.2020
6560 Clouds 16 1008 67 10000 1.75 237 12:43 21.10.2020
6561 Clouds 16 1008 67 10000 1.03 234 12:23 21.10.2020
6562 Clouds 15 1008 71 10000 1.03 234 11:56 21.10.2020
6563 Clouds 14 1008 76 10000 1.03 234 11:37 21.10.2020
6564 Clouds 13 1008 78 10000 1.67 266 11:18 21.10.2020
6565 Clouds 13 1009 81 10000 1.67 266 10:41 21.10.2020
6566 Clouds 12 1009 81 10000 1.31 116 10:21 21.10.2020
6567 Clouds 11 1009 85 10000 1.31 116 09:51 21.10.2020
6568 Clouds 10 1009 86 10000 0.84 210 09:28 21.10.2020
6569 Clouds 10 1008 84 10000 0.84 210 08:42 21.10.2020
6570 Clouds 10 1008 82 10000 1.24 195 08:24 21.10.2020
6571 Clouds 10 1007 81 10000 1.24 195 07:57 21.10.2020
6572 Clouds 10 1007 81 10000 1.43 134 07:29 21.10.2020
6573 Clouds 10 1007 84 10000 1.43 134 06:48 21.10.2020
6574 Clouds 10 1008 85 10000 1.44 115 06:26 21.10.2020
6575 Clouds 9 1008 86 10000 0.61 130 04:45 21.10.2020
6576 Clouds 11 1010 78 10000 1.35 155 00:50 21.10.2020
6577 Clouds 11 1010 75 10000 1.39 134 23:42 20.10.2020
6578 Clouds 11 1012 84 10000 1.7 132 22:52 20.10.2020
6579 Clouds 12 1011 72 10000 1.39 141 22:27 20.10.2020
6580 Clouds 12 1011 72 10000 1.39 141 22:27 20.10.2020
6581 Clouds 13 1011 70 10000 0.89 63 21:48 20.10.2020
6582 Clouds 13 1011 69 10000 0.45 83 21:20 20.10.2020
6583 Clouds 13 1013 74 10000 1.16 140 20:44 20.10.2020
6584 Clouds 13 1014 73 10000 2.07 125 20:25 20.10.2020
6585 Clouds 13 1014 73 10000 2.07 125 20:25 20.10.2020
6586 Clouds 13 1012 85 10000 2.07 125 19:58 20.10.2020
6587 Clouds 13 1012 85 10000 1.81 131 19:40 20.10.2020
6588 Clouds 13 1013 69 10000 1.18 166 19:21 20.10.2020
6589 Clouds 13 1013 72 10000 0.5 0 18:47 20.10.2020
6590 Clouds 14 1012 78 10000 1.37 216 18:27 20.10.2020
6591 Clouds 15 1014 83 10000 1.37 216 17:43 20.10.2020
6592 Clouds 17 1012 76 10000 0.64 152 17:24 20.10.2020
6593 Clouds 17 1012 67 10000 0.64 152 16:48 20.10.2020
6594 Clouds 18 1012 61 10000 1.57 266 16:27 20.10.2020
6595 Clouds 18 1012 60 10000 1.57 266 15:56 20.10.2020
6596 Clouds 18 1014 60 10000 1.57 266 15:38 20.10.2020
6597 Clouds 18 1014 65 10000 1.91 258 15:19 20.10.2020
6598 Clouds 18 1012 60 10000 1.91 258 14:41 20.10.2020
6599 Clouds 18 1012 58 10000 1.65 231 14:22 20.10.2020
6600 Clouds 16 1015 63 10000 0.45 203 13:44 20.10.2020
6601 Clouds 16 1014 62 10000 1.43 253 13:23 20.10.2020
6602 Clouds 15 1016 57 10000 0.45 203 12:58 20.10.2020
6603 Clouds 15 1014 73 10000 1.43 253 12:40 20.10.2020
6604 Clouds 15 1014 73 10000 1.32 250 12:21 20.10.2020
6605 Clouds 13 1015 73 10000 1.32 250 11:43 20.10.2020
6606 Clouds 12 1014 92 10000 1.61 239 11:25 20.10.2020
6607 Clouds 10 1017 88 10000 1.61 239 10:38 20.10.2020
6608 Clouds 9 1017 88 10000 1.14 177 10:19 20.10.2020
6609 Clouds 9 1017 89 10000 1.14 177 09:42 20.10.2020
6610 Clouds 8 1017 89 10000 1.46 164 09:18 20.10.2020
6611 Clouds 8 1017 90 10000 1.46 164 08:39 20.10.2020
6612 Clouds 4 1015 93 7000 1 0 07:53 20.10.2020
6613 Clouds 4 1015 86 10000 1.5 0 07:26 20.10.2020
6614 Clouds 5 1017 96 10000 0.45 129 06:32 20.10.2020
6615 Clouds 5 1015 90 10000 1.43 157 05:51 20.10.2020
6616 Clouds 5 1015 90 10000 1.31 170 03:58 20.10.2020
6617 Clouds 5 1016 89 10000 1.32 156 02:30 20.10.2020
6618 Clouds 6 1016 87 10000 1.72 144 01:20 20.10.2020
6619 Clouds 6 1016 86 10000 1.72 144 00:49 20.10.2020
6620 Clouds 6 1016 85 10000 1.75 129 00:22 20.10.2020
6621 Clouds 6 1017 83 10000 1.75 129 23:47 19.10.2020
6622 Clouds 6 1017 83 10000 1.7 144 23:24 19.10.2020
6623 Clouds 6 1017 83 10000 1.7 144 22:47 19.10.2020
6624 Clouds 7 1017 81 10000 1.49 142 22:25 19.10.2020
6625 Clouds 8 1017 81 10000 1.49 142 21:49 19.10.2020
6626 Clouds 8 1017 81 10000 0.45 53 21:23 19.10.2020
6627 Clouds 7 1018 79 10000 0.89 71 20:52 19.10.2020
6628 Clouds 8 1018 79 10000 1.34 102 20:33 19.10.2020
6629 Clouds 9 1017 81 10000 2.09 119 19:59 19.10.2020
6630 Clouds 8 1017 82 10000 2.17 122 19:41 19.10.2020
6631 Clear 9 1018 76 10000 1.85 107 19:19 19.10.2020
6632 Clear 11 1020 78 10000 0.89 153 18:43 19.10.2020
6633 Clear 8 1019 81 10000 0.97 81 18:19 19.10.2020
6634 Clear 13 1019 44 10000 2.1 120 17:46 19.10.2020
6635 Clear 13 1020 58 10000 0.95 315 17:26 19.10.2020
6636 Clear 15 1018 59 10000 0.95 315 16:52 19.10.2020
6637 Clear 14 1018 59 10000 0.61 304 16:28 19.10.2020
6638 Clear 14 1021 58 10000 0.89 311 15:46 19.10.2020
6639 Clear 14 1018 58 10000 1.41 287 15:25 19.10.2020
6640 Clear 14 1019 61 10000 1.34 239 14:57 19.10.2020
6641 Clouds 13 1019 61 10000 1.79 241 14:28 19.10.2020
6642 Clouds 12 1019 66 10000 0.89 241 13:59 19.10.2020
6643 Clouds 12 1020 64 10000 1.79 240 13:41 19.10.2020
6644 Clouds 11 1022 82 10000 1.62 278 13:22 19.10.2020
6645 Clouds 11 1022 80 10000 1.62 278 12:43 19.10.2020
6646 Clouds 10 1022 81 10000 0.45 270 12:25 19.10.2020
6647 Clouds 10 1021 65 10000 0.56 320 11:42 19.10.2020
6648 Clouds 9 1021 72 10000 0.27 276 11:21 19.10.2020
6649 Clouds 8 1025 85 10000 0.45 342 10:44 19.10.2020
6650 Clouds 8 1022 89 10000 0.09 104 10:23 19.10.2020
6651 Clouds 9 1022 87 10000 0.09 104 09:56 19.10.2020
6652 Clouds 6 1021 92 10000 1.37 130 09:25 19.10.2020
6653 Clouds 6 1021 92 10000 1.37 130 08:59 19.10.2020
6654 Clouds 3 1022 88 10000 1.73 128 08:41 19.10.2020
6655 Clouds 3 1022 88 10000 1.73 128 08:20 19.10.2020
6656 Clouds 6 1024 91 10000 1.93 128 07:20 19.10.2020
6657 Clouds 6 1024 90 10000 1.93 128 06:36 19.10.2020
6658 Clouds 8 1023 88 10000 1.83 125 05:20 19.10.2020
6659 Clouds 6 1025 88 10000 1.72 132 03:45 19.10.2020
6660 Clouds 7 1022 80 10000 1.68 127 01:42 19.10.2020
6661 Clouds 8 1022 89 10000 1.75 126 00:38 19.10.2020
6662 Clouds 8 1023 78 10000 1.52 129 23:56 18.10.2020
6663 Clouds 8 1023 78 10000 1.52 129 23:37 18.10.2020
6664 Clouds 8 1022 79 10000</